<?xml version="1.0" encoding="UTF-8"?>
<gpx creator="Wikiloc - http://www.wikiloc.com" version="1.1" xmlns="http://www.topografix.com/GPX/1/1" xmlns:xsi="http://www.w3.org/2001/XMLSchema-instance" xsi:schemaLocation="http://www.topografix.com/GPX/1/1 http://www.topografix.com/GPX/1/1/gpx.xsd">
  <trk>
    <name>Parapente - Cross Chamonix - Estación Esquí Le Tour</name>
    <cmt>Vuelo de distancia despegando desde Chamonix-Brevent y aterrizando en la estación de esquí de Le Tour

Despegue Brevent en chamonix...saltando al otro lado del valle, pasando por le mar de glace, remontando haciendo ladera con la brisa del valle, para dar el salto y llegar a Argentiere y pasar por su Glaciar, de nuevo remontando y cogiendo altura haciendo ladera y volando al Glaciar de Le Tour, aterrizando en la estación de esqui de Le Tour</cmt>
    <desc>Vuelo de distancia despegando desde Chamonix-Brevent y aterrizando en la estación de esquí de Le Tour

Despegue Brevent en chamonix...saltando al otro lado del valle, pasando por le mar de glace, remontando haciendo ladera con la brisa del valle, para dar el salto y llegar a Argentiere y pasar por su Glaciar, de nuevo remontando y cogiendo altura haciendo ladera y volando al Glaciar de Le Tour, aterrizando en la estación de esqui de Le Tour</desc>
    <trkseg>
      <trkpt lat="45.936300" lon="6.850983">
        <ele>2039.0</ele>
        <time>2014-08-30T14:31:54Z</time>
      </trkpt>
      <trkpt lat="45.936217" lon="6.851000">
        <ele>2035.0</ele>
        <time>2014-08-30T14:31:55Z</time>
      </trkpt>
      <trkpt lat="45.936150" lon="6.851017">
        <ele>2032.0</ele>
        <time>2014-08-30T14:31:56Z</time>
      </trkpt>
      <trkpt lat="45.936067" lon="6.850983">
        <ele>2031.0</ele>
        <time>2014-08-30T14:31:57Z</time>
      </trkpt>
      <trkpt lat="45.936000" lon="6.850917">
        <ele>2030.0</ele>
        <time>2014-08-30T14:31:58Z</time>
      </trkpt>
      <trkpt lat="45.935917" lon="6.850850">
        <ele>2030.0</ele>
        <time>2014-08-30T14:31:59Z</time>
      </trkpt>
      <trkpt lat="45.935850" lon="6.850800">
        <ele>2031.0</ele>
        <time>2014-08-30T14:32:00Z</time>
      </trkpt>
      <trkpt lat="45.935783" lon="6.850767">
        <ele>2032.0</ele>
        <time>2014-08-30T14:32:01Z</time>
      </trkpt>
      <trkpt lat="45.935717" lon="6.850750">
        <ele>2031.0</ele>
        <time>2014-08-30T14:32:02Z</time>
      </trkpt>
      <trkpt lat="45.935650" lon="6.850700">
        <ele>2029.0</ele>
        <time>2014-08-30T14:32:03Z</time>
      </trkpt>
      <trkpt lat="45.935583" lon="6.850633">
        <ele>2027.0</ele>
        <time>2014-08-30T14:32:04Z</time>
      </trkpt>
      <trkpt lat="45.935500" lon="6.850567">
        <ele>2025.0</ele>
        <time>2014-08-30T14:32:05Z</time>
      </trkpt>
      <trkpt lat="45.935417" lon="6.850533">
        <ele>2024.0</ele>
        <time>2014-08-30T14:32:06Z</time>
      </trkpt>
      <trkpt lat="45.935317" lon="6.850517">
        <ele>2023.0</ele>
        <time>2014-08-30T14:32:07Z</time>
      </trkpt>
      <trkpt lat="45.935233" lon="6.850533">
        <ele>2023.0</ele>
        <time>2014-08-30T14:32:08Z</time>
      </trkpt>
      <trkpt lat="45.935167" lon="6.850533">
        <ele>2022.0</ele>
        <time>2014-08-30T14:32:09Z</time>
      </trkpt>
      <trkpt lat="45.935100" lon="6.850567">
        <ele>2021.0</ele>
        <time>2014-08-30T14:32:10Z</time>
      </trkpt>
      <trkpt lat="45.935017" lon="6.850600">
        <ele>2020.0</ele>
        <time>2014-08-30T14:32:11Z</time>
      </trkpt>
      <trkpt lat="45.934950" lon="6.850650">
        <ele>2019.0</ele>
        <time>2014-08-30T14:32:12Z</time>
      </trkpt>
      <trkpt lat="45.934883" lon="6.850717">
        <ele>2019.0</ele>
        <time>2014-08-30T14:32:13Z</time>
      </trkpt>
      <trkpt lat="45.934817" lon="6.850800">
        <ele>2018.0</ele>
        <time>2014-08-30T14:32:14Z</time>
      </trkpt>
      <trkpt lat="45.934767" lon="6.850900">
        <ele>2017.0</ele>
        <time>2014-08-30T14:32:15Z</time>
      </trkpt>
      <trkpt lat="45.934717" lon="6.851000">
        <ele>2017.0</ele>
        <time>2014-08-30T14:32:16Z</time>
      </trkpt>
      <trkpt lat="45.934667" lon="6.851117">
        <ele>2015.0</ele>
        <time>2014-08-30T14:32:17Z</time>
      </trkpt>
      <trkpt lat="45.934633" lon="6.851233">
        <ele>2013.0</ele>
        <time>2014-08-30T14:32:18Z</time>
      </trkpt>
      <trkpt lat="45.934600" lon="6.851367">
        <ele>2011.0</ele>
        <time>2014-08-30T14:32:19Z</time>
      </trkpt>
      <trkpt lat="45.934567" lon="6.851483">
        <ele>2010.0</ele>
        <time>2014-08-30T14:32:20Z</time>
      </trkpt>
      <trkpt lat="45.934550" lon="6.851600">
        <ele>2009.0</ele>
        <time>2014-08-30T14:32:21Z</time>
      </trkpt>
      <trkpt lat="45.934517" lon="6.851717">
        <ele>2008.0</ele>
        <time>2014-08-30T14:32:22Z</time>
      </trkpt>
      <trkpt lat="45.934500" lon="6.851833">
        <ele>2006.0</ele>
        <time>2014-08-30T14:32:23Z</time>
      </trkpt>
      <trkpt lat="45.934467" lon="6.851950">
        <ele>2004.0</ele>
        <time>2014-08-30T14:32:24Z</time>
      </trkpt>
      <trkpt lat="45.934433" lon="6.852083">
        <ele>2002.0</ele>
        <time>2014-08-30T14:32:25Z</time>
      </trkpt>
      <trkpt lat="45.934417" lon="6.852217">
        <ele>2001.0</ele>
        <time>2014-08-30T14:32:26Z</time>
      </trkpt>
      <trkpt lat="45.934400" lon="6.852333">
        <ele>2000.0</ele>
        <time>2014-08-30T14:32:27Z</time>
      </trkpt>
      <trkpt lat="45.934400" lon="6.852450">
        <ele>1999.0</ele>
        <time>2014-08-30T14:32:28Z</time>
      </trkpt>
      <trkpt lat="45.934400" lon="6.852583">
        <ele>1997.0</ele>
        <time>2014-08-30T14:32:29Z</time>
      </trkpt>
      <trkpt lat="45.934400" lon="6.852717">
        <ele>1995.0</ele>
        <time>2014-08-30T14:32:30Z</time>
      </trkpt>
      <trkpt lat="45.934400" lon="6.852867">
        <ele>1993.0</ele>
        <time>2014-08-30T14:32:31Z</time>
      </trkpt>
      <trkpt lat="45.934400" lon="6.853017">
        <ele>1991.0</ele>
        <time>2014-08-30T14:32:32Z</time>
      </trkpt>
      <trkpt lat="45.934400" lon="6.853150">
        <ele>1991.0</ele>
        <time>2014-08-30T14:32:33Z</time>
      </trkpt>
      <trkpt lat="45.934400" lon="6.853283">
        <ele>1990.0</ele>
        <time>2014-08-30T14:32:34Z</time>
      </trkpt>
      <trkpt lat="45.934400" lon="6.853400">
        <ele>1989.0</ele>
        <time>2014-08-30T14:32:35Z</time>
      </trkpt>
      <trkpt lat="45.934400" lon="6.853550">
        <ele>1988.0</ele>
        <time>2014-08-30T14:32:36Z</time>
      </trkpt>
      <trkpt lat="45.934400" lon="6.853683">
        <ele>1987.0</ele>
        <time>2014-08-30T14:32:37Z</time>
      </trkpt>
      <trkpt lat="45.934400" lon="6.853817">
        <ele>1986.0</ele>
        <time>2014-08-30T14:32:38Z</time>
      </trkpt>
      <trkpt lat="45.934400" lon="6.853933">
        <ele>1984.0</ele>
        <time>2014-08-30T14:32:39Z</time>
      </trkpt>
      <trkpt lat="45.934400" lon="6.854067">
        <ele>1982.0</ele>
        <time>2014-08-30T14:32:40Z</time>
      </trkpt>
      <trkpt lat="45.934417" lon="6.854217">
        <ele>1980.0</ele>
        <time>2014-08-30T14:32:41Z</time>
      </trkpt>
      <trkpt lat="45.934417" lon="6.854367">
        <ele>1978.0</ele>
        <time>2014-08-30T14:32:42Z</time>
      </trkpt>
      <trkpt lat="45.934450" lon="6.854500">
        <ele>1977.0</ele>
        <time>2014-08-30T14:32:43Z</time>
      </trkpt>
      <trkpt lat="45.934483" lon="6.854633">
        <ele>1976.0</ele>
        <time>2014-08-30T14:32:44Z</time>
      </trkpt>
      <trkpt lat="45.934533" lon="6.854750">
        <ele>1976.0</ele>
        <time>2014-08-30T14:32:45Z</time>
      </trkpt>
      <trkpt lat="45.934583" lon="6.854850">
        <ele>1974.0</ele>
        <time>2014-08-30T14:32:46Z</time>
      </trkpt>
      <trkpt lat="45.934633" lon="6.854967">
        <ele>1972.0</ele>
        <time>2014-08-30T14:32:47Z</time>
      </trkpt>
      <trkpt lat="45.934700" lon="6.855083">
        <ele>1970.0</ele>
        <time>2014-08-30T14:32:48Z</time>
      </trkpt>
      <trkpt lat="45.934783" lon="6.855200">
        <ele>1968.0</ele>
        <time>2014-08-30T14:32:49Z</time>
      </trkpt>
      <trkpt lat="45.934867" lon="6.855300">
        <ele>1966.0</ele>
        <time>2014-08-30T14:32:50Z</time>
      </trkpt>
      <trkpt lat="45.934933" lon="6.855383">
        <ele>1966.0</ele>
        <time>2014-08-30T14:32:51Z</time>
      </trkpt>
      <trkpt lat="45.935000" lon="6.855483">
        <ele>1965.0</ele>
        <time>2014-08-30T14:32:52Z</time>
      </trkpt>
      <trkpt lat="45.935050" lon="6.855583">
        <ele>1963.0</ele>
        <time>2014-08-30T14:32:53Z</time>
      </trkpt>
      <trkpt lat="45.935100" lon="6.855700">
        <ele>1960.0</ele>
        <time>2014-08-30T14:32:54Z</time>
      </trkpt>
      <trkpt lat="45.935167" lon="6.855800">
        <ele>1956.0</ele>
        <time>2014-08-30T14:32:55Z</time>
      </trkpt>
      <trkpt lat="45.935233" lon="6.855917">
        <ele>1953.0</ele>
        <time>2014-08-30T14:32:56Z</time>
      </trkpt>
      <trkpt lat="45.935300" lon="6.856033">
        <ele>1950.0</ele>
        <time>2014-08-30T14:32:57Z</time>
      </trkpt>
      <trkpt lat="45.935367" lon="6.856150">
        <ele>1947.0</ele>
        <time>2014-08-30T14:32:58Z</time>
      </trkpt>
      <trkpt lat="45.935433" lon="6.856267">
        <ele>1945.0</ele>
        <time>2014-08-30T14:32:59Z</time>
      </trkpt>
      <trkpt lat="45.935500" lon="6.856383">
        <ele>1942.0</ele>
        <time>2014-08-30T14:33:00Z</time>
      </trkpt>
      <trkpt lat="45.935567" lon="6.856500">
        <ele>1938.0</ele>
        <time>2014-08-30T14:33:01Z</time>
      </trkpt>
      <trkpt lat="45.935650" lon="6.856617">
        <ele>1935.0</ele>
        <time>2014-08-30T14:33:02Z</time>
      </trkpt>
      <trkpt lat="45.935733" lon="6.856733">
        <ele>1933.0</ele>
        <time>2014-08-30T14:33:03Z</time>
      </trkpt>
      <trkpt lat="45.935817" lon="6.856867">
        <ele>1933.0</ele>
        <time>2014-08-30T14:33:04Z</time>
      </trkpt>
      <trkpt lat="45.935883" lon="6.856983">
        <ele>1932.0</ele>
        <time>2014-08-30T14:33:05Z</time>
      </trkpt>
      <trkpt lat="45.935950" lon="6.857083">
        <ele>1929.0</ele>
        <time>2014-08-30T14:33:06Z</time>
      </trkpt>
      <trkpt lat="45.936000" lon="6.857200">
        <ele>1925.0</ele>
        <time>2014-08-30T14:33:07Z</time>
      </trkpt>
      <trkpt lat="45.936083" lon="6.857317">
        <ele>1920.0</ele>
        <time>2014-08-30T14:33:08Z</time>
      </trkpt>
      <trkpt lat="45.936167" lon="6.857450">
        <ele>1917.0</ele>
        <time>2014-08-30T14:33:09Z</time>
      </trkpt>
      <trkpt lat="45.936250" lon="6.857567">
        <ele>1915.0</ele>
        <time>2014-08-30T14:33:10Z</time>
      </trkpt>
      <trkpt lat="45.936333" lon="6.857667">
        <ele>1913.0</ele>
        <time>2014-08-30T14:33:11Z</time>
      </trkpt>
      <trkpt lat="45.936417" lon="6.857750">
        <ele>1911.0</ele>
        <time>2014-08-30T14:33:12Z</time>
      </trkpt>
      <trkpt lat="45.936500" lon="6.857833">
        <ele>1908.0</ele>
        <time>2014-08-30T14:33:13Z</time>
      </trkpt>
      <trkpt lat="45.936583" lon="6.857917">
        <ele>1905.0</ele>
        <time>2014-08-30T14:33:14Z</time>
      </trkpt>
      <trkpt lat="45.936683" lon="6.858017">
        <ele>1902.0</ele>
        <time>2014-08-30T14:33:15Z</time>
      </trkpt>
      <trkpt lat="45.936783" lon="6.858100">
        <ele>1899.0</ele>
        <time>2014-08-30T14:33:16Z</time>
      </trkpt>
      <trkpt lat="45.936867" lon="6.858167">
        <ele>1898.0</ele>
        <time>2014-08-30T14:33:17Z</time>
      </trkpt>
      <trkpt lat="45.936967" lon="6.858233">
        <ele>1896.0</ele>
        <time>2014-08-30T14:33:18Z</time>
      </trkpt>
      <trkpt lat="45.937067" lon="6.858300">
        <ele>1893.0</ele>
        <time>2014-08-30T14:33:19Z</time>
      </trkpt>
      <trkpt lat="45.937167" lon="6.858367">
        <ele>1891.0</ele>
        <time>2014-08-30T14:33:20Z</time>
      </trkpt>
      <trkpt lat="45.937267" lon="6.858433">
        <ele>1889.0</ele>
        <time>2014-08-30T14:33:21Z</time>
      </trkpt>
      <trkpt lat="45.937367" lon="6.858500">
        <ele>1887.0</ele>
        <time>2014-08-30T14:33:22Z</time>
      </trkpt>
      <trkpt lat="45.937450" lon="6.858550">
        <ele>1886.0</ele>
        <time>2014-08-30T14:33:23Z</time>
      </trkpt>
      <trkpt lat="45.937550" lon="6.858600">
        <ele>1884.0</ele>
        <time>2014-08-30T14:33:24Z</time>
      </trkpt>
      <trkpt lat="45.937650" lon="6.858633">
        <ele>1882.0</ele>
        <time>2014-08-30T14:33:25Z</time>
      </trkpt>
      <trkpt lat="45.937750" lon="6.858683">
        <ele>1880.0</ele>
        <time>2014-08-30T14:33:26Z</time>
      </trkpt>
      <trkpt lat="45.937850" lon="6.858750">
        <ele>1879.0</ele>
        <time>2014-08-30T14:33:27Z</time>
      </trkpt>
      <trkpt lat="45.937950" lon="6.858817">
        <ele>1877.0</ele>
        <time>2014-08-30T14:33:28Z</time>
      </trkpt>
      <trkpt lat="45.938033" lon="6.858883">
        <ele>1876.0</ele>
        <time>2014-08-30T14:33:29Z</time>
      </trkpt>
      <trkpt lat="45.938133" lon="6.858933">
        <ele>1874.0</ele>
        <time>2014-08-30T14:33:30Z</time>
      </trkpt>
      <trkpt lat="45.938217" lon="6.858983">
        <ele>1871.0</ele>
        <time>2014-08-30T14:33:31Z</time>
      </trkpt>
      <trkpt lat="45.938317" lon="6.859050">
        <ele>1869.0</ele>
        <time>2014-08-30T14:33:32Z</time>
      </trkpt>
      <trkpt lat="45.938417" lon="6.859117">
        <ele>1867.0</ele>
        <time>2014-08-30T14:33:33Z</time>
      </trkpt>
      <trkpt lat="45.938517" lon="6.859183">
        <ele>1865.0</ele>
        <time>2014-08-30T14:33:34Z</time>
      </trkpt>
      <trkpt lat="45.938617" lon="6.859250">
        <ele>1864.0</ele>
        <time>2014-08-30T14:33:35Z</time>
      </trkpt>
      <trkpt lat="45.938700" lon="6.859317">
        <ele>1863.0</ele>
        <time>2014-08-30T14:33:36Z</time>
      </trkpt>
      <trkpt lat="45.938800" lon="6.859383">
        <ele>1861.0</ele>
        <time>2014-08-30T14:33:37Z</time>
      </trkpt>
      <trkpt lat="45.938883" lon="6.859450">
        <ele>1860.0</ele>
        <time>2014-08-30T14:33:38Z</time>
      </trkpt>
      <trkpt lat="45.938983" lon="6.859500">
        <ele>1860.0</ele>
        <time>2014-08-30T14:33:39Z</time>
      </trkpt>
      <trkpt lat="45.939067" lon="6.859550">
        <ele>1859.0</ele>
        <time>2014-08-30T14:33:40Z</time>
      </trkpt>
      <trkpt lat="45.939133" lon="6.859617">
        <ele>1859.0</ele>
        <time>2014-08-30T14:33:41Z</time>
      </trkpt>
      <trkpt lat="45.939217" lon="6.859667">
        <ele>1857.0</ele>
        <time>2014-08-30T14:33:42Z</time>
      </trkpt>
      <trkpt lat="45.939317" lon="6.859717">
        <ele>1856.0</ele>
        <time>2014-08-30T14:33:43Z</time>
      </trkpt>
      <trkpt lat="45.939400" lon="6.859767">
        <ele>1854.0</ele>
        <time>2014-08-30T14:33:44Z</time>
      </trkpt>
      <trkpt lat="45.939500" lon="6.859833">
        <ele>1854.0</ele>
        <time>2014-08-30T14:33:45Z</time>
      </trkpt>
      <trkpt lat="45.939567" lon="6.859900">
        <ele>1852.0</ele>
        <time>2014-08-30T14:33:46Z</time>
      </trkpt>
      <trkpt lat="45.939650" lon="6.859950">
        <ele>1851.0</ele>
        <time>2014-08-30T14:33:47Z</time>
      </trkpt>
      <trkpt lat="45.939733" lon="6.860017">
        <ele>1848.0</ele>
        <time>2014-08-30T14:33:48Z</time>
      </trkpt>
      <trkpt lat="45.939833" lon="6.860067">
        <ele>1846.0</ele>
        <time>2014-08-30T14:33:49Z</time>
      </trkpt>
      <trkpt lat="45.939917" lon="6.860133">
        <ele>1844.0</ele>
        <time>2014-08-30T14:33:50Z</time>
      </trkpt>
      <trkpt lat="45.940000" lon="6.860200">
        <ele>1843.0</ele>
        <time>2014-08-30T14:33:51Z</time>
      </trkpt>
      <trkpt lat="45.940083" lon="6.860283">
        <ele>1842.0</ele>
        <time>2014-08-30T14:33:52Z</time>
      </trkpt>
      <trkpt lat="45.940167" lon="6.860350">
        <ele>1841.0</ele>
        <time>2014-08-30T14:33:53Z</time>
      </trkpt>
      <trkpt lat="45.940233" lon="6.860417">
        <ele>1838.0</ele>
        <time>2014-08-30T14:33:54Z</time>
      </trkpt>
      <trkpt lat="45.940333" lon="6.860483">
        <ele>1835.0</ele>
        <time>2014-08-30T14:33:55Z</time>
      </trkpt>
      <trkpt lat="45.940417" lon="6.860550">
        <ele>1832.0</ele>
        <time>2014-08-30T14:33:56Z</time>
      </trkpt>
      <trkpt lat="45.940517" lon="6.860633">
        <ele>1828.0</ele>
        <time>2014-08-30T14:33:57Z</time>
      </trkpt>
      <trkpt lat="45.940600" lon="6.860700">
        <ele>1825.0</ele>
        <time>2014-08-30T14:33:58Z</time>
      </trkpt>
      <trkpt lat="45.940683" lon="6.860783">
        <ele>1822.0</ele>
        <time>2014-08-30T14:33:59Z</time>
      </trkpt>
      <trkpt lat="45.940767" lon="6.860883">
        <ele>1820.0</ele>
        <time>2014-08-30T14:34:00Z</time>
      </trkpt>
      <trkpt lat="45.940833" lon="6.861000">
        <ele>1817.0</ele>
        <time>2014-08-30T14:34:01Z</time>
      </trkpt>
      <trkpt lat="45.940900" lon="6.861100">
        <ele>1815.0</ele>
        <time>2014-08-30T14:34:02Z</time>
      </trkpt>
      <trkpt lat="45.940967" lon="6.861217">
        <ele>1813.0</ele>
        <time>2014-08-30T14:34:03Z</time>
      </trkpt>
      <trkpt lat="45.941033" lon="6.861333">
        <ele>1810.0</ele>
        <time>2014-08-30T14:34:04Z</time>
      </trkpt>
      <trkpt lat="45.941100" lon="6.861433">
        <ele>1807.0</ele>
        <time>2014-08-30T14:34:05Z</time>
      </trkpt>
      <trkpt lat="45.941167" lon="6.861550">
        <ele>1805.0</ele>
        <time>2014-08-30T14:34:06Z</time>
      </trkpt>
      <trkpt lat="45.941233" lon="6.861683">
        <ele>1802.0</ele>
        <time>2014-08-30T14:34:07Z</time>
      </trkpt>
      <trkpt lat="45.941300" lon="6.861800">
        <ele>1800.0</ele>
        <time>2014-08-30T14:34:08Z</time>
      </trkpt>
      <trkpt lat="45.941367" lon="6.861917">
        <ele>1798.0</ele>
        <time>2014-08-30T14:34:09Z</time>
      </trkpt>
      <trkpt lat="45.941433" lon="6.862017">
        <ele>1797.0</ele>
        <time>2014-08-30T14:34:10Z</time>
      </trkpt>
      <trkpt lat="45.941517" lon="6.862133">
        <ele>1795.0</ele>
        <time>2014-08-30T14:34:11Z</time>
      </trkpt>
      <trkpt lat="45.941583" lon="6.862250">
        <ele>1792.0</ele>
        <time>2014-08-30T14:34:12Z</time>
      </trkpt>
      <trkpt lat="45.941650" lon="6.862383">
        <ele>1790.0</ele>
        <time>2014-08-30T14:34:13Z</time>
      </trkpt>
      <trkpt lat="45.941717" lon="6.862500">
        <ele>1789.0</ele>
        <time>2014-08-30T14:34:14Z</time>
      </trkpt>
      <trkpt lat="45.941783" lon="6.862600">
        <ele>1787.0</ele>
        <time>2014-08-30T14:34:15Z</time>
      </trkpt>
      <trkpt lat="45.941850" lon="6.862717">
        <ele>1786.0</ele>
        <time>2014-08-30T14:34:16Z</time>
      </trkpt>
      <trkpt lat="45.941917" lon="6.862833">
        <ele>1783.0</ele>
        <time>2014-08-30T14:34:17Z</time>
      </trkpt>
      <trkpt lat="45.941983" lon="6.862967">
        <ele>1781.0</ele>
        <time>2014-08-30T14:34:18Z</time>
      </trkpt>
      <trkpt lat="45.942033" lon="6.863100">
        <ele>1780.0</ele>
        <time>2014-08-30T14:34:19Z</time>
      </trkpt>
      <trkpt lat="45.942100" lon="6.863233">
        <ele>1779.0</ele>
        <time>2014-08-30T14:34:20Z</time>
      </trkpt>
      <trkpt lat="45.942150" lon="6.863350">
        <ele>1777.0</ele>
        <time>2014-08-30T14:34:21Z</time>
      </trkpt>
      <trkpt lat="45.942200" lon="6.863483">
        <ele>1776.0</ele>
        <time>2014-08-30T14:34:22Z</time>
      </trkpt>
      <trkpt lat="45.942267" lon="6.863617">
        <ele>1774.0</ele>
        <time>2014-08-30T14:34:23Z</time>
      </trkpt>
      <trkpt lat="45.942317" lon="6.863750">
        <ele>1772.0</ele>
        <time>2014-08-30T14:34:24Z</time>
      </trkpt>
      <trkpt lat="45.942383" lon="6.863867">
        <ele>1771.0</ele>
        <time>2014-08-30T14:34:25Z</time>
      </trkpt>
      <trkpt lat="45.942450" lon="6.863983">
        <ele>1769.0</ele>
        <time>2014-08-30T14:34:26Z</time>
      </trkpt>
      <trkpt lat="45.942500" lon="6.864100">
        <ele>1768.0</ele>
        <time>2014-08-30T14:34:27Z</time>
      </trkpt>
      <trkpt lat="45.942567" lon="6.864233">
        <ele>1766.0</ele>
        <time>2014-08-30T14:34:28Z</time>
      </trkpt>
      <trkpt lat="45.942617" lon="6.864367">
        <ele>1763.0</ele>
        <time>2014-08-30T14:34:29Z</time>
      </trkpt>
      <trkpt lat="45.942683" lon="6.864517">
        <ele>1761.0</ele>
        <time>2014-08-30T14:34:30Z</time>
      </trkpt>
      <trkpt lat="45.942750" lon="6.864650">
        <ele>1760.0</ele>
        <time>2014-08-30T14:34:31Z</time>
      </trkpt>
      <trkpt lat="45.942800" lon="6.864767">
        <ele>1760.0</ele>
        <time>2014-08-30T14:34:32Z</time>
      </trkpt>
      <trkpt lat="45.942867" lon="6.864900">
        <ele>1758.0</ele>
        <time>2014-08-30T14:34:33Z</time>
      </trkpt>
      <trkpt lat="45.942933" lon="6.865017">
        <ele>1756.0</ele>
        <time>2014-08-30T14:34:34Z</time>
      </trkpt>
      <trkpt lat="45.943017" lon="6.865150">
        <ele>1754.0</ele>
        <time>2014-08-30T14:34:35Z</time>
      </trkpt>
      <trkpt lat="45.943083" lon="6.865283">
        <ele>1753.0</ele>
        <time>2014-08-30T14:34:36Z</time>
      </trkpt>
      <trkpt lat="45.943150" lon="6.865417">
        <ele>1752.0</ele>
        <time>2014-08-30T14:34:37Z</time>
      </trkpt>
      <trkpt lat="45.943233" lon="6.865550">
        <ele>1751.0</ele>
        <time>2014-08-30T14:34:38Z</time>
      </trkpt>
      <trkpt lat="45.943317" lon="6.865650">
        <ele>1751.0</ele>
        <time>2014-08-30T14:34:39Z</time>
      </trkpt>
      <trkpt lat="45.943400" lon="6.865750">
        <ele>1751.0</ele>
        <time>2014-08-30T14:34:40Z</time>
      </trkpt>
      <trkpt lat="45.943483" lon="6.865850">
        <ele>1751.0</ele>
        <time>2014-08-30T14:34:41Z</time>
      </trkpt>
      <trkpt lat="45.943550" lon="6.865950">
        <ele>1750.0</ele>
        <time>2014-08-30T14:34:42Z</time>
      </trkpt>
      <trkpt lat="45.943633" lon="6.866050">
        <ele>1749.0</ele>
        <time>2014-08-30T14:34:43Z</time>
      </trkpt>
      <trkpt lat="45.943733" lon="6.866133">
        <ele>1748.0</ele>
        <time>2014-08-30T14:34:44Z</time>
      </trkpt>
      <trkpt lat="45.943833" lon="6.866217">
        <ele>1746.0</ele>
        <time>2014-08-30T14:34:45Z</time>
      </trkpt>
      <trkpt lat="45.943933" lon="6.866300">
        <ele>1745.0</ele>
        <time>2014-08-30T14:34:46Z</time>
      </trkpt>
      <trkpt lat="45.944033" lon="6.866383">
        <ele>1745.0</ele>
        <time>2014-08-30T14:34:47Z</time>
      </trkpt>
      <trkpt lat="45.944133" lon="6.866433">
        <ele>1744.0</ele>
        <time>2014-08-30T14:34:48Z</time>
      </trkpt>
      <trkpt lat="45.944233" lon="6.866483">
        <ele>1743.0</ele>
        <time>2014-08-30T14:34:49Z</time>
      </trkpt>
      <trkpt lat="45.944350" lon="6.866533">
        <ele>1742.0</ele>
        <time>2014-08-30T14:34:50Z</time>
      </trkpt>
      <trkpt lat="45.944450" lon="6.866550">
        <ele>1741.0</ele>
        <time>2014-08-30T14:34:51Z</time>
      </trkpt>
      <trkpt lat="45.944567" lon="6.866583">
        <ele>1742.0</ele>
        <time>2014-08-30T14:34:52Z</time>
      </trkpt>
      <trkpt lat="45.944650" lon="6.866633">
        <ele>1744.0</ele>
        <time>2014-08-30T14:34:53Z</time>
      </trkpt>
      <trkpt lat="45.944717" lon="6.866683">
        <ele>1746.0</ele>
        <time>2014-08-30T14:34:54Z</time>
      </trkpt>
      <trkpt lat="45.944783" lon="6.866733">
        <ele>1746.0</ele>
        <time>2014-08-30T14:34:55Z</time>
      </trkpt>
      <trkpt lat="45.944850" lon="6.866767">
        <ele>1745.0</ele>
        <time>2014-08-30T14:34:56Z</time>
      </trkpt>
      <trkpt lat="45.944933" lon="6.866800">
        <ele>1744.0</ele>
        <time>2014-08-30T14:34:57Z</time>
      </trkpt>
      <trkpt lat="45.945017" lon="6.866833">
        <ele>1743.0</ele>
        <time>2014-08-30T14:34:58Z</time>
      </trkpt>
      <trkpt lat="45.945100" lon="6.866900">
        <ele>1742.0</ele>
        <time>2014-08-30T14:34:59Z</time>
      </trkpt>
      <trkpt lat="45.945167" lon="6.866967">
        <ele>1740.0</ele>
        <time>2014-08-30T14:35:00Z</time>
      </trkpt>
      <trkpt lat="45.945217" lon="6.867050">
        <ele>1739.0</ele>
        <time>2014-08-30T14:35:01Z</time>
      </trkpt>
      <trkpt lat="45.945267" lon="6.867133">
        <ele>1738.0</ele>
        <time>2014-08-30T14:35:02Z</time>
      </trkpt>
      <trkpt lat="45.945300" lon="6.867233">
        <ele>1736.0</ele>
        <time>2014-08-30T14:35:03Z</time>
      </trkpt>
      <trkpt lat="45.945300" lon="6.867333">
        <ele>1735.0</ele>
        <time>2014-08-30T14:35:04Z</time>
      </trkpt>
      <trkpt lat="45.945317" lon="6.867417">
        <ele>1736.0</ele>
        <time>2014-08-30T14:35:05Z</time>
      </trkpt>
      <trkpt lat="45.945333" lon="6.867500">
        <ele>1735.0</ele>
        <time>2014-08-30T14:35:06Z</time>
      </trkpt>
      <trkpt lat="45.945383" lon="6.867600">
        <ele>1735.0</ele>
        <time>2014-08-30T14:35:07Z</time>
      </trkpt>
      <trkpt lat="45.945400" lon="6.867717">
        <ele>1734.0</ele>
        <time>2014-08-30T14:35:08Z</time>
      </trkpt>
      <trkpt lat="45.945417" lon="6.867850">
        <ele>1734.0</ele>
        <time>2014-08-30T14:35:09Z</time>
      </trkpt>
      <trkpt lat="45.945450" lon="6.867967">
        <ele>1735.0</ele>
        <time>2014-08-30T14:35:10Z</time>
      </trkpt>
      <trkpt lat="45.945483" lon="6.868067">
        <ele>1736.0</ele>
        <time>2014-08-30T14:35:11Z</time>
      </trkpt>
      <trkpt lat="45.945517" lon="6.868167">
        <ele>1735.0</ele>
        <time>2014-08-30T14:35:12Z</time>
      </trkpt>
      <trkpt lat="45.945550" lon="6.868267">
        <ele>1734.0</ele>
        <time>2014-08-30T14:35:13Z</time>
      </trkpt>
      <trkpt lat="45.945583" lon="6.868383">
        <ele>1731.0</ele>
        <time>2014-08-30T14:35:14Z</time>
      </trkpt>
      <trkpt lat="45.945617" lon="6.868517">
        <ele>1729.0</ele>
        <time>2014-08-30T14:35:15Z</time>
      </trkpt>
      <trkpt lat="45.945650" lon="6.868633">
        <ele>1728.0</ele>
        <time>2014-08-30T14:35:16Z</time>
      </trkpt>
      <trkpt lat="45.945683" lon="6.868733">
        <ele>1729.0</ele>
        <time>2014-08-30T14:35:17Z</time>
      </trkpt>
      <trkpt lat="45.945717" lon="6.868833">
        <ele>1729.0</ele>
        <time>2014-08-30T14:35:18Z</time>
      </trkpt>
      <trkpt lat="45.945733" lon="6.868950">
        <ele>1730.0</ele>
        <time>2014-08-30T14:35:19Z</time>
      </trkpt>
      <trkpt lat="45.945767" lon="6.869050">
        <ele>1729.0</ele>
        <time>2014-08-30T14:35:20Z</time>
      </trkpt>
      <trkpt lat="45.945783" lon="6.869150">
        <ele>1729.0</ele>
        <time>2014-08-30T14:35:21Z</time>
      </trkpt>
      <trkpt lat="45.945817" lon="6.869233">
        <ele>1727.0</ele>
        <time>2014-08-30T14:35:22Z</time>
      </trkpt>
      <trkpt lat="45.945850" lon="6.869333">
        <ele>1726.0</ele>
        <time>2014-08-30T14:35:23Z</time>
      </trkpt>
      <trkpt lat="45.945883" lon="6.869450">
        <ele>1725.0</ele>
        <time>2014-08-30T14:35:24Z</time>
      </trkpt>
      <trkpt lat="45.945900" lon="6.869583">
        <ele>1725.0</ele>
        <time>2014-08-30T14:35:25Z</time>
      </trkpt>
      <trkpt lat="45.945933" lon="6.869683">
        <ele>1725.0</ele>
        <time>2014-08-30T14:35:26Z</time>
      </trkpt>
      <trkpt lat="45.945967" lon="6.869767">
        <ele>1725.0</ele>
        <time>2014-08-30T14:35:27Z</time>
      </trkpt>
      <trkpt lat="45.946000" lon="6.869850">
        <ele>1722.0</ele>
        <time>2014-08-30T14:35:28Z</time>
      </trkpt>
      <trkpt lat="45.946033" lon="6.869967">
        <ele>1719.0</ele>
        <time>2014-08-30T14:35:29Z</time>
      </trkpt>
      <trkpt lat="45.946050" lon="6.870100">
        <ele>1715.0</ele>
        <time>2014-08-30T14:35:30Z</time>
      </trkpt>
      <trkpt lat="45.946083" lon="6.870250">
        <ele>1713.0</ele>
        <time>2014-08-30T14:35:31Z</time>
      </trkpt>
      <trkpt lat="45.946117" lon="6.870383">
        <ele>1713.0</ele>
        <time>2014-08-30T14:35:32Z</time>
      </trkpt>
      <trkpt lat="45.946133" lon="6.870500">
        <ele>1713.0</ele>
        <time>2014-08-30T14:35:33Z</time>
      </trkpt>
      <trkpt lat="45.946167" lon="6.870600">
        <ele>1713.0</ele>
        <time>2014-08-30T14:35:34Z</time>
      </trkpt>
      <trkpt lat="45.946200" lon="6.870700">
        <ele>1711.0</ele>
        <time>2014-08-30T14:35:35Z</time>
      </trkpt>
      <trkpt lat="45.946233" lon="6.870833">
        <ele>1708.0</ele>
        <time>2014-08-30T14:35:36Z</time>
      </trkpt>
      <trkpt lat="45.946283" lon="6.870983">
        <ele>1705.0</ele>
        <time>2014-08-30T14:35:37Z</time>
      </trkpt>
      <trkpt lat="45.946333" lon="6.871117">
        <ele>1705.0</ele>
        <time>2014-08-30T14:35:38Z</time>
      </trkpt>
      <trkpt lat="45.946400" lon="6.871250">
        <ele>1706.0</ele>
        <time>2014-08-30T14:35:39Z</time>
      </trkpt>
      <trkpt lat="45.946433" lon="6.871350">
        <ele>1707.0</ele>
        <time>2014-08-30T14:35:40Z</time>
      </trkpt>
      <trkpt lat="45.946483" lon="6.871450">
        <ele>1706.0</ele>
        <time>2014-08-30T14:35:41Z</time>
      </trkpt>
      <trkpt lat="45.946550" lon="6.871550">
        <ele>1704.0</ele>
        <time>2014-08-30T14:35:42Z</time>
      </trkpt>
      <trkpt lat="45.946617" lon="6.871667">
        <ele>1703.0</ele>
        <time>2014-08-30T14:35:43Z</time>
      </trkpt>
      <trkpt lat="45.946700" lon="6.871783">
        <ele>1702.0</ele>
        <time>2014-08-30T14:35:44Z</time>
      </trkpt>
      <trkpt lat="45.946783" lon="6.871883">
        <ele>1703.0</ele>
        <time>2014-08-30T14:35:45Z</time>
      </trkpt>
      <trkpt lat="45.946867" lon="6.871967">
        <ele>1704.0</ele>
        <time>2014-08-30T14:35:46Z</time>
      </trkpt>
      <trkpt lat="45.946950" lon="6.872050">
        <ele>1704.0</ele>
        <time>2014-08-30T14:35:47Z</time>
      </trkpt>
      <trkpt lat="45.947033" lon="6.872133">
        <ele>1703.0</ele>
        <time>2014-08-30T14:35:48Z</time>
      </trkpt>
      <trkpt lat="45.947117" lon="6.872233">
        <ele>1703.0</ele>
        <time>2014-08-30T14:35:49Z</time>
      </trkpt>
      <trkpt lat="45.947217" lon="6.872317">
        <ele>1702.0</ele>
        <time>2014-08-30T14:35:50Z</time>
      </trkpt>
      <trkpt lat="45.947317" lon="6.872400">
        <ele>1702.0</ele>
        <time>2014-08-30T14:35:51Z</time>
      </trkpt>
      <trkpt lat="45.947400" lon="6.872500">
        <ele>1704.0</ele>
        <time>2014-08-30T14:35:52Z</time>
      </trkpt>
      <trkpt lat="45.947483" lon="6.872583">
        <ele>1705.0</ele>
        <time>2014-08-30T14:35:53Z</time>
      </trkpt>
      <trkpt lat="45.947550" lon="6.872650">
        <ele>1705.0</ele>
        <time>2014-08-30T14:35:54Z</time>
      </trkpt>
      <trkpt lat="45.947617" lon="6.872717">
        <ele>1705.0</ele>
        <time>2014-08-30T14:35:55Z</time>
      </trkpt>
      <trkpt lat="45.947700" lon="6.872800">
        <ele>1704.0</ele>
        <time>2014-08-30T14:35:56Z</time>
      </trkpt>
      <trkpt lat="45.947767" lon="6.872883">
        <ele>1702.0</ele>
        <time>2014-08-30T14:35:57Z</time>
      </trkpt>
      <trkpt lat="45.947850" lon="6.872983">
        <ele>1701.0</ele>
        <time>2014-08-30T14:35:58Z</time>
      </trkpt>
      <trkpt lat="45.947900" lon="6.873083">
        <ele>1701.0</ele>
        <time>2014-08-30T14:35:59Z</time>
      </trkpt>
      <trkpt lat="45.947967" lon="6.873167">
        <ele>1702.0</ele>
        <time>2014-08-30T14:36:00Z</time>
      </trkpt>
      <trkpt lat="45.948017" lon="6.873233">
        <ele>1702.0</ele>
        <time>2014-08-30T14:36:01Z</time>
      </trkpt>
      <trkpt lat="45.948083" lon="6.873317">
        <ele>1702.0</ele>
        <time>2014-08-30T14:36:02Z</time>
      </trkpt>
      <trkpt lat="45.948150" lon="6.873400">
        <ele>1702.0</ele>
        <time>2014-08-30T14:36:03Z</time>
      </trkpt>
      <trkpt lat="45.948217" lon="6.873500">
        <ele>1703.0</ele>
        <time>2014-08-30T14:36:04Z</time>
      </trkpt>
      <trkpt lat="45.948283" lon="6.873583">
        <ele>1703.0</ele>
        <time>2014-08-30T14:36:05Z</time>
      </trkpt>
      <trkpt lat="45.948350" lon="6.873667">
        <ele>1704.0</ele>
        <time>2014-08-30T14:36:06Z</time>
      </trkpt>
      <trkpt lat="45.948417" lon="6.873750">
        <ele>1704.0</ele>
        <time>2014-08-30T14:36:07Z</time>
      </trkpt>
      <trkpt lat="45.948450" lon="6.873850">
        <ele>1703.0</ele>
        <time>2014-08-30T14:36:08Z</time>
      </trkpt>
      <trkpt lat="45.948467" lon="6.873967">
        <ele>1701.0</ele>
        <time>2014-08-30T14:36:09Z</time>
      </trkpt>
      <trkpt lat="45.948483" lon="6.874083">
        <ele>1700.0</ele>
        <time>2014-08-30T14:36:10Z</time>
      </trkpt>
      <trkpt lat="45.948517" lon="6.874200">
        <ele>1700.0</ele>
        <time>2014-08-30T14:36:11Z</time>
      </trkpt>
      <trkpt lat="45.948533" lon="6.874283">
        <ele>1700.0</ele>
        <time>2014-08-30T14:36:12Z</time>
      </trkpt>
      <trkpt lat="45.948567" lon="6.874383">
        <ele>1699.0</ele>
        <time>2014-08-30T14:36:13Z</time>
      </trkpt>
      <trkpt lat="45.948600" lon="6.874483">
        <ele>1699.0</ele>
        <time>2014-08-30T14:36:14Z</time>
      </trkpt>
      <trkpt lat="45.948650" lon="6.874583">
        <ele>1698.0</ele>
        <time>2014-08-30T14:36:15Z</time>
      </trkpt>
      <trkpt lat="45.948717" lon="6.874667">
        <ele>1697.0</ele>
        <time>2014-08-30T14:36:16Z</time>
      </trkpt>
      <trkpt lat="45.948767" lon="6.874767">
        <ele>1697.0</ele>
        <time>2014-08-30T14:36:17Z</time>
      </trkpt>
      <trkpt lat="45.948833" lon="6.874850">
        <ele>1697.0</ele>
        <time>2014-08-30T14:36:18Z</time>
      </trkpt>
      <trkpt lat="45.948883" lon="6.874933">
        <ele>1697.0</ele>
        <time>2014-08-30T14:36:19Z</time>
      </trkpt>
      <trkpt lat="45.948933" lon="6.875000">
        <ele>1697.0</ele>
        <time>2014-08-30T14:36:20Z</time>
      </trkpt>
      <trkpt lat="45.948983" lon="6.875083">
        <ele>1697.0</ele>
        <time>2014-08-30T14:36:21Z</time>
      </trkpt>
      <trkpt lat="45.949033" lon="6.875150">
        <ele>1695.0</ele>
        <time>2014-08-30T14:36:22Z</time>
      </trkpt>
      <trkpt lat="45.949100" lon="6.875233">
        <ele>1694.0</ele>
        <time>2014-08-30T14:36:23Z</time>
      </trkpt>
      <trkpt lat="45.949167" lon="6.875317">
        <ele>1693.0</ele>
        <time>2014-08-30T14:36:24Z</time>
      </trkpt>
      <trkpt lat="45.949233" lon="6.875417">
        <ele>1692.0</ele>
        <time>2014-08-30T14:36:25Z</time>
      </trkpt>
      <trkpt lat="45.949300" lon="6.875500">
        <ele>1691.0</ele>
        <time>2014-08-30T14:36:26Z</time>
      </trkpt>
      <trkpt lat="45.949367" lon="6.875567">
        <ele>1690.0</ele>
        <time>2014-08-30T14:36:27Z</time>
      </trkpt>
      <trkpt lat="45.949450" lon="6.875633">
        <ele>1688.0</ele>
        <time>2014-08-30T14:36:28Z</time>
      </trkpt>
      <trkpt lat="45.949533" lon="6.875717">
        <ele>1687.0</ele>
        <time>2014-08-30T14:36:29Z</time>
      </trkpt>
      <trkpt lat="45.949600" lon="6.875817">
        <ele>1686.0</ele>
        <time>2014-08-30T14:36:30Z</time>
      </trkpt>
      <trkpt lat="45.949667" lon="6.875917">
        <ele>1686.0</ele>
        <time>2014-08-30T14:36:31Z</time>
      </trkpt>
      <trkpt lat="45.949717" lon="6.876000">
        <ele>1687.0</ele>
        <time>2014-08-30T14:36:32Z</time>
      </trkpt>
      <trkpt lat="45.949783" lon="6.876083">
        <ele>1687.0</ele>
        <time>2014-08-30T14:36:33Z</time>
      </trkpt>
      <trkpt lat="45.949850" lon="6.876133">
        <ele>1685.0</ele>
        <time>2014-08-30T14:36:34Z</time>
      </trkpt>
      <trkpt lat="45.949933" lon="6.876200">
        <ele>1684.0</ele>
        <time>2014-08-30T14:36:35Z</time>
      </trkpt>
      <trkpt lat="45.950033" lon="6.876267">
        <ele>1682.0</ele>
        <time>2014-08-30T14:36:36Z</time>
      </trkpt>
      <trkpt lat="45.950150" lon="6.876317">
        <ele>1682.0</ele>
        <time>2014-08-30T14:36:37Z</time>
      </trkpt>
      <trkpt lat="45.950250" lon="6.876350">
        <ele>1681.0</ele>
        <time>2014-08-30T14:36:38Z</time>
      </trkpt>
      <trkpt lat="45.950333" lon="6.876367">
        <ele>1682.0</ele>
        <time>2014-08-30T14:36:39Z</time>
      </trkpt>
      <trkpt lat="45.950433" lon="6.876367">
        <ele>1681.0</ele>
        <time>2014-08-30T14:36:40Z</time>
      </trkpt>
      <trkpt lat="45.950533" lon="6.876383">
        <ele>1680.0</ele>
        <time>2014-08-30T14:36:41Z</time>
      </trkpt>
      <trkpt lat="45.950633" lon="6.876400">
        <ele>1679.0</ele>
        <time>2014-08-30T14:36:42Z</time>
      </trkpt>
      <trkpt lat="45.950717" lon="6.876400">
        <ele>1679.0</ele>
        <time>2014-08-30T14:36:43Z</time>
      </trkpt>
      <trkpt lat="45.950817" lon="6.876400">
        <ele>1678.0</ele>
        <time>2014-08-30T14:36:44Z</time>
      </trkpt>
      <trkpt lat="45.950917" lon="6.876383">
        <ele>1678.0</ele>
        <time>2014-08-30T14:36:45Z</time>
      </trkpt>
      <trkpt lat="45.951000" lon="6.876333">
        <ele>1678.0</ele>
        <time>2014-08-30T14:36:46Z</time>
      </trkpt>
      <trkpt lat="45.951083" lon="6.876283">
        <ele>1680.0</ele>
        <time>2014-08-30T14:36:47Z</time>
      </trkpt>
      <trkpt lat="45.951150" lon="6.876250">
        <ele>1682.0</ele>
        <time>2014-08-30T14:36:48Z</time>
      </trkpt>
      <trkpt lat="45.951217" lon="6.876233">
        <ele>1684.0</ele>
        <time>2014-08-30T14:36:49Z</time>
      </trkpt>
      <trkpt lat="45.951283" lon="6.876233">
        <ele>1685.0</ele>
        <time>2014-08-30T14:36:50Z</time>
      </trkpt>
      <trkpt lat="45.951350" lon="6.876233">
        <ele>1685.0</ele>
        <time>2014-08-30T14:36:51Z</time>
      </trkpt>
      <trkpt lat="45.951417" lon="6.876250">
        <ele>1684.0</ele>
        <time>2014-08-30T14:36:52Z</time>
      </trkpt>
      <trkpt lat="45.951500" lon="6.876283">
        <ele>1681.0</ele>
        <time>2014-08-30T14:36:53Z</time>
      </trkpt>
      <trkpt lat="45.951567" lon="6.876333">
        <ele>1681.0</ele>
        <time>2014-08-30T14:36:54Z</time>
      </trkpt>
      <trkpt lat="45.951617" lon="6.876383">
        <ele>1681.0</ele>
        <time>2014-08-30T14:36:55Z</time>
      </trkpt>
      <trkpt lat="45.951667" lon="6.876433">
        <ele>1680.0</ele>
        <time>2014-08-30T14:36:56Z</time>
      </trkpt>
      <trkpt lat="45.951717" lon="6.876467">
        <ele>1678.0</ele>
        <time>2014-08-30T14:36:57Z</time>
      </trkpt>
      <trkpt lat="45.951783" lon="6.876517">
        <ele>1676.0</ele>
        <time>2014-08-30T14:36:58Z</time>
      </trkpt>
      <trkpt lat="45.951867" lon="6.876567">
        <ele>1674.0</ele>
        <time>2014-08-30T14:36:59Z</time>
      </trkpt>
      <trkpt lat="45.951933" lon="6.876600">
        <ele>1674.0</ele>
        <time>2014-08-30T14:37:00Z</time>
      </trkpt>
      <trkpt lat="45.952017" lon="6.876617">
        <ele>1675.0</ele>
        <time>2014-08-30T14:37:01Z</time>
      </trkpt>
      <trkpt lat="45.952083" lon="6.876617">
        <ele>1675.0</ele>
        <time>2014-08-30T14:37:02Z</time>
      </trkpt>
      <trkpt lat="45.952150" lon="6.876617">
        <ele>1675.0</ele>
        <time>2014-08-30T14:37:03Z</time>
      </trkpt>
      <trkpt lat="45.952200" lon="6.876633">
        <ele>1676.0</ele>
        <time>2014-08-30T14:37:04Z</time>
      </trkpt>
      <trkpt lat="45.952267" lon="6.876650">
        <ele>1678.0</ele>
        <time>2014-08-30T14:37:05Z</time>
      </trkpt>
      <trkpt lat="45.952300" lon="6.876683">
        <ele>1678.0</ele>
        <time>2014-08-30T14:37:06Z</time>
      </trkpt>
      <trkpt lat="45.952350" lon="6.876700">
        <ele>1678.0</ele>
        <time>2014-08-30T14:37:07Z</time>
      </trkpt>
      <trkpt lat="45.952400" lon="6.876750">
        <ele>1677.0</ele>
        <time>2014-08-30T14:37:08Z</time>
      </trkpt>
      <trkpt lat="45.952467" lon="6.876817">
        <ele>1677.0</ele>
        <time>2014-08-30T14:37:09Z</time>
      </trkpt>
      <trkpt lat="45.952533" lon="6.876883">
        <ele>1676.0</ele>
        <time>2014-08-30T14:37:10Z</time>
      </trkpt>
      <trkpt lat="45.952567" lon="6.876950">
        <ele>1677.0</ele>
        <time>2014-08-30T14:37:11Z</time>
      </trkpt>
      <trkpt lat="45.952567" lon="6.877017">
        <ele>1676.0</ele>
        <time>2014-08-30T14:37:12Z</time>
      </trkpt>
      <trkpt lat="45.952567" lon="6.877083">
        <ele>1674.0</ele>
        <time>2014-08-30T14:37:13Z</time>
      </trkpt>
      <trkpt lat="45.952550" lon="6.877183">
        <ele>1672.0</ele>
        <time>2014-08-30T14:37:14Z</time>
      </trkpt>
      <trkpt lat="45.952517" lon="6.877283">
        <ele>1671.0</ele>
        <time>2014-08-30T14:37:15Z</time>
      </trkpt>
      <trkpt lat="45.952467" lon="6.877383">
        <ele>1671.0</ele>
        <time>2014-08-30T14:37:16Z</time>
      </trkpt>
      <trkpt lat="45.952417" lon="6.877467">
        <ele>1672.0</ele>
        <time>2014-08-30T14:37:17Z</time>
      </trkpt>
      <trkpt lat="45.952367" lon="6.877533">
        <ele>1673.0</ele>
        <time>2014-08-30T14:37:18Z</time>
      </trkpt>
      <trkpt lat="45.952317" lon="6.877617">
        <ele>1673.0</ele>
        <time>2014-08-30T14:37:19Z</time>
      </trkpt>
      <trkpt lat="45.952267" lon="6.877700">
        <ele>1672.0</ele>
        <time>2014-08-30T14:37:20Z</time>
      </trkpt>
      <trkpt lat="45.952217" lon="6.877783">
        <ele>1672.0</ele>
        <time>2014-08-30T14:37:21Z</time>
      </trkpt>
      <trkpt lat="45.952183" lon="6.877883">
        <ele>1671.0</ele>
        <time>2014-08-30T14:37:22Z</time>
      </trkpt>
      <trkpt lat="45.952133" lon="6.877967">
        <ele>1670.0</ele>
        <time>2014-08-30T14:37:23Z</time>
      </trkpt>
      <trkpt lat="45.952100" lon="6.878067">
        <ele>1668.0</ele>
        <time>2014-08-30T14:37:24Z</time>
      </trkpt>
      <trkpt lat="45.952067" lon="6.878183">
        <ele>1665.0</ele>
        <time>2014-08-30T14:37:25Z</time>
      </trkpt>
      <trkpt lat="45.952033" lon="6.878300">
        <ele>1663.0</ele>
        <time>2014-08-30T14:37:26Z</time>
      </trkpt>
      <trkpt lat="45.952000" lon="6.878400">
        <ele>1661.0</ele>
        <time>2014-08-30T14:37:27Z</time>
      </trkpt>
      <trkpt lat="45.951950" lon="6.878483">
        <ele>1660.0</ele>
        <time>2014-08-30T14:37:28Z</time>
      </trkpt>
      <trkpt lat="45.951900" lon="6.878567">
        <ele>1659.0</ele>
        <time>2014-08-30T14:37:29Z</time>
      </trkpt>
      <trkpt lat="45.951867" lon="6.878633">
        <ele>1658.0</ele>
        <time>2014-08-30T14:37:30Z</time>
      </trkpt>
      <trkpt lat="45.951833" lon="6.878733">
        <ele>1657.0</ele>
        <time>2014-08-30T14:37:31Z</time>
      </trkpt>
      <trkpt lat="45.951800" lon="6.878833">
        <ele>1655.0</ele>
        <time>2014-08-30T14:37:32Z</time>
      </trkpt>
      <trkpt lat="45.951767" lon="6.878917">
        <ele>1652.0</ele>
        <time>2014-08-30T14:37:33Z</time>
      </trkpt>
      <trkpt lat="45.951717" lon="6.879000">
        <ele>1650.0</ele>
        <time>2014-08-30T14:37:34Z</time>
      </trkpt>
      <trkpt lat="45.951650" lon="6.879083">
        <ele>1648.0</ele>
        <time>2014-08-30T14:37:35Z</time>
      </trkpt>
      <trkpt lat="45.951600" lon="6.879183">
        <ele>1647.0</ele>
        <time>2014-08-30T14:37:36Z</time>
      </trkpt>
      <trkpt lat="45.951567" lon="6.879267">
        <ele>1646.0</ele>
        <time>2014-08-30T14:37:37Z</time>
      </trkpt>
      <trkpt lat="45.951517" lon="6.879350">
        <ele>1646.0</ele>
        <time>2014-08-30T14:37:38Z</time>
      </trkpt>
      <trkpt lat="45.951483" lon="6.879400">
        <ele>1645.0</ele>
        <time>2014-08-30T14:37:39Z</time>
      </trkpt>
      <trkpt lat="45.951433" lon="6.879467">
        <ele>1643.0</ele>
        <time>2014-08-30T14:37:40Z</time>
      </trkpt>
      <trkpt lat="45.951383" lon="6.879550">
        <ele>1640.0</ele>
        <time>2014-08-30T14:37:41Z</time>
      </trkpt>
      <trkpt lat="45.951333" lon="6.879650">
        <ele>1639.0</ele>
        <time>2014-08-30T14:37:42Z</time>
      </trkpt>
      <trkpt lat="45.951283" lon="6.879733">
        <ele>1639.0</ele>
        <time>2014-08-30T14:37:43Z</time>
      </trkpt>
      <trkpt lat="45.951250" lon="6.879817">
        <ele>1638.0</ele>
        <time>2014-08-30T14:37:44Z</time>
      </trkpt>
      <trkpt lat="45.951200" lon="6.879883">
        <ele>1637.0</ele>
        <time>2014-08-30T14:37:45Z</time>
      </trkpt>
      <trkpt lat="45.951167" lon="6.879950">
        <ele>1635.0</ele>
        <time>2014-08-30T14:37:46Z</time>
      </trkpt>
      <trkpt lat="45.951117" lon="6.880050">
        <ele>1635.0</ele>
        <time>2014-08-30T14:37:47Z</time>
      </trkpt>
      <trkpt lat="45.951067" lon="6.880133">
        <ele>1635.0</ele>
        <time>2014-08-30T14:37:48Z</time>
      </trkpt>
      <trkpt lat="45.951017" lon="6.880217">
        <ele>1635.0</ele>
        <time>2014-08-30T14:37:49Z</time>
      </trkpt>
      <trkpt lat="45.950983" lon="6.880283">
        <ele>1634.0</ele>
        <time>2014-08-30T14:37:50Z</time>
      </trkpt>
      <trkpt lat="45.950933" lon="6.880350">
        <ele>1633.0</ele>
        <time>2014-08-30T14:37:51Z</time>
      </trkpt>
      <trkpt lat="45.950883" lon="6.880417">
        <ele>1631.0</ele>
        <time>2014-08-30T14:37:52Z</time>
      </trkpt>
      <trkpt lat="45.950817" lon="6.880467">
        <ele>1630.0</ele>
        <time>2014-08-30T14:37:53Z</time>
      </trkpt>
      <trkpt lat="45.950750" lon="6.880517">
        <ele>1630.0</ele>
        <time>2014-08-30T14:37:54Z</time>
      </trkpt>
      <trkpt lat="45.950700" lon="6.880567">
        <ele>1630.0</ele>
        <time>2014-08-30T14:37:55Z</time>
      </trkpt>
      <trkpt lat="45.950650" lon="6.880617">
        <ele>1629.0</ele>
        <time>2014-08-30T14:37:56Z</time>
      </trkpt>
      <trkpt lat="45.950600" lon="6.880667">
        <ele>1628.0</ele>
        <time>2014-08-30T14:37:57Z</time>
      </trkpt>
      <trkpt lat="45.950533" lon="6.880717">
        <ele>1626.0</ele>
        <time>2014-08-30T14:37:58Z</time>
      </trkpt>
      <trkpt lat="45.950483" lon="6.880767">
        <ele>1624.0</ele>
        <time>2014-08-30T14:37:59Z</time>
      </trkpt>
      <trkpt lat="45.950417" lon="6.880817">
        <ele>1623.0</ele>
        <time>2014-08-30T14:38:00Z</time>
      </trkpt>
      <trkpt lat="45.950350" lon="6.880900">
        <ele>1621.0</ele>
        <time>2014-08-30T14:38:01Z</time>
      </trkpt>
      <trkpt lat="45.950300" lon="6.880983">
        <ele>1620.0</ele>
        <time>2014-08-30T14:38:02Z</time>
      </trkpt>
      <trkpt lat="45.950250" lon="6.881067">
        <ele>1619.0</ele>
        <time>2014-08-30T14:38:03Z</time>
      </trkpt>
      <trkpt lat="45.950217" lon="6.881150">
        <ele>1618.0</ele>
        <time>2014-08-30T14:38:04Z</time>
      </trkpt>
      <trkpt lat="45.950167" lon="6.881250">
        <ele>1617.0</ele>
        <time>2014-08-30T14:38:05Z</time>
      </trkpt>
      <trkpt lat="45.950117" lon="6.881333">
        <ele>1616.0</ele>
        <time>2014-08-30T14:38:06Z</time>
      </trkpt>
      <trkpt lat="45.950083" lon="6.881450">
        <ele>1614.0</ele>
        <time>2014-08-30T14:38:07Z</time>
      </trkpt>
      <trkpt lat="45.950033" lon="6.881567">
        <ele>1613.0</ele>
        <time>2014-08-30T14:38:08Z</time>
      </trkpt>
      <trkpt lat="45.950000" lon="6.881683">
        <ele>1612.0</ele>
        <time>2014-08-30T14:38:09Z</time>
      </trkpt>
      <trkpt lat="45.949967" lon="6.881800">
        <ele>1611.0</ele>
        <time>2014-08-30T14:38:10Z</time>
      </trkpt>
      <trkpt lat="45.949933" lon="6.881917">
        <ele>1610.0</ele>
        <time>2014-08-30T14:38:11Z</time>
      </trkpt>
      <trkpt lat="45.949900" lon="6.882050">
        <ele>1609.0</ele>
        <time>2014-08-30T14:38:12Z</time>
      </trkpt>
      <trkpt lat="45.949883" lon="6.882200">
        <ele>1608.0</ele>
        <time>2014-08-30T14:38:13Z</time>
      </trkpt>
      <trkpt lat="45.949850" lon="6.882333">
        <ele>1607.0</ele>
        <time>2014-08-30T14:38:14Z</time>
      </trkpt>
      <trkpt lat="45.949850" lon="6.882483">
        <ele>1606.0</ele>
        <time>2014-08-30T14:38:15Z</time>
      </trkpt>
      <trkpt lat="45.949833" lon="6.882633">
        <ele>1605.0</ele>
        <time>2014-08-30T14:38:16Z</time>
      </trkpt>
      <trkpt lat="45.949817" lon="6.882783">
        <ele>1605.0</ele>
        <time>2014-08-30T14:38:17Z</time>
      </trkpt>
      <trkpt lat="45.949817" lon="6.882933">
        <ele>1605.0</ele>
        <time>2014-08-30T14:38:18Z</time>
      </trkpt>
      <trkpt lat="45.949817" lon="6.883083">
        <ele>1604.0</ele>
        <time>2014-08-30T14:38:19Z</time>
      </trkpt>
      <trkpt lat="45.949817" lon="6.883233">
        <ele>1602.0</ele>
        <time>2014-08-30T14:38:20Z</time>
      </trkpt>
      <trkpt lat="45.949817" lon="6.883383">
        <ele>1601.0</ele>
        <time>2014-08-30T14:38:21Z</time>
      </trkpt>
      <trkpt lat="45.949817" lon="6.883550">
        <ele>1600.0</ele>
        <time>2014-08-30T14:38:22Z</time>
      </trkpt>
      <trkpt lat="45.949817" lon="6.883717">
        <ele>1600.0</ele>
        <time>2014-08-30T14:38:23Z</time>
      </trkpt>
      <trkpt lat="45.949833" lon="6.883850">
        <ele>1600.0</ele>
        <time>2014-08-30T14:38:24Z</time>
      </trkpt>
      <trkpt lat="45.949833" lon="6.884000">
        <ele>1599.0</ele>
        <time>2014-08-30T14:38:25Z</time>
      </trkpt>
      <trkpt lat="45.949833" lon="6.884150">
        <ele>1598.0</ele>
        <time>2014-08-30T14:38:26Z</time>
      </trkpt>
      <trkpt lat="45.949850" lon="6.884300">
        <ele>1597.0</ele>
        <time>2014-08-30T14:38:27Z</time>
      </trkpt>
      <trkpt lat="45.949833" lon="6.884467">
        <ele>1596.0</ele>
        <time>2014-08-30T14:38:28Z</time>
      </trkpt>
      <trkpt lat="45.949833" lon="6.884617">
        <ele>1595.0</ele>
        <time>2014-08-30T14:38:29Z</time>
      </trkpt>
      <trkpt lat="45.949833" lon="6.884767">
        <ele>1596.0</ele>
        <time>2014-08-30T14:38:30Z</time>
      </trkpt>
      <trkpt lat="45.949833" lon="6.884900">
        <ele>1596.0</ele>
        <time>2014-08-30T14:38:31Z</time>
      </trkpt>
      <trkpt lat="45.949833" lon="6.885033">
        <ele>1595.0</ele>
        <time>2014-08-30T14:38:32Z</time>
      </trkpt>
      <trkpt lat="45.949817" lon="6.885183">
        <ele>1593.0</ele>
        <time>2014-08-30T14:38:33Z</time>
      </trkpt>
      <trkpt lat="45.949817" lon="6.885333">
        <ele>1591.0</ele>
        <time>2014-08-30T14:38:34Z</time>
      </trkpt>
      <trkpt lat="45.949800" lon="6.885517">
        <ele>1590.0</ele>
        <time>2014-08-30T14:38:35Z</time>
      </trkpt>
      <trkpt lat="45.949817" lon="6.885667">
        <ele>1590.0</ele>
        <time>2014-08-30T14:38:36Z</time>
      </trkpt>
      <trkpt lat="45.949817" lon="6.885817">
        <ele>1590.0</ele>
        <time>2014-08-30T14:38:37Z</time>
      </trkpt>
      <trkpt lat="45.949833" lon="6.885967">
        <ele>1589.0</ele>
        <time>2014-08-30T14:38:38Z</time>
      </trkpt>
      <trkpt lat="45.949833" lon="6.886100">
        <ele>1588.0</ele>
        <time>2014-08-30T14:38:39Z</time>
      </trkpt>
      <trkpt lat="45.949817" lon="6.886267">
        <ele>1586.0</ele>
        <time>2014-08-30T14:38:40Z</time>
      </trkpt>
      <trkpt lat="45.949833" lon="6.886417">
        <ele>1584.0</ele>
        <time>2014-08-30T14:38:41Z</time>
      </trkpt>
      <trkpt lat="45.949833" lon="6.886600">
        <ele>1584.0</ele>
        <time>2014-08-30T14:38:42Z</time>
      </trkpt>
      <trkpt lat="45.949850" lon="6.886767">
        <ele>1584.0</ele>
        <time>2014-08-30T14:38:43Z</time>
      </trkpt>
      <trkpt lat="45.949867" lon="6.886917">
        <ele>1584.0</ele>
        <time>2014-08-30T14:38:44Z</time>
      </trkpt>
      <trkpt lat="45.949867" lon="6.887050">
        <ele>1583.0</ele>
        <time>2014-08-30T14:38:45Z</time>
      </trkpt>
      <trkpt lat="45.949883" lon="6.887217">
        <ele>1582.0</ele>
        <time>2014-08-30T14:38:46Z</time>
      </trkpt>
      <trkpt lat="45.949883" lon="6.887383">
        <ele>1580.0</ele>
        <time>2014-08-30T14:38:47Z</time>
      </trkpt>
      <trkpt lat="45.949900" lon="6.887550">
        <ele>1580.0</ele>
        <time>2014-08-30T14:38:48Z</time>
      </trkpt>
      <trkpt lat="45.949933" lon="6.887717">
        <ele>1579.0</ele>
        <time>2014-08-30T14:38:49Z</time>
      </trkpt>
      <trkpt lat="45.949950" lon="6.887867">
        <ele>1579.0</ele>
        <time>2014-08-30T14:38:50Z</time>
      </trkpt>
      <trkpt lat="45.949983" lon="6.888017">
        <ele>1578.0</ele>
        <time>2014-08-30T14:38:51Z</time>
      </trkpt>
      <trkpt lat="45.950000" lon="6.888167">
        <ele>1577.0</ele>
        <time>2014-08-30T14:38:52Z</time>
      </trkpt>
      <trkpt lat="45.950033" lon="6.888333">
        <ele>1575.0</ele>
        <time>2014-08-30T14:38:53Z</time>
      </trkpt>
      <trkpt lat="45.950050" lon="6.888517">
        <ele>1573.0</ele>
        <time>2014-08-30T14:38:54Z</time>
      </trkpt>
      <trkpt lat="45.950083" lon="6.888683">
        <ele>1572.0</ele>
        <time>2014-08-30T14:38:55Z</time>
      </trkpt>
      <trkpt lat="45.950117" lon="6.888867">
        <ele>1572.0</ele>
        <time>2014-08-30T14:38:56Z</time>
      </trkpt>
      <trkpt lat="45.950150" lon="6.889017">
        <ele>1572.0</ele>
        <time>2014-08-30T14:38:57Z</time>
      </trkpt>
      <trkpt lat="45.950167" lon="6.889183">
        <ele>1571.0</ele>
        <time>2014-08-30T14:38:58Z</time>
      </trkpt>
      <trkpt lat="45.950200" lon="6.889333">
        <ele>1570.0</ele>
        <time>2014-08-30T14:38:59Z</time>
      </trkpt>
      <trkpt lat="45.950217" lon="6.889500">
        <ele>1568.0</ele>
        <time>2014-08-30T14:39:00Z</time>
      </trkpt>
      <trkpt lat="45.950217" lon="6.889667">
        <ele>1566.0</ele>
        <time>2014-08-30T14:39:01Z</time>
      </trkpt>
      <trkpt lat="45.950233" lon="6.889833">
        <ele>1564.0</ele>
        <time>2014-08-30T14:39:02Z</time>
      </trkpt>
      <trkpt lat="45.950233" lon="6.889983">
        <ele>1563.0</ele>
        <time>2014-08-30T14:39:03Z</time>
      </trkpt>
      <trkpt lat="45.950233" lon="6.890133">
        <ele>1562.0</ele>
        <time>2014-08-30T14:39:04Z</time>
      </trkpt>
      <trkpt lat="45.950233" lon="6.890283">
        <ele>1560.0</ele>
        <time>2014-08-30T14:39:05Z</time>
      </trkpt>
      <trkpt lat="45.950233" lon="6.890450">
        <ele>1558.0</ele>
        <time>2014-08-30T14:39:06Z</time>
      </trkpt>
      <trkpt lat="45.950233" lon="6.890617">
        <ele>1556.0</ele>
        <time>2014-08-30T14:39:07Z</time>
      </trkpt>
      <trkpt lat="45.950233" lon="6.890783">
        <ele>1555.0</ele>
        <time>2014-08-30T14:39:08Z</time>
      </trkpt>
      <trkpt lat="45.950233" lon="6.890933">
        <ele>1554.0</ele>
        <time>2014-08-30T14:39:09Z</time>
      </trkpt>
      <trkpt lat="45.950233" lon="6.891083">
        <ele>1553.0</ele>
        <time>2014-08-30T14:39:10Z</time>
      </trkpt>
      <trkpt lat="45.950233" lon="6.891217">
        <ele>1552.0</ele>
        <time>2014-08-30T14:39:11Z</time>
      </trkpt>
      <trkpt lat="45.950233" lon="6.891383">
        <ele>1552.0</ele>
        <time>2014-08-30T14:39:12Z</time>
      </trkpt>
      <trkpt lat="45.950250" lon="6.891533">
        <ele>1551.0</ele>
        <time>2014-08-30T14:39:13Z</time>
      </trkpt>
      <trkpt lat="45.950250" lon="6.891700">
        <ele>1551.0</ele>
        <time>2014-08-30T14:39:14Z</time>
      </trkpt>
      <trkpt lat="45.950267" lon="6.891850">
        <ele>1550.0</ele>
        <time>2014-08-30T14:39:15Z</time>
      </trkpt>
      <trkpt lat="45.950267" lon="6.892000">
        <ele>1550.0</ele>
        <time>2014-08-30T14:39:16Z</time>
      </trkpt>
      <trkpt lat="45.950283" lon="6.892167">
        <ele>1548.0</ele>
        <time>2014-08-30T14:39:17Z</time>
      </trkpt>
      <trkpt lat="45.950300" lon="6.892317">
        <ele>1547.0</ele>
        <time>2014-08-30T14:39:18Z</time>
      </trkpt>
      <trkpt lat="45.950300" lon="6.892483">
        <ele>1545.0</ele>
        <time>2014-08-30T14:39:19Z</time>
      </trkpt>
      <trkpt lat="45.950300" lon="6.892650">
        <ele>1544.0</ele>
        <time>2014-08-30T14:39:20Z</time>
      </trkpt>
      <trkpt lat="45.950300" lon="6.892800">
        <ele>1544.0</ele>
        <time>2014-08-30T14:39:21Z</time>
      </trkpt>
      <trkpt lat="45.950317" lon="6.892950">
        <ele>1543.0</ele>
        <time>2014-08-30T14:39:22Z</time>
      </trkpt>
      <trkpt lat="45.950317" lon="6.893100">
        <ele>1542.0</ele>
        <time>2014-08-30T14:39:23Z</time>
      </trkpt>
      <trkpt lat="45.950333" lon="6.893267">
        <ele>1540.0</ele>
        <time>2014-08-30T14:39:24Z</time>
      </trkpt>
      <trkpt lat="45.950333" lon="6.893433">
        <ele>1539.0</ele>
        <time>2014-08-30T14:39:25Z</time>
      </trkpt>
      <trkpt lat="45.950333" lon="6.893583">
        <ele>1538.0</ele>
        <time>2014-08-30T14:39:26Z</time>
      </trkpt>
      <trkpt lat="45.950350" lon="6.893750">
        <ele>1537.0</ele>
        <time>2014-08-30T14:39:27Z</time>
      </trkpt>
      <trkpt lat="45.950350" lon="6.893917">
        <ele>1537.0</ele>
        <time>2014-08-30T14:39:28Z</time>
      </trkpt>
      <trkpt lat="45.950367" lon="6.894083">
        <ele>1536.0</ele>
        <time>2014-08-30T14:39:29Z</time>
      </trkpt>
      <trkpt lat="45.950367" lon="6.894233">
        <ele>1536.0</ele>
        <time>2014-08-30T14:39:30Z</time>
      </trkpt>
      <trkpt lat="45.950367" lon="6.894383">
        <ele>1535.0</ele>
        <time>2014-08-30T14:39:31Z</time>
      </trkpt>
      <trkpt lat="45.950383" lon="6.894550">
        <ele>1534.0</ele>
        <time>2014-08-30T14:39:32Z</time>
      </trkpt>
      <trkpt lat="45.950383" lon="6.894717">
        <ele>1533.0</ele>
        <time>2014-08-30T14:39:33Z</time>
      </trkpt>
      <trkpt lat="45.950400" lon="6.894900">
        <ele>1532.0</ele>
        <time>2014-08-30T14:39:34Z</time>
      </trkpt>
      <trkpt lat="45.950400" lon="6.895083">
        <ele>1532.0</ele>
        <time>2014-08-30T14:39:35Z</time>
      </trkpt>
      <trkpt lat="45.950417" lon="6.895233">
        <ele>1531.0</ele>
        <time>2014-08-30T14:39:36Z</time>
      </trkpt>
      <trkpt lat="45.950433" lon="6.895400">
        <ele>1531.0</ele>
        <time>2014-08-30T14:39:37Z</time>
      </trkpt>
      <trkpt lat="45.950433" lon="6.895567">
        <ele>1529.0</ele>
        <time>2014-08-30T14:39:38Z</time>
      </trkpt>
      <trkpt lat="45.950450" lon="6.895733">
        <ele>1527.0</ele>
        <time>2014-08-30T14:39:39Z</time>
      </trkpt>
      <trkpt lat="45.950467" lon="6.895917">
        <ele>1526.0</ele>
        <time>2014-08-30T14:39:40Z</time>
      </trkpt>
      <trkpt lat="45.950483" lon="6.896100">
        <ele>1525.0</ele>
        <time>2014-08-30T14:39:41Z</time>
      </trkpt>
      <trkpt lat="45.950500" lon="6.896283">
        <ele>1525.0</ele>
        <time>2014-08-30T14:39:42Z</time>
      </trkpt>
      <trkpt lat="45.950517" lon="6.896433">
        <ele>1524.0</ele>
        <time>2014-08-30T14:39:43Z</time>
      </trkpt>
      <trkpt lat="45.950533" lon="6.896600">
        <ele>1523.0</ele>
        <time>2014-08-30T14:39:44Z</time>
      </trkpt>
      <trkpt lat="45.950550" lon="6.896783">
        <ele>1521.0</ele>
        <time>2014-08-30T14:39:45Z</time>
      </trkpt>
      <trkpt lat="45.950567" lon="6.896967">
        <ele>1519.0</ele>
        <time>2014-08-30T14:39:46Z</time>
      </trkpt>
      <trkpt lat="45.950583" lon="6.897167">
        <ele>1517.0</ele>
        <time>2014-08-30T14:39:47Z</time>
      </trkpt>
      <trkpt lat="45.950600" lon="6.897367">
        <ele>1517.0</ele>
        <time>2014-08-30T14:39:48Z</time>
      </trkpt>
      <trkpt lat="45.950617" lon="6.897533">
        <ele>1516.0</ele>
        <time>2014-08-30T14:39:49Z</time>
      </trkpt>
      <trkpt lat="45.950633" lon="6.897717">
        <ele>1516.0</ele>
        <time>2014-08-30T14:39:50Z</time>
      </trkpt>
      <trkpt lat="45.950667" lon="6.897900">
        <ele>1516.0</ele>
        <time>2014-08-30T14:39:51Z</time>
      </trkpt>
      <trkpt lat="45.950700" lon="6.898100">
        <ele>1515.0</ele>
        <time>2014-08-30T14:39:52Z</time>
      </trkpt>
      <trkpt lat="45.950733" lon="6.898283">
        <ele>1515.0</ele>
        <time>2014-08-30T14:39:53Z</time>
      </trkpt>
      <trkpt lat="45.950767" lon="6.898467">
        <ele>1516.0</ele>
        <time>2014-08-30T14:39:54Z</time>
      </trkpt>
      <trkpt lat="45.950783" lon="6.898633">
        <ele>1517.0</ele>
        <time>2014-08-30T14:39:55Z</time>
      </trkpt>
      <trkpt lat="45.950800" lon="6.898783">
        <ele>1518.0</ele>
        <time>2014-08-30T14:39:56Z</time>
      </trkpt>
      <trkpt lat="45.950817" lon="6.898950">
        <ele>1520.0</ele>
        <time>2014-08-30T14:39:57Z</time>
      </trkpt>
      <trkpt lat="45.950833" lon="6.899117">
        <ele>1520.0</ele>
        <time>2014-08-30T14:39:58Z</time>
      </trkpt>
      <trkpt lat="45.950850" lon="6.899300">
        <ele>1521.0</ele>
        <time>2014-08-30T14:39:59Z</time>
      </trkpt>
      <trkpt lat="45.950867" lon="6.899467">
        <ele>1522.0</ele>
        <time>2014-08-30T14:40:00Z</time>
      </trkpt>
      <trkpt lat="45.950883" lon="6.899617">
        <ele>1524.0</ele>
        <time>2014-08-30T14:40:01Z</time>
      </trkpt>
      <trkpt lat="45.950900" lon="6.899750">
        <ele>1525.0</ele>
        <time>2014-08-30T14:40:02Z</time>
      </trkpt>
      <trkpt lat="45.950917" lon="6.899900">
        <ele>1525.0</ele>
        <time>2014-08-30T14:40:03Z</time>
      </trkpt>
      <trkpt lat="45.950933" lon="6.900050">
        <ele>1523.0</ele>
        <time>2014-08-30T14:40:04Z</time>
      </trkpt>
      <trkpt lat="45.950933" lon="6.900200">
        <ele>1521.0</ele>
        <time>2014-08-30T14:40:05Z</time>
      </trkpt>
      <trkpt lat="45.950933" lon="6.900383">
        <ele>1520.0</ele>
        <time>2014-08-30T14:40:06Z</time>
      </trkpt>
      <trkpt lat="45.950933" lon="6.900550">
        <ele>1520.0</ele>
        <time>2014-08-30T14:40:07Z</time>
      </trkpt>
      <trkpt lat="45.950950" lon="6.900717">
        <ele>1521.0</ele>
        <time>2014-08-30T14:40:08Z</time>
      </trkpt>
      <trkpt lat="45.950967" lon="6.900883">
        <ele>1521.0</ele>
        <time>2014-08-30T14:40:09Z</time>
      </trkpt>
      <trkpt lat="45.950983" lon="6.901050">
        <ele>1521.0</ele>
        <time>2014-08-30T14:40:10Z</time>
      </trkpt>
      <trkpt lat="45.951017" lon="6.901200">
        <ele>1521.0</ele>
        <time>2014-08-30T14:40:11Z</time>
      </trkpt>
      <trkpt lat="45.951033" lon="6.901383">
        <ele>1520.0</ele>
        <time>2014-08-30T14:40:12Z</time>
      </trkpt>
      <trkpt lat="45.951067" lon="6.901550">
        <ele>1519.0</ele>
        <time>2014-08-30T14:40:13Z</time>
      </trkpt>
      <trkpt lat="45.951100" lon="6.901733">
        <ele>1519.0</ele>
        <time>2014-08-30T14:40:14Z</time>
      </trkpt>
      <trkpt lat="45.951117" lon="6.901917">
        <ele>1519.0</ele>
        <time>2014-08-30T14:40:15Z</time>
      </trkpt>
      <trkpt lat="45.951150" lon="6.902100">
        <ele>1520.0</ele>
        <time>2014-08-30T14:40:16Z</time>
      </trkpt>
      <trkpt lat="45.951183" lon="6.902250">
        <ele>1520.0</ele>
        <time>2014-08-30T14:40:17Z</time>
      </trkpt>
      <trkpt lat="45.951233" lon="6.902400">
        <ele>1520.0</ele>
        <time>2014-08-30T14:40:18Z</time>
      </trkpt>
      <trkpt lat="45.951250" lon="6.902567">
        <ele>1519.0</ele>
        <time>2014-08-30T14:40:19Z</time>
      </trkpt>
      <trkpt lat="45.951283" lon="6.902750">
        <ele>1518.0</ele>
        <time>2014-08-30T14:40:20Z</time>
      </trkpt>
      <trkpt lat="45.951283" lon="6.902917">
        <ele>1517.0</ele>
        <time>2014-08-30T14:40:21Z</time>
      </trkpt>
      <trkpt lat="45.951300" lon="6.903100">
        <ele>1517.0</ele>
        <time>2014-08-30T14:40:22Z</time>
      </trkpt>
      <trkpt lat="45.951333" lon="6.903250">
        <ele>1518.0</ele>
        <time>2014-08-30T14:40:23Z</time>
      </trkpt>
      <trkpt lat="45.951350" lon="6.903400">
        <ele>1518.0</ele>
        <time>2014-08-30T14:40:24Z</time>
      </trkpt>
      <trkpt lat="45.951367" lon="6.903550">
        <ele>1517.0</ele>
        <time>2014-08-30T14:40:25Z</time>
      </trkpt>
      <trkpt lat="45.951367" lon="6.903717">
        <ele>1515.0</ele>
        <time>2014-08-30T14:40:26Z</time>
      </trkpt>
      <trkpt lat="45.951383" lon="6.903900">
        <ele>1514.0</ele>
        <time>2014-08-30T14:40:27Z</time>
      </trkpt>
      <trkpt lat="45.951400" lon="6.904067">
        <ele>1515.0</ele>
        <time>2014-08-30T14:40:28Z</time>
      </trkpt>
      <trkpt lat="45.951417" lon="6.904233">
        <ele>1516.0</ele>
        <time>2014-08-30T14:40:29Z</time>
      </trkpt>
      <trkpt lat="45.951433" lon="6.904383">
        <ele>1518.0</ele>
        <time>2014-08-30T14:40:30Z</time>
      </trkpt>
      <trkpt lat="45.951450" lon="6.904517">
        <ele>1518.0</ele>
        <time>2014-08-30T14:40:31Z</time>
      </trkpt>
      <trkpt lat="45.951450" lon="6.904650">
        <ele>1518.0</ele>
        <time>2014-08-30T14:40:32Z</time>
      </trkpt>
      <trkpt lat="45.951467" lon="6.904817">
        <ele>1516.0</ele>
        <time>2014-08-30T14:40:33Z</time>
      </trkpt>
      <trkpt lat="45.951483" lon="6.904983">
        <ele>1514.0</ele>
        <time>2014-08-30T14:40:34Z</time>
      </trkpt>
      <trkpt lat="45.951483" lon="6.905167">
        <ele>1513.0</ele>
        <time>2014-08-30T14:40:35Z</time>
      </trkpt>
      <trkpt lat="45.951500" lon="6.905317">
        <ele>1514.0</ele>
        <time>2014-08-30T14:40:36Z</time>
      </trkpt>
      <trkpt lat="45.951517" lon="6.905467">
        <ele>1515.0</ele>
        <time>2014-08-30T14:40:37Z</time>
      </trkpt>
      <trkpt lat="45.951550" lon="6.905600">
        <ele>1515.0</ele>
        <time>2014-08-30T14:40:38Z</time>
      </trkpt>
      <trkpt lat="45.951567" lon="6.905750">
        <ele>1513.0</ele>
        <time>2014-08-30T14:40:39Z</time>
      </trkpt>
      <trkpt lat="45.951600" lon="6.905917">
        <ele>1512.0</ele>
        <time>2014-08-30T14:40:40Z</time>
      </trkpt>
      <trkpt lat="45.951617" lon="6.906083">
        <ele>1511.0</ele>
        <time>2014-08-30T14:40:41Z</time>
      </trkpt>
      <trkpt lat="45.951650" lon="6.906250">
        <ele>1512.0</ele>
        <time>2014-08-30T14:40:42Z</time>
      </trkpt>
      <trkpt lat="45.951683" lon="6.906400">
        <ele>1513.0</ele>
        <time>2014-08-30T14:40:43Z</time>
      </trkpt>
      <trkpt lat="45.951717" lon="6.906550">
        <ele>1514.0</ele>
        <time>2014-08-30T14:40:44Z</time>
      </trkpt>
      <trkpt lat="45.951733" lon="6.906700">
        <ele>1515.0</ele>
        <time>2014-08-30T14:40:45Z</time>
      </trkpt>
      <trkpt lat="45.951750" lon="6.906850">
        <ele>1516.0</ele>
        <time>2014-08-30T14:40:46Z</time>
      </trkpt>
      <trkpt lat="45.951750" lon="6.907017">
        <ele>1517.0</ele>
        <time>2014-08-30T14:40:47Z</time>
      </trkpt>
      <trkpt lat="45.951767" lon="6.907167">
        <ele>1518.0</ele>
        <time>2014-08-30T14:40:48Z</time>
      </trkpt>
      <trkpt lat="45.951767" lon="6.907333">
        <ele>1520.0</ele>
        <time>2014-08-30T14:40:49Z</time>
      </trkpt>
      <trkpt lat="45.951767" lon="6.907483">
        <ele>1521.0</ele>
        <time>2014-08-30T14:40:50Z</time>
      </trkpt>
      <trkpt lat="45.951767" lon="6.907633">
        <ele>1522.0</ele>
        <time>2014-08-30T14:40:51Z</time>
      </trkpt>
      <trkpt lat="45.951767" lon="6.907783">
        <ele>1523.0</ele>
        <time>2014-08-30T14:40:52Z</time>
      </trkpt>
      <trkpt lat="45.951783" lon="6.907933">
        <ele>1524.0</ele>
        <time>2014-08-30T14:40:53Z</time>
      </trkpt>
      <trkpt lat="45.951783" lon="6.908100">
        <ele>1524.0</ele>
        <time>2014-08-30T14:40:54Z</time>
      </trkpt>
      <trkpt lat="45.951767" lon="6.908250">
        <ele>1524.0</ele>
        <time>2014-08-30T14:40:55Z</time>
      </trkpt>
      <trkpt lat="45.951767" lon="6.908400">
        <ele>1524.0</ele>
        <time>2014-08-30T14:40:56Z</time>
      </trkpt>
      <trkpt lat="45.951750" lon="6.908550">
        <ele>1524.0</ele>
        <time>2014-08-30T14:40:57Z</time>
      </trkpt>
      <trkpt lat="45.951750" lon="6.908683">
        <ele>1525.0</ele>
        <time>2014-08-30T14:40:58Z</time>
      </trkpt>
      <trkpt lat="45.951733" lon="6.908817">
        <ele>1526.0</ele>
        <time>2014-08-30T14:40:59Z</time>
      </trkpt>
      <trkpt lat="45.951717" lon="6.908967">
        <ele>1526.0</ele>
        <time>2014-08-30T14:41:00Z</time>
      </trkpt>
      <trkpt lat="45.951700" lon="6.909100">
        <ele>1527.0</ele>
        <time>2014-08-30T14:41:01Z</time>
      </trkpt>
      <trkpt lat="45.951700" lon="6.909217">
        <ele>1529.0</ele>
        <time>2014-08-30T14:41:02Z</time>
      </trkpt>
      <trkpt lat="45.951700" lon="6.909333">
        <ele>1530.0</ele>
        <time>2014-08-30T14:41:03Z</time>
      </trkpt>
      <trkpt lat="45.951700" lon="6.909433">
        <ele>1530.0</ele>
        <time>2014-08-30T14:41:04Z</time>
      </trkpt>
      <trkpt lat="45.951683" lon="6.909533">
        <ele>1529.0</ele>
        <time>2014-08-30T14:41:05Z</time>
      </trkpt>
      <trkpt lat="45.951667" lon="6.909667">
        <ele>1527.0</ele>
        <time>2014-08-30T14:41:06Z</time>
      </trkpt>
      <trkpt lat="45.951650" lon="6.909817">
        <ele>1528.0</ele>
        <time>2014-08-30T14:41:07Z</time>
      </trkpt>
      <trkpt lat="45.951650" lon="6.909967">
        <ele>1530.0</ele>
        <time>2014-08-30T14:41:08Z</time>
      </trkpt>
      <trkpt lat="45.951667" lon="6.910100">
        <ele>1532.0</ele>
        <time>2014-08-30T14:41:09Z</time>
      </trkpt>
      <trkpt lat="45.951717" lon="6.910250">
        <ele>1534.0</ele>
        <time>2014-08-30T14:41:10Z</time>
      </trkpt>
      <trkpt lat="45.951783" lon="6.910400">
        <ele>1536.0</ele>
        <time>2014-08-30T14:41:11Z</time>
      </trkpt>
      <trkpt lat="45.951850" lon="6.910533">
        <ele>1537.0</ele>
        <time>2014-08-30T14:41:12Z</time>
      </trkpt>
      <trkpt lat="45.951933" lon="6.910650">
        <ele>1538.0</ele>
        <time>2014-08-30T14:41:13Z</time>
      </trkpt>
      <trkpt lat="45.952033" lon="6.910767">
        <ele>1538.0</ele>
        <time>2014-08-30T14:41:14Z</time>
      </trkpt>
      <trkpt lat="45.952150" lon="6.910867">
        <ele>1538.0</ele>
        <time>2014-08-30T14:41:15Z</time>
      </trkpt>
      <trkpt lat="45.952267" lon="6.910950">
        <ele>1539.0</ele>
        <time>2014-08-30T14:41:16Z</time>
      </trkpt>
      <trkpt lat="45.952383" lon="6.911017">
        <ele>1540.0</ele>
        <time>2014-08-30T14:41:17Z</time>
      </trkpt>
      <trkpt lat="45.952500" lon="6.911083">
        <ele>1541.0</ele>
        <time>2014-08-30T14:41:18Z</time>
      </trkpt>
      <trkpt lat="45.952617" lon="6.911150">
        <ele>1542.0</ele>
        <time>2014-08-30T14:41:19Z</time>
      </trkpt>
      <trkpt lat="45.952733" lon="6.911217">
        <ele>1542.0</ele>
        <time>2014-08-30T14:41:20Z</time>
      </trkpt>
      <trkpt lat="45.952867" lon="6.911267">
        <ele>1542.0</ele>
        <time>2014-08-30T14:41:21Z</time>
      </trkpt>
      <trkpt lat="45.953000" lon="6.911300">
        <ele>1543.0</ele>
        <time>2014-08-30T14:41:22Z</time>
      </trkpt>
      <trkpt lat="45.953150" lon="6.911300">
        <ele>1545.0</ele>
        <time>2014-08-30T14:41:23Z</time>
      </trkpt>
      <trkpt lat="45.953267" lon="6.911350">
        <ele>1547.0</ele>
        <time>2014-08-30T14:41:24Z</time>
      </trkpt>
      <trkpt lat="45.953400" lon="6.911400">
        <ele>1547.0</ele>
        <time>2014-08-30T14:41:25Z</time>
      </trkpt>
      <trkpt lat="45.953517" lon="6.911483">
        <ele>1546.0</ele>
        <time>2014-08-30T14:41:26Z</time>
      </trkpt>
      <trkpt lat="45.953650" lon="6.911550">
        <ele>1546.0</ele>
        <time>2014-08-30T14:41:27Z</time>
      </trkpt>
      <trkpt lat="45.953767" lon="6.911600">
        <ele>1547.0</ele>
        <time>2014-08-30T14:41:28Z</time>
      </trkpt>
      <trkpt lat="45.953883" lon="6.911667">
        <ele>1547.0</ele>
        <time>2014-08-30T14:41:29Z</time>
      </trkpt>
      <trkpt lat="45.953983" lon="6.911767">
        <ele>1547.0</ele>
        <time>2014-08-30T14:41:30Z</time>
      </trkpt>
      <trkpt lat="45.954083" lon="6.911883">
        <ele>1546.0</ele>
        <time>2014-08-30T14:41:31Z</time>
      </trkpt>
      <trkpt lat="45.954183" lon="6.912017">
        <ele>1546.0</ele>
        <time>2014-08-30T14:41:32Z</time>
      </trkpt>
      <trkpt lat="45.954283" lon="6.912133">
        <ele>1546.0</ele>
        <time>2014-08-30T14:41:33Z</time>
      </trkpt>
      <trkpt lat="45.954367" lon="6.912283">
        <ele>1545.0</ele>
        <time>2014-08-30T14:41:34Z</time>
      </trkpt>
      <trkpt lat="45.954450" lon="6.912417">
        <ele>1544.0</ele>
        <time>2014-08-30T14:41:35Z</time>
      </trkpt>
      <trkpt lat="45.954533" lon="6.912533">
        <ele>1543.0</ele>
        <time>2014-08-30T14:41:36Z</time>
      </trkpt>
      <trkpt lat="45.954667" lon="6.912633">
        <ele>1542.0</ele>
        <time>2014-08-30T14:41:37Z</time>
      </trkpt>
      <trkpt lat="45.954800" lon="6.912700">
        <ele>1544.0</ele>
        <time>2014-08-30T14:41:38Z</time>
      </trkpt>
      <trkpt lat="45.954900" lon="6.912717">
        <ele>1547.0</ele>
        <time>2014-08-30T14:41:39Z</time>
      </trkpt>
      <trkpt lat="45.954967" lon="6.912700">
        <ele>1549.0</ele>
        <time>2014-08-30T14:41:40Z</time>
      </trkpt>
      <trkpt lat="45.955017" lon="6.912667">
        <ele>1548.0</ele>
        <time>2014-08-30T14:41:41Z</time>
      </trkpt>
      <trkpt lat="45.955083" lon="6.912667">
        <ele>1545.0</ele>
        <time>2014-08-30T14:41:42Z</time>
      </trkpt>
      <trkpt lat="45.955150" lon="6.912650">
        <ele>1541.0</ele>
        <time>2014-08-30T14:41:43Z</time>
      </trkpt>
      <trkpt lat="45.955217" lon="6.912617">
        <ele>1538.0</ele>
        <time>2014-08-30T14:41:44Z</time>
      </trkpt>
      <trkpt lat="45.955250" lon="6.912533">
        <ele>1534.0</ele>
        <time>2014-08-30T14:41:45Z</time>
      </trkpt>
      <trkpt lat="45.955233" lon="6.912467">
        <ele>1530.0</ele>
        <time>2014-08-30T14:41:46Z</time>
      </trkpt>
      <trkpt lat="45.955200" lon="6.912417">
        <ele>1529.0</ele>
        <time>2014-08-30T14:41:47Z</time>
      </trkpt>
      <trkpt lat="45.955200" lon="6.912383">
        <ele>1529.0</ele>
        <time>2014-08-30T14:41:48Z</time>
      </trkpt>
      <trkpt lat="45.955217" lon="6.912367">
        <ele>1529.0</ele>
        <time>2014-08-30T14:41:49Z</time>
      </trkpt>
      <trkpt lat="45.955233" lon="6.912333">
        <ele>1527.0</ele>
        <time>2014-08-30T14:41:50Z</time>
      </trkpt>
      <trkpt lat="45.955233" lon="6.912300">
        <ele>1525.0</ele>
        <time>2014-08-30T14:41:51Z</time>
      </trkpt>
      <trkpt lat="45.955217" lon="6.912250">
        <ele>1522.0</ele>
        <time>2014-08-30T14:41:52Z</time>
      </trkpt>
      <trkpt lat="45.955183" lon="6.912217">
        <ele>1520.0</ele>
        <time>2014-08-30T14:41:53Z</time>
      </trkpt>
      <trkpt lat="45.955150" lon="6.912167">
        <ele>1520.0</ele>
        <time>2014-08-30T14:41:54Z</time>
      </trkpt>
      <trkpt lat="45.955150" lon="6.912133">
        <ele>1520.0</ele>
        <time>2014-08-30T14:41:55Z</time>
      </trkpt>
      <trkpt lat="45.955150" lon="6.912083">
        <ele>1519.0</ele>
        <time>2014-08-30T14:41:56Z</time>
      </trkpt>
      <trkpt lat="45.955133" lon="6.912050">
        <ele>1517.0</ele>
        <time>2014-08-30T14:41:57Z</time>
      </trkpt>
      <trkpt lat="45.955100" lon="6.912017">
        <ele>1514.0</ele>
        <time>2014-08-30T14:41:58Z</time>
      </trkpt>
      <trkpt lat="45.955067" lon="6.911967">
        <ele>1512.0</ele>
        <time>2014-08-30T14:41:59Z</time>
      </trkpt>
      <trkpt lat="45.955033" lon="6.911917">
        <ele>1510.0</ele>
        <time>2014-08-30T14:42:00Z</time>
      </trkpt>
      <trkpt lat="45.955017" lon="6.911883">
        <ele>1509.0</ele>
        <time>2014-08-30T14:42:01Z</time>
      </trkpt>
      <trkpt lat="45.954983" lon="6.911850">
        <ele>1507.0</ele>
        <time>2014-08-30T14:42:02Z</time>
      </trkpt>
      <trkpt lat="45.954967" lon="6.911817">
        <ele>1505.0</ele>
        <time>2014-08-30T14:42:03Z</time>
      </trkpt>
      <trkpt lat="45.954933" lon="6.911800">
        <ele>1502.0</ele>
        <time>2014-08-30T14:42:04Z</time>
      </trkpt>
      <trkpt lat="45.954900" lon="6.911767">
        <ele>1501.0</ele>
        <time>2014-08-30T14:42:05Z</time>
      </trkpt>
      <trkpt lat="45.954867" lon="6.911717">
        <ele>1500.0</ele>
        <time>2014-08-30T14:42:06Z</time>
      </trkpt>
      <trkpt lat="45.954833" lon="6.911683">
        <ele>1500.0</ele>
        <time>2014-08-30T14:42:07Z</time>
      </trkpt>
      <trkpt lat="45.954833" lon="6.911683">
        <ele>1501.0</ele>
        <time>2014-08-30T14:42:08Z</time>
      </trkpt>
      <trkpt lat="45.954817" lon="6.911700">
        <ele>1502.0</ele>
        <time>2014-08-30T14:42:09Z</time>
      </trkpt>
      <trkpt lat="45.954800" lon="6.911717">
        <ele>1500.0</ele>
        <time>2014-08-30T14:42:10Z</time>
      </trkpt>
      <trkpt lat="45.954800" lon="6.911733">
        <ele>1498.0</ele>
        <time>2014-08-30T14:42:11Z</time>
      </trkpt>
      <trkpt lat="45.954783" lon="6.911733">
        <ele>1496.0</ele>
        <time>2014-08-30T14:42:12Z</time>
      </trkpt>
      <trkpt lat="45.954783" lon="6.911717">
        <ele>1494.0</ele>
        <time>2014-08-30T14:42:13Z</time>
      </trkpt>
      <trkpt lat="45.954783" lon="6.911667">
        <ele>1492.0</ele>
        <time>2014-08-30T14:42:14Z</time>
      </trkpt>
      <trkpt lat="45.954783" lon="6.911633">
        <ele>1490.0</ele>
        <time>2014-08-30T14:42:15Z</time>
      </trkpt>
      <trkpt lat="45.954800" lon="6.911600">
        <ele>1488.0</ele>
        <time>2014-08-30T14:42:16Z</time>
      </trkpt>
      <trkpt lat="45.954817" lon="6.911550">
        <ele>1485.0</ele>
        <time>2014-08-30T14:42:17Z</time>
      </trkpt>
      <trkpt lat="45.954833" lon="6.911500">
        <ele>1483.0</ele>
        <time>2014-08-30T14:42:18Z</time>
      </trkpt>
      <trkpt lat="45.954850" lon="6.911450">
        <ele>1481.0</ele>
        <time>2014-08-30T14:42:19Z</time>
      </trkpt>
      <trkpt lat="45.954867" lon="6.911400">
        <ele>1479.0</ele>
        <time>2014-08-30T14:42:20Z</time>
      </trkpt>
      <trkpt lat="45.954883" lon="6.911333">
        <ele>1479.0</ele>
        <time>2014-08-30T14:42:21Z</time>
      </trkpt>
      <trkpt lat="45.954883" lon="6.911283">
        <ele>1479.0</ele>
        <time>2014-08-30T14:42:22Z</time>
      </trkpt>
      <trkpt lat="45.954867" lon="6.911233">
        <ele>1480.0</ele>
        <time>2014-08-30T14:42:23Z</time>
      </trkpt>
      <trkpt lat="45.954867" lon="6.911167">
        <ele>1481.0</ele>
        <time>2014-08-30T14:42:24Z</time>
      </trkpt>
      <trkpt lat="45.954883" lon="6.911133">
        <ele>1485.0</ele>
        <time>2014-08-30T14:42:25Z</time>
      </trkpt>
      <trkpt lat="45.954900" lon="6.911100">
        <ele>1488.0</ele>
        <time>2014-08-30T14:42:26Z</time>
      </trkpt>
      <trkpt lat="45.954900" lon="6.911083">
        <ele>1489.0</ele>
        <time>2014-08-30T14:42:27Z</time>
      </trkpt>
      <trkpt lat="45.954900" lon="6.911033">
        <ele>1489.0</ele>
        <time>2014-08-30T14:42:28Z</time>
      </trkpt>
      <trkpt lat="45.954883" lon="6.910983">
        <ele>1487.0</ele>
        <time>2014-08-30T14:42:29Z</time>
      </trkpt>
      <trkpt lat="45.954867" lon="6.910900">
        <ele>1487.0</ele>
        <time>2014-08-30T14:42:30Z</time>
      </trkpt>
      <trkpt lat="45.954883" lon="6.910833">
        <ele>1488.0</ele>
        <time>2014-08-30T14:42:31Z</time>
      </trkpt>
      <trkpt lat="45.954883" lon="6.910800">
        <ele>1489.0</ele>
        <time>2014-08-30T14:42:32Z</time>
      </trkpt>
      <trkpt lat="45.954883" lon="6.910783">
        <ele>1488.0</ele>
        <time>2014-08-30T14:42:33Z</time>
      </trkpt>
      <trkpt lat="45.954867" lon="6.910750">
        <ele>1485.0</ele>
        <time>2014-08-30T14:42:34Z</time>
      </trkpt>
      <trkpt lat="45.954850" lon="6.910717">
        <ele>1483.0</ele>
        <time>2014-08-30T14:42:35Z</time>
      </trkpt>
      <trkpt lat="45.954817" lon="6.910667">
        <ele>1482.0</ele>
        <time>2014-08-30T14:42:36Z</time>
      </trkpt>
      <trkpt lat="45.954783" lon="6.910650">
        <ele>1482.0</ele>
        <time>2014-08-30T14:42:37Z</time>
      </trkpt>
      <trkpt lat="45.954783" lon="6.910633">
        <ele>1483.0</ele>
        <time>2014-08-30T14:42:38Z</time>
      </trkpt>
      <trkpt lat="45.954767" lon="6.910650">
        <ele>1482.0</ele>
        <time>2014-08-30T14:42:39Z</time>
      </trkpt>
      <trkpt lat="45.954733" lon="6.910650">
        <ele>1480.0</ele>
        <time>2014-08-30T14:42:40Z</time>
      </trkpt>
      <trkpt lat="45.954717" lon="6.910617">
        <ele>1479.0</ele>
        <time>2014-08-30T14:42:41Z</time>
      </trkpt>
      <trkpt lat="45.954683" lon="6.910567">
        <ele>1477.0</ele>
        <time>2014-08-30T14:42:42Z</time>
      </trkpt>
      <trkpt lat="45.954667" lon="6.910500">
        <ele>1477.0</ele>
        <time>2014-08-30T14:42:43Z</time>
      </trkpt>
      <trkpt lat="45.954667" lon="6.910450">
        <ele>1477.0</ele>
        <time>2014-08-30T14:42:44Z</time>
      </trkpt>
      <trkpt lat="45.954667" lon="6.910417">
        <ele>1479.0</ele>
        <time>2014-08-30T14:42:45Z</time>
      </trkpt>
      <trkpt lat="45.954667" lon="6.910383">
        <ele>1480.0</ele>
        <time>2014-08-30T14:42:46Z</time>
      </trkpt>
      <trkpt lat="45.954683" lon="6.910350">
        <ele>1479.0</ele>
        <time>2014-08-30T14:42:47Z</time>
      </trkpt>
      <trkpt lat="45.954700" lon="6.910300">
        <ele>1478.0</ele>
        <time>2014-08-30T14:42:48Z</time>
      </trkpt>
      <trkpt lat="45.954700" lon="6.910233">
        <ele>1475.0</ele>
        <time>2014-08-30T14:42:49Z</time>
      </trkpt>
      <trkpt lat="45.954683" lon="6.910167">
        <ele>1473.0</ele>
        <time>2014-08-30T14:42:50Z</time>
      </trkpt>
      <trkpt lat="45.954667" lon="6.910117">
        <ele>1472.0</ele>
        <time>2014-08-30T14:42:51Z</time>
      </trkpt>
      <trkpt lat="45.954650" lon="6.910067">
        <ele>1472.0</ele>
        <time>2014-08-30T14:42:52Z</time>
      </trkpt>
      <trkpt lat="45.954633" lon="6.910033">
        <ele>1471.0</ele>
        <time>2014-08-30T14:42:53Z</time>
      </trkpt>
      <trkpt lat="45.954617" lon="6.910000">
        <ele>1470.0</ele>
        <time>2014-08-30T14:42:54Z</time>
      </trkpt>
      <trkpt lat="45.954600" lon="6.909983">
        <ele>1468.0</ele>
        <time>2014-08-30T14:42:55Z</time>
      </trkpt>
      <trkpt lat="45.954567" lon="6.909950">
        <ele>1467.0</ele>
        <time>2014-08-30T14:42:56Z</time>
      </trkpt>
      <trkpt lat="45.954550" lon="6.909950">
        <ele>1466.0</ele>
        <time>2014-08-30T14:42:57Z</time>
      </trkpt>
      <trkpt lat="45.954517" lon="6.909933">
        <ele>1465.0</ele>
        <time>2014-08-30T14:42:58Z</time>
      </trkpt>
      <trkpt lat="45.954500" lon="6.909933">
        <ele>1464.0</ele>
        <time>2014-08-30T14:42:59Z</time>
      </trkpt>
      <trkpt lat="45.954467" lon="6.909917">
        <ele>1464.0</ele>
        <time>2014-08-30T14:43:00Z</time>
      </trkpt>
      <trkpt lat="45.954450" lon="6.909883">
        <ele>1464.0</ele>
        <time>2014-08-30T14:43:01Z</time>
      </trkpt>
      <trkpt lat="45.954417" lon="6.909867">
        <ele>1464.0</ele>
        <time>2014-08-30T14:43:02Z</time>
      </trkpt>
      <trkpt lat="45.954383" lon="6.909833">
        <ele>1464.0</ele>
        <time>2014-08-30T14:43:03Z</time>
      </trkpt>
      <trkpt lat="45.954367" lon="6.909817">
        <ele>1464.0</ele>
        <time>2014-08-30T14:43:04Z</time>
      </trkpt>
      <trkpt lat="45.954333" lon="6.909800">
        <ele>1464.0</ele>
        <time>2014-08-30T14:43:05Z</time>
      </trkpt>
      <trkpt lat="45.954317" lon="6.909783">
        <ele>1463.0</ele>
        <time>2014-08-30T14:43:06Z</time>
      </trkpt>
      <trkpt lat="45.954300" lon="6.909750">
        <ele>1462.0</ele>
        <time>2014-08-30T14:43:07Z</time>
      </trkpt>
      <trkpt lat="45.954267" lon="6.909717">
        <ele>1461.0</ele>
        <time>2014-08-30T14:43:08Z</time>
      </trkpt>
      <trkpt lat="45.954233" lon="6.909717">
        <ele>1460.0</ele>
        <time>2014-08-30T14:43:09Z</time>
      </trkpt>
      <trkpt lat="45.954200" lon="6.909700">
        <ele>1459.0</ele>
        <time>2014-08-30T14:43:10Z</time>
      </trkpt>
      <trkpt lat="45.954167" lon="6.909683">
        <ele>1459.0</ele>
        <time>2014-08-30T14:43:11Z</time>
      </trkpt>
      <trkpt lat="45.954150" lon="6.909667">
        <ele>1458.0</ele>
        <time>2014-08-30T14:43:12Z</time>
      </trkpt>
      <trkpt lat="45.954133" lon="6.909633">
        <ele>1457.0</ele>
        <time>2014-08-30T14:43:13Z</time>
      </trkpt>
      <trkpt lat="45.954117" lon="6.909617">
        <ele>1455.0</ele>
        <time>2014-08-30T14:43:14Z</time>
      </trkpt>
      <trkpt lat="45.954083" lon="6.909583">
        <ele>1454.0</ele>
        <time>2014-08-30T14:43:15Z</time>
      </trkpt>
      <trkpt lat="45.954050" lon="6.909567">
        <ele>1452.0</ele>
        <time>2014-08-30T14:43:16Z</time>
      </trkpt>
      <trkpt lat="45.954033" lon="6.909533">
        <ele>1451.0</ele>
        <time>2014-08-30T14:43:17Z</time>
      </trkpt>
      <trkpt lat="45.954000" lon="6.909517">
        <ele>1450.0</ele>
        <time>2014-08-30T14:43:18Z</time>
      </trkpt>
      <trkpt lat="45.953983" lon="6.909500">
        <ele>1449.0</ele>
        <time>2014-08-30T14:43:19Z</time>
      </trkpt>
      <trkpt lat="45.953950" lon="6.909483">
        <ele>1447.0</ele>
        <time>2014-08-30T14:43:20Z</time>
      </trkpt>
      <trkpt lat="45.953917" lon="6.909467">
        <ele>1445.0</ele>
        <time>2014-08-30T14:43:21Z</time>
      </trkpt>
      <trkpt lat="45.953900" lon="6.909433">
        <ele>1443.0</ele>
        <time>2014-08-30T14:43:22Z</time>
      </trkpt>
      <trkpt lat="45.953883" lon="6.909383">
        <ele>1441.0</ele>
        <time>2014-08-30T14:43:23Z</time>
      </trkpt>
      <trkpt lat="45.953850" lon="6.909333">
        <ele>1439.0</ele>
        <time>2014-08-30T14:43:24Z</time>
      </trkpt>
      <trkpt lat="45.953833" lon="6.909267">
        <ele>1438.0</ele>
        <time>2014-08-30T14:43:25Z</time>
      </trkpt>
      <trkpt lat="45.953817" lon="6.909217">
        <ele>1436.0</ele>
        <time>2014-08-30T14:43:26Z</time>
      </trkpt>
      <trkpt lat="45.953800" lon="6.909167">
        <ele>1435.0</ele>
        <time>2014-08-30T14:43:27Z</time>
      </trkpt>
      <trkpt lat="45.953767" lon="6.909133">
        <ele>1433.0</ele>
        <time>2014-08-30T14:43:28Z</time>
      </trkpt>
      <trkpt lat="45.953750" lon="6.909067">
        <ele>1431.0</ele>
        <time>2014-08-30T14:43:29Z</time>
      </trkpt>
      <trkpt lat="45.953717" lon="6.909017">
        <ele>1428.0</ele>
        <time>2014-08-30T14:43:30Z</time>
      </trkpt>
      <trkpt lat="45.953700" lon="6.908950">
        <ele>1427.0</ele>
        <time>2014-08-30T14:43:31Z</time>
      </trkpt>
      <trkpt lat="45.953667" lon="6.908917">
        <ele>1425.0</ele>
        <time>2014-08-30T14:43:32Z</time>
      </trkpt>
      <trkpt lat="45.953650" lon="6.908883">
        <ele>1424.0</ele>
        <time>2014-08-30T14:43:33Z</time>
      </trkpt>
      <trkpt lat="45.953617" lon="6.908833">
        <ele>1421.0</ele>
        <time>2014-08-30T14:43:34Z</time>
      </trkpt>
      <trkpt lat="45.953583" lon="6.908767">
        <ele>1419.0</ele>
        <time>2014-08-30T14:43:35Z</time>
      </trkpt>
      <trkpt lat="45.953550" lon="6.908733">
        <ele>1418.0</ele>
        <time>2014-08-30T14:43:36Z</time>
      </trkpt>
      <trkpt lat="45.953517" lon="6.908733">
        <ele>1418.0</ele>
        <time>2014-08-30T14:43:37Z</time>
      </trkpt>
      <trkpt lat="45.953467" lon="6.908733">
        <ele>1416.0</ele>
        <time>2014-08-30T14:43:38Z</time>
      </trkpt>
      <trkpt lat="45.953417" lon="6.908717">
        <ele>1414.0</ele>
        <time>2014-08-30T14:43:39Z</time>
      </trkpt>
      <trkpt lat="45.953383" lon="6.908667">
        <ele>1412.0</ele>
        <time>2014-08-30T14:43:40Z</time>
      </trkpt>
      <trkpt lat="45.953333" lon="6.908583">
        <ele>1413.0</ele>
        <time>2014-08-30T14:43:41Z</time>
      </trkpt>
      <trkpt lat="45.953300" lon="6.908517">
        <ele>1416.0</ele>
        <time>2014-08-30T14:43:42Z</time>
      </trkpt>
      <trkpt lat="45.953283" lon="6.908450">
        <ele>1419.0</ele>
        <time>2014-08-30T14:43:43Z</time>
      </trkpt>
      <trkpt lat="45.953267" lon="6.908367">
        <ele>1420.0</ele>
        <time>2014-08-30T14:43:44Z</time>
      </trkpt>
      <trkpt lat="45.953250" lon="6.908300">
        <ele>1421.0</ele>
        <time>2014-08-30T14:43:45Z</time>
      </trkpt>
      <trkpt lat="45.953250" lon="6.908267">
        <ele>1421.0</ele>
        <time>2014-08-30T14:43:46Z</time>
      </trkpt>
      <trkpt lat="45.953233" lon="6.908233">
        <ele>1420.0</ele>
        <time>2014-08-30T14:43:47Z</time>
      </trkpt>
      <trkpt lat="45.953217" lon="6.908200">
        <ele>1418.0</ele>
        <time>2014-08-30T14:43:48Z</time>
      </trkpt>
      <trkpt lat="45.953200" lon="6.908167">
        <ele>1416.0</ele>
        <time>2014-08-30T14:43:49Z</time>
      </trkpt>
      <trkpt lat="45.953167" lon="6.908133">
        <ele>1414.0</ele>
        <time>2014-08-30T14:43:50Z</time>
      </trkpt>
      <trkpt lat="45.953150" lon="6.908100">
        <ele>1412.0</ele>
        <time>2014-08-30T14:43:51Z</time>
      </trkpt>
      <trkpt lat="45.953117" lon="6.908067">
        <ele>1411.0</ele>
        <time>2014-08-30T14:43:52Z</time>
      </trkpt>
      <trkpt lat="45.953100" lon="6.908050">
        <ele>1411.0</ele>
        <time>2014-08-30T14:43:53Z</time>
      </trkpt>
      <trkpt lat="45.953067" lon="6.908050">
        <ele>1410.0</ele>
        <time>2014-08-30T14:43:54Z</time>
      </trkpt>
      <trkpt lat="45.953050" lon="6.908017">
        <ele>1408.0</ele>
        <time>2014-08-30T14:43:55Z</time>
      </trkpt>
      <trkpt lat="45.953033" lon="6.908000">
        <ele>1407.0</ele>
        <time>2014-08-30T14:43:56Z</time>
      </trkpt>
      <trkpt lat="45.953000" lon="6.907983">
        <ele>1406.0</ele>
        <time>2014-08-30T14:43:57Z</time>
      </trkpt>
      <trkpt lat="45.952983" lon="6.907983">
        <ele>1405.0</ele>
        <time>2014-08-30T14:43:58Z</time>
      </trkpt>
      <trkpt lat="45.952967" lon="6.907950">
        <ele>1404.0</ele>
        <time>2014-08-30T14:43:59Z</time>
      </trkpt>
      <trkpt lat="45.952950" lon="6.907900">
        <ele>1403.0</ele>
        <time>2014-08-30T14:44:00Z</time>
      </trkpt>
      <trkpt lat="45.952933" lon="6.907850">
        <ele>1402.0</ele>
        <time>2014-08-30T14:44:01Z</time>
      </trkpt>
      <trkpt lat="45.952900" lon="6.907800">
        <ele>1402.0</ele>
        <time>2014-08-30T14:44:02Z</time>
      </trkpt>
      <trkpt lat="45.952900" lon="6.907767">
        <ele>1402.0</ele>
        <time>2014-08-30T14:44:03Z</time>
      </trkpt>
      <trkpt lat="45.952883" lon="6.907750">
        <ele>1402.0</ele>
        <time>2014-08-30T14:44:04Z</time>
      </trkpt>
      <trkpt lat="45.952883" lon="6.907717">
        <ele>1401.0</ele>
        <time>2014-08-30T14:44:05Z</time>
      </trkpt>
      <trkpt lat="45.952867" lon="6.907683">
        <ele>1398.0</ele>
        <time>2014-08-30T14:44:06Z</time>
      </trkpt>
      <trkpt lat="45.952833" lon="6.907650">
        <ele>1396.0</ele>
        <time>2014-08-30T14:44:07Z</time>
      </trkpt>
      <trkpt lat="45.952800" lon="6.907600">
        <ele>1394.0</ele>
        <time>2014-08-30T14:44:08Z</time>
      </trkpt>
      <trkpt lat="45.952783" lon="6.907550">
        <ele>1394.0</ele>
        <time>2014-08-30T14:44:09Z</time>
      </trkpt>
      <trkpt lat="45.952767" lon="6.907517">
        <ele>1393.0</ele>
        <time>2014-08-30T14:44:10Z</time>
      </trkpt>
      <trkpt lat="45.952750" lon="6.907483">
        <ele>1392.0</ele>
        <time>2014-08-30T14:44:11Z</time>
      </trkpt>
      <trkpt lat="45.952733" lon="6.907450">
        <ele>1391.0</ele>
        <time>2014-08-30T14:44:12Z</time>
      </trkpt>
      <trkpt lat="45.952700" lon="6.907400">
        <ele>1390.0</ele>
        <time>2014-08-30T14:44:13Z</time>
      </trkpt>
      <trkpt lat="45.952667" lon="6.907383">
        <ele>1390.0</ele>
        <time>2014-08-30T14:44:14Z</time>
      </trkpt>
      <trkpt lat="45.952650" lon="6.907367">
        <ele>1390.0</ele>
        <time>2014-08-30T14:44:15Z</time>
      </trkpt>
      <trkpt lat="45.952617" lon="6.907367">
        <ele>1389.0</ele>
        <time>2014-08-30T14:44:16Z</time>
      </trkpt>
      <trkpt lat="45.952583" lon="6.907350">
        <ele>1389.0</ele>
        <time>2014-08-30T14:44:17Z</time>
      </trkpt>
      <trkpt lat="45.952567" lon="6.907333">
        <ele>1389.0</ele>
        <time>2014-08-30T14:44:18Z</time>
      </trkpt>
      <trkpt lat="45.952550" lon="6.907283">
        <ele>1389.0</ele>
        <time>2014-08-30T14:44:19Z</time>
      </trkpt>
      <trkpt lat="45.952533" lon="6.907233">
        <ele>1388.0</ele>
        <time>2014-08-30T14:44:20Z</time>
      </trkpt>
      <trkpt lat="45.952517" lon="6.907217">
        <ele>1388.0</ele>
        <time>2014-08-30T14:44:21Z</time>
      </trkpt>
      <trkpt lat="45.952500" lon="6.907183">
        <ele>1387.0</ele>
        <time>2014-08-30T14:44:22Z</time>
      </trkpt>
      <trkpt lat="45.952483" lon="6.907150">
        <ele>1386.0</ele>
        <time>2014-08-30T14:44:23Z</time>
      </trkpt>
      <trkpt lat="45.952467" lon="6.907100">
        <ele>1385.0</ele>
        <time>2014-08-30T14:44:24Z</time>
      </trkpt>
      <trkpt lat="45.952433" lon="6.907067">
        <ele>1386.0</ele>
        <time>2014-08-30T14:44:25Z</time>
      </trkpt>
      <trkpt lat="45.952400" lon="6.907067">
        <ele>1387.0</ele>
        <time>2014-08-30T14:44:26Z</time>
      </trkpt>
      <trkpt lat="45.952383" lon="6.907100">
        <ele>1387.0</ele>
        <time>2014-08-30T14:44:27Z</time>
      </trkpt>
      <trkpt lat="45.952367" lon="6.907117">
        <ele>1387.0</ele>
        <time>2014-08-30T14:44:28Z</time>
      </trkpt>
      <trkpt lat="45.952350" lon="6.907117">
        <ele>1386.0</ele>
        <time>2014-08-30T14:44:29Z</time>
      </trkpt>
      <trkpt lat="45.952333" lon="6.907117">
        <ele>1384.0</ele>
        <time>2014-08-30T14:44:30Z</time>
      </trkpt>
      <trkpt lat="45.952300" lon="6.907117">
        <ele>1383.0</ele>
        <time>2014-08-30T14:44:31Z</time>
      </trkpt>
      <trkpt lat="45.952267" lon="6.907100">
        <ele>1383.0</ele>
        <time>2014-08-30T14:44:32Z</time>
      </trkpt>
      <trkpt lat="45.952233" lon="6.907067">
        <ele>1383.0</ele>
        <time>2014-08-30T14:44:33Z</time>
      </trkpt>
      <trkpt lat="45.952217" lon="6.907033">
        <ele>1383.0</ele>
        <time>2014-08-30T14:44:34Z</time>
      </trkpt>
      <trkpt lat="45.952183" lon="6.907000">
        <ele>1382.0</ele>
        <time>2014-08-30T14:44:35Z</time>
      </trkpt>
      <trkpt lat="45.952167" lon="6.906967">
        <ele>1382.0</ele>
        <time>2014-08-30T14:44:36Z</time>
      </trkpt>
      <trkpt lat="45.952150" lon="6.906950">
        <ele>1381.0</ele>
        <time>2014-08-30T14:44:37Z</time>
      </trkpt>
      <trkpt lat="45.952133" lon="6.906933">
        <ele>1381.0</ele>
        <time>2014-08-30T14:44:38Z</time>
      </trkpt>
      <trkpt lat="45.952100" lon="6.906933">
        <ele>1381.0</ele>
        <time>2014-08-30T14:44:39Z</time>
      </trkpt>
      <trkpt lat="45.952067" lon="6.906950">
        <ele>1381.0</ele>
        <time>2014-08-30T14:44:40Z</time>
      </trkpt>
      <trkpt lat="45.952050" lon="6.906983">
        <ele>1382.0</ele>
        <time>2014-08-30T14:44:41Z</time>
      </trkpt>
      <trkpt lat="45.952033" lon="6.907017">
        <ele>1384.0</ele>
        <time>2014-08-30T14:44:42Z</time>
      </trkpt>
      <trkpt lat="45.952017" lon="6.907050">
        <ele>1385.0</ele>
        <time>2014-08-30T14:44:43Z</time>
      </trkpt>
      <trkpt lat="45.952000" lon="6.907067">
        <ele>1385.0</ele>
        <time>2014-08-30T14:44:44Z</time>
      </trkpt>
      <trkpt lat="45.951983" lon="6.907100">
        <ele>1385.0</ele>
        <time>2014-08-30T14:44:45Z</time>
      </trkpt>
      <trkpt lat="45.951967" lon="6.907117">
        <ele>1384.0</ele>
        <time>2014-08-30T14:44:46Z</time>
      </trkpt>
      <trkpt lat="45.951933" lon="6.907133">
        <ele>1384.0</ele>
        <time>2014-08-30T14:44:47Z</time>
      </trkpt>
      <trkpt lat="45.951900" lon="6.907150">
        <ele>1385.0</ele>
        <time>2014-08-30T14:44:48Z</time>
      </trkpt>
      <trkpt lat="45.951883" lon="6.907183">
        <ele>1386.0</ele>
        <time>2014-08-30T14:44:49Z</time>
      </trkpt>
      <trkpt lat="45.951867" lon="6.907217">
        <ele>1386.0</ele>
        <time>2014-08-30T14:44:50Z</time>
      </trkpt>
      <trkpt lat="45.951850" lon="6.907250">
        <ele>1386.0</ele>
        <time>2014-08-30T14:44:51Z</time>
      </trkpt>
      <trkpt lat="45.951817" lon="6.907283">
        <ele>1387.0</ele>
        <time>2014-08-30T14:44:52Z</time>
      </trkpt>
      <trkpt lat="45.951783" lon="6.907317">
        <ele>1388.0</ele>
        <time>2014-08-30T14:44:53Z</time>
      </trkpt>
      <trkpt lat="45.951767" lon="6.907367">
        <ele>1389.0</ele>
        <time>2014-08-30T14:44:54Z</time>
      </trkpt>
      <trkpt lat="45.951750" lon="6.907417">
        <ele>1389.0</ele>
        <time>2014-08-30T14:44:55Z</time>
      </trkpt>
      <trkpt lat="45.951733" lon="6.907500">
        <ele>1390.0</ele>
        <time>2014-08-30T14:44:56Z</time>
      </trkpt>
      <trkpt lat="45.951717" lon="6.907583">
        <ele>1390.0</ele>
        <time>2014-08-30T14:44:57Z</time>
      </trkpt>
      <trkpt lat="45.951700" lon="6.907683">
        <ele>1391.0</ele>
        <time>2014-08-30T14:44:58Z</time>
      </trkpt>
      <trkpt lat="45.951683" lon="6.907767">
        <ele>1392.0</ele>
        <time>2014-08-30T14:44:59Z</time>
      </trkpt>
      <trkpt lat="45.951667" lon="6.907817">
        <ele>1393.0</ele>
        <time>2014-08-30T14:45:00Z</time>
      </trkpt>
      <trkpt lat="45.951650" lon="6.907883">
        <ele>1393.0</ele>
        <time>2014-08-30T14:45:01Z</time>
      </trkpt>
      <trkpt lat="45.951633" lon="6.907933">
        <ele>1394.0</ele>
        <time>2014-08-30T14:45:02Z</time>
      </trkpt>
      <trkpt lat="45.951600" lon="6.907983">
        <ele>1396.0</ele>
        <time>2014-08-30T14:45:03Z</time>
      </trkpt>
      <trkpt lat="45.951567" lon="6.908017">
        <ele>1398.0</ele>
        <time>2014-08-30T14:45:04Z</time>
      </trkpt>
      <trkpt lat="45.951550" lon="6.908050">
        <ele>1400.0</ele>
        <time>2014-08-30T14:45:05Z</time>
      </trkpt>
      <trkpt lat="45.951533" lon="6.908067">
        <ele>1401.0</ele>
        <time>2014-08-30T14:45:06Z</time>
      </trkpt>
      <trkpt lat="45.951500" lon="6.908100">
        <ele>1401.0</ele>
        <time>2014-08-30T14:45:07Z</time>
      </trkpt>
      <trkpt lat="45.951467" lon="6.908150">
        <ele>1401.0</ele>
        <time>2014-08-30T14:45:08Z</time>
      </trkpt>
      <trkpt lat="45.951433" lon="6.908217">
        <ele>1402.0</ele>
        <time>2014-08-30T14:45:09Z</time>
      </trkpt>
      <trkpt lat="45.951417" lon="6.908300">
        <ele>1403.0</ele>
        <time>2014-08-30T14:45:10Z</time>
      </trkpt>
      <trkpt lat="45.951400" lon="6.908367">
        <ele>1404.0</ele>
        <time>2014-08-30T14:45:11Z</time>
      </trkpt>
      <trkpt lat="45.951383" lon="6.908450">
        <ele>1406.0</ele>
        <time>2014-08-30T14:45:12Z</time>
      </trkpt>
      <trkpt lat="45.951350" lon="6.908517">
        <ele>1407.0</ele>
        <time>2014-08-30T14:45:13Z</time>
      </trkpt>
      <trkpt lat="45.951333" lon="6.908583">
        <ele>1408.0</ele>
        <time>2014-08-30T14:45:14Z</time>
      </trkpt>
      <trkpt lat="45.951317" lon="6.908650">
        <ele>1409.0</ele>
        <time>2014-08-30T14:45:15Z</time>
      </trkpt>
      <trkpt lat="45.951300" lon="6.908717">
        <ele>1410.0</ele>
        <time>2014-08-30T14:45:16Z</time>
      </trkpt>
      <trkpt lat="45.951283" lon="6.908783">
        <ele>1410.0</ele>
        <time>2014-08-30T14:45:17Z</time>
      </trkpt>
      <trkpt lat="45.951250" lon="6.908833">
        <ele>1411.0</ele>
        <time>2014-08-30T14:45:18Z</time>
      </trkpt>
      <trkpt lat="45.951233" lon="6.908917">
        <ele>1412.0</ele>
        <time>2014-08-30T14:45:19Z</time>
      </trkpt>
      <trkpt lat="45.951200" lon="6.909000">
        <ele>1412.0</ele>
        <time>2014-08-30T14:45:20Z</time>
      </trkpt>
      <trkpt lat="45.951200" lon="6.909100">
        <ele>1414.0</ele>
        <time>2014-08-30T14:45:21Z</time>
      </trkpt>
      <trkpt lat="45.951200" lon="6.909200">
        <ele>1415.0</ele>
        <time>2014-08-30T14:45:22Z</time>
      </trkpt>
      <trkpt lat="45.951200" lon="6.909283">
        <ele>1415.0</ele>
        <time>2014-08-30T14:45:23Z</time>
      </trkpt>
      <trkpt lat="45.951200" lon="6.909383">
        <ele>1415.0</ele>
        <time>2014-08-30T14:45:24Z</time>
      </trkpt>
      <trkpt lat="45.951200" lon="6.909483">
        <ele>1416.0</ele>
        <time>2014-08-30T14:45:25Z</time>
      </trkpt>
      <trkpt lat="45.951183" lon="6.909583">
        <ele>1416.0</ele>
        <time>2014-08-30T14:45:26Z</time>
      </trkpt>
      <trkpt lat="45.951167" lon="6.909667">
        <ele>1418.0</ele>
        <time>2014-08-30T14:45:27Z</time>
      </trkpt>
      <trkpt lat="45.951133" lon="6.909733">
        <ele>1419.0</ele>
        <time>2014-08-30T14:45:28Z</time>
      </trkpt>
      <trkpt lat="45.951117" lon="6.909800">
        <ele>1419.0</ele>
        <time>2014-08-30T14:45:29Z</time>
      </trkpt>
      <trkpt lat="45.951083" lon="6.909867">
        <ele>1420.0</ele>
        <time>2014-08-30T14:45:30Z</time>
      </trkpt>
      <trkpt lat="45.951067" lon="6.909933">
        <ele>1420.0</ele>
        <time>2014-08-30T14:45:31Z</time>
      </trkpt>
      <trkpt lat="45.951033" lon="6.909983">
        <ele>1421.0</ele>
        <time>2014-08-30T14:45:32Z</time>
      </trkpt>
      <trkpt lat="45.951017" lon="6.910050">
        <ele>1422.0</ele>
        <time>2014-08-30T14:45:33Z</time>
      </trkpt>
      <trkpt lat="45.951000" lon="6.910133">
        <ele>1423.0</ele>
        <time>2014-08-30T14:45:34Z</time>
      </trkpt>
      <trkpt lat="45.950967" lon="6.910217">
        <ele>1423.0</ele>
        <time>2014-08-30T14:45:35Z</time>
      </trkpt>
      <trkpt lat="45.950950" lon="6.910283">
        <ele>1423.0</ele>
        <time>2014-08-30T14:45:36Z</time>
      </trkpt>
      <trkpt lat="45.950917" lon="6.910333">
        <ele>1424.0</ele>
        <time>2014-08-30T14:45:37Z</time>
      </trkpt>
      <trkpt lat="45.950883" lon="6.910383">
        <ele>1425.0</ele>
        <time>2014-08-30T14:45:38Z</time>
      </trkpt>
      <trkpt lat="45.950850" lon="6.910433">
        <ele>1426.0</ele>
        <time>2014-08-30T14:45:39Z</time>
      </trkpt>
      <trkpt lat="45.950833" lon="6.910500">
        <ele>1426.0</ele>
        <time>2014-08-30T14:45:40Z</time>
      </trkpt>
      <trkpt lat="45.950800" lon="6.910567">
        <ele>1426.0</ele>
        <time>2014-08-30T14:45:41Z</time>
      </trkpt>
      <trkpt lat="45.950767" lon="6.910650">
        <ele>1426.0</ele>
        <time>2014-08-30T14:45:42Z</time>
      </trkpt>
      <trkpt lat="45.950717" lon="6.910717">
        <ele>1425.0</ele>
        <time>2014-08-30T14:45:43Z</time>
      </trkpt>
      <trkpt lat="45.950683" lon="6.910783">
        <ele>1426.0</ele>
        <time>2014-08-30T14:45:44Z</time>
      </trkpt>
      <trkpt lat="45.950667" lon="6.910867">
        <ele>1426.0</ele>
        <time>2014-08-30T14:45:45Z</time>
      </trkpt>
      <trkpt lat="45.950633" lon="6.910967">
        <ele>1426.0</ele>
        <time>2014-08-30T14:45:46Z</time>
      </trkpt>
      <trkpt lat="45.950600" lon="6.911050">
        <ele>1427.0</ele>
        <time>2014-08-30T14:45:47Z</time>
      </trkpt>
      <trkpt lat="45.950550" lon="6.911133">
        <ele>1427.0</ele>
        <time>2014-08-30T14:45:48Z</time>
      </trkpt>
      <trkpt lat="45.950517" lon="6.911167">
        <ele>1429.0</ele>
        <time>2014-08-30T14:45:49Z</time>
      </trkpt>
      <trkpt lat="45.950467" lon="6.911167">
        <ele>1430.0</ele>
        <time>2014-08-30T14:45:50Z</time>
      </trkpt>
      <trkpt lat="45.950450" lon="6.911100">
        <ele>1430.0</ele>
        <time>2014-08-30T14:45:51Z</time>
      </trkpt>
      <trkpt lat="45.950433" lon="6.911017">
        <ele>1430.0</ele>
        <time>2014-08-30T14:45:52Z</time>
      </trkpt>
      <trkpt lat="45.950450" lon="6.910933">
        <ele>1431.0</ele>
        <time>2014-08-30T14:45:53Z</time>
      </trkpt>
      <trkpt lat="45.950500" lon="6.910833">
        <ele>1430.0</ele>
        <time>2014-08-30T14:45:54Z</time>
      </trkpt>
      <trkpt lat="45.950550" lon="6.910750">
        <ele>1429.0</ele>
        <time>2014-08-30T14:45:55Z</time>
      </trkpt>
      <trkpt lat="45.950617" lon="6.910667">
        <ele>1429.0</ele>
        <time>2014-08-30T14:45:56Z</time>
      </trkpt>
      <trkpt lat="45.950700" lon="6.910583">
        <ele>1429.0</ele>
        <time>2014-08-30T14:45:57Z</time>
      </trkpt>
      <trkpt lat="45.950767" lon="6.910500">
        <ele>1429.0</ele>
        <time>2014-08-30T14:45:58Z</time>
      </trkpt>
      <trkpt lat="45.950833" lon="6.910400">
        <ele>1430.0</ele>
        <time>2014-08-30T14:45:59Z</time>
      </trkpt>
      <trkpt lat="45.950900" lon="6.910317">
        <ele>1431.0</ele>
        <time>2014-08-30T14:46:00Z</time>
      </trkpt>
      <trkpt lat="45.950967" lon="6.910217">
        <ele>1431.0</ele>
        <time>2014-08-30T14:46:01Z</time>
      </trkpt>
      <trkpt lat="45.951050" lon="6.910117">
        <ele>1432.0</ele>
        <time>2014-08-30T14:46:02Z</time>
      </trkpt>
      <trkpt lat="45.951133" lon="6.910033">
        <ele>1433.0</ele>
        <time>2014-08-30T14:46:03Z</time>
      </trkpt>
      <trkpt lat="45.951217" lon="6.909950">
        <ele>1434.0</ele>
        <time>2014-08-30T14:46:04Z</time>
      </trkpt>
      <trkpt lat="45.951300" lon="6.909867">
        <ele>1435.0</ele>
        <time>2014-08-30T14:46:05Z</time>
      </trkpt>
      <trkpt lat="45.951400" lon="6.909800">
        <ele>1436.0</ele>
        <time>2014-08-30T14:46:06Z</time>
      </trkpt>
      <trkpt lat="45.951467" lon="6.909717">
        <ele>1436.0</ele>
        <time>2014-08-30T14:46:07Z</time>
      </trkpt>
      <trkpt lat="45.951550" lon="6.909617">
        <ele>1436.0</ele>
        <time>2014-08-30T14:46:08Z</time>
      </trkpt>
      <trkpt lat="45.951600" lon="6.909500">
        <ele>1436.0</ele>
        <time>2014-08-30T14:46:09Z</time>
      </trkpt>
      <trkpt lat="45.951617" lon="6.909400">
        <ele>1437.0</ele>
        <time>2014-08-30T14:46:10Z</time>
      </trkpt>
      <trkpt lat="45.951600" lon="6.909317">
        <ele>1437.0</ele>
        <time>2014-08-30T14:46:11Z</time>
      </trkpt>
      <trkpt lat="45.951550" lon="6.909267">
        <ele>1438.0</ele>
        <time>2014-08-30T14:46:12Z</time>
      </trkpt>
      <trkpt lat="45.951517" lon="6.909250">
        <ele>1440.0</ele>
        <time>2014-08-30T14:46:13Z</time>
      </trkpt>
      <trkpt lat="45.951500" lon="6.909283">
        <ele>1441.0</ele>
        <time>2014-08-30T14:46:14Z</time>
      </trkpt>
      <trkpt lat="45.951500" lon="6.909350">
        <ele>1441.0</ele>
        <time>2014-08-30T14:46:15Z</time>
      </trkpt>
      <trkpt lat="45.951483" lon="6.909417">
        <ele>1441.0</ele>
        <time>2014-08-30T14:46:16Z</time>
      </trkpt>
      <trkpt lat="45.951483" lon="6.909517">
        <ele>1441.0</ele>
        <time>2014-08-30T14:46:17Z</time>
      </trkpt>
      <trkpt lat="45.951483" lon="6.909617">
        <ele>1442.0</ele>
        <time>2014-08-30T14:46:18Z</time>
      </trkpt>
      <trkpt lat="45.951500" lon="6.909733">
        <ele>1442.0</ele>
        <time>2014-08-30T14:46:19Z</time>
      </trkpt>
      <trkpt lat="45.951517" lon="6.909850">
        <ele>1443.0</ele>
        <time>2014-08-30T14:46:20Z</time>
      </trkpt>
      <trkpt lat="45.951517" lon="6.909933">
        <ele>1445.0</ele>
        <time>2014-08-30T14:46:21Z</time>
      </trkpt>
      <trkpt lat="45.951517" lon="6.910017">
        <ele>1445.0</ele>
        <time>2014-08-30T14:46:22Z</time>
      </trkpt>
      <trkpt lat="45.951500" lon="6.910100">
        <ele>1446.0</ele>
        <time>2014-08-30T14:46:23Z</time>
      </trkpt>
      <trkpt lat="45.951483" lon="6.910167">
        <ele>1446.0</ele>
        <time>2014-08-30T14:46:24Z</time>
      </trkpt>
      <trkpt lat="45.951467" lon="6.910233">
        <ele>1447.0</ele>
        <time>2014-08-30T14:46:25Z</time>
      </trkpt>
      <trkpt lat="45.951450" lon="6.910283">
        <ele>1448.0</ele>
        <time>2014-08-30T14:46:26Z</time>
      </trkpt>
      <trkpt lat="45.951417" lon="6.910333">
        <ele>1448.0</ele>
        <time>2014-08-30T14:46:27Z</time>
      </trkpt>
      <trkpt lat="45.951400" lon="6.910383">
        <ele>1448.0</ele>
        <time>2014-08-30T14:46:28Z</time>
      </trkpt>
      <trkpt lat="45.951383" lon="6.910433">
        <ele>1448.0</ele>
        <time>2014-08-30T14:46:29Z</time>
      </trkpt>
      <trkpt lat="45.951350" lon="6.910483">
        <ele>1448.0</ele>
        <time>2014-08-30T14:46:30Z</time>
      </trkpt>
      <trkpt lat="45.951317" lon="6.910533">
        <ele>1448.0</ele>
        <time>2014-08-30T14:46:31Z</time>
      </trkpt>
      <trkpt lat="45.951283" lon="6.910583">
        <ele>1448.0</ele>
        <time>2014-08-30T14:46:32Z</time>
      </trkpt>
      <trkpt lat="45.951267" lon="6.910650">
        <ele>1448.0</ele>
        <time>2014-08-30T14:46:33Z</time>
      </trkpt>
      <trkpt lat="45.951233" lon="6.910700">
        <ele>1448.0</ele>
        <time>2014-08-30T14:46:34Z</time>
      </trkpt>
      <trkpt lat="45.951217" lon="6.910767">
        <ele>1448.0</ele>
        <time>2014-08-30T14:46:35Z</time>
      </trkpt>
      <trkpt lat="45.951200" lon="6.910817">
        <ele>1448.0</ele>
        <time>2014-08-30T14:46:36Z</time>
      </trkpt>
      <trkpt lat="45.951167" lon="6.910867">
        <ele>1448.0</ele>
        <time>2014-08-30T14:46:37Z</time>
      </trkpt>
      <trkpt lat="45.951150" lon="6.910917">
        <ele>1448.0</ele>
        <time>2014-08-30T14:46:38Z</time>
      </trkpt>
      <trkpt lat="45.951117" lon="6.910967">
        <ele>1447.0</ele>
        <time>2014-08-30T14:46:39Z</time>
      </trkpt>
      <trkpt lat="45.951083" lon="6.911017">
        <ele>1448.0</ele>
        <time>2014-08-30T14:46:40Z</time>
      </trkpt>
      <trkpt lat="45.951050" lon="6.911067">
        <ele>1448.0</ele>
        <time>2014-08-30T14:46:41Z</time>
      </trkpt>
      <trkpt lat="45.951033" lon="6.911117">
        <ele>1448.0</ele>
        <time>2014-08-30T14:46:42Z</time>
      </trkpt>
      <trkpt lat="45.951000" lon="6.911133">
        <ele>1449.0</ele>
        <time>2014-08-30T14:46:43Z</time>
      </trkpt>
      <trkpt lat="45.950950" lon="6.911117">
        <ele>1448.0</ele>
        <time>2014-08-30T14:46:44Z</time>
      </trkpt>
      <trkpt lat="45.950917" lon="6.911017">
        <ele>1446.0</ele>
        <time>2014-08-30T14:46:45Z</time>
      </trkpt>
      <trkpt lat="45.950917" lon="6.910900">
        <ele>1445.0</ele>
        <time>2014-08-30T14:46:46Z</time>
      </trkpt>
      <trkpt lat="45.950950" lon="6.910767">
        <ele>1446.0</ele>
        <time>2014-08-30T14:46:47Z</time>
      </trkpt>
      <trkpt lat="45.951000" lon="6.910650">
        <ele>1449.0</ele>
        <time>2014-08-30T14:46:48Z</time>
      </trkpt>
      <trkpt lat="45.951067" lon="6.910550">
        <ele>1450.0</ele>
        <time>2014-08-30T14:46:49Z</time>
      </trkpt>
      <trkpt lat="45.951133" lon="6.910467">
        <ele>1452.0</ele>
        <time>2014-08-30T14:46:50Z</time>
      </trkpt>
      <trkpt lat="45.951217" lon="6.910417">
        <ele>1453.0</ele>
        <time>2014-08-30T14:46:51Z</time>
      </trkpt>
      <trkpt lat="45.951333" lon="6.910350">
        <ele>1453.0</ele>
        <time>2014-08-30T14:46:52Z</time>
      </trkpt>
      <trkpt lat="45.951450" lon="6.910300">
        <ele>1453.0</ele>
        <time>2014-08-30T14:46:53Z</time>
      </trkpt>
      <trkpt lat="45.951567" lon="6.910267">
        <ele>1454.0</ele>
        <time>2014-08-30T14:46:54Z</time>
      </trkpt>
      <trkpt lat="45.951683" lon="6.910217">
        <ele>1454.0</ele>
        <time>2014-08-30T14:46:55Z</time>
      </trkpt>
      <trkpt lat="45.951783" lon="6.910167">
        <ele>1455.0</ele>
        <time>2014-08-30T14:46:56Z</time>
      </trkpt>
      <trkpt lat="45.951883" lon="6.910100">
        <ele>1456.0</ele>
        <time>2014-08-30T14:46:57Z</time>
      </trkpt>
      <trkpt lat="45.951983" lon="6.910050">
        <ele>1457.0</ele>
        <time>2014-08-30T14:46:58Z</time>
      </trkpt>
      <trkpt lat="45.952067" lon="6.909967">
        <ele>1457.0</ele>
        <time>2014-08-30T14:46:59Z</time>
      </trkpt>
      <trkpt lat="45.952167" lon="6.909900">
        <ele>1458.0</ele>
        <time>2014-08-30T14:47:00Z</time>
      </trkpt>
      <trkpt lat="45.952267" lon="6.909867">
        <ele>1457.0</ele>
        <time>2014-08-30T14:47:01Z</time>
      </trkpt>
      <trkpt lat="45.952367" lon="6.909850">
        <ele>1457.0</ele>
        <time>2014-08-30T14:47:02Z</time>
      </trkpt>
      <trkpt lat="45.952483" lon="6.909817">
        <ele>1457.0</ele>
        <time>2014-08-30T14:47:03Z</time>
      </trkpt>
      <trkpt lat="45.952583" lon="6.909783">
        <ele>1459.0</ele>
        <time>2014-08-30T14:47:04Z</time>
      </trkpt>
      <trkpt lat="45.952667" lon="6.909733">
        <ele>1459.0</ele>
        <time>2014-08-30T14:47:05Z</time>
      </trkpt>
      <trkpt lat="45.952750" lon="6.909700">
        <ele>1459.0</ele>
        <time>2014-08-30T14:47:06Z</time>
      </trkpt>
      <trkpt lat="45.952833" lon="6.909667">
        <ele>1457.0</ele>
        <time>2014-08-30T14:47:07Z</time>
      </trkpt>
      <trkpt lat="45.952950" lon="6.909617">
        <ele>1455.0</ele>
        <time>2014-08-30T14:47:08Z</time>
      </trkpt>
      <trkpt lat="45.953033" lon="6.909533">
        <ele>1455.0</ele>
        <time>2014-08-30T14:47:09Z</time>
      </trkpt>
      <trkpt lat="45.953083" lon="6.909433">
        <ele>1455.0</ele>
        <time>2014-08-30T14:47:10Z</time>
      </trkpt>
      <trkpt lat="45.953083" lon="6.909350">
        <ele>1455.0</ele>
        <time>2014-08-30T14:47:11Z</time>
      </trkpt>
      <trkpt lat="45.953067" lon="6.909283">
        <ele>1455.0</ele>
        <time>2014-08-30T14:47:12Z</time>
      </trkpt>
      <trkpt lat="45.953050" lon="6.909250">
        <ele>1456.0</ele>
        <time>2014-08-30T14:47:13Z</time>
      </trkpt>
      <trkpt lat="45.953017" lon="6.909250">
        <ele>1456.0</ele>
        <time>2014-08-30T14:47:14Z</time>
      </trkpt>
      <trkpt lat="45.952983" lon="6.909250">
        <ele>1455.0</ele>
        <time>2014-08-30T14:47:15Z</time>
      </trkpt>
      <trkpt lat="45.952933" lon="6.909300">
        <ele>1455.0</ele>
        <time>2014-08-30T14:47:16Z</time>
      </trkpt>
      <trkpt lat="45.952900" lon="6.909367">
        <ele>1454.0</ele>
        <time>2014-08-30T14:47:17Z</time>
      </trkpt>
      <trkpt lat="45.952850" lon="6.909433">
        <ele>1453.0</ele>
        <time>2014-08-30T14:47:18Z</time>
      </trkpt>
      <trkpt lat="45.952800" lon="6.909483">
        <ele>1454.0</ele>
        <time>2014-08-30T14:47:19Z</time>
      </trkpt>
      <trkpt lat="45.952750" lon="6.909533">
        <ele>1454.0</ele>
        <time>2014-08-30T14:47:20Z</time>
      </trkpt>
      <trkpt lat="45.952717" lon="6.909567">
        <ele>1456.0</ele>
        <time>2014-08-30T14:47:21Z</time>
      </trkpt>
      <trkpt lat="45.952683" lon="6.909600">
        <ele>1458.0</ele>
        <time>2014-08-30T14:47:22Z</time>
      </trkpt>
      <trkpt lat="45.952650" lon="6.909633">
        <ele>1458.0</ele>
        <time>2014-08-30T14:47:23Z</time>
      </trkpt>
      <trkpt lat="45.952633" lon="6.909667">
        <ele>1459.0</ele>
        <time>2014-08-30T14:47:24Z</time>
      </trkpt>
      <trkpt lat="45.952583" lon="6.909700">
        <ele>1459.0</ele>
        <time>2014-08-30T14:47:25Z</time>
      </trkpt>
      <trkpt lat="45.952533" lon="6.909717">
        <ele>1458.0</ele>
        <time>2014-08-30T14:47:26Z</time>
      </trkpt>
      <trkpt lat="45.952467" lon="6.909717">
        <ele>1459.0</ele>
        <time>2014-08-30T14:47:27Z</time>
      </trkpt>
      <trkpt lat="45.952433" lon="6.909750">
        <ele>1461.0</ele>
        <time>2014-08-30T14:47:28Z</time>
      </trkpt>
      <trkpt lat="45.952400" lon="6.909783">
        <ele>1463.0</ele>
        <time>2014-08-30T14:47:29Z</time>
      </trkpt>
      <trkpt lat="45.952367" lon="6.909850">
        <ele>1465.0</ele>
        <time>2014-08-30T14:47:30Z</time>
      </trkpt>
      <trkpt lat="45.952350" lon="6.909900">
        <ele>1466.0</ele>
        <time>2014-08-30T14:47:31Z</time>
      </trkpt>
      <trkpt lat="45.952300" lon="6.909950">
        <ele>1467.0</ele>
        <time>2014-08-30T14:47:32Z</time>
      </trkpt>
      <trkpt lat="45.952267" lon="6.909967">
        <ele>1468.0</ele>
        <time>2014-08-30T14:47:33Z</time>
      </trkpt>
      <trkpt lat="45.952233" lon="6.909983">
        <ele>1470.0</ele>
        <time>2014-08-30T14:47:34Z</time>
      </trkpt>
      <trkpt lat="45.952217" lon="6.910017">
        <ele>1471.0</ele>
        <time>2014-08-30T14:47:35Z</time>
      </trkpt>
      <trkpt lat="45.952200" lon="6.910083">
        <ele>1471.0</ele>
        <time>2014-08-30T14:47:36Z</time>
      </trkpt>
      <trkpt lat="45.952183" lon="6.910150">
        <ele>1472.0</ele>
        <time>2014-08-30T14:47:37Z</time>
      </trkpt>
      <trkpt lat="45.952183" lon="6.910183">
        <ele>1472.0</ele>
        <time>2014-08-30T14:47:38Z</time>
      </trkpt>
      <trkpt lat="45.952150" lon="6.910217">
        <ele>1471.0</ele>
        <time>2014-08-30T14:47:39Z</time>
      </trkpt>
      <trkpt lat="45.952117" lon="6.910217">
        <ele>1471.0</ele>
        <time>2014-08-30T14:47:40Z</time>
      </trkpt>
      <trkpt lat="45.952083" lon="6.910233">
        <ele>1471.0</ele>
        <time>2014-08-30T14:47:41Z</time>
      </trkpt>
      <trkpt lat="45.952067" lon="6.910267">
        <ele>1472.0</ele>
        <time>2014-08-30T14:47:42Z</time>
      </trkpt>
      <trkpt lat="45.952050" lon="6.910300">
        <ele>1472.0</ele>
        <time>2014-08-30T14:47:43Z</time>
      </trkpt>
      <trkpt lat="45.952033" lon="6.910333">
        <ele>1472.0</ele>
        <time>2014-08-30T14:47:44Z</time>
      </trkpt>
      <trkpt lat="45.952000" lon="6.910367">
        <ele>1471.0</ele>
        <time>2014-08-30T14:47:45Z</time>
      </trkpt>
      <trkpt lat="45.951983" lon="6.910400">
        <ele>1471.0</ele>
        <time>2014-08-30T14:47:46Z</time>
      </trkpt>
      <trkpt lat="45.951950" lon="6.910433">
        <ele>1471.0</ele>
        <time>2014-08-30T14:47:47Z</time>
      </trkpt>
      <trkpt lat="45.951933" lon="6.910467">
        <ele>1471.0</ele>
        <time>2014-08-30T14:47:48Z</time>
      </trkpt>
      <trkpt lat="45.951900" lon="6.910500">
        <ele>1471.0</ele>
        <time>2014-08-30T14:47:49Z</time>
      </trkpt>
      <trkpt lat="45.951867" lon="6.910550">
        <ele>1472.0</ele>
        <time>2014-08-30T14:47:50Z</time>
      </trkpt>
      <trkpt lat="45.951850" lon="6.910617">
        <ele>1473.0</ele>
        <time>2014-08-30T14:47:51Z</time>
      </trkpt>
      <trkpt lat="45.951833" lon="6.910650">
        <ele>1475.0</ele>
        <time>2014-08-30T14:47:52Z</time>
      </trkpt>
      <trkpt lat="45.951833" lon="6.910700">
        <ele>1476.0</ele>
        <time>2014-08-30T14:47:53Z</time>
      </trkpt>
      <trkpt lat="45.951800" lon="6.910717">
        <ele>1476.0</ele>
        <time>2014-08-30T14:47:54Z</time>
      </trkpt>
      <trkpt lat="45.951783" lon="6.910750">
        <ele>1476.0</ele>
        <time>2014-08-30T14:47:55Z</time>
      </trkpt>
      <trkpt lat="45.951750" lon="6.910800">
        <ele>1477.0</ele>
        <time>2014-08-30T14:47:56Z</time>
      </trkpt>
      <trkpt lat="45.951717" lon="6.910833">
        <ele>1478.0</ele>
        <time>2014-08-30T14:47:57Z</time>
      </trkpt>
      <trkpt lat="45.951717" lon="6.910867">
        <ele>1480.0</ele>
        <time>2014-08-30T14:47:58Z</time>
      </trkpt>
      <trkpt lat="45.951700" lon="6.910883">
        <ele>1481.0</ele>
        <time>2014-08-30T14:47:59Z</time>
      </trkpt>
      <trkpt lat="45.951683" lon="6.910900">
        <ele>1482.0</ele>
        <time>2014-08-30T14:48:00Z</time>
      </trkpt>
      <trkpt lat="45.951667" lon="6.910917">
        <ele>1482.0</ele>
        <time>2014-08-30T14:48:01Z</time>
      </trkpt>
      <trkpt lat="45.951617" lon="6.910917">
        <ele>1482.0</ele>
        <time>2014-08-30T14:48:02Z</time>
      </trkpt>
      <trkpt lat="45.951583" lon="6.910933">
        <ele>1483.0</ele>
        <time>2014-08-30T14:48:03Z</time>
      </trkpt>
      <trkpt lat="45.951550" lon="6.910950">
        <ele>1484.0</ele>
        <time>2014-08-30T14:48:04Z</time>
      </trkpt>
      <trkpt lat="45.951533" lon="6.911000">
        <ele>1485.0</ele>
        <time>2014-08-30T14:48:05Z</time>
      </trkpt>
      <trkpt lat="45.951533" lon="6.911050">
        <ele>1487.0</ele>
        <time>2014-08-30T14:48:06Z</time>
      </trkpt>
      <trkpt lat="45.951500" lon="6.911083">
        <ele>1488.0</ele>
        <time>2014-08-30T14:48:07Z</time>
      </trkpt>
      <trkpt lat="45.951483" lon="6.911117">
        <ele>1489.0</ele>
        <time>2014-08-30T14:48:08Z</time>
      </trkpt>
      <trkpt lat="45.951450" lon="6.911167">
        <ele>1491.0</ele>
        <time>2014-08-30T14:48:09Z</time>
      </trkpt>
      <trkpt lat="45.951433" lon="6.911217">
        <ele>1492.0</ele>
        <time>2014-08-30T14:48:10Z</time>
      </trkpt>
      <trkpt lat="45.951417" lon="6.911283">
        <ele>1493.0</ele>
        <time>2014-08-30T14:48:11Z</time>
      </trkpt>
      <trkpt lat="45.951400" lon="6.911333">
        <ele>1494.0</ele>
        <time>2014-08-30T14:48:12Z</time>
      </trkpt>
      <trkpt lat="45.951383" lon="6.911400">
        <ele>1495.0</ele>
        <time>2014-08-30T14:48:13Z</time>
      </trkpt>
      <trkpt lat="45.951367" lon="6.911450">
        <ele>1496.0</ele>
        <time>2014-08-30T14:48:14Z</time>
      </trkpt>
      <trkpt lat="45.951350" lon="6.911517">
        <ele>1497.0</ele>
        <time>2014-08-30T14:48:15Z</time>
      </trkpt>
      <trkpt lat="45.951333" lon="6.911583">
        <ele>1498.0</ele>
        <time>2014-08-30T14:48:16Z</time>
      </trkpt>
      <trkpt lat="45.951317" lon="6.911650">
        <ele>1499.0</ele>
        <time>2014-08-30T14:48:17Z</time>
      </trkpt>
      <trkpt lat="45.951300" lon="6.911717">
        <ele>1499.0</ele>
        <time>2014-08-30T14:48:18Z</time>
      </trkpt>
      <trkpt lat="45.951283" lon="6.911800">
        <ele>1500.0</ele>
        <time>2014-08-30T14:48:19Z</time>
      </trkpt>
      <trkpt lat="45.951267" lon="6.911883">
        <ele>1500.0</ele>
        <time>2014-08-30T14:48:20Z</time>
      </trkpt>
      <trkpt lat="45.951233" lon="6.911950">
        <ele>1501.0</ele>
        <time>2014-08-30T14:48:21Z</time>
      </trkpt>
      <trkpt lat="45.951217" lon="6.912033">
        <ele>1502.0</ele>
        <time>2014-08-30T14:48:22Z</time>
      </trkpt>
      <trkpt lat="45.951200" lon="6.912117">
        <ele>1504.0</ele>
        <time>2014-08-30T14:48:23Z</time>
      </trkpt>
      <trkpt lat="45.951183" lon="6.912217">
        <ele>1505.0</ele>
        <time>2014-08-30T14:48:24Z</time>
      </trkpt>
      <trkpt lat="45.951183" lon="6.912300">
        <ele>1506.0</ele>
        <time>2014-08-30T14:48:25Z</time>
      </trkpt>
      <trkpt lat="45.951183" lon="6.912383">
        <ele>1507.0</ele>
        <time>2014-08-30T14:48:26Z</time>
      </trkpt>
      <trkpt lat="45.951167" lon="6.912467">
        <ele>1508.0</ele>
        <time>2014-08-30T14:48:27Z</time>
      </trkpt>
      <trkpt lat="45.951133" lon="6.912550">
        <ele>1509.0</ele>
        <time>2014-08-30T14:48:28Z</time>
      </trkpt>
      <trkpt lat="45.951100" lon="6.912650">
        <ele>1511.0</ele>
        <time>2014-08-30T14:48:29Z</time>
      </trkpt>
      <trkpt lat="45.951067" lon="6.912717">
        <ele>1513.0</ele>
        <time>2014-08-30T14:48:30Z</time>
      </trkpt>
      <trkpt lat="45.951033" lon="6.912783">
        <ele>1515.0</ele>
        <time>2014-08-30T14:48:31Z</time>
      </trkpt>
      <trkpt lat="45.951017" lon="6.912833">
        <ele>1518.0</ele>
        <time>2014-08-30T14:48:32Z</time>
      </trkpt>
      <trkpt lat="45.950983" lon="6.912917">
        <ele>1519.0</ele>
        <time>2014-08-30T14:48:33Z</time>
      </trkpt>
      <trkpt lat="45.950950" lon="6.913000">
        <ele>1521.0</ele>
        <time>2014-08-30T14:48:34Z</time>
      </trkpt>
      <trkpt lat="45.950900" lon="6.913067">
        <ele>1523.0</ele>
        <time>2014-08-30T14:48:35Z</time>
      </trkpt>
      <trkpt lat="45.950833" lon="6.913117">
        <ele>1525.0</ele>
        <time>2014-08-30T14:48:36Z</time>
      </trkpt>
      <trkpt lat="45.950783" lon="6.913167">
        <ele>1528.0</ele>
        <time>2014-08-30T14:48:37Z</time>
      </trkpt>
      <trkpt lat="45.950750" lon="6.913183">
        <ele>1531.0</ele>
        <time>2014-08-30T14:48:38Z</time>
      </trkpt>
      <trkpt lat="45.950717" lon="6.913183">
        <ele>1533.0</ele>
        <time>2014-08-30T14:48:39Z</time>
      </trkpt>
      <trkpt lat="45.950683" lon="6.913117">
        <ele>1534.0</ele>
        <time>2014-08-30T14:48:40Z</time>
      </trkpt>
      <trkpt lat="45.950683" lon="6.913033">
        <ele>1535.0</ele>
        <time>2014-08-30T14:48:41Z</time>
      </trkpt>
      <trkpt lat="45.950700" lon="6.912950">
        <ele>1536.0</ele>
        <time>2014-08-30T14:48:42Z</time>
      </trkpt>
      <trkpt lat="45.950750" lon="6.912850">
        <ele>1536.0</ele>
        <time>2014-08-30T14:48:43Z</time>
      </trkpt>
      <trkpt lat="45.950817" lon="6.912783">
        <ele>1537.0</ele>
        <time>2014-08-30T14:48:44Z</time>
      </trkpt>
      <trkpt lat="45.950900" lon="6.912733">
        <ele>1537.0</ele>
        <time>2014-08-30T14:48:45Z</time>
      </trkpt>
      <trkpt lat="45.950950" lon="6.912683">
        <ele>1537.0</ele>
        <time>2014-08-30T14:48:46Z</time>
      </trkpt>
      <trkpt lat="45.951017" lon="6.912600">
        <ele>1536.0</ele>
        <time>2014-08-30T14:48:47Z</time>
      </trkpt>
      <trkpt lat="45.951083" lon="6.912517">
        <ele>1536.0</ele>
        <time>2014-08-30T14:48:48Z</time>
      </trkpt>
      <trkpt lat="45.951150" lon="6.912433">
        <ele>1537.0</ele>
        <time>2014-08-30T14:48:49Z</time>
      </trkpt>
      <trkpt lat="45.951233" lon="6.912350">
        <ele>1540.0</ele>
        <time>2014-08-30T14:48:50Z</time>
      </trkpt>
      <trkpt lat="45.951317" lon="6.912283">
        <ele>1542.0</ele>
        <time>2014-08-30T14:48:51Z</time>
      </trkpt>
      <trkpt lat="45.951400" lon="6.912233">
        <ele>1544.0</ele>
        <time>2014-08-30T14:48:52Z</time>
      </trkpt>
      <trkpt lat="45.951483" lon="6.912183">
        <ele>1546.0</ele>
        <time>2014-08-30T14:48:53Z</time>
      </trkpt>
      <trkpt lat="45.951583" lon="6.912133">
        <ele>1548.0</ele>
        <time>2014-08-30T14:48:54Z</time>
      </trkpt>
      <trkpt lat="45.951667" lon="6.912083">
        <ele>1549.0</ele>
        <time>2014-08-30T14:48:55Z</time>
      </trkpt>
      <trkpt lat="45.951767" lon="6.912033">
        <ele>1550.0</ele>
        <time>2014-08-30T14:48:56Z</time>
      </trkpt>
      <trkpt lat="45.951850" lon="6.911950">
        <ele>1551.0</ele>
        <time>2014-08-30T14:48:57Z</time>
      </trkpt>
      <trkpt lat="45.951950" lon="6.911850">
        <ele>1552.0</ele>
        <time>2014-08-30T14:48:58Z</time>
      </trkpt>
      <trkpt lat="45.952033" lon="6.911750">
        <ele>1554.0</ele>
        <time>2014-08-30T14:48:59Z</time>
      </trkpt>
      <trkpt lat="45.952117" lon="6.911667">
        <ele>1556.0</ele>
        <time>2014-08-30T14:49:00Z</time>
      </trkpt>
      <trkpt lat="45.952217" lon="6.911583">
        <ele>1559.0</ele>
        <time>2014-08-30T14:49:01Z</time>
      </trkpt>
      <trkpt lat="45.952317" lon="6.911517">
        <ele>1561.0</ele>
        <time>2014-08-30T14:49:02Z</time>
      </trkpt>
      <trkpt lat="45.952417" lon="6.911433">
        <ele>1562.0</ele>
        <time>2014-08-30T14:49:03Z</time>
      </trkpt>
      <trkpt lat="45.952483" lon="6.911350">
        <ele>1563.0</ele>
        <time>2014-08-30T14:49:04Z</time>
      </trkpt>
      <trkpt lat="45.952533" lon="6.911267">
        <ele>1563.0</ele>
        <time>2014-08-30T14:49:05Z</time>
      </trkpt>
      <trkpt lat="45.952550" lon="6.911183">
        <ele>1562.0</ele>
        <time>2014-08-30T14:49:06Z</time>
      </trkpt>
      <trkpt lat="45.952550" lon="6.911133">
        <ele>1561.0</ele>
        <time>2014-08-30T14:49:07Z</time>
      </trkpt>
      <trkpt lat="45.952550" lon="6.911117">
        <ele>1561.0</ele>
        <time>2014-08-30T14:49:08Z</time>
      </trkpt>
      <trkpt lat="45.952517" lon="6.911133">
        <ele>1561.0</ele>
        <time>2014-08-30T14:49:09Z</time>
      </trkpt>
      <trkpt lat="45.952500" lon="6.911183">
        <ele>1560.0</ele>
        <time>2014-08-30T14:49:10Z</time>
      </trkpt>
      <trkpt lat="45.952483" lon="6.911233">
        <ele>1561.0</ele>
        <time>2014-08-30T14:49:11Z</time>
      </trkpt>
      <trkpt lat="45.952467" lon="6.911250">
        <ele>1562.0</ele>
        <time>2014-08-30T14:49:12Z</time>
      </trkpt>
      <trkpt lat="45.952467" lon="6.911267">
        <ele>1563.0</ele>
        <time>2014-08-30T14:49:13Z</time>
      </trkpt>
      <trkpt lat="45.952467" lon="6.911300">
        <ele>1563.0</ele>
        <time>2014-08-30T14:49:14Z</time>
      </trkpt>
      <trkpt lat="45.952450" lon="6.911333">
        <ele>1564.0</ele>
        <time>2014-08-30T14:49:15Z</time>
      </trkpt>
      <trkpt lat="45.952433" lon="6.911367">
        <ele>1564.0</ele>
        <time>2014-08-30T14:49:16Z</time>
      </trkpt>
      <trkpt lat="45.952433" lon="6.911400">
        <ele>1565.0</ele>
        <time>2014-08-30T14:49:17Z</time>
      </trkpt>
      <trkpt lat="45.952417" lon="6.911450">
        <ele>1566.0</ele>
        <time>2014-08-30T14:49:18Z</time>
      </trkpt>
      <trkpt lat="45.952400" lon="6.911483">
        <ele>1568.0</ele>
        <time>2014-08-30T14:49:19Z</time>
      </trkpt>
      <trkpt lat="45.952400" lon="6.911533">
        <ele>1569.0</ele>
        <time>2014-08-30T14:49:20Z</time>
      </trkpt>
      <trkpt lat="45.952383" lon="6.911583">
        <ele>1570.0</ele>
        <time>2014-08-30T14:49:21Z</time>
      </trkpt>
      <trkpt lat="45.952367" lon="6.911633">
        <ele>1571.0</ele>
        <time>2014-08-30T14:49:22Z</time>
      </trkpt>
      <trkpt lat="45.952350" lon="6.911667">
        <ele>1571.0</ele>
        <time>2014-08-30T14:49:23Z</time>
      </trkpt>
      <trkpt lat="45.952333" lon="6.911683">
        <ele>1572.0</ele>
        <time>2014-08-30T14:49:24Z</time>
      </trkpt>
      <trkpt lat="45.952317" lon="6.911717">
        <ele>1573.0</ele>
        <time>2014-08-30T14:49:25Z</time>
      </trkpt>
      <trkpt lat="45.952317" lon="6.911767">
        <ele>1575.0</ele>
        <time>2014-08-30T14:49:26Z</time>
      </trkpt>
      <trkpt lat="45.952300" lon="6.911817">
        <ele>1577.0</ele>
        <time>2014-08-30T14:49:27Z</time>
      </trkpt>
      <trkpt lat="45.952300" lon="6.911867">
        <ele>1579.0</ele>
        <time>2014-08-30T14:49:28Z</time>
      </trkpt>
      <trkpt lat="45.952300" lon="6.911900">
        <ele>1580.0</ele>
        <time>2014-08-30T14:49:29Z</time>
      </trkpt>
      <trkpt lat="45.952283" lon="6.911917">
        <ele>1581.0</ele>
        <time>2014-08-30T14:49:30Z</time>
      </trkpt>
      <trkpt lat="45.952250" lon="6.911917">
        <ele>1581.0</ele>
        <time>2014-08-30T14:49:31Z</time>
      </trkpt>
      <trkpt lat="45.952200" lon="6.911950">
        <ele>1584.0</ele>
        <time>2014-08-30T14:49:32Z</time>
      </trkpt>
      <trkpt lat="45.952183" lon="6.911983">
        <ele>1587.0</ele>
        <time>2014-08-30T14:49:33Z</time>
      </trkpt>
      <trkpt lat="45.952167" lon="6.912050">
        <ele>1591.0</ele>
        <time>2014-08-30T14:49:34Z</time>
      </trkpt>
      <trkpt lat="45.952150" lon="6.912117">
        <ele>1596.0</ele>
        <time>2014-08-30T14:49:35Z</time>
      </trkpt>
      <trkpt lat="45.952150" lon="6.912183">
        <ele>1598.0</ele>
        <time>2014-08-30T14:49:36Z</time>
      </trkpt>
      <trkpt lat="45.952150" lon="6.912250">
        <ele>1600.0</ele>
        <time>2014-08-30T14:49:37Z</time>
      </trkpt>
      <trkpt lat="45.952117" lon="6.912333">
        <ele>1602.0</ele>
        <time>2014-08-30T14:49:38Z</time>
      </trkpt>
      <trkpt lat="45.952100" lon="6.912417">
        <ele>1604.0</ele>
        <time>2014-08-30T14:49:39Z</time>
      </trkpt>
      <trkpt lat="45.952067" lon="6.912500">
        <ele>1607.0</ele>
        <time>2014-08-30T14:49:40Z</time>
      </trkpt>
      <trkpt lat="45.952033" lon="6.912583">
        <ele>1611.0</ele>
        <time>2014-08-30T14:49:41Z</time>
      </trkpt>
      <trkpt lat="45.952017" lon="6.912667">
        <ele>1615.0</ele>
        <time>2014-08-30T14:49:42Z</time>
      </trkpt>
      <trkpt lat="45.952000" lon="6.912767">
        <ele>1619.0</ele>
        <time>2014-08-30T14:49:43Z</time>
      </trkpt>
      <trkpt lat="45.951983" lon="6.912850">
        <ele>1623.0</ele>
        <time>2014-08-30T14:49:44Z</time>
      </trkpt>
      <trkpt lat="45.951967" lon="6.912950">
        <ele>1627.0</ele>
        <time>2014-08-30T14:49:45Z</time>
      </trkpt>
      <trkpt lat="45.951933" lon="6.913033">
        <ele>1631.0</ele>
        <time>2014-08-30T14:49:46Z</time>
      </trkpt>
      <trkpt lat="45.951917" lon="6.913117">
        <ele>1636.0</ele>
        <time>2014-08-30T14:49:47Z</time>
      </trkpt>
      <trkpt lat="45.951900" lon="6.913217">
        <ele>1640.0</ele>
        <time>2014-08-30T14:49:48Z</time>
      </trkpt>
      <trkpt lat="45.951883" lon="6.913333">
        <ele>1644.0</ele>
        <time>2014-08-30T14:49:49Z</time>
      </trkpt>
      <trkpt lat="45.951883" lon="6.913433">
        <ele>1647.0</ele>
        <time>2014-08-30T14:49:50Z</time>
      </trkpt>
      <trkpt lat="45.951867" lon="6.913550">
        <ele>1650.0</ele>
        <time>2014-08-30T14:49:51Z</time>
      </trkpt>
      <trkpt lat="45.951850" lon="6.913650">
        <ele>1652.0</ele>
        <time>2014-08-30T14:49:52Z</time>
      </trkpt>
      <trkpt lat="45.951850" lon="6.913783">
        <ele>1654.0</ele>
        <time>2014-08-30T14:49:53Z</time>
      </trkpt>
      <trkpt lat="45.951850" lon="6.913917">
        <ele>1656.0</ele>
        <time>2014-08-30T14:49:54Z</time>
      </trkpt>
      <trkpt lat="45.951850" lon="6.914050">
        <ele>1660.0</ele>
        <time>2014-08-30T14:49:55Z</time>
      </trkpt>
      <trkpt lat="45.951850" lon="6.914167">
        <ele>1664.0</ele>
        <time>2014-08-30T14:49:56Z</time>
      </trkpt>
      <trkpt lat="45.951867" lon="6.914283">
        <ele>1668.0</ele>
        <time>2014-08-30T14:49:57Z</time>
      </trkpt>
      <trkpt lat="45.951883" lon="6.914383">
        <ele>1671.0</ele>
        <time>2014-08-30T14:49:58Z</time>
      </trkpt>
      <trkpt lat="45.951900" lon="6.914467">
        <ele>1673.0</ele>
        <time>2014-08-30T14:49:59Z</time>
      </trkpt>
      <trkpt lat="45.951900" lon="6.914567">
        <ele>1675.0</ele>
        <time>2014-08-30T14:50:00Z</time>
      </trkpt>
      <trkpt lat="45.951883" lon="6.914650">
        <ele>1676.0</ele>
        <time>2014-08-30T14:50:01Z</time>
      </trkpt>
      <trkpt lat="45.951883" lon="6.914750">
        <ele>1678.0</ele>
        <time>2014-08-30T14:50:02Z</time>
      </trkpt>
      <trkpt lat="45.951883" lon="6.914833">
        <ele>1680.0</ele>
        <time>2014-08-30T14:50:03Z</time>
      </trkpt>
      <trkpt lat="45.951850" lon="6.914900">
        <ele>1681.0</ele>
        <time>2014-08-30T14:50:04Z</time>
      </trkpt>
      <trkpt lat="45.951833" lon="6.914950">
        <ele>1682.0</ele>
        <time>2014-08-30T14:50:05Z</time>
      </trkpt>
      <trkpt lat="45.951783" lon="6.915000">
        <ele>1683.0</ele>
        <time>2014-08-30T14:50:06Z</time>
      </trkpt>
      <trkpt lat="45.951750" lon="6.915050">
        <ele>1684.0</ele>
        <time>2014-08-30T14:50:07Z</time>
      </trkpt>
      <trkpt lat="45.951733" lon="6.915083">
        <ele>1685.0</ele>
        <time>2014-08-30T14:50:08Z</time>
      </trkpt>
      <trkpt lat="45.951700" lon="6.915133">
        <ele>1685.0</ele>
        <time>2014-08-30T14:50:09Z</time>
      </trkpt>
      <trkpt lat="45.951650" lon="6.915200">
        <ele>1686.0</ele>
        <time>2014-08-30T14:50:10Z</time>
      </trkpt>
      <trkpt lat="45.951617" lon="6.915267">
        <ele>1686.0</ele>
        <time>2014-08-30T14:50:11Z</time>
      </trkpt>
      <trkpt lat="45.951567" lon="6.915333">
        <ele>1687.0</ele>
        <time>2014-08-30T14:50:12Z</time>
      </trkpt>
      <trkpt lat="45.951533" lon="6.915367">
        <ele>1688.0</ele>
        <time>2014-08-30T14:50:13Z</time>
      </trkpt>
      <trkpt lat="45.951483" lon="6.915383">
        <ele>1690.0</ele>
        <time>2014-08-30T14:50:14Z</time>
      </trkpt>
      <trkpt lat="45.951450" lon="6.915350">
        <ele>1689.0</ele>
        <time>2014-08-30T14:50:15Z</time>
      </trkpt>
      <trkpt lat="45.951450" lon="6.915283">
        <ele>1689.0</ele>
        <time>2014-08-30T14:50:16Z</time>
      </trkpt>
      <trkpt lat="45.951467" lon="6.915200">
        <ele>1688.0</ele>
        <time>2014-08-30T14:50:17Z</time>
      </trkpt>
      <trkpt lat="45.951517" lon="6.915100">
        <ele>1687.0</ele>
        <time>2014-08-30T14:50:18Z</time>
      </trkpt>
      <trkpt lat="45.951583" lon="6.915033">
        <ele>1688.0</ele>
        <time>2014-08-30T14:50:19Z</time>
      </trkpt>
      <trkpt lat="45.951650" lon="6.914967">
        <ele>1689.0</ele>
        <time>2014-08-30T14:50:20Z</time>
      </trkpt>
      <trkpt lat="45.951717" lon="6.914883">
        <ele>1692.0</ele>
        <time>2014-08-30T14:50:21Z</time>
      </trkpt>
      <trkpt lat="45.951767" lon="6.914800">
        <ele>1696.0</ele>
        <time>2014-08-30T14:50:22Z</time>
      </trkpt>
      <trkpt lat="45.951850" lon="6.914733">
        <ele>1699.0</ele>
        <time>2014-08-30T14:50:23Z</time>
      </trkpt>
      <trkpt lat="45.951917" lon="6.914667">
        <ele>1701.0</ele>
        <time>2014-08-30T14:50:24Z</time>
      </trkpt>
      <trkpt lat="45.952000" lon="6.914600">
        <ele>1704.0</ele>
        <time>2014-08-30T14:50:25Z</time>
      </trkpt>
      <trkpt lat="45.952067" lon="6.914550">
        <ele>1706.0</ele>
        <time>2014-08-30T14:50:26Z</time>
      </trkpt>
      <trkpt lat="45.952150" lon="6.914500">
        <ele>1708.0</ele>
        <time>2014-08-30T14:50:27Z</time>
      </trkpt>
      <trkpt lat="45.952267" lon="6.914483">
        <ele>1708.0</ele>
        <time>2014-08-30T14:50:28Z</time>
      </trkpt>
      <trkpt lat="45.952400" lon="6.914467">
        <ele>1710.0</ele>
        <time>2014-08-30T14:50:29Z</time>
      </trkpt>
      <trkpt lat="45.952517" lon="6.914467">
        <ele>1713.0</ele>
        <time>2014-08-30T14:50:30Z</time>
      </trkpt>
      <trkpt lat="45.952600" lon="6.914483">
        <ele>1718.0</ele>
        <time>2014-08-30T14:50:31Z</time>
      </trkpt>
      <trkpt lat="45.952683" lon="6.914517">
        <ele>1721.0</ele>
        <time>2014-08-30T14:50:32Z</time>
      </trkpt>
      <trkpt lat="45.952783" lon="6.914533">
        <ele>1721.0</ele>
        <time>2014-08-30T14:50:33Z</time>
      </trkpt>
      <trkpt lat="45.952883" lon="6.914550">
        <ele>1720.0</ele>
        <time>2014-08-30T14:50:34Z</time>
      </trkpt>
      <trkpt lat="45.953000" lon="6.914517">
        <ele>1719.0</ele>
        <time>2014-08-30T14:50:35Z</time>
      </trkpt>
      <trkpt lat="45.953100" lon="6.914450">
        <ele>1719.0</ele>
        <time>2014-08-30T14:50:36Z</time>
      </trkpt>
      <trkpt lat="45.953167" lon="6.914317">
        <ele>1719.0</ele>
        <time>2014-08-30T14:50:37Z</time>
      </trkpt>
      <trkpt lat="45.953200" lon="6.914200">
        <ele>1720.0</ele>
        <time>2014-08-30T14:50:38Z</time>
      </trkpt>
      <trkpt lat="45.953233" lon="6.914117">
        <ele>1726.0</ele>
        <time>2014-08-30T14:50:39Z</time>
      </trkpt>
      <trkpt lat="45.953283" lon="6.914083">
        <ele>1729.0</ele>
        <time>2014-08-30T14:50:40Z</time>
      </trkpt>
      <trkpt lat="45.953317" lon="6.914050">
        <ele>1732.0</ele>
        <time>2014-08-30T14:50:41Z</time>
      </trkpt>
      <trkpt lat="45.953367" lon="6.914000">
        <ele>1733.0</ele>
        <time>2014-08-30T14:50:42Z</time>
      </trkpt>
      <trkpt lat="45.953367" lon="6.913933">
        <ele>1732.0</ele>
        <time>2014-08-30T14:50:43Z</time>
      </trkpt>
      <trkpt lat="45.953350" lon="6.913867">
        <ele>1732.0</ele>
        <time>2014-08-30T14:50:44Z</time>
      </trkpt>
      <trkpt lat="45.953300" lon="6.913867">
        <ele>1732.0</ele>
        <time>2014-08-30T14:50:45Z</time>
      </trkpt>
      <trkpt lat="45.953267" lon="6.913917">
        <ele>1732.0</ele>
        <time>2014-08-30T14:50:46Z</time>
      </trkpt>
      <trkpt lat="45.953233" lon="6.914000">
        <ele>1733.0</ele>
        <time>2014-08-30T14:50:47Z</time>
      </trkpt>
      <trkpt lat="45.953217" lon="6.914067">
        <ele>1733.0</ele>
        <time>2014-08-30T14:50:48Z</time>
      </trkpt>
      <trkpt lat="45.953200" lon="6.914117">
        <ele>1734.0</ele>
        <time>2014-08-30T14:50:49Z</time>
      </trkpt>
      <trkpt lat="45.953167" lon="6.914150">
        <ele>1735.0</ele>
        <time>2014-08-30T14:50:50Z</time>
      </trkpt>
      <trkpt lat="45.953133" lon="6.914200">
        <ele>1736.0</ele>
        <time>2014-08-30T14:50:51Z</time>
      </trkpt>
      <trkpt lat="45.953117" lon="6.914267">
        <ele>1738.0</ele>
        <time>2014-08-30T14:50:52Z</time>
      </trkpt>
      <trkpt lat="45.953100" lon="6.914333">
        <ele>1740.0</ele>
        <time>2014-08-30T14:50:53Z</time>
      </trkpt>
      <trkpt lat="45.953067" lon="6.914400">
        <ele>1742.0</ele>
        <time>2014-08-30T14:50:54Z</time>
      </trkpt>
      <trkpt lat="45.953050" lon="6.914450">
        <ele>1743.0</ele>
        <time>2014-08-30T14:50:55Z</time>
      </trkpt>
      <trkpt lat="45.953017" lon="6.914500">
        <ele>1745.0</ele>
        <time>2014-08-30T14:50:56Z</time>
      </trkpt>
      <trkpt lat="45.953000" lon="6.914567">
        <ele>1746.0</ele>
        <time>2014-08-30T14:50:57Z</time>
      </trkpt>
      <trkpt lat="45.952967" lon="6.914633">
        <ele>1747.0</ele>
        <time>2014-08-30T14:50:58Z</time>
      </trkpt>
      <trkpt lat="45.952933" lon="6.914717">
        <ele>1748.0</ele>
        <time>2014-08-30T14:50:59Z</time>
      </trkpt>
      <trkpt lat="45.952917" lon="6.914800">
        <ele>1749.0</ele>
        <time>2014-08-30T14:51:00Z</time>
      </trkpt>
      <trkpt lat="45.952900" lon="6.914883">
        <ele>1751.0</ele>
        <time>2014-08-30T14:51:01Z</time>
      </trkpt>
      <trkpt lat="45.952883" lon="6.914950">
        <ele>1752.0</ele>
        <time>2014-08-30T14:51:02Z</time>
      </trkpt>
      <trkpt lat="45.952867" lon="6.915017">
        <ele>1752.0</ele>
        <time>2014-08-30T14:51:03Z</time>
      </trkpt>
      <trkpt lat="45.952850" lon="6.915067">
        <ele>1752.0</ele>
        <time>2014-08-30T14:51:04Z</time>
      </trkpt>
      <trkpt lat="45.952833" lon="6.915133">
        <ele>1753.0</ele>
        <time>2014-08-30T14:51:05Z</time>
      </trkpt>
      <trkpt lat="45.952817" lon="6.915183">
        <ele>1754.0</ele>
        <time>2014-08-30T14:51:06Z</time>
      </trkpt>
      <trkpt lat="45.952783" lon="6.915233">
        <ele>1755.0</ele>
        <time>2014-08-30T14:51:07Z</time>
      </trkpt>
      <trkpt lat="45.952750" lon="6.915283">
        <ele>1756.0</ele>
        <time>2014-08-30T14:51:08Z</time>
      </trkpt>
      <trkpt lat="45.952733" lon="6.915317">
        <ele>1757.0</ele>
        <time>2014-08-30T14:51:09Z</time>
      </trkpt>
      <trkpt lat="45.952717" lon="6.915350">
        <ele>1759.0</ele>
        <time>2014-08-30T14:51:10Z</time>
      </trkpt>
      <trkpt lat="45.952700" lon="6.915400">
        <ele>1759.0</ele>
        <time>2014-08-30T14:51:11Z</time>
      </trkpt>
      <trkpt lat="45.952667" lon="6.915433">
        <ele>1759.0</ele>
        <time>2014-08-30T14:51:12Z</time>
      </trkpt>
      <trkpt lat="45.952633" lon="6.915483">
        <ele>1760.0</ele>
        <time>2014-08-30T14:51:13Z</time>
      </trkpt>
      <trkpt lat="45.952600" lon="6.915533">
        <ele>1762.0</ele>
        <time>2014-08-30T14:51:14Z</time>
      </trkpt>
      <trkpt lat="45.952567" lon="6.915567">
        <ele>1764.0</ele>
        <time>2014-08-30T14:51:15Z</time>
      </trkpt>
      <trkpt lat="45.952550" lon="6.915617">
        <ele>1767.0</ele>
        <time>2014-08-30T14:51:16Z</time>
      </trkpt>
      <trkpt lat="45.952517" lon="6.915650">
        <ele>1769.0</ele>
        <time>2014-08-30T14:51:17Z</time>
      </trkpt>
      <trkpt lat="45.952483" lon="6.915700">
        <ele>1770.0</ele>
        <time>2014-08-30T14:51:18Z</time>
      </trkpt>
      <trkpt lat="45.952450" lon="6.915733">
        <ele>1771.0</ele>
        <time>2014-08-30T14:51:19Z</time>
      </trkpt>
      <trkpt lat="45.952417" lon="6.915783">
        <ele>1774.0</ele>
        <time>2014-08-30T14:51:20Z</time>
      </trkpt>
      <trkpt lat="45.952383" lon="6.915833">
        <ele>1777.0</ele>
        <time>2014-08-30T14:51:21Z</time>
      </trkpt>
      <trkpt lat="45.952350" lon="6.915900">
        <ele>1780.0</ele>
        <time>2014-08-30T14:51:22Z</time>
      </trkpt>
      <trkpt lat="45.952317" lon="6.915967">
        <ele>1783.0</ele>
        <time>2014-08-30T14:51:23Z</time>
      </trkpt>
      <trkpt lat="45.952300" lon="6.916050">
        <ele>1786.0</ele>
        <time>2014-08-30T14:51:24Z</time>
      </trkpt>
      <trkpt lat="45.952283" lon="6.916117">
        <ele>1788.0</ele>
        <time>2014-08-30T14:51:25Z</time>
      </trkpt>
      <trkpt lat="45.952267" lon="6.916200">
        <ele>1790.0</ele>
        <time>2014-08-30T14:51:26Z</time>
      </trkpt>
      <trkpt lat="45.952233" lon="6.916267">
        <ele>1792.0</ele>
        <time>2014-08-30T14:51:27Z</time>
      </trkpt>
      <trkpt lat="45.952200" lon="6.916350">
        <ele>1794.0</ele>
        <time>2014-08-30T14:51:28Z</time>
      </trkpt>
      <trkpt lat="45.952167" lon="6.916417">
        <ele>1797.0</ele>
        <time>2014-08-30T14:51:29Z</time>
      </trkpt>
      <trkpt lat="45.952133" lon="6.916450">
        <ele>1799.0</ele>
        <time>2014-08-30T14:51:30Z</time>
      </trkpt>
      <trkpt lat="45.952117" lon="6.916500">
        <ele>1801.0</ele>
        <time>2014-08-30T14:51:31Z</time>
      </trkpt>
      <trkpt lat="45.952083" lon="6.916550">
        <ele>1803.0</ele>
        <time>2014-08-30T14:51:32Z</time>
      </trkpt>
      <trkpt lat="45.952033" lon="6.916600">
        <ele>1805.0</ele>
        <time>2014-08-30T14:51:33Z</time>
      </trkpt>
      <trkpt lat="45.952000" lon="6.916667">
        <ele>1807.0</ele>
        <time>2014-08-30T14:51:34Z</time>
      </trkpt>
      <trkpt lat="45.951967" lon="6.916717">
        <ele>1809.0</ele>
        <time>2014-08-30T14:51:35Z</time>
      </trkpt>
      <trkpt lat="45.951933" lon="6.916783">
        <ele>1811.0</ele>
        <time>2014-08-30T14:51:36Z</time>
      </trkpt>
      <trkpt lat="45.951900" lon="6.916850">
        <ele>1814.0</ele>
        <time>2014-08-30T14:51:37Z</time>
      </trkpt>
      <trkpt lat="45.951850" lon="6.916917">
        <ele>1817.0</ele>
        <time>2014-08-30T14:51:38Z</time>
      </trkpt>
      <trkpt lat="45.951817" lon="6.917000">
        <ele>1821.0</ele>
        <time>2014-08-30T14:51:39Z</time>
      </trkpt>
      <trkpt lat="45.951800" lon="6.917067">
        <ele>1825.0</ele>
        <time>2014-08-30T14:51:40Z</time>
      </trkpt>
      <trkpt lat="45.951767" lon="6.917133">
        <ele>1829.0</ele>
        <time>2014-08-30T14:51:41Z</time>
      </trkpt>
      <trkpt lat="45.951733" lon="6.917200">
        <ele>1832.0</ele>
        <time>2014-08-30T14:51:42Z</time>
      </trkpt>
      <trkpt lat="45.951717" lon="6.917283">
        <ele>1835.0</ele>
        <time>2014-08-30T14:51:43Z</time>
      </trkpt>
      <trkpt lat="45.951667" lon="6.917350">
        <ele>1838.0</ele>
        <time>2014-08-30T14:51:44Z</time>
      </trkpt>
      <trkpt lat="45.951633" lon="6.917400">
        <ele>1842.0</ele>
        <time>2014-08-30T14:51:45Z</time>
      </trkpt>
      <trkpt lat="45.951600" lon="6.917467">
        <ele>1845.0</ele>
        <time>2014-08-30T14:51:46Z</time>
      </trkpt>
      <trkpt lat="45.951567" lon="6.917533">
        <ele>1848.0</ele>
        <time>2014-08-30T14:51:47Z</time>
      </trkpt>
      <trkpt lat="45.951517" lon="6.917600">
        <ele>1851.0</ele>
        <time>2014-08-30T14:51:48Z</time>
      </trkpt>
      <trkpt lat="45.951467" lon="6.917667">
        <ele>1855.0</ele>
        <time>2014-08-30T14:51:49Z</time>
      </trkpt>
      <trkpt lat="45.951417" lon="6.917717">
        <ele>1859.0</ele>
        <time>2014-08-30T14:51:50Z</time>
      </trkpt>
      <trkpt lat="45.951383" lon="6.917800">
        <ele>1862.0</ele>
        <time>2014-08-30T14:51:51Z</time>
      </trkpt>
      <trkpt lat="45.951333" lon="6.917900">
        <ele>1866.0</ele>
        <time>2014-08-30T14:51:52Z</time>
      </trkpt>
      <trkpt lat="45.951317" lon="6.918017">
        <ele>1869.0</ele>
        <time>2014-08-30T14:51:53Z</time>
      </trkpt>
      <trkpt lat="45.951300" lon="6.918133">
        <ele>1871.0</ele>
        <time>2014-08-30T14:51:54Z</time>
      </trkpt>
      <trkpt lat="45.951283" lon="6.918250">
        <ele>1874.0</ele>
        <time>2014-08-30T14:51:55Z</time>
      </trkpt>
      <trkpt lat="45.951250" lon="6.918367">
        <ele>1877.0</ele>
        <time>2014-08-30T14:51:56Z</time>
      </trkpt>
      <trkpt lat="45.951233" lon="6.918450">
        <ele>1878.0</ele>
        <time>2014-08-30T14:51:57Z</time>
      </trkpt>
      <trkpt lat="45.951217" lon="6.918550">
        <ele>1880.0</ele>
        <time>2014-08-30T14:51:58Z</time>
      </trkpt>
      <trkpt lat="45.951183" lon="6.918667">
        <ele>1881.0</ele>
        <time>2014-08-30T14:51:59Z</time>
      </trkpt>
      <trkpt lat="45.951150" lon="6.918800">
        <ele>1882.0</ele>
        <time>2014-08-30T14:52:00Z</time>
      </trkpt>
      <trkpt lat="45.951133" lon="6.918917">
        <ele>1883.0</ele>
        <time>2014-08-30T14:52:01Z</time>
      </trkpt>
      <trkpt lat="45.951100" lon="6.919050">
        <ele>1886.0</ele>
        <time>2014-08-30T14:52:02Z</time>
      </trkpt>
      <trkpt lat="45.951083" lon="6.919183">
        <ele>1889.0</ele>
        <time>2014-08-30T14:52:03Z</time>
      </trkpt>
      <trkpt lat="45.951067" lon="6.919317">
        <ele>1891.0</ele>
        <time>2014-08-30T14:52:04Z</time>
      </trkpt>
      <trkpt lat="45.951033" lon="6.919467">
        <ele>1893.0</ele>
        <time>2014-08-30T14:52:05Z</time>
      </trkpt>
      <trkpt lat="45.951017" lon="6.919600">
        <ele>1896.0</ele>
        <time>2014-08-30T14:52:06Z</time>
      </trkpt>
      <trkpt lat="45.951000" lon="6.919733">
        <ele>1899.0</ele>
        <time>2014-08-30T14:52:07Z</time>
      </trkpt>
      <trkpt lat="45.950967" lon="6.919867">
        <ele>1901.0</ele>
        <time>2014-08-30T14:52:08Z</time>
      </trkpt>
      <trkpt lat="45.950950" lon="6.920000">
        <ele>1904.0</ele>
        <time>2014-08-30T14:52:09Z</time>
      </trkpt>
      <trkpt lat="45.950900" lon="6.920117">
        <ele>1907.0</ele>
        <time>2014-08-30T14:52:10Z</time>
      </trkpt>
      <trkpt lat="45.950867" lon="6.920233">
        <ele>1909.0</ele>
        <time>2014-08-30T14:52:11Z</time>
      </trkpt>
      <trkpt lat="45.950817" lon="6.920333">
        <ele>1912.0</ele>
        <time>2014-08-30T14:52:12Z</time>
      </trkpt>
      <trkpt lat="45.950783" lon="6.920433">
        <ele>1913.0</ele>
        <time>2014-08-30T14:52:13Z</time>
      </trkpt>
      <trkpt lat="45.950733" lon="6.920500">
        <ele>1914.0</ele>
        <time>2014-08-30T14:52:14Z</time>
      </trkpt>
      <trkpt lat="45.950667" lon="6.920567">
        <ele>1914.0</ele>
        <time>2014-08-30T14:52:15Z</time>
      </trkpt>
      <trkpt lat="45.950617" lon="6.920650">
        <ele>1916.0</ele>
        <time>2014-08-30T14:52:16Z</time>
      </trkpt>
      <trkpt lat="45.950567" lon="6.920733">
        <ele>1919.0</ele>
        <time>2014-08-30T14:52:17Z</time>
      </trkpt>
      <trkpt lat="45.950517" lon="6.920817">
        <ele>1921.0</ele>
        <time>2014-08-30T14:52:18Z</time>
      </trkpt>
      <trkpt lat="45.950467" lon="6.920883">
        <ele>1922.0</ele>
        <time>2014-08-30T14:52:19Z</time>
      </trkpt>
      <trkpt lat="45.950417" lon="6.920950">
        <ele>1924.0</ele>
        <time>2014-08-30T14:52:20Z</time>
      </trkpt>
      <trkpt lat="45.950350" lon="6.921033">
        <ele>1926.0</ele>
        <time>2014-08-30T14:52:21Z</time>
      </trkpt>
      <trkpt lat="45.950283" lon="6.921117">
        <ele>1928.0</ele>
        <time>2014-08-30T14:52:22Z</time>
      </trkpt>
      <trkpt lat="45.950233" lon="6.921200">
        <ele>1932.0</ele>
        <time>2014-08-30T14:52:23Z</time>
      </trkpt>
      <trkpt lat="45.950183" lon="6.921283">
        <ele>1935.0</ele>
        <time>2014-08-30T14:52:24Z</time>
      </trkpt>
      <trkpt lat="45.950133" lon="6.921367">
        <ele>1939.0</ele>
        <time>2014-08-30T14:52:25Z</time>
      </trkpt>
      <trkpt lat="45.950083" lon="6.921450">
        <ele>1941.0</ele>
        <time>2014-08-30T14:52:26Z</time>
      </trkpt>
      <trkpt lat="45.950033" lon="6.921517">
        <ele>1943.0</ele>
        <time>2014-08-30T14:52:27Z</time>
      </trkpt>
      <trkpt lat="45.949967" lon="6.921583">
        <ele>1946.0</ele>
        <time>2014-08-30T14:52:28Z</time>
      </trkpt>
      <trkpt lat="45.949900" lon="6.921633">
        <ele>1950.0</ele>
        <time>2014-08-30T14:52:29Z</time>
      </trkpt>
      <trkpt lat="45.949850" lon="6.921667">
        <ele>1954.0</ele>
        <time>2014-08-30T14:52:30Z</time>
      </trkpt>
      <trkpt lat="45.949800" lon="6.921683">
        <ele>1957.0</ele>
        <time>2014-08-30T14:52:31Z</time>
      </trkpt>
      <trkpt lat="45.949767" lon="6.921667">
        <ele>1959.0</ele>
        <time>2014-08-30T14:52:32Z</time>
      </trkpt>
      <trkpt lat="45.949750" lon="6.921650">
        <ele>1960.0</ele>
        <time>2014-08-30T14:52:33Z</time>
      </trkpt>
      <trkpt lat="45.949717" lon="6.921600">
        <ele>1960.0</ele>
        <time>2014-08-30T14:52:34Z</time>
      </trkpt>
      <trkpt lat="45.949700" lon="6.921533">
        <ele>1961.0</ele>
        <time>2014-08-30T14:52:35Z</time>
      </trkpt>
      <trkpt lat="45.949683" lon="6.921483">
        <ele>1963.0</ele>
        <time>2014-08-30T14:52:36Z</time>
      </trkpt>
      <trkpt lat="45.949700" lon="6.921417">
        <ele>1964.0</ele>
        <time>2014-08-30T14:52:37Z</time>
      </trkpt>
      <trkpt lat="45.949750" lon="6.921350">
        <ele>1965.0</ele>
        <time>2014-08-30T14:52:38Z</time>
      </trkpt>
      <trkpt lat="45.949800" lon="6.921283">
        <ele>1965.0</ele>
        <time>2014-08-30T14:52:39Z</time>
      </trkpt>
      <trkpt lat="45.949850" lon="6.921233">
        <ele>1967.0</ele>
        <time>2014-08-30T14:52:40Z</time>
      </trkpt>
      <trkpt lat="45.949917" lon="6.921183">
        <ele>1969.0</ele>
        <time>2014-08-30T14:52:41Z</time>
      </trkpt>
      <trkpt lat="45.949983" lon="6.921133">
        <ele>1970.0</ele>
        <time>2014-08-30T14:52:42Z</time>
      </trkpt>
      <trkpt lat="45.950050" lon="6.921100">
        <ele>1971.0</ele>
        <time>2014-08-30T14:52:43Z</time>
      </trkpt>
      <trkpt lat="45.950117" lon="6.921050">
        <ele>1972.0</ele>
        <time>2014-08-30T14:52:44Z</time>
      </trkpt>
      <trkpt lat="45.950183" lon="6.921000">
        <ele>1973.0</ele>
        <time>2014-08-30T14:52:45Z</time>
      </trkpt>
      <trkpt lat="45.950283" lon="6.920967">
        <ele>1973.0</ele>
        <time>2014-08-30T14:52:46Z</time>
      </trkpt>
      <trkpt lat="45.950367" lon="6.920933">
        <ele>1974.0</ele>
        <time>2014-08-30T14:52:47Z</time>
      </trkpt>
      <trkpt lat="45.950450" lon="6.920900">
        <ele>1976.0</ele>
        <time>2014-08-30T14:52:48Z</time>
      </trkpt>
      <trkpt lat="45.950533" lon="6.920850">
        <ele>1977.0</ele>
        <time>2014-08-30T14:52:49Z</time>
      </trkpt>
      <trkpt lat="45.950617" lon="6.920817">
        <ele>1978.0</ele>
        <time>2014-08-30T14:52:50Z</time>
      </trkpt>
      <trkpt lat="45.950700" lon="6.920767">
        <ele>1980.0</ele>
        <time>2014-08-30T14:52:51Z</time>
      </trkpt>
      <trkpt lat="45.950783" lon="6.920733">
        <ele>1981.0</ele>
        <time>2014-08-30T14:52:52Z</time>
      </trkpt>
      <trkpt lat="45.950867" lon="6.920683">
        <ele>1983.0</ele>
        <time>2014-08-30T14:52:53Z</time>
      </trkpt>
      <trkpt lat="45.950933" lon="6.920633">
        <ele>1985.0</ele>
        <time>2014-08-30T14:52:54Z</time>
      </trkpt>
      <trkpt lat="45.951000" lon="6.920600">
        <ele>1986.0</ele>
        <time>2014-08-30T14:52:55Z</time>
      </trkpt>
      <trkpt lat="45.951067" lon="6.920533">
        <ele>1987.0</ele>
        <time>2014-08-30T14:52:56Z</time>
      </trkpt>
      <trkpt lat="45.951117" lon="6.920467">
        <ele>1987.0</ele>
        <time>2014-08-30T14:52:57Z</time>
      </trkpt>
      <trkpt lat="45.951150" lon="6.920367">
        <ele>1988.0</ele>
        <time>2014-08-30T14:52:58Z</time>
      </trkpt>
      <trkpt lat="45.951150" lon="6.920283">
        <ele>1989.0</ele>
        <time>2014-08-30T14:52:59Z</time>
      </trkpt>
      <trkpt lat="45.951133" lon="6.920217">
        <ele>1991.0</ele>
        <time>2014-08-30T14:53:00Z</time>
      </trkpt>
      <trkpt lat="45.951100" lon="6.920183">
        <ele>1992.0</ele>
        <time>2014-08-30T14:53:01Z</time>
      </trkpt>
      <trkpt lat="45.951067" lon="6.920183">
        <ele>1994.0</ele>
        <time>2014-08-30T14:53:02Z</time>
      </trkpt>
      <trkpt lat="45.951017" lon="6.920217">
        <ele>1994.0</ele>
        <time>2014-08-30T14:53:03Z</time>
      </trkpt>
      <trkpt lat="45.950967" lon="6.920267">
        <ele>1995.0</ele>
        <time>2014-08-30T14:53:04Z</time>
      </trkpt>
      <trkpt lat="45.950933" lon="6.920333">
        <ele>1995.0</ele>
        <time>2014-08-30T14:53:05Z</time>
      </trkpt>
      <trkpt lat="45.950883" lon="6.920433">
        <ele>1996.0</ele>
        <time>2014-08-30T14:53:06Z</time>
      </trkpt>
      <trkpt lat="45.950850" lon="6.920550">
        <ele>1996.0</ele>
        <time>2014-08-30T14:53:07Z</time>
      </trkpt>
      <trkpt lat="45.950817" lon="6.920667">
        <ele>1997.0</ele>
        <time>2014-08-30T14:53:08Z</time>
      </trkpt>
      <trkpt lat="45.950800" lon="6.920783">
        <ele>1999.0</ele>
        <time>2014-08-30T14:53:09Z</time>
      </trkpt>
      <trkpt lat="45.950750" lon="6.920883">
        <ele>2000.0</ele>
        <time>2014-08-30T14:53:10Z</time>
      </trkpt>
      <trkpt lat="45.950717" lon="6.921000">
        <ele>2001.0</ele>
        <time>2014-08-30T14:53:11Z</time>
      </trkpt>
      <trkpt lat="45.950700" lon="6.921100">
        <ele>2002.0</ele>
        <time>2014-08-30T14:53:12Z</time>
      </trkpt>
      <trkpt lat="45.950667" lon="6.921217">
        <ele>2003.0</ele>
        <time>2014-08-30T14:53:13Z</time>
      </trkpt>
      <trkpt lat="45.950633" lon="6.921333">
        <ele>2004.0</ele>
        <time>2014-08-30T14:53:14Z</time>
      </trkpt>
      <trkpt lat="45.950617" lon="6.921433">
        <ele>2005.0</ele>
        <time>2014-08-30T14:53:15Z</time>
      </trkpt>
      <trkpt lat="45.950583" lon="6.921550">
        <ele>2006.0</ele>
        <time>2014-08-30T14:53:16Z</time>
      </trkpt>
      <trkpt lat="45.950533" lon="6.921650">
        <ele>2007.0</ele>
        <time>2014-08-30T14:53:17Z</time>
      </trkpt>
      <trkpt lat="45.950467" lon="6.921750">
        <ele>2008.0</ele>
        <time>2014-08-30T14:53:18Z</time>
      </trkpt>
      <trkpt lat="45.950400" lon="6.921817">
        <ele>2009.0</ele>
        <time>2014-08-30T14:53:19Z</time>
      </trkpt>
      <trkpt lat="45.950333" lon="6.921883">
        <ele>2011.0</ele>
        <time>2014-08-30T14:53:20Z</time>
      </trkpt>
      <trkpt lat="45.950267" lon="6.921950">
        <ele>2013.0</ele>
        <time>2014-08-30T14:53:21Z</time>
      </trkpt>
      <trkpt lat="45.950217" lon="6.922017">
        <ele>2015.0</ele>
        <time>2014-08-30T14:53:22Z</time>
      </trkpt>
      <trkpt lat="45.950167" lon="6.922100">
        <ele>2018.0</ele>
        <time>2014-08-30T14:53:23Z</time>
      </trkpt>
      <trkpt lat="45.950117" lon="6.922183">
        <ele>2019.0</ele>
        <time>2014-08-30T14:53:24Z</time>
      </trkpt>
      <trkpt lat="45.950067" lon="6.922267">
        <ele>2020.0</ele>
        <time>2014-08-30T14:53:25Z</time>
      </trkpt>
      <trkpt lat="45.950017" lon="6.922367">
        <ele>2021.0</ele>
        <time>2014-08-30T14:53:26Z</time>
      </trkpt>
      <trkpt lat="45.949950" lon="6.922467">
        <ele>2023.0</ele>
        <time>2014-08-30T14:53:27Z</time>
      </trkpt>
      <trkpt lat="45.949883" lon="6.922567">
        <ele>2025.0</ele>
        <time>2014-08-30T14:53:28Z</time>
      </trkpt>
      <trkpt lat="45.949817" lon="6.922633">
        <ele>2027.0</ele>
        <time>2014-08-30T14:53:29Z</time>
      </trkpt>
      <trkpt lat="45.949767" lon="6.922717">
        <ele>2029.0</ele>
        <time>2014-08-30T14:53:30Z</time>
      </trkpt>
      <trkpt lat="45.949700" lon="6.922783">
        <ele>2030.0</ele>
        <time>2014-08-30T14:53:31Z</time>
      </trkpt>
      <trkpt lat="45.949633" lon="6.922883">
        <ele>2030.0</ele>
        <time>2014-08-30T14:53:32Z</time>
      </trkpt>
      <trkpt lat="45.949567" lon="6.922967">
        <ele>2031.0</ele>
        <time>2014-08-30T14:53:33Z</time>
      </trkpt>
      <trkpt lat="45.949500" lon="6.923050">
        <ele>2032.0</ele>
        <time>2014-08-30T14:53:34Z</time>
      </trkpt>
      <trkpt lat="45.949433" lon="6.923133">
        <ele>2034.0</ele>
        <time>2014-08-30T14:53:35Z</time>
      </trkpt>
      <trkpt lat="45.949350" lon="6.923200">
        <ele>2035.0</ele>
        <time>2014-08-30T14:53:36Z</time>
      </trkpt>
      <trkpt lat="45.949300" lon="6.923250">
        <ele>2036.0</ele>
        <time>2014-08-30T14:53:37Z</time>
      </trkpt>
      <trkpt lat="45.949233" lon="6.923283">
        <ele>2037.0</ele>
        <time>2014-08-30T14:53:38Z</time>
      </trkpt>
      <trkpt lat="45.949167" lon="6.923317">
        <ele>2037.0</ele>
        <time>2014-08-30T14:53:39Z</time>
      </trkpt>
      <trkpt lat="45.949100" lon="6.923333">
        <ele>2036.0</ele>
        <time>2014-08-30T14:53:40Z</time>
      </trkpt>
      <trkpt lat="45.949033" lon="6.923300">
        <ele>2036.0</ele>
        <time>2014-08-30T14:53:41Z</time>
      </trkpt>
      <trkpt lat="45.949000" lon="6.923250">
        <ele>2036.0</ele>
        <time>2014-08-30T14:53:42Z</time>
      </trkpt>
      <trkpt lat="45.949000" lon="6.923167">
        <ele>2036.0</ele>
        <time>2014-08-30T14:53:43Z</time>
      </trkpt>
      <trkpt lat="45.949033" lon="6.923100">
        <ele>2038.0</ele>
        <time>2014-08-30T14:53:44Z</time>
      </trkpt>
      <trkpt lat="45.949067" lon="6.923033">
        <ele>2039.0</ele>
        <time>2014-08-30T14:53:45Z</time>
      </trkpt>
      <trkpt lat="45.949117" lon="6.922983">
        <ele>2041.0</ele>
        <time>2014-08-30T14:53:46Z</time>
      </trkpt>
      <trkpt lat="45.949133" lon="6.922967">
        <ele>2042.0</ele>
        <time>2014-08-30T14:53:47Z</time>
      </trkpt>
      <trkpt lat="45.949183" lon="6.922933">
        <ele>2041.0</ele>
        <time>2014-08-30T14:53:48Z</time>
      </trkpt>
      <trkpt lat="45.949233" lon="6.922900">
        <ele>2040.0</ele>
        <time>2014-08-30T14:53:49Z</time>
      </trkpt>
      <trkpt lat="45.949333" lon="6.922867">
        <ele>2038.0</ele>
        <time>2014-08-30T14:53:50Z</time>
      </trkpt>
      <trkpt lat="45.949433" lon="6.922850">
        <ele>2037.0</ele>
        <time>2014-08-30T14:53:51Z</time>
      </trkpt>
      <trkpt lat="45.949517" lon="6.922850">
        <ele>2039.0</ele>
        <time>2014-08-30T14:53:52Z</time>
      </trkpt>
      <trkpt lat="45.949600" lon="6.922833">
        <ele>2040.0</ele>
        <time>2014-08-30T14:53:53Z</time>
      </trkpt>
      <trkpt lat="45.949683" lon="6.922817">
        <ele>2041.0</ele>
        <time>2014-08-30T14:53:54Z</time>
      </trkpt>
      <trkpt lat="45.949767" lon="6.922800">
        <ele>2042.0</ele>
        <time>2014-08-30T14:53:55Z</time>
      </trkpt>
      <trkpt lat="45.949850" lon="6.922800">
        <ele>2043.0</ele>
        <time>2014-08-30T14:53:56Z</time>
      </trkpt>
      <trkpt lat="45.949950" lon="6.922800">
        <ele>2044.0</ele>
        <time>2014-08-30T14:53:57Z</time>
      </trkpt>
      <trkpt lat="45.950033" lon="6.922800">
        <ele>2045.0</ele>
        <time>2014-08-30T14:53:58Z</time>
      </trkpt>
      <trkpt lat="45.950117" lon="6.922800">
        <ele>2047.0</ele>
        <time>2014-08-30T14:53:59Z</time>
      </trkpt>
      <trkpt lat="45.950217" lon="6.922800">
        <ele>2048.0</ele>
        <time>2014-08-30T14:54:00Z</time>
      </trkpt>
      <trkpt lat="45.950300" lon="6.922800">
        <ele>2049.0</ele>
        <time>2014-08-30T14:54:01Z</time>
      </trkpt>
      <trkpt lat="45.950400" lon="6.922800">
        <ele>2050.0</ele>
        <time>2014-08-30T14:54:02Z</time>
      </trkpt>
      <trkpt lat="45.950500" lon="6.922800">
        <ele>2052.0</ele>
        <time>2014-08-30T14:54:03Z</time>
      </trkpt>
      <trkpt lat="45.950600" lon="6.922800">
        <ele>2053.0</ele>
        <time>2014-08-30T14:54:04Z</time>
      </trkpt>
      <trkpt lat="45.950700" lon="6.922800">
        <ele>2055.0</ele>
        <time>2014-08-30T14:54:05Z</time>
      </trkpt>
      <trkpt lat="45.950800" lon="6.922800">
        <ele>2056.0</ele>
        <time>2014-08-30T14:54:06Z</time>
      </trkpt>
      <trkpt lat="45.950900" lon="6.922800">
        <ele>2058.0</ele>
        <time>2014-08-30T14:54:07Z</time>
      </trkpt>
      <trkpt lat="45.951000" lon="6.922800">
        <ele>2060.0</ele>
        <time>2014-08-30T14:54:08Z</time>
      </trkpt>
      <trkpt lat="45.951100" lon="6.922783">
        <ele>2062.0</ele>
        <time>2014-08-30T14:54:09Z</time>
      </trkpt>
      <trkpt lat="45.951167" lon="6.922733">
        <ele>2064.0</ele>
        <time>2014-08-30T14:54:10Z</time>
      </trkpt>
      <trkpt lat="45.951233" lon="6.922683">
        <ele>2066.0</ele>
        <time>2014-08-30T14:54:11Z</time>
      </trkpt>
      <trkpt lat="45.951300" lon="6.922617">
        <ele>2069.0</ele>
        <time>2014-08-30T14:54:12Z</time>
      </trkpt>
      <trkpt lat="45.951333" lon="6.922550">
        <ele>2071.0</ele>
        <time>2014-08-30T14:54:13Z</time>
      </trkpt>
      <trkpt lat="45.951350" lon="6.922483">
        <ele>2074.0</ele>
        <time>2014-08-30T14:54:14Z</time>
      </trkpt>
      <trkpt lat="45.951367" lon="6.922417">
        <ele>2076.0</ele>
        <time>2014-08-30T14:54:15Z</time>
      </trkpt>
      <trkpt lat="45.951333" lon="6.922367">
        <ele>2079.0</ele>
        <time>2014-08-30T14:54:16Z</time>
      </trkpt>
      <trkpt lat="45.951300" lon="6.922333">
        <ele>2081.0</ele>
        <time>2014-08-30T14:54:17Z</time>
      </trkpt>
      <trkpt lat="45.951250" lon="6.922333">
        <ele>2084.0</ele>
        <time>2014-08-30T14:54:18Z</time>
      </trkpt>
      <trkpt lat="45.951200" lon="6.922367">
        <ele>2086.0</ele>
        <time>2014-08-30T14:54:19Z</time>
      </trkpt>
      <trkpt lat="45.951150" lon="6.922433">
        <ele>2088.0</ele>
        <time>2014-08-30T14:54:20Z</time>
      </trkpt>
      <trkpt lat="45.951100" lon="6.922533">
        <ele>2090.0</ele>
        <time>2014-08-30T14:54:21Z</time>
      </trkpt>
      <trkpt lat="45.951050" lon="6.922633">
        <ele>2093.0</ele>
        <time>2014-08-30T14:54:22Z</time>
      </trkpt>
      <trkpt lat="45.951017" lon="6.922750">
        <ele>2095.0</ele>
        <time>2014-08-30T14:54:23Z</time>
      </trkpt>
      <trkpt lat="45.950983" lon="6.922883">
        <ele>2098.0</ele>
        <time>2014-08-30T14:54:24Z</time>
      </trkpt>
      <trkpt lat="45.950967" lon="6.923000">
        <ele>2101.0</ele>
        <time>2014-08-30T14:54:25Z</time>
      </trkpt>
      <trkpt lat="45.950917" lon="6.923100">
        <ele>2104.0</ele>
        <time>2014-08-30T14:54:26Z</time>
      </trkpt>
      <trkpt lat="45.950883" lon="6.923200">
        <ele>2107.0</ele>
        <time>2014-08-30T14:54:27Z</time>
      </trkpt>
      <trkpt lat="45.950850" lon="6.923283">
        <ele>2109.0</ele>
        <time>2014-08-30T14:54:28Z</time>
      </trkpt>
      <trkpt lat="45.950817" lon="6.923383">
        <ele>2112.0</ele>
        <time>2014-08-30T14:54:29Z</time>
      </trkpt>
      <trkpt lat="45.950783" lon="6.923467">
        <ele>2113.0</ele>
        <time>2014-08-30T14:54:30Z</time>
      </trkpt>
      <trkpt lat="45.950750" lon="6.923550">
        <ele>2114.0</ele>
        <time>2014-08-30T14:54:31Z</time>
      </trkpt>
      <trkpt lat="45.950700" lon="6.923633">
        <ele>2115.0</ele>
        <time>2014-08-30T14:54:32Z</time>
      </trkpt>
      <trkpt lat="45.950650" lon="6.923700">
        <ele>2117.0</ele>
        <time>2014-08-30T14:54:33Z</time>
      </trkpt>
      <trkpt lat="45.950583" lon="6.923750">
        <ele>2118.0</ele>
        <time>2014-08-30T14:54:34Z</time>
      </trkpt>
      <trkpt lat="45.950517" lon="6.923783">
        <ele>2120.0</ele>
        <time>2014-08-30T14:54:35Z</time>
      </trkpt>
      <trkpt lat="45.950450" lon="6.923817">
        <ele>2121.0</ele>
        <time>2014-08-30T14:54:36Z</time>
      </trkpt>
      <trkpt lat="45.950383" lon="6.923833">
        <ele>2123.0</ele>
        <time>2014-08-30T14:54:37Z</time>
      </trkpt>
      <trkpt lat="45.950333" lon="6.923867">
        <ele>2126.0</ele>
        <time>2014-08-30T14:54:38Z</time>
      </trkpt>
      <trkpt lat="45.950267" lon="6.923883">
        <ele>2127.0</ele>
        <time>2014-08-30T14:54:39Z</time>
      </trkpt>
      <trkpt lat="45.950217" lon="6.923900">
        <ele>2129.0</ele>
        <time>2014-08-30T14:54:40Z</time>
      </trkpt>
      <trkpt lat="45.950150" lon="6.923900">
        <ele>2131.0</ele>
        <time>2014-08-30T14:54:41Z</time>
      </trkpt>
      <trkpt lat="45.950100" lon="6.923933">
        <ele>2133.0</ele>
        <time>2014-08-30T14:54:42Z</time>
      </trkpt>
      <trkpt lat="45.950050" lon="6.923967">
        <ele>2135.0</ele>
        <time>2014-08-30T14:54:43Z</time>
      </trkpt>
      <trkpt lat="45.949983" lon="6.924000">
        <ele>2136.0</ele>
        <time>2014-08-30T14:54:44Z</time>
      </trkpt>
      <trkpt lat="45.949917" lon="6.924033">
        <ele>2136.0</ele>
        <time>2014-08-30T14:54:45Z</time>
      </trkpt>
      <trkpt lat="45.949850" lon="6.924067">
        <ele>2136.0</ele>
        <time>2014-08-30T14:54:46Z</time>
      </trkpt>
      <trkpt lat="45.949783" lon="6.924117">
        <ele>2136.0</ele>
        <time>2014-08-30T14:54:47Z</time>
      </trkpt>
      <trkpt lat="45.949717" lon="6.924167">
        <ele>2137.0</ele>
        <time>2014-08-30T14:54:48Z</time>
      </trkpt>
      <trkpt lat="45.949650" lon="6.924217">
        <ele>2137.0</ele>
        <time>2014-08-30T14:54:49Z</time>
      </trkpt>
      <trkpt lat="45.949600" lon="6.924250">
        <ele>2138.0</ele>
        <time>2014-08-30T14:54:50Z</time>
      </trkpt>
      <trkpt lat="45.949550" lon="6.924283">
        <ele>2138.0</ele>
        <time>2014-08-30T14:54:51Z</time>
      </trkpt>
      <trkpt lat="45.949483" lon="6.924317">
        <ele>2138.0</ele>
        <time>2014-08-30T14:54:52Z</time>
      </trkpt>
      <trkpt lat="45.949433" lon="6.924367">
        <ele>2138.0</ele>
        <time>2014-08-30T14:54:53Z</time>
      </trkpt>
      <trkpt lat="45.949367" lon="6.924417">
        <ele>2140.0</ele>
        <time>2014-08-30T14:54:54Z</time>
      </trkpt>
      <trkpt lat="45.949317" lon="6.924450">
        <ele>2141.0</ele>
        <time>2014-08-30T14:54:55Z</time>
      </trkpt>
      <trkpt lat="45.949267" lon="6.924500">
        <ele>2142.0</ele>
        <time>2014-08-30T14:54:56Z</time>
      </trkpt>
      <trkpt lat="45.949217" lon="6.924550">
        <ele>2144.0</ele>
        <time>2014-08-30T14:54:57Z</time>
      </trkpt>
      <trkpt lat="45.949167" lon="6.924583">
        <ele>2145.0</ele>
        <time>2014-08-30T14:54:58Z</time>
      </trkpt>
      <trkpt lat="45.949117" lon="6.924617">
        <ele>2146.0</ele>
        <time>2014-08-30T14:54:59Z</time>
      </trkpt>
      <trkpt lat="45.949083" lon="6.924633">
        <ele>2146.0</ele>
        <time>2014-08-30T14:55:00Z</time>
      </trkpt>
      <trkpt lat="45.949017" lon="6.924667">
        <ele>2146.0</ele>
        <time>2014-08-30T14:55:01Z</time>
      </trkpt>
      <trkpt lat="45.948967" lon="6.924717">
        <ele>2146.0</ele>
        <time>2014-08-30T14:55:02Z</time>
      </trkpt>
      <trkpt lat="45.948900" lon="6.924783">
        <ele>2147.0</ele>
        <time>2014-08-30T14:55:03Z</time>
      </trkpt>
      <trkpt lat="45.948817" lon="6.924833">
        <ele>2149.0</ele>
        <time>2014-08-30T14:55:04Z</time>
      </trkpt>
      <trkpt lat="45.948767" lon="6.924850">
        <ele>2152.0</ele>
        <time>2014-08-30T14:55:05Z</time>
      </trkpt>
      <trkpt lat="45.948700" lon="6.924867">
        <ele>2154.0</ele>
        <time>2014-08-30T14:55:06Z</time>
      </trkpt>
      <trkpt lat="45.948650" lon="6.924867">
        <ele>2157.0</ele>
        <time>2014-08-30T14:55:07Z</time>
      </trkpt>
      <trkpt lat="45.948583" lon="6.924900">
        <ele>2159.0</ele>
        <time>2014-08-30T14:55:08Z</time>
      </trkpt>
      <trkpt lat="45.948517" lon="6.924950">
        <ele>2161.0</ele>
        <time>2014-08-30T14:55:09Z</time>
      </trkpt>
      <trkpt lat="45.948450" lon="6.924983">
        <ele>2164.0</ele>
        <time>2014-08-30T14:55:10Z</time>
      </trkpt>
      <trkpt lat="45.948383" lon="6.925033">
        <ele>2166.0</ele>
        <time>2014-08-30T14:55:11Z</time>
      </trkpt>
      <trkpt lat="45.948317" lon="6.925117">
        <ele>2169.0</ele>
        <time>2014-08-30T14:55:12Z</time>
      </trkpt>
      <trkpt lat="45.948267" lon="6.925183">
        <ele>2171.0</ele>
        <time>2014-08-30T14:55:13Z</time>
      </trkpt>
      <trkpt lat="45.948200" lon="6.925300">
        <ele>2174.0</ele>
        <time>2014-08-30T14:55:14Z</time>
      </trkpt>
      <trkpt lat="45.948150" lon="6.925400">
        <ele>2178.0</ele>
        <time>2014-08-30T14:55:15Z</time>
      </trkpt>
      <trkpt lat="45.948083" lon="6.925483">
        <ele>2182.0</ele>
        <time>2014-08-30T14:55:16Z</time>
      </trkpt>
      <trkpt lat="45.948050" lon="6.925517">
        <ele>2184.0</ele>
        <time>2014-08-30T14:55:17Z</time>
      </trkpt>
      <trkpt lat="45.948000" lon="6.925567">
        <ele>2186.0</ele>
        <time>2014-08-30T14:55:18Z</time>
      </trkpt>
      <trkpt lat="45.947950" lon="6.925600">
        <ele>2187.0</ele>
        <time>2014-08-30T14:55:19Z</time>
      </trkpt>
      <trkpt lat="45.947883" lon="6.925667">
        <ele>2188.0</ele>
        <time>2014-08-30T14:55:20Z</time>
      </trkpt>
      <trkpt lat="45.947800" lon="6.925733">
        <ele>2190.0</ele>
        <time>2014-08-30T14:55:21Z</time>
      </trkpt>
      <trkpt lat="45.947733" lon="6.925783">
        <ele>2192.0</ele>
        <time>2014-08-30T14:55:22Z</time>
      </trkpt>
      <trkpt lat="45.947667" lon="6.925833">
        <ele>2194.0</ele>
        <time>2014-08-30T14:55:23Z</time>
      </trkpt>
      <trkpt lat="45.947617" lon="6.925900">
        <ele>2196.0</ele>
        <time>2014-08-30T14:55:24Z</time>
      </trkpt>
      <trkpt lat="45.947567" lon="6.925983">
        <ele>2198.0</ele>
        <time>2014-08-30T14:55:25Z</time>
      </trkpt>
      <trkpt lat="45.947517" lon="6.926050">
        <ele>2199.0</ele>
        <time>2014-08-30T14:55:26Z</time>
      </trkpt>
      <trkpt lat="45.947450" lon="6.926133">
        <ele>2201.0</ele>
        <time>2014-08-30T14:55:27Z</time>
      </trkpt>
      <trkpt lat="45.947383" lon="6.926217">
        <ele>2203.0</ele>
        <time>2014-08-30T14:55:28Z</time>
      </trkpt>
      <trkpt lat="45.947333" lon="6.926300">
        <ele>2207.0</ele>
        <time>2014-08-30T14:55:29Z</time>
      </trkpt>
      <trkpt lat="45.947283" lon="6.926383">
        <ele>2210.0</ele>
        <time>2014-08-30T14:55:30Z</time>
      </trkpt>
      <trkpt lat="45.947217" lon="6.926483">
        <ele>2213.0</ele>
        <time>2014-08-30T14:55:31Z</time>
      </trkpt>
      <trkpt lat="45.947150" lon="6.926583">
        <ele>2215.0</ele>
        <time>2014-08-30T14:55:32Z</time>
      </trkpt>
      <trkpt lat="45.947100" lon="6.926683">
        <ele>2218.0</ele>
        <time>2014-08-30T14:55:33Z</time>
      </trkpt>
      <trkpt lat="45.947050" lon="6.926767">
        <ele>2219.0</ele>
        <time>2014-08-30T14:55:34Z</time>
      </trkpt>
      <trkpt lat="45.946983" lon="6.926850">
        <ele>2220.0</ele>
        <time>2014-08-30T14:55:35Z</time>
      </trkpt>
      <trkpt lat="45.946933" lon="6.926917">
        <ele>2221.0</ele>
        <time>2014-08-30T14:55:36Z</time>
      </trkpt>
      <trkpt lat="45.946883" lon="6.927000">
        <ele>2221.0</ele>
        <time>2014-08-30T14:55:37Z</time>
      </trkpt>
      <trkpt lat="45.946817" lon="6.927100">
        <ele>2221.0</ele>
        <time>2014-08-30T14:55:38Z</time>
      </trkpt>
      <trkpt lat="45.946750" lon="6.927200">
        <ele>2222.0</ele>
        <time>2014-08-30T14:55:39Z</time>
      </trkpt>
      <trkpt lat="45.946683" lon="6.927267">
        <ele>2224.0</ele>
        <time>2014-08-30T14:55:40Z</time>
      </trkpt>
      <trkpt lat="45.946633" lon="6.927350">
        <ele>2225.0</ele>
        <time>2014-08-30T14:55:41Z</time>
      </trkpt>
      <trkpt lat="45.946567" lon="6.927417">
        <ele>2227.0</ele>
        <time>2014-08-30T14:55:42Z</time>
      </trkpt>
      <trkpt lat="45.946500" lon="6.927483">
        <ele>2228.0</ele>
        <time>2014-08-30T14:55:43Z</time>
      </trkpt>
      <trkpt lat="45.946417" lon="6.927517">
        <ele>2229.0</ele>
        <time>2014-08-30T14:55:44Z</time>
      </trkpt>
      <trkpt lat="45.946333" lon="6.927567">
        <ele>2230.0</ele>
        <time>2014-08-30T14:55:45Z</time>
      </trkpt>
      <trkpt lat="45.946267" lon="6.927617">
        <ele>2231.0</ele>
        <time>2014-08-30T14:55:46Z</time>
      </trkpt>
      <trkpt lat="45.946183" lon="6.927667">
        <ele>2232.0</ele>
        <time>2014-08-30T14:55:47Z</time>
      </trkpt>
      <trkpt lat="45.946100" lon="6.927717">
        <ele>2232.0</ele>
        <time>2014-08-30T14:55:48Z</time>
      </trkpt>
      <trkpt lat="45.946033" lon="6.927783">
        <ele>2233.0</ele>
        <time>2014-08-30T14:55:49Z</time>
      </trkpt>
      <trkpt lat="45.945950" lon="6.927867">
        <ele>2233.0</ele>
        <time>2014-08-30T14:55:50Z</time>
      </trkpt>
      <trkpt lat="45.945867" lon="6.927950">
        <ele>2235.0</ele>
        <time>2014-08-30T14:55:51Z</time>
      </trkpt>
      <trkpt lat="45.945783" lon="6.928033">
        <ele>2237.0</ele>
        <time>2014-08-30T14:55:52Z</time>
      </trkpt>
      <trkpt lat="45.945700" lon="6.928117">
        <ele>2239.0</ele>
        <time>2014-08-30T14:55:53Z</time>
      </trkpt>
      <trkpt lat="45.945617" lon="6.928200">
        <ele>2242.0</ele>
        <time>2014-08-30T14:55:54Z</time>
      </trkpt>
      <trkpt lat="45.945550" lon="6.928283">
        <ele>2244.0</ele>
        <time>2014-08-30T14:55:55Z</time>
      </trkpt>
      <trkpt lat="45.945483" lon="6.928367">
        <ele>2246.0</ele>
        <time>2014-08-30T14:55:56Z</time>
      </trkpt>
      <trkpt lat="45.945400" lon="6.928433">
        <ele>2248.0</ele>
        <time>2014-08-30T14:55:57Z</time>
      </trkpt>
      <trkpt lat="45.945333" lon="6.928517">
        <ele>2249.0</ele>
        <time>2014-08-30T14:55:58Z</time>
      </trkpt>
      <trkpt lat="45.945250" lon="6.928600">
        <ele>2249.0</ele>
        <time>2014-08-30T14:55:59Z</time>
      </trkpt>
      <trkpt lat="45.945167" lon="6.928683">
        <ele>2250.0</ele>
        <time>2014-08-30T14:56:00Z</time>
      </trkpt>
      <trkpt lat="45.945083" lon="6.928767">
        <ele>2250.0</ele>
        <time>2014-08-30T14:56:01Z</time>
      </trkpt>
      <trkpt lat="45.945000" lon="6.928867">
        <ele>2250.0</ele>
        <time>2014-08-30T14:56:02Z</time>
      </trkpt>
      <trkpt lat="45.944900" lon="6.928967">
        <ele>2251.0</ele>
        <time>2014-08-30T14:56:03Z</time>
      </trkpt>
      <trkpt lat="45.944817" lon="6.929050">
        <ele>2253.0</ele>
        <time>2014-08-30T14:56:04Z</time>
      </trkpt>
      <trkpt lat="45.944733" lon="6.929100">
        <ele>2255.0</ele>
        <time>2014-08-30T14:56:05Z</time>
      </trkpt>
      <trkpt lat="45.944650" lon="6.929150">
        <ele>2258.0</ele>
        <time>2014-08-30T14:56:06Z</time>
      </trkpt>
      <trkpt lat="45.944567" lon="6.929167">
        <ele>2261.0</ele>
        <time>2014-08-30T14:56:07Z</time>
      </trkpt>
      <trkpt lat="45.944483" lon="6.929183">
        <ele>2262.0</ele>
        <time>2014-08-30T14:56:08Z</time>
      </trkpt>
      <trkpt lat="45.944417" lon="6.929167">
        <ele>2264.0</ele>
        <time>2014-08-30T14:56:09Z</time>
      </trkpt>
      <trkpt lat="45.944350" lon="6.929117">
        <ele>2266.0</ele>
        <time>2014-08-30T14:56:10Z</time>
      </trkpt>
      <trkpt lat="45.944300" lon="6.929050">
        <ele>2269.0</ele>
        <time>2014-08-30T14:56:11Z</time>
      </trkpt>
      <trkpt lat="45.944267" lon="6.928983">
        <ele>2271.0</ele>
        <time>2014-08-30T14:56:12Z</time>
      </trkpt>
      <trkpt lat="45.944267" lon="6.928917">
        <ele>2271.0</ele>
        <time>2014-08-30T14:56:13Z</time>
      </trkpt>
      <trkpt lat="45.944283" lon="6.928850">
        <ele>2270.0</ele>
        <time>2014-08-30T14:56:14Z</time>
      </trkpt>
      <trkpt lat="45.944300" lon="6.928783">
        <ele>2268.0</ele>
        <time>2014-08-30T14:56:15Z</time>
      </trkpt>
      <trkpt lat="45.944317" lon="6.928700">
        <ele>2267.0</ele>
        <time>2014-08-30T14:56:16Z</time>
      </trkpt>
      <trkpt lat="45.944350" lon="6.928617">
        <ele>2265.0</ele>
        <time>2014-08-30T14:56:17Z</time>
      </trkpt>
      <trkpt lat="45.944383" lon="6.928533">
        <ele>2264.0</ele>
        <time>2014-08-30T14:56:18Z</time>
      </trkpt>
      <trkpt lat="45.944433" lon="6.928467">
        <ele>2262.0</ele>
        <time>2014-08-30T14:56:19Z</time>
      </trkpt>
      <trkpt lat="45.944483" lon="6.928400">
        <ele>2260.0</ele>
        <time>2014-08-30T14:56:20Z</time>
      </trkpt>
      <trkpt lat="45.944517" lon="6.928317">
        <ele>2260.0</ele>
        <time>2014-08-30T14:56:21Z</time>
      </trkpt>
      <trkpt lat="45.944567" lon="6.928250">
        <ele>2259.0</ele>
        <time>2014-08-30T14:56:22Z</time>
      </trkpt>
      <trkpt lat="45.944617" lon="6.928167">
        <ele>2258.0</ele>
        <time>2014-08-30T14:56:23Z</time>
      </trkpt>
      <trkpt lat="45.944667" lon="6.928083">
        <ele>2256.0</ele>
        <time>2014-08-30T14:56:24Z</time>
      </trkpt>
      <trkpt lat="45.944717" lon="6.928000">
        <ele>2254.0</ele>
        <time>2014-08-30T14:56:25Z</time>
      </trkpt>
      <trkpt lat="45.944783" lon="6.927917">
        <ele>2254.0</ele>
        <time>2014-08-30T14:56:26Z</time>
      </trkpt>
      <trkpt lat="45.944833" lon="6.927850">
        <ele>2253.0</ele>
        <time>2014-08-30T14:56:27Z</time>
      </trkpt>
      <trkpt lat="45.944883" lon="6.927783">
        <ele>2252.0</ele>
        <time>2014-08-30T14:56:28Z</time>
      </trkpt>
      <trkpt lat="45.944933" lon="6.927733">
        <ele>2251.0</ele>
        <time>2014-08-30T14:56:29Z</time>
      </trkpt>
      <trkpt lat="45.944967" lon="6.927633">
        <ele>2248.0</ele>
        <time>2014-08-30T14:56:30Z</time>
      </trkpt>
      <trkpt lat="45.945033" lon="6.927533">
        <ele>2245.0</ele>
        <time>2014-08-30T14:56:31Z</time>
      </trkpt>
      <trkpt lat="45.945100" lon="6.927433">
        <ele>2243.0</ele>
        <time>2014-08-30T14:56:32Z</time>
      </trkpt>
      <trkpt lat="45.945183" lon="6.927367">
        <ele>2244.0</ele>
        <time>2014-08-30T14:56:33Z</time>
      </trkpt>
      <trkpt lat="45.945250" lon="6.927317">
        <ele>2245.0</ele>
        <time>2014-08-30T14:56:34Z</time>
      </trkpt>
      <trkpt lat="45.945300" lon="6.927267">
        <ele>2245.0</ele>
        <time>2014-08-30T14:56:35Z</time>
      </trkpt>
      <trkpt lat="45.945333" lon="6.927200">
        <ele>2244.0</ele>
        <time>2014-08-30T14:56:36Z</time>
      </trkpt>
      <trkpt lat="45.945383" lon="6.927133">
        <ele>2243.0</ele>
        <time>2014-08-30T14:56:37Z</time>
      </trkpt>
      <trkpt lat="45.945450" lon="6.927083">
        <ele>2241.0</ele>
        <time>2014-08-30T14:56:38Z</time>
      </trkpt>
      <trkpt lat="45.945517" lon="6.927033">
        <ele>2240.0</ele>
        <time>2014-08-30T14:56:39Z</time>
      </trkpt>
      <trkpt lat="45.945583" lon="6.926983">
        <ele>2240.0</ele>
        <time>2014-08-30T14:56:40Z</time>
      </trkpt>
      <trkpt lat="45.945650" lon="6.926950">
        <ele>2239.0</ele>
        <time>2014-08-30T14:56:41Z</time>
      </trkpt>
      <trkpt lat="45.945717" lon="6.926900">
        <ele>2238.0</ele>
        <time>2014-08-30T14:56:42Z</time>
      </trkpt>
      <trkpt lat="45.945800" lon="6.926867">
        <ele>2236.0</ele>
        <time>2014-08-30T14:56:43Z</time>
      </trkpt>
      <trkpt lat="45.945883" lon="6.926850">
        <ele>2235.0</ele>
        <time>2014-08-30T14:56:44Z</time>
      </trkpt>
      <trkpt lat="45.945967" lon="6.926833">
        <ele>2234.0</ele>
        <time>2014-08-30T14:56:45Z</time>
      </trkpt>
      <trkpt lat="45.946067" lon="6.926800">
        <ele>2233.0</ele>
        <time>2014-08-30T14:56:46Z</time>
      </trkpt>
      <trkpt lat="45.946150" lon="6.926750">
        <ele>2232.0</ele>
        <time>2014-08-30T14:56:47Z</time>
      </trkpt>
      <trkpt lat="45.946233" lon="6.926700">
        <ele>2232.0</ele>
        <time>2014-08-30T14:56:48Z</time>
      </trkpt>
      <trkpt lat="45.946317" lon="6.926683">
        <ele>2233.0</ele>
        <time>2014-08-30T14:56:49Z</time>
      </trkpt>
      <trkpt lat="45.946417" lon="6.926667">
        <ele>2233.0</ele>
        <time>2014-08-30T14:56:50Z</time>
      </trkpt>
      <trkpt lat="45.946500" lon="6.926667">
        <ele>2235.0</ele>
        <time>2014-08-30T14:56:51Z</time>
      </trkpt>
      <trkpt lat="45.946567" lon="6.926650">
        <ele>2237.0</ele>
        <time>2014-08-30T14:56:52Z</time>
      </trkpt>
      <trkpt lat="45.946650" lon="6.926633">
        <ele>2237.0</ele>
        <time>2014-08-30T14:56:53Z</time>
      </trkpt>
      <trkpt lat="45.946733" lon="6.926617">
        <ele>2236.0</ele>
        <time>2014-08-30T14:56:54Z</time>
      </trkpt>
      <trkpt lat="45.946817" lon="6.926617">
        <ele>2235.0</ele>
        <time>2014-08-30T14:56:55Z</time>
      </trkpt>
      <trkpt lat="45.946900" lon="6.926600">
        <ele>2234.0</ele>
        <time>2014-08-30T14:56:56Z</time>
      </trkpt>
      <trkpt lat="45.947000" lon="6.926600">
        <ele>2233.0</ele>
        <time>2014-08-30T14:56:57Z</time>
      </trkpt>
      <trkpt lat="45.947100" lon="6.926600">
        <ele>2234.0</ele>
        <time>2014-08-30T14:56:58Z</time>
      </trkpt>
      <trkpt lat="45.947183" lon="6.926600">
        <ele>2236.0</ele>
        <time>2014-08-30T14:56:59Z</time>
      </trkpt>
      <trkpt lat="45.947267" lon="6.926583">
        <ele>2238.0</ele>
        <time>2014-08-30T14:57:00Z</time>
      </trkpt>
      <trkpt lat="45.947333" lon="6.926567">
        <ele>2240.0</ele>
        <time>2014-08-30T14:57:01Z</time>
      </trkpt>
      <trkpt lat="45.947400" lon="6.926550">
        <ele>2242.0</ele>
        <time>2014-08-30T14:57:02Z</time>
      </trkpt>
      <trkpt lat="45.947483" lon="6.926500">
        <ele>2244.0</ele>
        <time>2014-08-30T14:57:03Z</time>
      </trkpt>
      <trkpt lat="45.947567" lon="6.926467">
        <ele>2245.0</ele>
        <time>2014-08-30T14:57:04Z</time>
      </trkpt>
      <trkpt lat="45.947650" lon="6.926467">
        <ele>2247.0</ele>
        <time>2014-08-30T14:57:05Z</time>
      </trkpt>
      <trkpt lat="45.947733" lon="6.926467">
        <ele>2249.0</ele>
        <time>2014-08-30T14:57:06Z</time>
      </trkpt>
      <trkpt lat="45.947800" lon="6.926450">
        <ele>2250.0</ele>
        <time>2014-08-30T14:57:07Z</time>
      </trkpt>
      <trkpt lat="45.947883" lon="6.926450">
        <ele>2250.0</ele>
        <time>2014-08-30T14:57:08Z</time>
      </trkpt>
      <trkpt lat="45.948000" lon="6.926450">
        <ele>2250.0</ele>
        <time>2014-08-30T14:57:09Z</time>
      </trkpt>
      <trkpt lat="45.948100" lon="6.926450">
        <ele>2252.0</ele>
        <time>2014-08-30T14:57:10Z</time>
      </trkpt>
      <trkpt lat="45.948200" lon="6.926450">
        <ele>2254.0</ele>
        <time>2014-08-30T14:57:11Z</time>
      </trkpt>
      <trkpt lat="45.948300" lon="6.926433">
        <ele>2256.0</ele>
        <time>2014-08-30T14:57:12Z</time>
      </trkpt>
      <trkpt lat="45.948367" lon="6.926433">
        <ele>2257.0</ele>
        <time>2014-08-30T14:57:13Z</time>
      </trkpt>
      <trkpt lat="45.948450" lon="6.926400">
        <ele>2258.0</ele>
        <time>2014-08-30T14:57:14Z</time>
      </trkpt>
      <trkpt lat="45.948517" lon="6.926350">
        <ele>2258.0</ele>
        <time>2014-08-30T14:57:15Z</time>
      </trkpt>
      <trkpt lat="45.948583" lon="6.926283">
        <ele>2258.0</ele>
        <time>2014-08-30T14:57:16Z</time>
      </trkpt>
      <trkpt lat="45.948633" lon="6.926217">
        <ele>2258.0</ele>
        <time>2014-08-30T14:57:17Z</time>
      </trkpt>
      <trkpt lat="45.948633" lon="6.926117">
        <ele>2259.0</ele>
        <time>2014-08-30T14:57:18Z</time>
      </trkpt>
      <trkpt lat="45.948617" lon="6.926050">
        <ele>2259.0</ele>
        <time>2014-08-30T14:57:19Z</time>
      </trkpt>
      <trkpt lat="45.948550" lon="6.925983">
        <ele>2260.0</ele>
        <time>2014-08-30T14:57:20Z</time>
      </trkpt>
      <trkpt lat="45.948483" lon="6.925967">
        <ele>2262.0</ele>
        <time>2014-08-30T14:57:21Z</time>
      </trkpt>
      <trkpt lat="45.948417" lon="6.925967">
        <ele>2264.0</ele>
        <time>2014-08-30T14:57:22Z</time>
      </trkpt>
      <trkpt lat="45.948350" lon="6.925983">
        <ele>2266.0</ele>
        <time>2014-08-30T14:57:23Z</time>
      </trkpt>
      <trkpt lat="45.948267" lon="6.926017">
        <ele>2267.0</ele>
        <time>2014-08-30T14:57:24Z</time>
      </trkpt>
      <trkpt lat="45.948200" lon="6.926050">
        <ele>2269.0</ele>
        <time>2014-08-30T14:57:25Z</time>
      </trkpt>
      <trkpt lat="45.948150" lon="6.926100">
        <ele>2270.0</ele>
        <time>2014-08-30T14:57:26Z</time>
      </trkpt>
      <trkpt lat="45.948083" lon="6.926167">
        <ele>2270.0</ele>
        <time>2014-08-30T14:57:27Z</time>
      </trkpt>
      <trkpt lat="45.948033" lon="6.926233">
        <ele>2271.0</ele>
        <time>2014-08-30T14:57:28Z</time>
      </trkpt>
      <trkpt lat="45.947983" lon="6.926300">
        <ele>2270.0</ele>
        <time>2014-08-30T14:57:29Z</time>
      </trkpt>
      <trkpt lat="45.947933" lon="6.926350">
        <ele>2270.0</ele>
        <time>2014-08-30T14:57:30Z</time>
      </trkpt>
      <trkpt lat="45.947867" lon="6.926400">
        <ele>2270.0</ele>
        <time>2014-08-30T14:57:31Z</time>
      </trkpt>
      <trkpt lat="45.947817" lon="6.926467">
        <ele>2270.0</ele>
        <time>2014-08-30T14:57:32Z</time>
      </trkpt>
      <trkpt lat="45.947750" lon="6.926550">
        <ele>2270.0</ele>
        <time>2014-08-30T14:57:33Z</time>
      </trkpt>
      <trkpt lat="45.947700" lon="6.926650">
        <ele>2270.0</ele>
        <time>2014-08-30T14:57:34Z</time>
      </trkpt>
      <trkpt lat="45.947633" lon="6.926750">
        <ele>2273.0</ele>
        <time>2014-08-30T14:57:35Z</time>
      </trkpt>
      <trkpt lat="45.947567" lon="6.926833">
        <ele>2277.0</ele>
        <time>2014-08-30T14:57:36Z</time>
      </trkpt>
      <trkpt lat="45.947500" lon="6.926900">
        <ele>2280.0</ele>
        <time>2014-08-30T14:57:37Z</time>
      </trkpt>
      <trkpt lat="45.947450" lon="6.926967">
        <ele>2283.0</ele>
        <time>2014-08-30T14:57:38Z</time>
      </trkpt>
      <trkpt lat="45.947383" lon="6.927050">
        <ele>2285.0</ele>
        <time>2014-08-30T14:57:39Z</time>
      </trkpt>
      <trkpt lat="45.947317" lon="6.927117">
        <ele>2287.0</ele>
        <time>2014-08-30T14:57:40Z</time>
      </trkpt>
      <trkpt lat="45.947250" lon="6.927183">
        <ele>2289.0</ele>
        <time>2014-08-30T14:57:41Z</time>
      </trkpt>
      <trkpt lat="45.947200" lon="6.927200">
        <ele>2291.0</ele>
        <time>2014-08-30T14:57:42Z</time>
      </trkpt>
      <trkpt lat="45.947133" lon="6.927217">
        <ele>2292.0</ele>
        <time>2014-08-30T14:57:43Z</time>
      </trkpt>
      <trkpt lat="45.947083" lon="6.927233">
        <ele>2293.0</ele>
        <time>2014-08-30T14:57:44Z</time>
      </trkpt>
      <trkpt lat="45.947033" lon="6.927267">
        <ele>2292.0</ele>
        <time>2014-08-30T14:57:45Z</time>
      </trkpt>
      <trkpt lat="45.946967" lon="6.927283">
        <ele>2291.0</ele>
        <time>2014-08-30T14:57:46Z</time>
      </trkpt>
      <trkpt lat="45.946917" lon="6.927317">
        <ele>2290.0</ele>
        <time>2014-08-30T14:57:47Z</time>
      </trkpt>
      <trkpt lat="45.946850" lon="6.927367">
        <ele>2289.0</ele>
        <time>2014-08-30T14:57:48Z</time>
      </trkpt>
      <trkpt lat="45.946783" lon="6.927417">
        <ele>2290.0</ele>
        <time>2014-08-30T14:57:49Z</time>
      </trkpt>
      <trkpt lat="45.946750" lon="6.927483">
        <ele>2291.0</ele>
        <time>2014-08-30T14:57:50Z</time>
      </trkpt>
      <trkpt lat="45.946700" lon="6.927533">
        <ele>2291.0</ele>
        <time>2014-08-30T14:57:51Z</time>
      </trkpt>
      <trkpt lat="45.946650" lon="6.927567">
        <ele>2291.0</ele>
        <time>2014-08-30T14:57:52Z</time>
      </trkpt>
      <trkpt lat="45.946583" lon="6.927600">
        <ele>2290.0</ele>
        <time>2014-08-30T14:57:53Z</time>
      </trkpt>
      <trkpt lat="45.946517" lon="6.927650">
        <ele>2289.0</ele>
        <time>2014-08-30T14:57:54Z</time>
      </trkpt>
      <trkpt lat="45.946450" lon="6.927700">
        <ele>2288.0</ele>
        <time>2014-08-30T14:57:55Z</time>
      </trkpt>
      <trkpt lat="45.946383" lon="6.927767">
        <ele>2288.0</ele>
        <time>2014-08-30T14:57:56Z</time>
      </trkpt>
      <trkpt lat="45.946333" lon="6.927800">
        <ele>2288.0</ele>
        <time>2014-08-30T14:57:57Z</time>
      </trkpt>
      <trkpt lat="45.946267" lon="6.927833">
        <ele>2287.0</ele>
        <time>2014-08-30T14:57:58Z</time>
      </trkpt>
      <trkpt lat="45.946217" lon="6.927867">
        <ele>2285.0</ele>
        <time>2014-08-30T14:57:59Z</time>
      </trkpt>
      <trkpt lat="45.946167" lon="6.927867">
        <ele>2282.0</ele>
        <time>2014-08-30T14:58:00Z</time>
      </trkpt>
      <trkpt lat="45.946100" lon="6.927817">
        <ele>2280.0</ele>
        <time>2014-08-30T14:58:01Z</time>
      </trkpt>
      <trkpt lat="45.946033" lon="6.927717">
        <ele>2278.0</ele>
        <time>2014-08-30T14:58:02Z</time>
      </trkpt>
      <trkpt lat="45.946017" lon="6.927600">
        <ele>2278.0</ele>
        <time>2014-08-30T14:58:03Z</time>
      </trkpt>
      <trkpt lat="45.946017" lon="6.927517">
        <ele>2277.0</ele>
        <time>2014-08-30T14:58:04Z</time>
      </trkpt>
      <trkpt lat="45.946033" lon="6.927433">
        <ele>2277.0</ele>
        <time>2014-08-30T14:58:05Z</time>
      </trkpt>
      <trkpt lat="45.946083" lon="6.927367">
        <ele>2275.0</ele>
        <time>2014-08-30T14:58:06Z</time>
      </trkpt>
      <trkpt lat="45.946150" lon="6.927300">
        <ele>2274.0</ele>
        <time>2014-08-30T14:58:07Z</time>
      </trkpt>
      <trkpt lat="45.946217" lon="6.927267">
        <ele>2272.0</ele>
        <time>2014-08-30T14:58:08Z</time>
      </trkpt>
      <trkpt lat="45.946283" lon="6.927233">
        <ele>2271.0</ele>
        <time>2014-08-30T14:58:09Z</time>
      </trkpt>
      <trkpt lat="45.946367" lon="6.927233">
        <ele>2270.0</ele>
        <time>2014-08-30T14:58:10Z</time>
      </trkpt>
      <trkpt lat="45.946467" lon="6.927233">
        <ele>2269.0</ele>
        <time>2014-08-30T14:58:11Z</time>
      </trkpt>
      <trkpt lat="45.946550" lon="6.927233">
        <ele>2270.0</ele>
        <time>2014-08-30T14:58:12Z</time>
      </trkpt>
      <trkpt lat="45.946650" lon="6.927250">
        <ele>2271.0</ele>
        <time>2014-08-30T14:58:13Z</time>
      </trkpt>
      <trkpt lat="45.946717" lon="6.927267">
        <ele>2272.0</ele>
        <time>2014-08-30T14:58:14Z</time>
      </trkpt>
      <trkpt lat="45.946800" lon="6.927267">
        <ele>2273.0</ele>
        <time>2014-08-30T14:58:15Z</time>
      </trkpt>
      <trkpt lat="45.946867" lon="6.927267">
        <ele>2273.0</ele>
        <time>2014-08-30T14:58:16Z</time>
      </trkpt>
      <trkpt lat="45.946933" lon="6.927233">
        <ele>2273.0</ele>
        <time>2014-08-30T14:58:17Z</time>
      </trkpt>
      <trkpt lat="45.947000" lon="6.927183">
        <ele>2271.0</ele>
        <time>2014-08-30T14:58:18Z</time>
      </trkpt>
      <trkpt lat="45.947083" lon="6.927117">
        <ele>2269.0</ele>
        <time>2014-08-30T14:58:19Z</time>
      </trkpt>
      <trkpt lat="45.947167" lon="6.927050">
        <ele>2268.0</ele>
        <time>2014-08-30T14:58:20Z</time>
      </trkpt>
      <trkpt lat="45.947250" lon="6.927000">
        <ele>2268.0</ele>
        <time>2014-08-30T14:58:21Z</time>
      </trkpt>
      <trkpt lat="45.947317" lon="6.926967">
        <ele>2268.0</ele>
        <time>2014-08-30T14:58:22Z</time>
      </trkpt>
      <trkpt lat="45.947400" lon="6.926933">
        <ele>2268.0</ele>
        <time>2014-08-30T14:58:23Z</time>
      </trkpt>
      <trkpt lat="45.947483" lon="6.926917">
        <ele>2268.0</ele>
        <time>2014-08-30T14:58:24Z</time>
      </trkpt>
      <trkpt lat="45.947583" lon="6.926883">
        <ele>2268.0</ele>
        <time>2014-08-30T14:58:25Z</time>
      </trkpt>
      <trkpt lat="45.947683" lon="6.926850">
        <ele>2270.0</ele>
        <time>2014-08-30T14:58:26Z</time>
      </trkpt>
      <trkpt lat="45.947767" lon="6.926817">
        <ele>2273.0</ele>
        <time>2014-08-30T14:58:27Z</time>
      </trkpt>
      <trkpt lat="45.947867" lon="6.926783">
        <ele>2278.0</ele>
        <time>2014-08-30T14:58:28Z</time>
      </trkpt>
      <trkpt lat="45.947933" lon="6.926783">
        <ele>2283.0</ele>
        <time>2014-08-30T14:58:29Z</time>
      </trkpt>
      <trkpt lat="45.948017" lon="6.926783">
        <ele>2287.0</ele>
        <time>2014-08-30T14:58:30Z</time>
      </trkpt>
      <trkpt lat="45.948083" lon="6.926783">
        <ele>2290.0</ele>
        <time>2014-08-30T14:58:31Z</time>
      </trkpt>
      <trkpt lat="45.948150" lon="6.926750">
        <ele>2290.0</ele>
        <time>2014-08-30T14:58:32Z</time>
      </trkpt>
      <trkpt lat="45.948233" lon="6.926733">
        <ele>2291.0</ele>
        <time>2014-08-30T14:58:33Z</time>
      </trkpt>
      <trkpt lat="45.948333" lon="6.926717">
        <ele>2291.0</ele>
        <time>2014-08-30T14:58:34Z</time>
      </trkpt>
      <trkpt lat="45.948450" lon="6.926733">
        <ele>2293.0</ele>
        <time>2014-08-30T14:58:35Z</time>
      </trkpt>
      <trkpt lat="45.948550" lon="6.926750">
        <ele>2296.0</ele>
        <time>2014-08-30T14:58:36Z</time>
      </trkpt>
      <trkpt lat="45.948633" lon="6.926767">
        <ele>2299.0</ele>
        <time>2014-08-30T14:58:37Z</time>
      </trkpt>
      <trkpt lat="45.948700" lon="6.926767">
        <ele>2300.0</ele>
        <time>2014-08-30T14:58:38Z</time>
      </trkpt>
      <trkpt lat="45.948783" lon="6.926750">
        <ele>2299.0</ele>
        <time>2014-08-30T14:58:39Z</time>
      </trkpt>
      <trkpt lat="45.948867" lon="6.926717">
        <ele>2299.0</ele>
        <time>2014-08-30T14:58:40Z</time>
      </trkpt>
      <trkpt lat="45.948933" lon="6.926683">
        <ele>2298.0</ele>
        <time>2014-08-30T14:58:41Z</time>
      </trkpt>
      <trkpt lat="45.949017" lon="6.926650">
        <ele>2299.0</ele>
        <time>2014-08-30T14:58:42Z</time>
      </trkpt>
      <trkpt lat="45.949083" lon="6.926600">
        <ele>2300.0</ele>
        <time>2014-08-30T14:58:43Z</time>
      </trkpt>
      <trkpt lat="45.949133" lon="6.926567">
        <ele>2300.0</ele>
        <time>2014-08-30T14:58:44Z</time>
      </trkpt>
      <trkpt lat="45.949183" lon="6.926500">
        <ele>2300.0</ele>
        <time>2014-08-30T14:58:45Z</time>
      </trkpt>
      <trkpt lat="45.949233" lon="6.926450">
        <ele>2300.0</ele>
        <time>2014-08-30T14:58:46Z</time>
      </trkpt>
      <trkpt lat="45.949283" lon="6.926367">
        <ele>2299.0</ele>
        <time>2014-08-30T14:58:47Z</time>
      </trkpt>
      <trkpt lat="45.949300" lon="6.926283">
        <ele>2299.0</ele>
        <time>2014-08-30T14:58:48Z</time>
      </trkpt>
      <trkpt lat="45.949317" lon="6.926200">
        <ele>2299.0</ele>
        <time>2014-08-30T14:58:49Z</time>
      </trkpt>
      <trkpt lat="45.949317" lon="6.926117">
        <ele>2299.0</ele>
        <time>2014-08-30T14:58:50Z</time>
      </trkpt>
      <trkpt lat="45.949350" lon="6.926050">
        <ele>2299.0</ele>
        <time>2014-08-30T14:58:51Z</time>
      </trkpt>
      <trkpt lat="45.949383" lon="6.925967">
        <ele>2299.0</ele>
        <time>2014-08-30T14:58:52Z</time>
      </trkpt>
      <trkpt lat="45.949417" lon="6.925883">
        <ele>2298.0</ele>
        <time>2014-08-30T14:58:53Z</time>
      </trkpt>
      <trkpt lat="45.949433" lon="6.925800">
        <ele>2297.0</ele>
        <time>2014-08-30T14:58:54Z</time>
      </trkpt>
      <trkpt lat="45.949467" lon="6.925700">
        <ele>2297.0</ele>
        <time>2014-08-30T14:58:55Z</time>
      </trkpt>
      <trkpt lat="45.949500" lon="6.925617">
        <ele>2298.0</ele>
        <time>2014-08-30T14:58:56Z</time>
      </trkpt>
      <trkpt lat="45.949533" lon="6.925533">
        <ele>2297.0</ele>
        <time>2014-08-30T14:58:57Z</time>
      </trkpt>
      <trkpt lat="45.949600" lon="6.925467">
        <ele>2297.0</ele>
        <time>2014-08-30T14:58:58Z</time>
      </trkpt>
      <trkpt lat="45.949650" lon="6.925383">
        <ele>2296.0</ele>
        <time>2014-08-30T14:58:59Z</time>
      </trkpt>
      <trkpt lat="45.949700" lon="6.925300">
        <ele>2296.0</ele>
        <time>2014-08-30T14:59:00Z</time>
      </trkpt>
      <trkpt lat="45.949733" lon="6.925233">
        <ele>2296.0</ele>
        <time>2014-08-30T14:59:01Z</time>
      </trkpt>
      <trkpt lat="45.949767" lon="6.925150">
        <ele>2295.0</ele>
        <time>2014-08-30T14:59:02Z</time>
      </trkpt>
      <trkpt lat="45.949817" lon="6.925083">
        <ele>2295.0</ele>
        <time>2014-08-30T14:59:03Z</time>
      </trkpt>
      <trkpt lat="45.949850" lon="6.925017">
        <ele>2294.0</ele>
        <time>2014-08-30T14:59:04Z</time>
      </trkpt>
      <trkpt lat="45.949900" lon="6.924933">
        <ele>2293.0</ele>
        <time>2014-08-30T14:59:05Z</time>
      </trkpt>
      <trkpt lat="45.949950" lon="6.924833">
        <ele>2292.0</ele>
        <time>2014-08-30T14:59:06Z</time>
      </trkpt>
      <trkpt lat="45.950000" lon="6.924750">
        <ele>2292.0</ele>
        <time>2014-08-30T14:59:07Z</time>
      </trkpt>
      <trkpt lat="45.950050" lon="6.924667">
        <ele>2292.0</ele>
        <time>2014-08-30T14:59:08Z</time>
      </trkpt>
      <trkpt lat="45.950100" lon="6.924600">
        <ele>2291.0</ele>
        <time>2014-08-30T14:59:09Z</time>
      </trkpt>
      <trkpt lat="45.950133" lon="6.924500">
        <ele>2290.0</ele>
        <time>2014-08-30T14:59:10Z</time>
      </trkpt>
      <trkpt lat="45.950167" lon="6.924417">
        <ele>2289.0</ele>
        <time>2014-08-30T14:59:11Z</time>
      </trkpt>
      <trkpt lat="45.950217" lon="6.924317">
        <ele>2288.0</ele>
        <time>2014-08-30T14:59:12Z</time>
      </trkpt>
      <trkpt lat="45.950250" lon="6.924217">
        <ele>2287.0</ele>
        <time>2014-08-30T14:59:13Z</time>
      </trkpt>
      <trkpt lat="45.950300" lon="6.924117">
        <ele>2287.0</ele>
        <time>2014-08-30T14:59:14Z</time>
      </trkpt>
      <trkpt lat="45.950350" lon="6.924033">
        <ele>2286.0</ele>
        <time>2014-08-30T14:59:15Z</time>
      </trkpt>
      <trkpt lat="45.950400" lon="6.923950">
        <ele>2285.0</ele>
        <time>2014-08-30T14:59:16Z</time>
      </trkpt>
      <trkpt lat="45.950450" lon="6.923867">
        <ele>2284.0</ele>
        <time>2014-08-30T14:59:17Z</time>
      </trkpt>
      <trkpt lat="45.950517" lon="6.923767">
        <ele>2284.0</ele>
        <time>2014-08-30T14:59:18Z</time>
      </trkpt>
      <trkpt lat="45.950567" lon="6.923683">
        <ele>2284.0</ele>
        <time>2014-08-30T14:59:19Z</time>
      </trkpt>
      <trkpt lat="45.950600" lon="6.923600">
        <ele>2284.0</ele>
        <time>2014-08-30T14:59:20Z</time>
      </trkpt>
      <trkpt lat="45.950617" lon="6.923517">
        <ele>2284.0</ele>
        <time>2014-08-30T14:59:21Z</time>
      </trkpt>
      <trkpt lat="45.950617" lon="6.923417">
        <ele>2282.0</ele>
        <time>2014-08-30T14:59:22Z</time>
      </trkpt>
      <trkpt lat="45.950567" lon="6.923333">
        <ele>2281.0</ele>
        <time>2014-08-30T14:59:23Z</time>
      </trkpt>
      <trkpt lat="45.950517" lon="6.923283">
        <ele>2280.0</ele>
        <time>2014-08-30T14:59:24Z</time>
      </trkpt>
      <trkpt lat="45.950467" lon="6.923267">
        <ele>2280.0</ele>
        <time>2014-08-30T14:59:25Z</time>
      </trkpt>
      <trkpt lat="45.950400" lon="6.923283">
        <ele>2279.0</ele>
        <time>2014-08-30T14:59:26Z</time>
      </trkpt>
      <trkpt lat="45.950333" lon="6.923333">
        <ele>2278.0</ele>
        <time>2014-08-30T14:59:27Z</time>
      </trkpt>
      <trkpt lat="45.950283" lon="6.923400">
        <ele>2277.0</ele>
        <time>2014-08-30T14:59:28Z</time>
      </trkpt>
      <trkpt lat="45.950217" lon="6.923467">
        <ele>2276.0</ele>
        <time>2014-08-30T14:59:29Z</time>
      </trkpt>
      <trkpt lat="45.950167" lon="6.923533">
        <ele>2275.0</ele>
        <time>2014-08-30T14:59:30Z</time>
      </trkpt>
      <trkpt lat="45.950117" lon="6.923617">
        <ele>2273.0</ele>
        <time>2014-08-30T14:59:31Z</time>
      </trkpt>
      <trkpt lat="45.950067" lon="6.923700">
        <ele>2272.0</ele>
        <time>2014-08-30T14:59:32Z</time>
      </trkpt>
      <trkpt lat="45.950017" lon="6.923800">
        <ele>2271.0</ele>
        <time>2014-08-30T14:59:33Z</time>
      </trkpt>
      <trkpt lat="45.949967" lon="6.923883">
        <ele>2271.0</ele>
        <time>2014-08-30T14:59:34Z</time>
      </trkpt>
      <trkpt lat="45.949917" lon="6.923950">
        <ele>2271.0</ele>
        <time>2014-08-30T14:59:35Z</time>
      </trkpt>
      <trkpt lat="45.949867" lon="6.924017">
        <ele>2270.0</ele>
        <time>2014-08-30T14:59:36Z</time>
      </trkpt>
      <trkpt lat="45.949817" lon="6.924100">
        <ele>2268.0</ele>
        <time>2014-08-30T14:59:37Z</time>
      </trkpt>
      <trkpt lat="45.949750" lon="6.924183">
        <ele>2267.0</ele>
        <time>2014-08-30T14:59:38Z</time>
      </trkpt>
      <trkpt lat="45.949700" lon="6.924283">
        <ele>2266.0</ele>
        <time>2014-08-30T14:59:39Z</time>
      </trkpt>
      <trkpt lat="45.949633" lon="6.924367">
        <ele>2266.0</ele>
        <time>2014-08-30T14:59:40Z</time>
      </trkpt>
      <trkpt lat="45.949583" lon="6.924450">
        <ele>2266.0</ele>
        <time>2014-08-30T14:59:41Z</time>
      </trkpt>
      <trkpt lat="45.949517" lon="6.924533">
        <ele>2265.0</ele>
        <time>2014-08-30T14:59:42Z</time>
      </trkpt>
      <trkpt lat="45.949467" lon="6.924600">
        <ele>2264.0</ele>
        <time>2014-08-30T14:59:43Z</time>
      </trkpt>
      <trkpt lat="45.949400" lon="6.924683">
        <ele>2264.0</ele>
        <time>2014-08-30T14:59:44Z</time>
      </trkpt>
      <trkpt lat="45.949333" lon="6.924750">
        <ele>2263.0</ele>
        <time>2014-08-30T14:59:45Z</time>
      </trkpt>
      <trkpt lat="45.949267" lon="6.924817">
        <ele>2264.0</ele>
        <time>2014-08-30T14:59:46Z</time>
      </trkpt>
      <trkpt lat="45.949200" lon="6.924900">
        <ele>2266.0</ele>
        <time>2014-08-30T14:59:47Z</time>
      </trkpt>
      <trkpt lat="45.949133" lon="6.924967">
        <ele>2268.0</ele>
        <time>2014-08-30T14:59:48Z</time>
      </trkpt>
      <trkpt lat="45.949083" lon="6.925017">
        <ele>2269.0</ele>
        <time>2014-08-30T14:59:49Z</time>
      </trkpt>
      <trkpt lat="45.949050" lon="6.925067">
        <ele>2270.0</ele>
        <time>2014-08-30T14:59:50Z</time>
      </trkpt>
      <trkpt lat="45.949000" lon="6.925133">
        <ele>2269.0</ele>
        <time>2014-08-30T14:59:51Z</time>
      </trkpt>
      <trkpt lat="45.948950" lon="6.925200">
        <ele>2267.0</ele>
        <time>2014-08-30T14:59:52Z</time>
      </trkpt>
      <trkpt lat="45.948883" lon="6.925300">
        <ele>2267.0</ele>
        <time>2014-08-30T14:59:53Z</time>
      </trkpt>
      <trkpt lat="45.948817" lon="6.925400">
        <ele>2267.0</ele>
        <time>2014-08-30T14:59:54Z</time>
      </trkpt>
      <trkpt lat="45.948767" lon="6.925483">
        <ele>2269.0</ele>
        <time>2014-08-30T14:59:55Z</time>
      </trkpt>
      <trkpt lat="45.948717" lon="6.925583">
        <ele>2270.0</ele>
        <time>2014-08-30T14:59:56Z</time>
      </trkpt>
      <trkpt lat="45.948683" lon="6.925683">
        <ele>2271.0</ele>
        <time>2014-08-30T14:59:57Z</time>
      </trkpt>
      <trkpt lat="45.948633" lon="6.925783">
        <ele>2271.0</ele>
        <time>2014-08-30T14:59:58Z</time>
      </trkpt>
      <trkpt lat="45.948583" lon="6.925900">
        <ele>2271.0</ele>
        <time>2014-08-30T14:59:59Z</time>
      </trkpt>
      <trkpt lat="45.948533" lon="6.926000">
        <ele>2271.0</ele>
        <time>2014-08-30T15:00:00Z</time>
      </trkpt>
      <trkpt lat="45.948483" lon="6.926083">
        <ele>2272.0</ele>
        <time>2014-08-30T15:00:01Z</time>
      </trkpt>
      <trkpt lat="45.948433" lon="6.926167">
        <ele>2271.0</ele>
        <time>2014-08-30T15:00:02Z</time>
      </trkpt>
      <trkpt lat="45.948383" lon="6.926233">
        <ele>2271.0</ele>
        <time>2014-08-30T15:00:03Z</time>
      </trkpt>
      <trkpt lat="45.948317" lon="6.926317">
        <ele>2270.0</ele>
        <time>2014-08-30T15:00:04Z</time>
      </trkpt>
      <trkpt lat="45.948267" lon="6.926400">
        <ele>2270.0</ele>
        <time>2014-08-30T15:00:05Z</time>
      </trkpt>
      <trkpt lat="45.948200" lon="6.926483">
        <ele>2270.0</ele>
        <time>2014-08-30T15:00:06Z</time>
      </trkpt>
      <trkpt lat="45.948133" lon="6.926567">
        <ele>2271.0</ele>
        <time>2014-08-30T15:00:07Z</time>
      </trkpt>
      <trkpt lat="45.948083" lon="6.926650">
        <ele>2272.0</ele>
        <time>2014-08-30T15:00:08Z</time>
      </trkpt>
      <trkpt lat="45.948017" lon="6.926750">
        <ele>2274.0</ele>
        <time>2014-08-30T15:00:09Z</time>
      </trkpt>
      <trkpt lat="45.947967" lon="6.926817">
        <ele>2277.0</ele>
        <time>2014-08-30T15:00:10Z</time>
      </trkpt>
      <trkpt lat="45.947900" lon="6.926883">
        <ele>2280.0</ele>
        <time>2014-08-30T15:00:11Z</time>
      </trkpt>
      <trkpt lat="45.947850" lon="6.926933">
        <ele>2283.0</ele>
        <time>2014-08-30T15:00:12Z</time>
      </trkpt>
      <trkpt lat="45.947800" lon="6.926983">
        <ele>2286.0</ele>
        <time>2014-08-30T15:00:13Z</time>
      </trkpt>
      <trkpt lat="45.947733" lon="6.927050">
        <ele>2287.0</ele>
        <time>2014-08-30T15:00:14Z</time>
      </trkpt>
      <trkpt lat="45.947683" lon="6.927100">
        <ele>2290.0</ele>
        <time>2014-08-30T15:00:15Z</time>
      </trkpt>
      <trkpt lat="45.947617" lon="6.927167">
        <ele>2292.0</ele>
        <time>2014-08-30T15:00:16Z</time>
      </trkpt>
      <trkpt lat="45.947583" lon="6.927217">
        <ele>2293.0</ele>
        <time>2014-08-30T15:00:17Z</time>
      </trkpt>
      <trkpt lat="45.947533" lon="6.927267">
        <ele>2294.0</ele>
        <time>2014-08-30T15:00:18Z</time>
      </trkpt>
      <trkpt lat="45.947467" lon="6.927300">
        <ele>2294.0</ele>
        <time>2014-08-30T15:00:19Z</time>
      </trkpt>
      <trkpt lat="45.947400" lon="6.927350">
        <ele>2294.0</ele>
        <time>2014-08-30T15:00:20Z</time>
      </trkpt>
      <trkpt lat="45.947333" lon="6.927400">
        <ele>2296.0</ele>
        <time>2014-08-30T15:00:21Z</time>
      </trkpt>
      <trkpt lat="45.947283" lon="6.927450">
        <ele>2297.0</ele>
        <time>2014-08-30T15:00:22Z</time>
      </trkpt>
      <trkpt lat="45.947233" lon="6.927517">
        <ele>2298.0</ele>
        <time>2014-08-30T15:00:23Z</time>
      </trkpt>
      <trkpt lat="45.947167" lon="6.927600">
        <ele>2300.0</ele>
        <time>2014-08-30T15:00:24Z</time>
      </trkpt>
      <trkpt lat="45.947100" lon="6.927667">
        <ele>2302.0</ele>
        <time>2014-08-30T15:00:25Z</time>
      </trkpt>
      <trkpt lat="45.947050" lon="6.927733">
        <ele>2304.0</ele>
        <time>2014-08-30T15:00:26Z</time>
      </trkpt>
      <trkpt lat="45.947000" lon="6.927800">
        <ele>2304.0</ele>
        <time>2014-08-30T15:00:27Z</time>
      </trkpt>
      <trkpt lat="45.946950" lon="6.927867">
        <ele>2305.0</ele>
        <time>2014-08-30T15:00:28Z</time>
      </trkpt>
      <trkpt lat="45.946883" lon="6.927950">
        <ele>2305.0</ele>
        <time>2014-08-30T15:00:29Z</time>
      </trkpt>
      <trkpt lat="45.946833" lon="6.928017">
        <ele>2305.0</ele>
        <time>2014-08-30T15:00:30Z</time>
      </trkpt>
      <trkpt lat="45.946767" lon="6.928100">
        <ele>2306.0</ele>
        <time>2014-08-30T15:00:31Z</time>
      </trkpt>
      <trkpt lat="45.946717" lon="6.928183">
        <ele>2307.0</ele>
        <time>2014-08-30T15:00:32Z</time>
      </trkpt>
      <trkpt lat="45.946667" lon="6.928267">
        <ele>2308.0</ele>
        <time>2014-08-30T15:00:33Z</time>
      </trkpt>
      <trkpt lat="45.946617" lon="6.928350">
        <ele>2308.0</ele>
        <time>2014-08-30T15:00:34Z</time>
      </trkpt>
      <trkpt lat="45.946550" lon="6.928433">
        <ele>2308.0</ele>
        <time>2014-08-30T15:00:35Z</time>
      </trkpt>
      <trkpt lat="45.946483" lon="6.928500">
        <ele>2308.0</ele>
        <time>2014-08-30T15:00:36Z</time>
      </trkpt>
      <trkpt lat="45.946417" lon="6.928583">
        <ele>2308.0</ele>
        <time>2014-08-30T15:00:37Z</time>
      </trkpt>
      <trkpt lat="45.946333" lon="6.928667">
        <ele>2309.0</ele>
        <time>2014-08-30T15:00:38Z</time>
      </trkpt>
      <trkpt lat="45.946267" lon="6.928750">
        <ele>2310.0</ele>
        <time>2014-08-30T15:00:39Z</time>
      </trkpt>
      <trkpt lat="45.946183" lon="6.928800">
        <ele>2312.0</ele>
        <time>2014-08-30T15:00:40Z</time>
      </trkpt>
      <trkpt lat="45.946100" lon="6.928833">
        <ele>2313.0</ele>
        <time>2014-08-30T15:00:41Z</time>
      </trkpt>
      <trkpt lat="45.946017" lon="6.928883">
        <ele>2315.0</ele>
        <time>2014-08-30T15:00:42Z</time>
      </trkpt>
      <trkpt lat="45.945950" lon="6.928933">
        <ele>2317.0</ele>
        <time>2014-08-30T15:00:43Z</time>
      </trkpt>
      <trkpt lat="45.945867" lon="6.929000">
        <ele>2319.0</ele>
        <time>2014-08-30T15:00:44Z</time>
      </trkpt>
      <trkpt lat="45.945800" lon="6.929050">
        <ele>2321.0</ele>
        <time>2014-08-30T15:00:45Z</time>
      </trkpt>
      <trkpt lat="45.945717" lon="6.929117">
        <ele>2323.0</ele>
        <time>2014-08-30T15:00:46Z</time>
      </trkpt>
      <trkpt lat="45.945650" lon="6.929183">
        <ele>2325.0</ele>
        <time>2014-08-30T15:00:47Z</time>
      </trkpt>
      <trkpt lat="45.945567" lon="6.929267">
        <ele>2327.0</ele>
        <time>2014-08-30T15:00:48Z</time>
      </trkpt>
      <trkpt lat="45.945517" lon="6.929333">
        <ele>2329.0</ele>
        <time>2014-08-30T15:00:49Z</time>
      </trkpt>
      <trkpt lat="45.945450" lon="6.929383">
        <ele>2330.0</ele>
        <time>2014-08-30T15:00:50Z</time>
      </trkpt>
      <trkpt lat="45.945383" lon="6.929433">
        <ele>2330.0</ele>
        <time>2014-08-30T15:00:51Z</time>
      </trkpt>
      <trkpt lat="45.945300" lon="6.929483">
        <ele>2330.0</ele>
        <time>2014-08-30T15:00:52Z</time>
      </trkpt>
      <trkpt lat="45.945217" lon="6.929500">
        <ele>2330.0</ele>
        <time>2014-08-30T15:00:53Z</time>
      </trkpt>
      <trkpt lat="45.945167" lon="6.929467">
        <ele>2331.0</ele>
        <time>2014-08-30T15:00:54Z</time>
      </trkpt>
      <trkpt lat="45.945133" lon="6.929400">
        <ele>2329.0</ele>
        <time>2014-08-30T15:00:55Z</time>
      </trkpt>
      <trkpt lat="45.945117" lon="6.929317">
        <ele>2327.0</ele>
        <time>2014-08-30T15:00:56Z</time>
      </trkpt>
      <trkpt lat="45.945117" lon="6.929250">
        <ele>2325.0</ele>
        <time>2014-08-30T15:00:57Z</time>
      </trkpt>
      <trkpt lat="45.945117" lon="6.929167">
        <ele>2324.0</ele>
        <time>2014-08-30T15:00:58Z</time>
      </trkpt>
      <trkpt lat="45.945117" lon="6.929083">
        <ele>2321.0</ele>
        <time>2014-08-30T15:00:59Z</time>
      </trkpt>
      <trkpt lat="45.945150" lon="6.928983">
        <ele>2319.0</ele>
        <time>2014-08-30T15:01:00Z</time>
      </trkpt>
      <trkpt lat="45.945200" lon="6.928883">
        <ele>2316.0</ele>
        <time>2014-08-30T15:01:01Z</time>
      </trkpt>
      <trkpt lat="45.945267" lon="6.928767">
        <ele>2315.0</ele>
        <time>2014-08-30T15:01:02Z</time>
      </trkpt>
      <trkpt lat="45.945317" lon="6.928683">
        <ele>2315.0</ele>
        <time>2014-08-30T15:01:03Z</time>
      </trkpt>
      <trkpt lat="45.945383" lon="6.928617">
        <ele>2315.0</ele>
        <time>2014-08-30T15:01:04Z</time>
      </trkpt>
      <trkpt lat="45.945433" lon="6.928533">
        <ele>2314.0</ele>
        <time>2014-08-30T15:01:05Z</time>
      </trkpt>
      <trkpt lat="45.945467" lon="6.928450">
        <ele>2312.0</ele>
        <time>2014-08-30T15:01:06Z</time>
      </trkpt>
      <trkpt lat="45.945533" lon="6.928367">
        <ele>2309.0</ele>
        <time>2014-08-30T15:01:07Z</time>
      </trkpt>
      <trkpt lat="45.945600" lon="6.928267">
        <ele>2307.0</ele>
        <time>2014-08-30T15:01:08Z</time>
      </trkpt>
      <trkpt lat="45.945667" lon="6.928200">
        <ele>2306.0</ele>
        <time>2014-08-30T15:01:09Z</time>
      </trkpt>
      <trkpt lat="45.945733" lon="6.928117">
        <ele>2305.0</ele>
        <time>2014-08-30T15:01:10Z</time>
      </trkpt>
      <trkpt lat="45.945800" lon="6.928050">
        <ele>2304.0</ele>
        <time>2014-08-30T15:01:11Z</time>
      </trkpt>
      <trkpt lat="45.945883" lon="6.927983">
        <ele>2304.0</ele>
        <time>2014-08-30T15:01:12Z</time>
      </trkpt>
      <trkpt lat="45.945967" lon="6.927950">
        <ele>2303.0</ele>
        <time>2014-08-30T15:01:13Z</time>
      </trkpt>
      <trkpt lat="45.946050" lon="6.927933">
        <ele>2303.0</ele>
        <time>2014-08-30T15:01:14Z</time>
      </trkpt>
      <trkpt lat="45.946150" lon="6.927917">
        <ele>2302.0</ele>
        <time>2014-08-30T15:01:15Z</time>
      </trkpt>
      <trkpt lat="45.946233" lon="6.927917">
        <ele>2303.0</ele>
        <time>2014-08-30T15:01:16Z</time>
      </trkpt>
      <trkpt lat="45.946317" lon="6.927917">
        <ele>2303.0</ele>
        <time>2014-08-30T15:01:17Z</time>
      </trkpt>
      <trkpt lat="45.946417" lon="6.927917">
        <ele>2303.0</ele>
        <time>2014-08-30T15:01:18Z</time>
      </trkpt>
      <trkpt lat="45.946500" lon="6.927883">
        <ele>2303.0</ele>
        <time>2014-08-30T15:01:19Z</time>
      </trkpt>
      <trkpt lat="45.946600" lon="6.927867">
        <ele>2303.0</ele>
        <time>2014-08-30T15:01:20Z</time>
      </trkpt>
      <trkpt lat="45.946700" lon="6.927833">
        <ele>2304.0</ele>
        <time>2014-08-30T15:01:21Z</time>
      </trkpt>
      <trkpt lat="45.946783" lon="6.927817">
        <ele>2305.0</ele>
        <time>2014-08-30T15:01:22Z</time>
      </trkpt>
      <trkpt lat="45.946883" lon="6.927800">
        <ele>2306.0</ele>
        <time>2014-08-30T15:01:23Z</time>
      </trkpt>
      <trkpt lat="45.946983" lon="6.927783">
        <ele>2308.0</ele>
        <time>2014-08-30T15:01:24Z</time>
      </trkpt>
      <trkpt lat="45.947083" lon="6.927750">
        <ele>2309.0</ele>
        <time>2014-08-30T15:01:25Z</time>
      </trkpt>
      <trkpt lat="45.947183" lon="6.927750">
        <ele>2310.0</ele>
        <time>2014-08-30T15:01:26Z</time>
      </trkpt>
      <trkpt lat="45.947283" lon="6.927733">
        <ele>2310.0</ele>
        <time>2014-08-30T15:01:27Z</time>
      </trkpt>
      <trkpt lat="45.947383" lon="6.927733">
        <ele>2310.0</ele>
        <time>2014-08-30T15:01:28Z</time>
      </trkpt>
      <trkpt lat="45.947483" lon="6.927717">
        <ele>2311.0</ele>
        <time>2014-08-30T15:01:29Z</time>
      </trkpt>
      <trkpt lat="45.947583" lon="6.927700">
        <ele>2313.0</ele>
        <time>2014-08-30T15:01:30Z</time>
      </trkpt>
      <trkpt lat="45.947667" lon="6.927650">
        <ele>2316.0</ele>
        <time>2014-08-30T15:01:31Z</time>
      </trkpt>
      <trkpt lat="45.947733" lon="6.927617">
        <ele>2320.0</ele>
        <time>2014-08-30T15:01:32Z</time>
      </trkpt>
      <trkpt lat="45.947817" lon="6.927583">
        <ele>2324.0</ele>
        <time>2014-08-30T15:01:33Z</time>
      </trkpt>
      <trkpt lat="45.947883" lon="6.927567">
        <ele>2326.0</ele>
        <time>2014-08-30T15:01:34Z</time>
      </trkpt>
      <trkpt lat="45.947950" lon="6.927550">
        <ele>2327.0</ele>
        <time>2014-08-30T15:01:35Z</time>
      </trkpt>
      <trkpt lat="45.948033" lon="6.927533">
        <ele>2327.0</ele>
        <time>2014-08-30T15:01:36Z</time>
      </trkpt>
      <trkpt lat="45.948117" lon="6.927517">
        <ele>2326.0</ele>
        <time>2014-08-30T15:01:37Z</time>
      </trkpt>
      <trkpt lat="45.948217" lon="6.927483">
        <ele>2326.0</ele>
        <time>2014-08-30T15:01:38Z</time>
      </trkpt>
      <trkpt lat="45.948317" lon="6.927467">
        <ele>2327.0</ele>
        <time>2014-08-30T15:01:39Z</time>
      </trkpt>
      <trkpt lat="45.948433" lon="6.927417">
        <ele>2329.0</ele>
        <time>2014-08-30T15:01:40Z</time>
      </trkpt>
      <trkpt lat="45.948550" lon="6.927383">
        <ele>2331.0</ele>
        <time>2014-08-30T15:01:41Z</time>
      </trkpt>
      <trkpt lat="45.948650" lon="6.927333">
        <ele>2334.0</ele>
        <time>2014-08-30T15:01:42Z</time>
      </trkpt>
      <trkpt lat="45.948750" lon="6.927317">
        <ele>2337.0</ele>
        <time>2014-08-30T15:01:43Z</time>
      </trkpt>
      <trkpt lat="45.948850" lon="6.927333">
        <ele>2339.0</ele>
        <time>2014-08-30T15:01:44Z</time>
      </trkpt>
      <trkpt lat="45.948933" lon="6.927350">
        <ele>2340.0</ele>
        <time>2014-08-30T15:01:45Z</time>
      </trkpt>
      <trkpt lat="45.949017" lon="6.927383">
        <ele>2340.0</ele>
        <time>2014-08-30T15:01:46Z</time>
      </trkpt>
      <trkpt lat="45.949100" lon="6.927367">
        <ele>2339.0</ele>
        <time>2014-08-30T15:01:47Z</time>
      </trkpt>
      <trkpt lat="45.949200" lon="6.927333">
        <ele>2337.0</ele>
        <time>2014-08-30T15:01:48Z</time>
      </trkpt>
      <trkpt lat="45.949283" lon="6.927300">
        <ele>2336.0</ele>
        <time>2014-08-30T15:01:49Z</time>
      </trkpt>
      <trkpt lat="45.949367" lon="6.927283">
        <ele>2336.0</ele>
        <time>2014-08-30T15:01:50Z</time>
      </trkpt>
      <trkpt lat="45.949433" lon="6.927250">
        <ele>2335.0</ele>
        <time>2014-08-30T15:01:51Z</time>
      </trkpt>
      <trkpt lat="45.949500" lon="6.927200">
        <ele>2333.0</ele>
        <time>2014-08-30T15:01:52Z</time>
      </trkpt>
      <trkpt lat="45.949567" lon="6.927133">
        <ele>2330.0</ele>
        <time>2014-08-30T15:01:53Z</time>
      </trkpt>
      <trkpt lat="45.949633" lon="6.927067">
        <ele>2327.0</ele>
        <time>2014-08-30T15:01:54Z</time>
      </trkpt>
      <trkpt lat="45.949717" lon="6.927000">
        <ele>2325.0</ele>
        <time>2014-08-30T15:01:55Z</time>
      </trkpt>
      <trkpt lat="45.949800" lon="6.926950">
        <ele>2324.0</ele>
        <time>2014-08-30T15:01:56Z</time>
      </trkpt>
      <trkpt lat="45.949883" lon="6.926900">
        <ele>2323.0</ele>
        <time>2014-08-30T15:01:57Z</time>
      </trkpt>
      <trkpt lat="45.949950" lon="6.926850">
        <ele>2322.0</ele>
        <time>2014-08-30T15:01:58Z</time>
      </trkpt>
      <trkpt lat="45.950050" lon="6.926800">
        <ele>2321.0</ele>
        <time>2014-08-30T15:01:59Z</time>
      </trkpt>
      <trkpt lat="45.950133" lon="6.926783">
        <ele>2320.0</ele>
        <time>2014-08-30T15:02:00Z</time>
      </trkpt>
      <trkpt lat="45.950250" lon="6.926767">
        <ele>2319.0</ele>
        <time>2014-08-30T15:02:01Z</time>
      </trkpt>
      <trkpt lat="45.950350" lon="6.926767">
        <ele>2318.0</ele>
        <time>2014-08-30T15:02:02Z</time>
      </trkpt>
      <trkpt lat="45.950433" lon="6.926750">
        <ele>2318.0</ele>
        <time>2014-08-30T15:02:03Z</time>
      </trkpt>
      <trkpt lat="45.950533" lon="6.926750">
        <ele>2317.0</ele>
        <time>2014-08-30T15:02:04Z</time>
      </trkpt>
      <trkpt lat="45.950633" lon="6.926750">
        <ele>2315.0</ele>
        <time>2014-08-30T15:02:05Z</time>
      </trkpt>
      <trkpt lat="45.950750" lon="6.926750">
        <ele>2314.0</ele>
        <time>2014-08-30T15:02:06Z</time>
      </trkpt>
      <trkpt lat="45.950850" lon="6.926767">
        <ele>2313.0</ele>
        <time>2014-08-30T15:02:07Z</time>
      </trkpt>
      <trkpt lat="45.950967" lon="6.926767">
        <ele>2313.0</ele>
        <time>2014-08-30T15:02:08Z</time>
      </trkpt>
      <trkpt lat="45.951067" lon="6.926783">
        <ele>2314.0</ele>
        <time>2014-08-30T15:02:09Z</time>
      </trkpt>
      <trkpt lat="45.951150" lon="6.926800">
        <ele>2313.0</ele>
        <time>2014-08-30T15:02:10Z</time>
      </trkpt>
      <trkpt lat="45.951250" lon="6.926800">
        <ele>2313.0</ele>
        <time>2014-08-30T15:02:11Z</time>
      </trkpt>
      <trkpt lat="45.951350" lon="6.926833">
        <ele>2312.0</ele>
        <time>2014-08-30T15:02:12Z</time>
      </trkpt>
      <trkpt lat="45.951450" lon="6.926850">
        <ele>2311.0</ele>
        <time>2014-08-30T15:02:13Z</time>
      </trkpt>
      <trkpt lat="45.951567" lon="6.926883">
        <ele>2310.0</ele>
        <time>2014-08-30T15:02:14Z</time>
      </trkpt>
      <trkpt lat="45.951683" lon="6.926900">
        <ele>2310.0</ele>
        <time>2014-08-30T15:02:15Z</time>
      </trkpt>
      <trkpt lat="45.951783" lon="6.926917">
        <ele>2310.0</ele>
        <time>2014-08-30T15:02:16Z</time>
      </trkpt>
      <trkpt lat="45.951900" lon="6.926950">
        <ele>2309.0</ele>
        <time>2014-08-30T15:02:17Z</time>
      </trkpt>
      <trkpt lat="45.952000" lon="6.926950">
        <ele>2308.0</ele>
        <time>2014-08-30T15:02:18Z</time>
      </trkpt>
      <trkpt lat="45.952117" lon="6.926967">
        <ele>2306.0</ele>
        <time>2014-08-30T15:02:19Z</time>
      </trkpt>
      <trkpt lat="45.952217" lon="6.926950">
        <ele>2304.0</ele>
        <time>2014-08-30T15:02:20Z</time>
      </trkpt>
      <trkpt lat="45.952317" lon="6.926933">
        <ele>2300.0</ele>
        <time>2014-08-30T15:02:21Z</time>
      </trkpt>
      <trkpt lat="45.952433" lon="6.926900">
        <ele>2297.0</ele>
        <time>2014-08-30T15:02:22Z</time>
      </trkpt>
      <trkpt lat="45.952533" lon="6.926867">
        <ele>2295.0</ele>
        <time>2014-08-30T15:02:23Z</time>
      </trkpt>
      <trkpt lat="45.952633" lon="6.926817">
        <ele>2294.0</ele>
        <time>2014-08-30T15:02:24Z</time>
      </trkpt>
      <trkpt lat="45.952717" lon="6.926750">
        <ele>2292.0</ele>
        <time>2014-08-30T15:02:25Z</time>
      </trkpt>
      <trkpt lat="45.952783" lon="6.926700">
        <ele>2291.0</ele>
        <time>2014-08-30T15:02:26Z</time>
      </trkpt>
      <trkpt lat="45.952867" lon="6.926633">
        <ele>2289.0</ele>
        <time>2014-08-30T15:02:27Z</time>
      </trkpt>
      <trkpt lat="45.952933" lon="6.926567">
        <ele>2287.0</ele>
        <time>2014-08-30T15:02:28Z</time>
      </trkpt>
      <trkpt lat="45.953000" lon="6.926500">
        <ele>2285.0</ele>
        <time>2014-08-30T15:02:29Z</time>
      </trkpt>
      <trkpt lat="45.953067" lon="6.926417">
        <ele>2284.0</ele>
        <time>2014-08-30T15:02:30Z</time>
      </trkpt>
      <trkpt lat="45.953133" lon="6.926350">
        <ele>2282.0</ele>
        <time>2014-08-30T15:02:31Z</time>
      </trkpt>
      <trkpt lat="45.953200" lon="6.926283">
        <ele>2280.0</ele>
        <time>2014-08-30T15:02:32Z</time>
      </trkpt>
      <trkpt lat="45.953300" lon="6.926217">
        <ele>2278.0</ele>
        <time>2014-08-30T15:02:33Z</time>
      </trkpt>
      <trkpt lat="45.953400" lon="6.926167">
        <ele>2276.0</ele>
        <time>2014-08-30T15:02:34Z</time>
      </trkpt>
      <trkpt lat="45.953500" lon="6.926117">
        <ele>2273.0</ele>
        <time>2014-08-30T15:02:35Z</time>
      </trkpt>
      <trkpt lat="45.953600" lon="6.926083">
        <ele>2272.0</ele>
        <time>2014-08-30T15:02:36Z</time>
      </trkpt>
      <trkpt lat="45.953700" lon="6.926017">
        <ele>2270.0</ele>
        <time>2014-08-30T15:02:37Z</time>
      </trkpt>
      <trkpt lat="45.953783" lon="6.925967">
        <ele>2268.0</ele>
        <time>2014-08-30T15:02:38Z</time>
      </trkpt>
      <trkpt lat="45.953900" lon="6.925933">
        <ele>2266.0</ele>
        <time>2014-08-30T15:02:39Z</time>
      </trkpt>
      <trkpt lat="45.954017" lon="6.925917">
        <ele>2264.0</ele>
        <time>2014-08-30T15:02:40Z</time>
      </trkpt>
      <trkpt lat="45.954117" lon="6.925900">
        <ele>2262.0</ele>
        <time>2014-08-30T15:02:41Z</time>
      </trkpt>
      <trkpt lat="45.954233" lon="6.925883">
        <ele>2261.0</ele>
        <time>2014-08-30T15:02:42Z</time>
      </trkpt>
      <trkpt lat="45.954333" lon="6.925850">
        <ele>2259.0</ele>
        <time>2014-08-30T15:02:43Z</time>
      </trkpt>
      <trkpt lat="45.954450" lon="6.925833">
        <ele>2258.0</ele>
        <time>2014-08-30T15:02:44Z</time>
      </trkpt>
      <trkpt lat="45.954583" lon="6.925833">
        <ele>2256.0</ele>
        <time>2014-08-30T15:02:45Z</time>
      </trkpt>
      <trkpt lat="45.954717" lon="6.925850">
        <ele>2255.0</ele>
        <time>2014-08-30T15:02:46Z</time>
      </trkpt>
      <trkpt lat="45.954833" lon="6.925867">
        <ele>2254.0</ele>
        <time>2014-08-30T15:02:47Z</time>
      </trkpt>
      <trkpt lat="45.954950" lon="6.925883">
        <ele>2253.0</ele>
        <time>2014-08-30T15:02:48Z</time>
      </trkpt>
      <trkpt lat="45.955067" lon="6.925883">
        <ele>2251.0</ele>
        <time>2014-08-30T15:02:49Z</time>
      </trkpt>
      <trkpt lat="45.955183" lon="6.925883">
        <ele>2249.0</ele>
        <time>2014-08-30T15:02:50Z</time>
      </trkpt>
      <trkpt lat="45.955317" lon="6.925917">
        <ele>2247.0</ele>
        <time>2014-08-30T15:02:51Z</time>
      </trkpt>
      <trkpt lat="45.955433" lon="6.925933">
        <ele>2245.0</ele>
        <time>2014-08-30T15:02:52Z</time>
      </trkpt>
      <trkpt lat="45.955567" lon="6.925950">
        <ele>2244.0</ele>
        <time>2014-08-30T15:02:53Z</time>
      </trkpt>
      <trkpt lat="45.955683" lon="6.925967">
        <ele>2242.0</ele>
        <time>2014-08-30T15:02:54Z</time>
      </trkpt>
      <trkpt lat="45.955800" lon="6.925983">
        <ele>2240.0</ele>
        <time>2014-08-30T15:02:55Z</time>
      </trkpt>
      <trkpt lat="45.955917" lon="6.926000">
        <ele>2238.0</ele>
        <time>2014-08-30T15:02:56Z</time>
      </trkpt>
      <trkpt lat="45.956033" lon="6.926017">
        <ele>2236.0</ele>
        <time>2014-08-30T15:02:57Z</time>
      </trkpt>
      <trkpt lat="45.956150" lon="6.926050">
        <ele>2234.0</ele>
        <time>2014-08-30T15:02:58Z</time>
      </trkpt>
      <trkpt lat="45.956283" lon="6.926067">
        <ele>2232.0</ele>
        <time>2014-08-30T15:02:59Z</time>
      </trkpt>
      <trkpt lat="45.956400" lon="6.926100">
        <ele>2230.0</ele>
        <time>2014-08-30T15:03:00Z</time>
      </trkpt>
      <trkpt lat="45.956533" lon="6.926117">
        <ele>2228.0</ele>
        <time>2014-08-30T15:03:01Z</time>
      </trkpt>
      <trkpt lat="45.956650" lon="6.926133">
        <ele>2226.0</ele>
        <time>2014-08-30T15:03:02Z</time>
      </trkpt>
      <trkpt lat="45.956767" lon="6.926167">
        <ele>2224.0</ele>
        <time>2014-08-30T15:03:03Z</time>
      </trkpt>
      <trkpt lat="45.956900" lon="6.926183">
        <ele>2222.0</ele>
        <time>2014-08-30T15:03:04Z</time>
      </trkpt>
      <trkpt lat="45.957033" lon="6.926200">
        <ele>2219.0</ele>
        <time>2014-08-30T15:03:05Z</time>
      </trkpt>
      <trkpt lat="45.957150" lon="6.926217">
        <ele>2218.0</ele>
        <time>2014-08-30T15:03:06Z</time>
      </trkpt>
      <trkpt lat="45.957283" lon="6.926233">
        <ele>2216.0</ele>
        <time>2014-08-30T15:03:07Z</time>
      </trkpt>
      <trkpt lat="45.957400" lon="6.926267">
        <ele>2214.0</ele>
        <time>2014-08-30T15:03:08Z</time>
      </trkpt>
      <trkpt lat="45.957517" lon="6.926300">
        <ele>2213.0</ele>
        <time>2014-08-30T15:03:09Z</time>
      </trkpt>
      <trkpt lat="45.957650" lon="6.926333">
        <ele>2211.0</ele>
        <time>2014-08-30T15:03:10Z</time>
      </trkpt>
      <trkpt lat="45.957767" lon="6.926350">
        <ele>2209.0</ele>
        <time>2014-08-30T15:03:11Z</time>
      </trkpt>
      <trkpt lat="45.957883" lon="6.926400">
        <ele>2207.0</ele>
        <time>2014-08-30T15:03:12Z</time>
      </trkpt>
      <trkpt lat="45.958017" lon="6.926433">
        <ele>2205.0</ele>
        <time>2014-08-30T15:03:13Z</time>
      </trkpt>
      <trkpt lat="45.958150" lon="6.926483">
        <ele>2203.0</ele>
        <time>2014-08-30T15:03:14Z</time>
      </trkpt>
      <trkpt lat="45.958283" lon="6.926533">
        <ele>2201.0</ele>
        <time>2014-08-30T15:03:15Z</time>
      </trkpt>
      <trkpt lat="45.958400" lon="6.926583">
        <ele>2200.0</ele>
        <time>2014-08-30T15:03:16Z</time>
      </trkpt>
      <trkpt lat="45.958533" lon="6.926633">
        <ele>2199.0</ele>
        <time>2014-08-30T15:03:17Z</time>
      </trkpt>
      <trkpt lat="45.958650" lon="6.926667">
        <ele>2198.0</ele>
        <time>2014-08-30T15:03:18Z</time>
      </trkpt>
      <trkpt lat="45.958767" lon="6.926717">
        <ele>2196.0</ele>
        <time>2014-08-30T15:03:19Z</time>
      </trkpt>
      <trkpt lat="45.958900" lon="6.926767">
        <ele>2194.0</ele>
        <time>2014-08-30T15:03:20Z</time>
      </trkpt>
      <trkpt lat="45.959033" lon="6.926817">
        <ele>2193.0</ele>
        <time>2014-08-30T15:03:21Z</time>
      </trkpt>
      <trkpt lat="45.959150" lon="6.926867">
        <ele>2192.0</ele>
        <time>2014-08-30T15:03:22Z</time>
      </trkpt>
      <trkpt lat="45.959267" lon="6.926917">
        <ele>2191.0</ele>
        <time>2014-08-30T15:03:23Z</time>
      </trkpt>
      <trkpt lat="45.959400" lon="6.926983">
        <ele>2189.0</ele>
        <time>2014-08-30T15:03:24Z</time>
      </trkpt>
      <trkpt lat="45.959517" lon="6.927033">
        <ele>2188.0</ele>
        <time>2014-08-30T15:03:25Z</time>
      </trkpt>
      <trkpt lat="45.959650" lon="6.927100">
        <ele>2186.0</ele>
        <time>2014-08-30T15:03:26Z</time>
      </trkpt>
      <trkpt lat="45.959767" lon="6.927183">
        <ele>2185.0</ele>
        <time>2014-08-30T15:03:27Z</time>
      </trkpt>
      <trkpt lat="45.959900" lon="6.927250">
        <ele>2184.0</ele>
        <time>2014-08-30T15:03:28Z</time>
      </trkpt>
      <trkpt lat="45.960017" lon="6.927333">
        <ele>2183.0</ele>
        <time>2014-08-30T15:03:29Z</time>
      </trkpt>
      <trkpt lat="45.960133" lon="6.927400">
        <ele>2183.0</ele>
        <time>2014-08-30T15:03:30Z</time>
      </trkpt>
      <trkpt lat="45.960250" lon="6.927483">
        <ele>2182.0</ele>
        <time>2014-08-30T15:03:31Z</time>
      </trkpt>
      <trkpt lat="45.960367" lon="6.927550">
        <ele>2182.0</ele>
        <time>2014-08-30T15:03:32Z</time>
      </trkpt>
      <trkpt lat="45.960483" lon="6.927633">
        <ele>2181.0</ele>
        <time>2014-08-30T15:03:33Z</time>
      </trkpt>
      <trkpt lat="45.960617" lon="6.927700">
        <ele>2180.0</ele>
        <time>2014-08-30T15:03:34Z</time>
      </trkpt>
      <trkpt lat="45.960733" lon="6.927783">
        <ele>2179.0</ele>
        <time>2014-08-30T15:03:35Z</time>
      </trkpt>
      <trkpt lat="45.960850" lon="6.927867">
        <ele>2178.0</ele>
        <time>2014-08-30T15:03:36Z</time>
      </trkpt>
      <trkpt lat="45.960967" lon="6.927933">
        <ele>2178.0</ele>
        <time>2014-08-30T15:03:37Z</time>
      </trkpt>
      <trkpt lat="45.961083" lon="6.928017">
        <ele>2177.0</ele>
        <time>2014-08-30T15:03:38Z</time>
      </trkpt>
      <trkpt lat="45.961200" lon="6.928083">
        <ele>2176.0</ele>
        <time>2014-08-30T15:03:39Z</time>
      </trkpt>
      <trkpt lat="45.961333" lon="6.928167">
        <ele>2175.0</ele>
        <time>2014-08-30T15:03:40Z</time>
      </trkpt>
      <trkpt lat="45.961467" lon="6.928233">
        <ele>2173.0</ele>
        <time>2014-08-30T15:03:41Z</time>
      </trkpt>
      <trkpt lat="45.961583" lon="6.928283">
        <ele>2172.0</ele>
        <time>2014-08-30T15:03:42Z</time>
      </trkpt>
      <trkpt lat="45.961717" lon="6.928350">
        <ele>2171.0</ele>
        <time>2014-08-30T15:03:43Z</time>
      </trkpt>
      <trkpt lat="45.961833" lon="6.928400">
        <ele>2170.0</ele>
        <time>2014-08-30T15:03:44Z</time>
      </trkpt>
      <trkpt lat="45.961967" lon="6.928467">
        <ele>2168.0</ele>
        <time>2014-08-30T15:03:45Z</time>
      </trkpt>
      <trkpt lat="45.962100" lon="6.928517">
        <ele>2166.0</ele>
        <time>2014-08-30T15:03:46Z</time>
      </trkpt>
      <trkpt lat="45.962233" lon="6.928567">
        <ele>2164.0</ele>
        <time>2014-08-30T15:03:47Z</time>
      </trkpt>
      <trkpt lat="45.962367" lon="6.928600">
        <ele>2163.0</ele>
        <time>2014-08-30T15:03:48Z</time>
      </trkpt>
      <trkpt lat="45.962500" lon="6.928650">
        <ele>2161.0</ele>
        <time>2014-08-30T15:03:49Z</time>
      </trkpt>
      <trkpt lat="45.962633" lon="6.928700">
        <ele>2159.0</ele>
        <time>2014-08-30T15:03:50Z</time>
      </trkpt>
      <trkpt lat="45.962767" lon="6.928750">
        <ele>2157.0</ele>
        <time>2014-08-30T15:03:51Z</time>
      </trkpt>
      <trkpt lat="45.962900" lon="6.928800">
        <ele>2155.0</ele>
        <time>2014-08-30T15:03:52Z</time>
      </trkpt>
      <trkpt lat="45.963033" lon="6.928867">
        <ele>2153.0</ele>
        <time>2014-08-30T15:03:53Z</time>
      </trkpt>
      <trkpt lat="45.963167" lon="6.928933">
        <ele>2151.0</ele>
        <time>2014-08-30T15:03:54Z</time>
      </trkpt>
      <trkpt lat="45.963283" lon="6.929000">
        <ele>2149.0</ele>
        <time>2014-08-30T15:03:55Z</time>
      </trkpt>
      <trkpt lat="45.963417" lon="6.929067">
        <ele>2148.0</ele>
        <time>2014-08-30T15:03:56Z</time>
      </trkpt>
      <trkpt lat="45.963533" lon="6.929150">
        <ele>2146.0</ele>
        <time>2014-08-30T15:03:57Z</time>
      </trkpt>
      <trkpt lat="45.963650" lon="6.929233">
        <ele>2145.0</ele>
        <time>2014-08-30T15:03:58Z</time>
      </trkpt>
      <trkpt lat="45.963783" lon="6.929317">
        <ele>2143.0</ele>
        <time>2014-08-30T15:03:59Z</time>
      </trkpt>
      <trkpt lat="45.963900" lon="6.929400">
        <ele>2142.0</ele>
        <time>2014-08-30T15:04:00Z</time>
      </trkpt>
      <trkpt lat="45.964033" lon="6.929483">
        <ele>2140.0</ele>
        <time>2014-08-30T15:04:01Z</time>
      </trkpt>
      <trkpt lat="45.964150" lon="6.929567">
        <ele>2138.0</ele>
        <time>2014-08-30T15:04:02Z</time>
      </trkpt>
      <trkpt lat="45.964267" lon="6.929667">
        <ele>2136.0</ele>
        <time>2014-08-30T15:04:03Z</time>
      </trkpt>
      <trkpt lat="45.964383" lon="6.929767">
        <ele>2134.0</ele>
        <time>2014-08-30T15:04:04Z</time>
      </trkpt>
      <trkpt lat="45.964500" lon="6.929850">
        <ele>2132.0</ele>
        <time>2014-08-30T15:04:05Z</time>
      </trkpt>
      <trkpt lat="45.964617" lon="6.929950">
        <ele>2131.0</ele>
        <time>2014-08-30T15:04:06Z</time>
      </trkpt>
      <trkpt lat="45.964733" lon="6.930033">
        <ele>2129.0</ele>
        <time>2014-08-30T15:04:07Z</time>
      </trkpt>
      <trkpt lat="45.964850" lon="6.930100">
        <ele>2127.0</ele>
        <time>2014-08-30T15:04:08Z</time>
      </trkpt>
      <trkpt lat="45.964967" lon="6.930200">
        <ele>2125.0</ele>
        <time>2014-08-30T15:04:09Z</time>
      </trkpt>
      <trkpt lat="45.965083" lon="6.930283">
        <ele>2123.0</ele>
        <time>2014-08-30T15:04:10Z</time>
      </trkpt>
      <trkpt lat="45.965200" lon="6.930350">
        <ele>2120.0</ele>
        <time>2014-08-30T15:04:11Z</time>
      </trkpt>
      <trkpt lat="45.965317" lon="6.930433">
        <ele>2118.0</ele>
        <time>2014-08-30T15:04:12Z</time>
      </trkpt>
      <trkpt lat="45.965433" lon="6.930517">
        <ele>2116.0</ele>
        <time>2014-08-30T15:04:13Z</time>
      </trkpt>
      <trkpt lat="45.965567" lon="6.930600">
        <ele>2115.0</ele>
        <time>2014-08-30T15:04:14Z</time>
      </trkpt>
      <trkpt lat="45.965667" lon="6.930667">
        <ele>2113.0</ele>
        <time>2014-08-30T15:04:15Z</time>
      </trkpt>
      <trkpt lat="45.965783" lon="6.930733">
        <ele>2111.0</ele>
        <time>2014-08-30T15:04:16Z</time>
      </trkpt>
      <trkpt lat="45.965900" lon="6.930800">
        <ele>2108.0</ele>
        <time>2014-08-30T15:04:17Z</time>
      </trkpt>
      <trkpt lat="45.966033" lon="6.930867">
        <ele>2106.0</ele>
        <time>2014-08-30T15:04:18Z</time>
      </trkpt>
      <trkpt lat="45.966167" lon="6.930950">
        <ele>2104.0</ele>
        <time>2014-08-30T15:04:19Z</time>
      </trkpt>
      <trkpt lat="45.966317" lon="6.931050">
        <ele>2104.0</ele>
        <time>2014-08-30T15:04:20Z</time>
      </trkpt>
      <trkpt lat="45.966450" lon="6.931133">
        <ele>2105.0</ele>
        <time>2014-08-30T15:04:21Z</time>
      </trkpt>
      <trkpt lat="45.966567" lon="6.931200">
        <ele>2105.0</ele>
        <time>2014-08-30T15:04:22Z</time>
      </trkpt>
      <trkpt lat="45.966700" lon="6.931250">
        <ele>2105.0</ele>
        <time>2014-08-30T15:04:23Z</time>
      </trkpt>
      <trkpt lat="45.966817" lon="6.931317">
        <ele>2102.0</ele>
        <time>2014-08-30T15:04:24Z</time>
      </trkpt>
      <trkpt lat="45.966933" lon="6.931400">
        <ele>2099.0</ele>
        <time>2014-08-30T15:04:25Z</time>
      </trkpt>
      <trkpt lat="45.967067" lon="6.931467">
        <ele>2096.0</ele>
        <time>2014-08-30T15:04:26Z</time>
      </trkpt>
      <trkpt lat="45.967217" lon="6.931533">
        <ele>2093.0</ele>
        <time>2014-08-30T15:04:27Z</time>
      </trkpt>
      <trkpt lat="45.967350" lon="6.931600">
        <ele>2090.0</ele>
        <time>2014-08-30T15:04:28Z</time>
      </trkpt>
      <trkpt lat="45.967483" lon="6.931667">
        <ele>2088.0</ele>
        <time>2014-08-30T15:04:29Z</time>
      </trkpt>
      <trkpt lat="45.967633" lon="6.931733">
        <ele>2087.0</ele>
        <time>2014-08-30T15:04:30Z</time>
      </trkpt>
      <trkpt lat="45.967750" lon="6.931817">
        <ele>2086.0</ele>
        <time>2014-08-30T15:04:31Z</time>
      </trkpt>
      <trkpt lat="45.967867" lon="6.931883">
        <ele>2084.0</ele>
        <time>2014-08-30T15:04:32Z</time>
      </trkpt>
      <trkpt lat="45.967983" lon="6.931950">
        <ele>2082.0</ele>
        <time>2014-08-30T15:04:33Z</time>
      </trkpt>
      <trkpt lat="45.968100" lon="6.932033">
        <ele>2078.0</ele>
        <time>2014-08-30T15:04:34Z</time>
      </trkpt>
      <trkpt lat="45.968250" lon="6.932100">
        <ele>2076.0</ele>
        <time>2014-08-30T15:04:35Z</time>
      </trkpt>
      <trkpt lat="45.968367" lon="6.932167">
        <ele>2075.0</ele>
        <time>2014-08-30T15:04:36Z</time>
      </trkpt>
      <trkpt lat="45.968483" lon="6.932250">
        <ele>2074.0</ele>
        <time>2014-08-30T15:04:37Z</time>
      </trkpt>
      <trkpt lat="45.968600" lon="6.932333">
        <ele>2073.0</ele>
        <time>2014-08-30T15:04:38Z</time>
      </trkpt>
      <trkpt lat="45.968700" lon="6.932417">
        <ele>2071.0</ele>
        <time>2014-08-30T15:04:39Z</time>
      </trkpt>
      <trkpt lat="45.968817" lon="6.932500">
        <ele>2068.0</ele>
        <time>2014-08-30T15:04:40Z</time>
      </trkpt>
      <trkpt lat="45.968950" lon="6.932600">
        <ele>2064.0</ele>
        <time>2014-08-30T15:04:41Z</time>
      </trkpt>
      <trkpt lat="45.969083" lon="6.932717">
        <ele>2062.0</ele>
        <time>2014-08-30T15:04:42Z</time>
      </trkpt>
      <trkpt lat="45.969217" lon="6.932833">
        <ele>2061.0</ele>
        <time>2014-08-30T15:04:43Z</time>
      </trkpt>
      <trkpt lat="45.969333" lon="6.932917">
        <ele>2060.0</ele>
        <time>2014-08-30T15:04:44Z</time>
      </trkpt>
      <trkpt lat="45.969467" lon="6.933000">
        <ele>2058.0</ele>
        <time>2014-08-30T15:04:45Z</time>
      </trkpt>
      <trkpt lat="45.969583" lon="6.933067">
        <ele>2056.0</ele>
        <time>2014-08-30T15:04:46Z</time>
      </trkpt>
      <trkpt lat="45.969717" lon="6.933133">
        <ele>2054.0</ele>
        <time>2014-08-30T15:04:47Z</time>
      </trkpt>
      <trkpt lat="45.969850" lon="6.933217">
        <ele>2052.0</ele>
        <time>2014-08-30T15:04:48Z</time>
      </trkpt>
      <trkpt lat="45.969983" lon="6.933283">
        <ele>2051.0</ele>
        <time>2014-08-30T15:04:49Z</time>
      </trkpt>
      <trkpt lat="45.970117" lon="6.933350">
        <ele>2050.0</ele>
        <time>2014-08-30T15:04:50Z</time>
      </trkpt>
      <trkpt lat="45.970250" lon="6.933417">
        <ele>2049.0</ele>
        <time>2014-08-30T15:04:51Z</time>
      </trkpt>
      <trkpt lat="45.970383" lon="6.933483">
        <ele>2047.0</ele>
        <time>2014-08-30T15:04:52Z</time>
      </trkpt>
      <trkpt lat="45.970517" lon="6.933550">
        <ele>2044.0</ele>
        <time>2014-08-30T15:04:53Z</time>
      </trkpt>
      <trkpt lat="45.970667" lon="6.933633">
        <ele>2041.0</ele>
        <time>2014-08-30T15:04:54Z</time>
      </trkpt>
      <trkpt lat="45.970800" lon="6.933733">
        <ele>2039.0</ele>
        <time>2014-08-30T15:04:55Z</time>
      </trkpt>
      <trkpt lat="45.970950" lon="6.933817">
        <ele>2038.0</ele>
        <time>2014-08-30T15:04:56Z</time>
      </trkpt>
      <trkpt lat="45.971083" lon="6.933900">
        <ele>2036.0</ele>
        <time>2014-08-30T15:04:57Z</time>
      </trkpt>
      <trkpt lat="45.971200" lon="6.933983">
        <ele>2035.0</ele>
        <time>2014-08-30T15:04:58Z</time>
      </trkpt>
      <trkpt lat="45.971333" lon="6.934083">
        <ele>2032.0</ele>
        <time>2014-08-30T15:04:59Z</time>
      </trkpt>
      <trkpt lat="45.971467" lon="6.934183">
        <ele>2030.0</ele>
        <time>2014-08-30T15:05:00Z</time>
      </trkpt>
      <trkpt lat="45.971583" lon="6.934283">
        <ele>2027.0</ele>
        <time>2014-08-30T15:05:01Z</time>
      </trkpt>
      <trkpt lat="45.971717" lon="6.934400">
        <ele>2025.0</ele>
        <time>2014-08-30T15:05:02Z</time>
      </trkpt>
      <trkpt lat="45.971833" lon="6.934483">
        <ele>2023.0</ele>
        <time>2014-08-30T15:05:03Z</time>
      </trkpt>
      <trkpt lat="45.971950" lon="6.934583">
        <ele>2020.0</ele>
        <time>2014-08-30T15:05:04Z</time>
      </trkpt>
      <trkpt lat="45.972083" lon="6.934667">
        <ele>2017.0</ele>
        <time>2014-08-30T15:05:05Z</time>
      </trkpt>
      <trkpt lat="45.972200" lon="6.934767">
        <ele>2014.0</ele>
        <time>2014-08-30T15:05:06Z</time>
      </trkpt>
      <trkpt lat="45.972317" lon="6.934850">
        <ele>2010.0</ele>
        <time>2014-08-30T15:05:07Z</time>
      </trkpt>
      <trkpt lat="45.972433" lon="6.934950">
        <ele>2006.0</ele>
        <time>2014-08-30T15:05:08Z</time>
      </trkpt>
      <trkpt lat="45.972567" lon="6.935033">
        <ele>2002.0</ele>
        <time>2014-08-30T15:05:09Z</time>
      </trkpt>
      <trkpt lat="45.972683" lon="6.935133">
        <ele>1999.0</ele>
        <time>2014-08-30T15:05:10Z</time>
      </trkpt>
      <trkpt lat="45.972817" lon="6.935217">
        <ele>1996.0</ele>
        <time>2014-08-30T15:05:11Z</time>
      </trkpt>
      <trkpt lat="45.972950" lon="6.935317">
        <ele>1994.0</ele>
        <time>2014-08-30T15:05:12Z</time>
      </trkpt>
      <trkpt lat="45.973067" lon="6.935417">
        <ele>1991.0</ele>
        <time>2014-08-30T15:05:13Z</time>
      </trkpt>
      <trkpt lat="45.973167" lon="6.935517">
        <ele>1988.0</ele>
        <time>2014-08-30T15:05:14Z</time>
      </trkpt>
      <trkpt lat="45.973283" lon="6.935617">
        <ele>1984.0</ele>
        <time>2014-08-30T15:05:15Z</time>
      </trkpt>
      <trkpt lat="45.973383" lon="6.935700">
        <ele>1980.0</ele>
        <time>2014-08-30T15:05:16Z</time>
      </trkpt>
      <trkpt lat="45.973500" lon="6.935800">
        <ele>1975.0</ele>
        <time>2014-08-30T15:05:17Z</time>
      </trkpt>
      <trkpt lat="45.973633" lon="6.935917">
        <ele>1971.0</ele>
        <time>2014-08-30T15:05:18Z</time>
      </trkpt>
      <trkpt lat="45.973750" lon="6.936017">
        <ele>1967.0</ele>
        <time>2014-08-30T15:05:19Z</time>
      </trkpt>
      <trkpt lat="45.973883" lon="6.936117">
        <ele>1965.0</ele>
        <time>2014-08-30T15:05:20Z</time>
      </trkpt>
      <trkpt lat="45.974000" lon="6.936217">
        <ele>1963.0</ele>
        <time>2014-08-30T15:05:21Z</time>
      </trkpt>
      <trkpt lat="45.974133" lon="6.936317">
        <ele>1961.0</ele>
        <time>2014-08-30T15:05:22Z</time>
      </trkpt>
      <trkpt lat="45.974250" lon="6.936417">
        <ele>1959.0</ele>
        <time>2014-08-30T15:05:23Z</time>
      </trkpt>
      <trkpt lat="45.974367" lon="6.936517">
        <ele>1956.0</ele>
        <time>2014-08-30T15:05:24Z</time>
      </trkpt>
      <trkpt lat="45.974483" lon="6.936617">
        <ele>1952.0</ele>
        <time>2014-08-30T15:05:25Z</time>
      </trkpt>
      <trkpt lat="45.974617" lon="6.936717">
        <ele>1949.0</ele>
        <time>2014-08-30T15:05:26Z</time>
      </trkpt>
      <trkpt lat="45.974733" lon="6.936850">
        <ele>1947.0</ele>
        <time>2014-08-30T15:05:27Z</time>
      </trkpt>
      <trkpt lat="45.974850" lon="6.936967">
        <ele>1944.0</ele>
        <time>2014-08-30T15:05:28Z</time>
      </trkpt>
      <trkpt lat="45.974967" lon="6.937083">
        <ele>1942.0</ele>
        <time>2014-08-30T15:05:29Z</time>
      </trkpt>
      <trkpt lat="45.975083" lon="6.937183">
        <ele>1940.0</ele>
        <time>2014-08-30T15:05:30Z</time>
      </trkpt>
      <trkpt lat="45.975200" lon="6.937267">
        <ele>1938.0</ele>
        <time>2014-08-30T15:05:31Z</time>
      </trkpt>
      <trkpt lat="45.975317" lon="6.937350">
        <ele>1934.0</ele>
        <time>2014-08-30T15:05:32Z</time>
      </trkpt>
      <trkpt lat="45.975433" lon="6.937450">
        <ele>1931.0</ele>
        <time>2014-08-30T15:05:33Z</time>
      </trkpt>
      <trkpt lat="45.975533" lon="6.937567">
        <ele>1927.0</ele>
        <time>2014-08-30T15:05:34Z</time>
      </trkpt>
      <trkpt lat="45.975667" lon="6.937683">
        <ele>1924.0</ele>
        <time>2014-08-30T15:05:35Z</time>
      </trkpt>
      <trkpt lat="45.975783" lon="6.937783">
        <ele>1922.0</ele>
        <time>2014-08-30T15:05:36Z</time>
      </trkpt>
      <trkpt lat="45.975917" lon="6.937900">
        <ele>1919.0</ele>
        <time>2014-08-30T15:05:37Z</time>
      </trkpt>
      <trkpt lat="45.976033" lon="6.938000">
        <ele>1917.0</ele>
        <time>2014-08-30T15:05:38Z</time>
      </trkpt>
      <trkpt lat="45.976150" lon="6.938100">
        <ele>1915.0</ele>
        <time>2014-08-30T15:05:39Z</time>
      </trkpt>
      <trkpt lat="45.976250" lon="6.938183">
        <ele>1912.0</ele>
        <time>2014-08-30T15:05:40Z</time>
      </trkpt>
      <trkpt lat="45.976367" lon="6.938283">
        <ele>1909.0</ele>
        <time>2014-08-30T15:05:41Z</time>
      </trkpt>
      <trkpt lat="45.976500" lon="6.938367">
        <ele>1905.0</ele>
        <time>2014-08-30T15:05:42Z</time>
      </trkpt>
      <trkpt lat="45.976633" lon="6.938433">
        <ele>1902.0</ele>
        <time>2014-08-30T15:05:43Z</time>
      </trkpt>
      <trkpt lat="45.976767" lon="6.938517">
        <ele>1899.0</ele>
        <time>2014-08-30T15:05:44Z</time>
      </trkpt>
      <trkpt lat="45.976900" lon="6.938583">
        <ele>1896.0</ele>
        <time>2014-08-30T15:05:45Z</time>
      </trkpt>
      <trkpt lat="45.977017" lon="6.938667">
        <ele>1894.0</ele>
        <time>2014-08-30T15:05:46Z</time>
      </trkpt>
      <trkpt lat="45.977133" lon="6.938750">
        <ele>1892.0</ele>
        <time>2014-08-30T15:05:47Z</time>
      </trkpt>
      <trkpt lat="45.977267" lon="6.938817">
        <ele>1889.0</ele>
        <time>2014-08-30T15:05:48Z</time>
      </trkpt>
      <trkpt lat="45.977383" lon="6.938883">
        <ele>1887.0</ele>
        <time>2014-08-30T15:05:49Z</time>
      </trkpt>
      <trkpt lat="45.977500" lon="6.938950">
        <ele>1884.0</ele>
        <time>2014-08-30T15:05:50Z</time>
      </trkpt>
      <trkpt lat="45.977633" lon="6.939033">
        <ele>1881.0</ele>
        <time>2014-08-30T15:05:51Z</time>
      </trkpt>
      <trkpt lat="45.977767" lon="6.939117">
        <ele>1879.0</ele>
        <time>2014-08-30T15:05:52Z</time>
      </trkpt>
      <trkpt lat="45.977883" lon="6.939200">
        <ele>1876.0</ele>
        <time>2014-08-30T15:05:53Z</time>
      </trkpt>
      <trkpt lat="45.978000" lon="6.939283">
        <ele>1874.0</ele>
        <time>2014-08-30T15:05:54Z</time>
      </trkpt>
      <trkpt lat="45.978117" lon="6.939367">
        <ele>1872.0</ele>
        <time>2014-08-30T15:05:55Z</time>
      </trkpt>
      <trkpt lat="45.978250" lon="6.939450">
        <ele>1870.0</ele>
        <time>2014-08-30T15:05:56Z</time>
      </trkpt>
      <trkpt lat="45.978367" lon="6.939550">
        <ele>1868.0</ele>
        <time>2014-08-30T15:05:57Z</time>
      </trkpt>
      <trkpt lat="45.978483" lon="6.939650">
        <ele>1867.0</ele>
        <time>2014-08-30T15:05:58Z</time>
      </trkpt>
      <trkpt lat="45.978600" lon="6.939750">
        <ele>1865.0</ele>
        <time>2014-08-30T15:05:59Z</time>
      </trkpt>
      <trkpt lat="45.978700" lon="6.939850">
        <ele>1864.0</ele>
        <time>2014-08-30T15:06:00Z</time>
      </trkpt>
      <trkpt lat="45.978817" lon="6.939950">
        <ele>1862.0</ele>
        <time>2014-08-30T15:06:01Z</time>
      </trkpt>
      <trkpt lat="45.978933" lon="6.940050">
        <ele>1861.0</ele>
        <time>2014-08-30T15:06:02Z</time>
      </trkpt>
      <trkpt lat="45.979050" lon="6.940133">
        <ele>1861.0</ele>
        <time>2014-08-30T15:06:03Z</time>
      </trkpt>
      <trkpt lat="45.979167" lon="6.940233">
        <ele>1860.0</ele>
        <time>2014-08-30T15:06:04Z</time>
      </trkpt>
      <trkpt lat="45.979267" lon="6.940317">
        <ele>1860.0</ele>
        <time>2014-08-30T15:06:05Z</time>
      </trkpt>
      <trkpt lat="45.979367" lon="6.940400">
        <ele>1860.0</ele>
        <time>2014-08-30T15:06:06Z</time>
      </trkpt>
      <trkpt lat="45.979467" lon="6.940500">
        <ele>1859.0</ele>
        <time>2014-08-30T15:06:07Z</time>
      </trkpt>
      <trkpt lat="45.979567" lon="6.940617">
        <ele>1858.0</ele>
        <time>2014-08-30T15:06:08Z</time>
      </trkpt>
      <trkpt lat="45.979667" lon="6.940717">
        <ele>1858.0</ele>
        <time>2014-08-30T15:06:09Z</time>
      </trkpt>
      <trkpt lat="45.979783" lon="6.940833">
        <ele>1859.0</ele>
        <time>2014-08-30T15:06:10Z</time>
      </trkpt>
      <trkpt lat="45.979883" lon="6.940933">
        <ele>1860.0</ele>
        <time>2014-08-30T15:06:11Z</time>
      </trkpt>
      <trkpt lat="45.979983" lon="6.941050">
        <ele>1861.0</ele>
        <time>2014-08-30T15:06:12Z</time>
      </trkpt>
      <trkpt lat="45.980067" lon="6.941167">
        <ele>1862.0</ele>
        <time>2014-08-30T15:06:13Z</time>
      </trkpt>
      <trkpt lat="45.980167" lon="6.941300">
        <ele>1863.0</ele>
        <time>2014-08-30T15:06:14Z</time>
      </trkpt>
      <trkpt lat="45.980267" lon="6.941417">
        <ele>1864.0</ele>
        <time>2014-08-30T15:06:15Z</time>
      </trkpt>
      <trkpt lat="45.980350" lon="6.941533">
        <ele>1866.0</ele>
        <time>2014-08-30T15:06:16Z</time>
      </trkpt>
      <trkpt lat="45.980450" lon="6.941633">
        <ele>1867.0</ele>
        <time>2014-08-30T15:06:17Z</time>
      </trkpt>
      <trkpt lat="45.980533" lon="6.941750">
        <ele>1868.0</ele>
        <time>2014-08-30T15:06:18Z</time>
      </trkpt>
      <trkpt lat="45.980617" lon="6.941867">
        <ele>1868.0</ele>
        <time>2014-08-30T15:06:19Z</time>
      </trkpt>
      <trkpt lat="45.980717" lon="6.941967">
        <ele>1868.0</ele>
        <time>2014-08-30T15:06:20Z</time>
      </trkpt>
      <trkpt lat="45.980817" lon="6.942083">
        <ele>1868.0</ele>
        <time>2014-08-30T15:06:21Z</time>
      </trkpt>
      <trkpt lat="45.980917" lon="6.942183">
        <ele>1868.0</ele>
        <time>2014-08-30T15:06:22Z</time>
      </trkpt>
      <trkpt lat="45.981017" lon="6.942283">
        <ele>1869.0</ele>
        <time>2014-08-30T15:06:23Z</time>
      </trkpt>
      <trkpt lat="45.981117" lon="6.942417">
        <ele>1870.0</ele>
        <time>2014-08-30T15:06:24Z</time>
      </trkpt>
      <trkpt lat="45.981200" lon="6.942533">
        <ele>1871.0</ele>
        <time>2014-08-30T15:06:25Z</time>
      </trkpt>
      <trkpt lat="45.981283" lon="6.942650">
        <ele>1872.0</ele>
        <time>2014-08-30T15:06:26Z</time>
      </trkpt>
      <trkpt lat="45.981367" lon="6.942767">
        <ele>1872.0</ele>
        <time>2014-08-30T15:06:27Z</time>
      </trkpt>
      <trkpt lat="45.981467" lon="6.942867">
        <ele>1872.0</ele>
        <time>2014-08-30T15:06:28Z</time>
      </trkpt>
      <trkpt lat="45.981550" lon="6.942967">
        <ele>1872.0</ele>
        <time>2014-08-30T15:06:29Z</time>
      </trkpt>
      <trkpt lat="45.981650" lon="6.943083">
        <ele>1873.0</ele>
        <time>2014-08-30T15:06:30Z</time>
      </trkpt>
      <trkpt lat="45.981750" lon="6.943200">
        <ele>1875.0</ele>
        <time>2014-08-30T15:06:31Z</time>
      </trkpt>
      <trkpt lat="45.981833" lon="6.943283">
        <ele>1876.0</ele>
        <time>2014-08-30T15:06:32Z</time>
      </trkpt>
      <trkpt lat="45.981917" lon="6.943383">
        <ele>1877.0</ele>
        <time>2014-08-30T15:06:33Z</time>
      </trkpt>
      <trkpt lat="45.982017" lon="6.943483">
        <ele>1879.0</ele>
        <time>2014-08-30T15:06:34Z</time>
      </trkpt>
      <trkpt lat="45.982100" lon="6.943583">
        <ele>1879.0</ele>
        <time>2014-08-30T15:06:35Z</time>
      </trkpt>
      <trkpt lat="45.982183" lon="6.943700">
        <ele>1880.0</ele>
        <time>2014-08-30T15:06:36Z</time>
      </trkpt>
      <trkpt lat="45.982283" lon="6.943817">
        <ele>1881.0</ele>
        <time>2014-08-30T15:06:37Z</time>
      </trkpt>
      <trkpt lat="45.982367" lon="6.943950">
        <ele>1882.0</ele>
        <time>2014-08-30T15:06:38Z</time>
      </trkpt>
      <trkpt lat="45.982433" lon="6.944083">
        <ele>1884.0</ele>
        <time>2014-08-30T15:06:39Z</time>
      </trkpt>
      <trkpt lat="45.982500" lon="6.944233">
        <ele>1886.0</ele>
        <time>2014-08-30T15:06:40Z</time>
      </trkpt>
      <trkpt lat="45.982567" lon="6.944383">
        <ele>1888.0</ele>
        <time>2014-08-30T15:06:41Z</time>
      </trkpt>
      <trkpt lat="45.982633" lon="6.944533">
        <ele>1889.0</ele>
        <time>2014-08-30T15:06:42Z</time>
      </trkpt>
      <trkpt lat="45.982683" lon="6.944667">
        <ele>1890.0</ele>
        <time>2014-08-30T15:06:43Z</time>
      </trkpt>
      <trkpt lat="45.982733" lon="6.944817">
        <ele>1891.0</ele>
        <time>2014-08-30T15:06:44Z</time>
      </trkpt>
      <trkpt lat="45.982800" lon="6.944983">
        <ele>1892.0</ele>
        <time>2014-08-30T15:06:45Z</time>
      </trkpt>
      <trkpt lat="45.982867" lon="6.945133">
        <ele>1893.0</ele>
        <time>2014-08-30T15:06:46Z</time>
      </trkpt>
      <trkpt lat="45.982933" lon="6.945300">
        <ele>1894.0</ele>
        <time>2014-08-30T15:06:47Z</time>
      </trkpt>
      <trkpt lat="45.982983" lon="6.945450">
        <ele>1895.0</ele>
        <time>2014-08-30T15:06:48Z</time>
      </trkpt>
      <trkpt lat="45.983033" lon="6.945617">
        <ele>1897.0</ele>
        <time>2014-08-30T15:06:49Z</time>
      </trkpt>
      <trkpt lat="45.983083" lon="6.945783">
        <ele>1899.0</ele>
        <time>2014-08-30T15:06:50Z</time>
      </trkpt>
      <trkpt lat="45.983117" lon="6.945933">
        <ele>1901.0</ele>
        <time>2014-08-30T15:06:51Z</time>
      </trkpt>
      <trkpt lat="45.983167" lon="6.946117">
        <ele>1902.0</ele>
        <time>2014-08-30T15:06:52Z</time>
      </trkpt>
      <trkpt lat="45.983200" lon="6.946283">
        <ele>1904.0</ele>
        <time>2014-08-30T15:06:53Z</time>
      </trkpt>
      <trkpt lat="45.983233" lon="6.946450">
        <ele>1905.0</ele>
        <time>2014-08-30T15:06:54Z</time>
      </trkpt>
      <trkpt lat="45.983267" lon="6.946633">
        <ele>1907.0</ele>
        <time>2014-08-30T15:06:55Z</time>
      </trkpt>
      <trkpt lat="45.983300" lon="6.946800">
        <ele>1909.0</ele>
        <time>2014-08-30T15:06:56Z</time>
      </trkpt>
      <trkpt lat="45.983333" lon="6.946983">
        <ele>1911.0</ele>
        <time>2014-08-30T15:06:57Z</time>
      </trkpt>
      <trkpt lat="45.983350" lon="6.947167">
        <ele>1913.0</ele>
        <time>2014-08-30T15:06:58Z</time>
      </trkpt>
      <trkpt lat="45.983367" lon="6.947333">
        <ele>1915.0</ele>
        <time>2014-08-30T15:06:59Z</time>
      </trkpt>
      <trkpt lat="45.983383" lon="6.947517">
        <ele>1917.0</ele>
        <time>2014-08-30T15:07:00Z</time>
      </trkpt>
      <trkpt lat="45.983383" lon="6.947700">
        <ele>1919.0</ele>
        <time>2014-08-30T15:07:01Z</time>
      </trkpt>
      <trkpt lat="45.983383" lon="6.947883">
        <ele>1921.0</ele>
        <time>2014-08-30T15:07:02Z</time>
      </trkpt>
      <trkpt lat="45.983383" lon="6.948050">
        <ele>1923.0</ele>
        <time>2014-08-30T15:07:03Z</time>
      </trkpt>
      <trkpt lat="45.983367" lon="6.948233">
        <ele>1924.0</ele>
        <time>2014-08-30T15:07:04Z</time>
      </trkpt>
      <trkpt lat="45.983333" lon="6.948400">
        <ele>1926.0</ele>
        <time>2014-08-30T15:07:05Z</time>
      </trkpt>
      <trkpt lat="45.983300" lon="6.948567">
        <ele>1928.0</ele>
        <time>2014-08-30T15:07:06Z</time>
      </trkpt>
      <trkpt lat="45.983267" lon="6.948733">
        <ele>1930.0</ele>
        <time>2014-08-30T15:07:07Z</time>
      </trkpt>
      <trkpt lat="45.983217" lon="6.948883">
        <ele>1932.0</ele>
        <time>2014-08-30T15:07:08Z</time>
      </trkpt>
      <trkpt lat="45.983167" lon="6.949017">
        <ele>1934.0</ele>
        <time>2014-08-30T15:07:09Z</time>
      </trkpt>
      <trkpt lat="45.983117" lon="6.949150">
        <ele>1936.0</ele>
        <time>2014-08-30T15:07:10Z</time>
      </trkpt>
      <trkpt lat="45.983067" lon="6.949267">
        <ele>1938.0</ele>
        <time>2014-08-30T15:07:11Z</time>
      </trkpt>
      <trkpt lat="45.983000" lon="6.949383">
        <ele>1940.0</ele>
        <time>2014-08-30T15:07:12Z</time>
      </trkpt>
      <trkpt lat="45.982950" lon="6.949500">
        <ele>1943.0</ele>
        <time>2014-08-30T15:07:13Z</time>
      </trkpt>
      <trkpt lat="45.982883" lon="6.949617">
        <ele>1945.0</ele>
        <time>2014-08-30T15:07:14Z</time>
      </trkpt>
      <trkpt lat="45.982833" lon="6.949733">
        <ele>1948.0</ele>
        <time>2014-08-30T15:07:15Z</time>
      </trkpt>
      <trkpt lat="45.982783" lon="6.949833">
        <ele>1950.0</ele>
        <time>2014-08-30T15:07:16Z</time>
      </trkpt>
      <trkpt lat="45.982717" lon="6.949967">
        <ele>1952.0</ele>
        <time>2014-08-30T15:07:17Z</time>
      </trkpt>
      <trkpt lat="45.982667" lon="6.950083">
        <ele>1955.0</ele>
        <time>2014-08-30T15:07:18Z</time>
      </trkpt>
      <trkpt lat="45.982617" lon="6.950217">
        <ele>1958.0</ele>
        <time>2014-08-30T15:07:19Z</time>
      </trkpt>
      <trkpt lat="45.982567" lon="6.950350">
        <ele>1960.0</ele>
        <time>2014-08-30T15:07:20Z</time>
      </trkpt>
      <trkpt lat="45.982517" lon="6.950467">
        <ele>1963.0</ele>
        <time>2014-08-30T15:07:21Z</time>
      </trkpt>
      <trkpt lat="45.982450" lon="6.950583">
        <ele>1965.0</ele>
        <time>2014-08-30T15:07:22Z</time>
      </trkpt>
      <trkpt lat="45.982383" lon="6.950700">
        <ele>1966.0</ele>
        <time>2014-08-30T15:07:23Z</time>
      </trkpt>
      <trkpt lat="45.982300" lon="6.950783">
        <ele>1968.0</ele>
        <time>2014-08-30T15:07:24Z</time>
      </trkpt>
      <trkpt lat="45.982217" lon="6.950800">
        <ele>1970.0</ele>
        <time>2014-08-30T15:07:25Z</time>
      </trkpt>
      <trkpt lat="45.982150" lon="6.950783">
        <ele>1971.0</ele>
        <time>2014-08-30T15:07:26Z</time>
      </trkpt>
      <trkpt lat="45.982117" lon="6.950750">
        <ele>1972.0</ele>
        <time>2014-08-30T15:07:27Z</time>
      </trkpt>
      <trkpt lat="45.982117" lon="6.950683">
        <ele>1973.0</ele>
        <time>2014-08-30T15:07:28Z</time>
      </trkpt>
      <trkpt lat="45.982150" lon="6.950617">
        <ele>1975.0</ele>
        <time>2014-08-30T15:07:29Z</time>
      </trkpt>
      <trkpt lat="45.982200" lon="6.950583">
        <ele>1977.0</ele>
        <time>2014-08-30T15:07:30Z</time>
      </trkpt>
      <trkpt lat="45.982250" lon="6.950550">
        <ele>1979.0</ele>
        <time>2014-08-30T15:07:31Z</time>
      </trkpt>
      <trkpt lat="45.982317" lon="6.950533">
        <ele>1981.0</ele>
        <time>2014-08-30T15:07:32Z</time>
      </trkpt>
      <trkpt lat="45.982400" lon="6.950517">
        <ele>1983.0</ele>
        <time>2014-08-30T15:07:33Z</time>
      </trkpt>
      <trkpt lat="45.982483" lon="6.950517">
        <ele>1984.0</ele>
        <time>2014-08-30T15:07:34Z</time>
      </trkpt>
      <trkpt lat="45.982567" lon="6.950550">
        <ele>1986.0</ele>
        <time>2014-08-30T15:07:35Z</time>
      </trkpt>
      <trkpt lat="45.982633" lon="6.950567">
        <ele>1988.0</ele>
        <time>2014-08-30T15:07:36Z</time>
      </trkpt>
      <trkpt lat="45.982700" lon="6.950567">
        <ele>1989.0</ele>
        <time>2014-08-30T15:07:37Z</time>
      </trkpt>
      <trkpt lat="45.982783" lon="6.950533">
        <ele>1991.0</ele>
        <time>2014-08-30T15:07:38Z</time>
      </trkpt>
      <trkpt lat="45.982850" lon="6.950500">
        <ele>1994.0</ele>
        <time>2014-08-30T15:07:39Z</time>
      </trkpt>
      <trkpt lat="45.982917" lon="6.950483">
        <ele>1998.0</ele>
        <time>2014-08-30T15:07:40Z</time>
      </trkpt>
      <trkpt lat="45.982967" lon="6.950467">
        <ele>2002.0</ele>
        <time>2014-08-30T15:07:41Z</time>
      </trkpt>
      <trkpt lat="45.983017" lon="6.950450">
        <ele>2005.0</ele>
        <time>2014-08-30T15:07:42Z</time>
      </trkpt>
      <trkpt lat="45.983067" lon="6.950450">
        <ele>2007.0</ele>
        <time>2014-08-30T15:07:43Z</time>
      </trkpt>
      <trkpt lat="45.983133" lon="6.950417">
        <ele>2008.0</ele>
        <time>2014-08-30T15:07:44Z</time>
      </trkpt>
      <trkpt lat="45.983217" lon="6.950383">
        <ele>2008.0</ele>
        <time>2014-08-30T15:07:45Z</time>
      </trkpt>
      <trkpt lat="45.983283" lon="6.950333">
        <ele>2009.0</ele>
        <time>2014-08-30T15:07:46Z</time>
      </trkpt>
      <trkpt lat="45.983367" lon="6.950300">
        <ele>2012.0</ele>
        <time>2014-08-30T15:07:47Z</time>
      </trkpt>
      <trkpt lat="45.983433" lon="6.950267">
        <ele>2015.0</ele>
        <time>2014-08-30T15:07:48Z</time>
      </trkpt>
      <trkpt lat="45.983500" lon="6.950250">
        <ele>2017.0</ele>
        <time>2014-08-30T15:07:49Z</time>
      </trkpt>
      <trkpt lat="45.983583" lon="6.950250">
        <ele>2019.0</ele>
        <time>2014-08-30T15:07:50Z</time>
      </trkpt>
      <trkpt lat="45.983650" lon="6.950233">
        <ele>2020.0</ele>
        <time>2014-08-30T15:07:51Z</time>
      </trkpt>
      <trkpt lat="45.983733" lon="6.950217">
        <ele>2022.0</ele>
        <time>2014-08-30T15:07:52Z</time>
      </trkpt>
      <trkpt lat="45.983833" lon="6.950167">
        <ele>2023.0</ele>
        <time>2014-08-30T15:07:53Z</time>
      </trkpt>
      <trkpt lat="45.983917" lon="6.950133">
        <ele>2026.0</ele>
        <time>2014-08-30T15:07:54Z</time>
      </trkpt>
      <trkpt lat="45.983983" lon="6.950117">
        <ele>2029.0</ele>
        <time>2014-08-30T15:07:55Z</time>
      </trkpt>
      <trkpt lat="45.984050" lon="6.950100">
        <ele>2031.0</ele>
        <time>2014-08-30T15:07:56Z</time>
      </trkpt>
      <trkpt lat="45.984117" lon="6.950083">
        <ele>2033.0</ele>
        <time>2014-08-30T15:07:57Z</time>
      </trkpt>
      <trkpt lat="45.984200" lon="6.950067">
        <ele>2034.0</ele>
        <time>2014-08-30T15:07:58Z</time>
      </trkpt>
      <trkpt lat="45.984283" lon="6.950050">
        <ele>2035.0</ele>
        <time>2014-08-30T15:07:59Z</time>
      </trkpt>
      <trkpt lat="45.984367" lon="6.950017">
        <ele>2037.0</ele>
        <time>2014-08-30T15:08:00Z</time>
      </trkpt>
      <trkpt lat="45.984433" lon="6.950000">
        <ele>2039.0</ele>
        <time>2014-08-30T15:08:01Z</time>
      </trkpt>
      <trkpt lat="45.984517" lon="6.950000">
        <ele>2040.0</ele>
        <time>2014-08-30T15:08:02Z</time>
      </trkpt>
      <trkpt lat="45.984583" lon="6.949983">
        <ele>2042.0</ele>
        <time>2014-08-30T15:08:03Z</time>
      </trkpt>
      <trkpt lat="45.984667" lon="6.949967">
        <ele>2043.0</ele>
        <time>2014-08-30T15:08:04Z</time>
      </trkpt>
      <trkpt lat="45.984733" lon="6.949950">
        <ele>2045.0</ele>
        <time>2014-08-30T15:08:05Z</time>
      </trkpt>
      <trkpt lat="45.984800" lon="6.949917">
        <ele>2047.0</ele>
        <time>2014-08-30T15:08:06Z</time>
      </trkpt>
      <trkpt lat="45.984850" lon="6.949883">
        <ele>2049.0</ele>
        <time>2014-08-30T15:08:07Z</time>
      </trkpt>
      <trkpt lat="45.984933" lon="6.949867">
        <ele>2051.0</ele>
        <time>2014-08-30T15:08:08Z</time>
      </trkpt>
      <trkpt lat="45.985017" lon="6.949867">
        <ele>2054.0</ele>
        <time>2014-08-30T15:08:09Z</time>
      </trkpt>
      <trkpt lat="45.985100" lon="6.949850">
        <ele>2056.0</ele>
        <time>2014-08-30T15:08:10Z</time>
      </trkpt>
      <trkpt lat="45.985183" lon="6.949817">
        <ele>2059.0</ele>
        <time>2014-08-30T15:08:11Z</time>
      </trkpt>
      <trkpt lat="45.985267" lon="6.949800">
        <ele>2061.0</ele>
        <time>2014-08-30T15:08:12Z</time>
      </trkpt>
      <trkpt lat="45.985350" lon="6.949783">
        <ele>2064.0</ele>
        <time>2014-08-30T15:08:13Z</time>
      </trkpt>
      <trkpt lat="45.985433" lon="6.949783">
        <ele>2066.0</ele>
        <time>2014-08-30T15:08:14Z</time>
      </trkpt>
      <trkpt lat="45.985500" lon="6.949767">
        <ele>2069.0</ele>
        <time>2014-08-30T15:08:15Z</time>
      </trkpt>
      <trkpt lat="45.985567" lon="6.949733">
        <ele>2070.0</ele>
        <time>2014-08-30T15:08:16Z</time>
      </trkpt>
      <trkpt lat="45.985633" lon="6.949717">
        <ele>2070.0</ele>
        <time>2014-08-30T15:08:17Z</time>
      </trkpt>
      <trkpt lat="45.985717" lon="6.949683">
        <ele>2071.0</ele>
        <time>2014-08-30T15:08:18Z</time>
      </trkpt>
      <trkpt lat="45.985783" lon="6.949633">
        <ele>2072.0</ele>
        <time>2014-08-30T15:08:19Z</time>
      </trkpt>
      <trkpt lat="45.985817" lon="6.949567">
        <ele>2073.0</ele>
        <time>2014-08-30T15:08:20Z</time>
      </trkpt>
      <trkpt lat="45.985833" lon="6.949500">
        <ele>2074.0</ele>
        <time>2014-08-30T15:08:21Z</time>
      </trkpt>
      <trkpt lat="45.985800" lon="6.949467">
        <ele>2076.0</ele>
        <time>2014-08-30T15:08:22Z</time>
      </trkpt>
      <trkpt lat="45.985767" lon="6.949467">
        <ele>2077.0</ele>
        <time>2014-08-30T15:08:23Z</time>
      </trkpt>
      <trkpt lat="45.985717" lon="6.949483">
        <ele>2078.0</ele>
        <time>2014-08-30T15:08:24Z</time>
      </trkpt>
      <trkpt lat="45.985683" lon="6.949550">
        <ele>2079.0</ele>
        <time>2014-08-30T15:08:25Z</time>
      </trkpt>
      <trkpt lat="45.985633" lon="6.949633">
        <ele>2079.0</ele>
        <time>2014-08-30T15:08:26Z</time>
      </trkpt>
      <trkpt lat="45.985583" lon="6.949767">
        <ele>2079.0</ele>
        <time>2014-08-30T15:08:27Z</time>
      </trkpt>
      <trkpt lat="45.985550" lon="6.949900">
        <ele>2080.0</ele>
        <time>2014-08-30T15:08:28Z</time>
      </trkpt>
      <trkpt lat="45.985533" lon="6.950050">
        <ele>2081.0</ele>
        <time>2014-08-30T15:08:29Z</time>
      </trkpt>
      <trkpt lat="45.985517" lon="6.950200">
        <ele>2084.0</ele>
        <time>2014-08-30T15:08:30Z</time>
      </trkpt>
      <trkpt lat="45.985500" lon="6.950350">
        <ele>2086.0</ele>
        <time>2014-08-30T15:08:31Z</time>
      </trkpt>
      <trkpt lat="45.985483" lon="6.950483">
        <ele>2090.0</ele>
        <time>2014-08-30T15:08:32Z</time>
      </trkpt>
      <trkpt lat="45.985467" lon="6.950600">
        <ele>2093.0</ele>
        <time>2014-08-30T15:08:33Z</time>
      </trkpt>
      <trkpt lat="45.985417" lon="6.950683">
        <ele>2095.0</ele>
        <time>2014-08-30T15:08:34Z</time>
      </trkpt>
      <trkpt lat="45.985367" lon="6.950783">
        <ele>2098.0</ele>
        <time>2014-08-30T15:08:35Z</time>
      </trkpt>
      <trkpt lat="45.985333" lon="6.950900">
        <ele>2101.0</ele>
        <time>2014-08-30T15:08:36Z</time>
      </trkpt>
      <trkpt lat="45.985317" lon="6.951017">
        <ele>2104.0</ele>
        <time>2014-08-30T15:08:37Z</time>
      </trkpt>
      <trkpt lat="45.985283" lon="6.951133">
        <ele>2105.0</ele>
        <time>2014-08-30T15:08:38Z</time>
      </trkpt>
      <trkpt lat="45.985250" lon="6.951217">
        <ele>2106.0</ele>
        <time>2014-08-30T15:08:39Z</time>
      </trkpt>
      <trkpt lat="45.985200" lon="6.951267">
        <ele>2105.0</ele>
        <time>2014-08-30T15:08:40Z</time>
      </trkpt>
      <trkpt lat="45.985133" lon="6.951300">
        <ele>2106.0</ele>
        <time>2014-08-30T15:08:41Z</time>
      </trkpt>
      <trkpt lat="45.985083" lon="6.951283">
        <ele>2107.0</ele>
        <time>2014-08-30T15:08:42Z</time>
      </trkpt>
      <trkpt lat="45.985033" lon="6.951300">
        <ele>2108.0</ele>
        <time>2014-08-30T15:08:43Z</time>
      </trkpt>
      <trkpt lat="45.984983" lon="6.951317">
        <ele>2110.0</ele>
        <time>2014-08-30T15:08:44Z</time>
      </trkpt>
      <trkpt lat="45.984933" lon="6.951333">
        <ele>2111.0</ele>
        <time>2014-08-30T15:08:45Z</time>
      </trkpt>
      <trkpt lat="45.984883" lon="6.951333">
        <ele>2111.0</ele>
        <time>2014-08-30T15:08:46Z</time>
      </trkpt>
      <trkpt lat="45.984833" lon="6.951333">
        <ele>2110.0</ele>
        <time>2014-08-30T15:08:47Z</time>
      </trkpt>
      <trkpt lat="45.984767" lon="6.951350">
        <ele>2110.0</ele>
        <time>2014-08-30T15:08:48Z</time>
      </trkpt>
      <trkpt lat="45.984683" lon="6.951383">
        <ele>2110.0</ele>
        <time>2014-08-30T15:08:49Z</time>
      </trkpt>
      <trkpt lat="45.984617" lon="6.951433">
        <ele>2111.0</ele>
        <time>2014-08-30T15:08:50Z</time>
      </trkpt>
      <trkpt lat="45.984550" lon="6.951483">
        <ele>2112.0</ele>
        <time>2014-08-30T15:08:51Z</time>
      </trkpt>
      <trkpt lat="45.984500" lon="6.951533">
        <ele>2113.0</ele>
        <time>2014-08-30T15:08:52Z</time>
      </trkpt>
      <trkpt lat="45.984433" lon="6.951583">
        <ele>2113.0</ele>
        <time>2014-08-30T15:08:53Z</time>
      </trkpt>
      <trkpt lat="45.984367" lon="6.951650">
        <ele>2113.0</ele>
        <time>2014-08-30T15:08:54Z</time>
      </trkpt>
      <trkpt lat="45.984300" lon="6.951733">
        <ele>2112.0</ele>
        <time>2014-08-30T15:08:55Z</time>
      </trkpt>
      <trkpt lat="45.984217" lon="6.951800">
        <ele>2112.0</ele>
        <time>2014-08-30T15:08:56Z</time>
      </trkpt>
      <trkpt lat="45.984150" lon="6.951883">
        <ele>2113.0</ele>
        <time>2014-08-30T15:08:57Z</time>
      </trkpt>
      <trkpt lat="45.984083" lon="6.951933">
        <ele>2113.0</ele>
        <time>2014-08-30T15:08:58Z</time>
      </trkpt>
      <trkpt lat="45.984017" lon="6.951983">
        <ele>2113.0</ele>
        <time>2014-08-30T15:08:59Z</time>
      </trkpt>
      <trkpt lat="45.983933" lon="6.952033">
        <ele>2114.0</ele>
        <time>2014-08-30T15:09:00Z</time>
      </trkpt>
      <trkpt lat="45.983867" lon="6.952100">
        <ele>2115.0</ele>
        <time>2014-08-30T15:09:01Z</time>
      </trkpt>
      <trkpt lat="45.983800" lon="6.952183">
        <ele>2116.0</ele>
        <time>2014-08-30T15:09:02Z</time>
      </trkpt>
      <trkpt lat="45.983733" lon="6.952250">
        <ele>2118.0</ele>
        <time>2014-08-30T15:09:03Z</time>
      </trkpt>
      <trkpt lat="45.983667" lon="6.952333">
        <ele>2119.0</ele>
        <time>2014-08-30T15:09:04Z</time>
      </trkpt>
      <trkpt lat="45.983600" lon="6.952433">
        <ele>2120.0</ele>
        <time>2014-08-30T15:09:05Z</time>
      </trkpt>
      <trkpt lat="45.983533" lon="6.952533">
        <ele>2122.0</ele>
        <time>2014-08-30T15:09:06Z</time>
      </trkpt>
      <trkpt lat="45.983450" lon="6.952617">
        <ele>2126.0</ele>
        <time>2014-08-30T15:09:07Z</time>
      </trkpt>
      <trkpt lat="45.983383" lon="6.952683">
        <ele>2130.0</ele>
        <time>2014-08-30T15:09:08Z</time>
      </trkpt>
      <trkpt lat="45.983333" lon="6.952767">
        <ele>2134.0</ele>
        <time>2014-08-30T15:09:09Z</time>
      </trkpt>
      <trkpt lat="45.983300" lon="6.952867">
        <ele>2135.0</ele>
        <time>2014-08-30T15:09:10Z</time>
      </trkpt>
      <trkpt lat="45.983267" lon="6.953017">
        <ele>2135.0</ele>
        <time>2014-08-30T15:09:11Z</time>
      </trkpt>
      <trkpt lat="45.983217" lon="6.953150">
        <ele>2135.0</ele>
        <time>2014-08-30T15:09:12Z</time>
      </trkpt>
      <trkpt lat="45.983150" lon="6.953267">
        <ele>2137.0</ele>
        <time>2014-08-30T15:09:13Z</time>
      </trkpt>
      <trkpt lat="45.983067" lon="6.953333">
        <ele>2137.0</ele>
        <time>2014-08-30T15:09:14Z</time>
      </trkpt>
      <trkpt lat="45.983000" lon="6.953333">
        <ele>2136.0</ele>
        <time>2014-08-30T15:09:15Z</time>
      </trkpt>
      <trkpt lat="45.982950" lon="6.953267">
        <ele>2135.0</ele>
        <time>2014-08-30T15:09:16Z</time>
      </trkpt>
      <trkpt lat="45.982967" lon="6.953167">
        <ele>2136.0</ele>
        <time>2014-08-30T15:09:17Z</time>
      </trkpt>
      <trkpt lat="45.982983" lon="6.953100">
        <ele>2138.0</ele>
        <time>2014-08-30T15:09:18Z</time>
      </trkpt>
      <trkpt lat="45.983033" lon="6.953050">
        <ele>2142.0</ele>
        <time>2014-08-30T15:09:19Z</time>
      </trkpt>
      <trkpt lat="45.983067" lon="6.953017">
        <ele>2144.0</ele>
        <time>2014-08-30T15:09:20Z</time>
      </trkpt>
      <trkpt lat="45.983100" lon="6.953000">
        <ele>2145.0</ele>
        <time>2014-08-30T15:09:21Z</time>
      </trkpt>
      <trkpt lat="45.983133" lon="6.952983">
        <ele>2144.0</ele>
        <time>2014-08-30T15:09:22Z</time>
      </trkpt>
      <trkpt lat="45.983183" lon="6.952950">
        <ele>2142.0</ele>
        <time>2014-08-30T15:09:23Z</time>
      </trkpt>
      <trkpt lat="45.983250" lon="6.952900">
        <ele>2142.0</ele>
        <time>2014-08-30T15:09:24Z</time>
      </trkpt>
      <trkpt lat="45.983333" lon="6.952883">
        <ele>2143.0</ele>
        <time>2014-08-30T15:09:25Z</time>
      </trkpt>
      <trkpt lat="45.983400" lon="6.952867">
        <ele>2145.0</ele>
        <time>2014-08-30T15:09:26Z</time>
      </trkpt>
      <trkpt lat="45.983467" lon="6.952867">
        <ele>2147.0</ele>
        <time>2014-08-30T15:09:27Z</time>
      </trkpt>
      <trkpt lat="45.983533" lon="6.952850">
        <ele>2147.0</ele>
        <time>2014-08-30T15:09:28Z</time>
      </trkpt>
      <trkpt lat="45.983600" lon="6.952850">
        <ele>2147.0</ele>
        <time>2014-08-30T15:09:29Z</time>
      </trkpt>
      <trkpt lat="45.983683" lon="6.952817">
        <ele>2147.0</ele>
        <time>2014-08-30T15:09:30Z</time>
      </trkpt>
      <trkpt lat="45.983750" lon="6.952800">
        <ele>2148.0</ele>
        <time>2014-08-30T15:09:31Z</time>
      </trkpt>
      <trkpt lat="45.983800" lon="6.952767">
        <ele>2149.0</ele>
        <time>2014-08-30T15:09:32Z</time>
      </trkpt>
      <trkpt lat="45.983867" lon="6.952750">
        <ele>2150.0</ele>
        <time>2014-08-30T15:09:33Z</time>
      </trkpt>
      <trkpt lat="45.983917" lon="6.952733">
        <ele>2151.0</ele>
        <time>2014-08-30T15:09:34Z</time>
      </trkpt>
      <trkpt lat="45.983983" lon="6.952700">
        <ele>2151.0</ele>
        <time>2014-08-30T15:09:35Z</time>
      </trkpt>
      <trkpt lat="45.984067" lon="6.952667">
        <ele>2151.0</ele>
        <time>2014-08-30T15:09:36Z</time>
      </trkpt>
      <trkpt lat="45.984150" lon="6.952650">
        <ele>2152.0</ele>
        <time>2014-08-30T15:09:37Z</time>
      </trkpt>
      <trkpt lat="45.984250" lon="6.952650">
        <ele>2153.0</ele>
        <time>2014-08-30T15:09:38Z</time>
      </trkpt>
      <trkpt lat="45.984350" lon="6.952667">
        <ele>2156.0</ele>
        <time>2014-08-30T15:09:39Z</time>
      </trkpt>
      <trkpt lat="45.984417" lon="6.952667">
        <ele>2158.0</ele>
        <time>2014-08-30T15:09:40Z</time>
      </trkpt>
      <trkpt lat="45.984500" lon="6.952683">
        <ele>2160.0</ele>
        <time>2014-08-30T15:09:41Z</time>
      </trkpt>
      <trkpt lat="45.984567" lon="6.952683">
        <ele>2160.0</ele>
        <time>2014-08-30T15:09:42Z</time>
      </trkpt>
      <trkpt lat="45.984633" lon="6.952683">
        <ele>2161.0</ele>
        <time>2014-08-30T15:09:43Z</time>
      </trkpt>
      <trkpt lat="45.984733" lon="6.952667">
        <ele>2160.0</ele>
        <time>2014-08-30T15:09:44Z</time>
      </trkpt>
      <trkpt lat="45.984817" lon="6.952633">
        <ele>2161.0</ele>
        <time>2014-08-30T15:09:45Z</time>
      </trkpt>
      <trkpt lat="45.984917" lon="6.952600">
        <ele>2163.0</ele>
        <time>2014-08-30T15:09:46Z</time>
      </trkpt>
      <trkpt lat="45.985000" lon="6.952567">
        <ele>2166.0</ele>
        <time>2014-08-30T15:09:47Z</time>
      </trkpt>
      <trkpt lat="45.985083" lon="6.952550">
        <ele>2169.0</ele>
        <time>2014-08-30T15:09:48Z</time>
      </trkpt>
      <trkpt lat="45.985167" lon="6.952533">
        <ele>2171.0</ele>
        <time>2014-08-30T15:09:49Z</time>
      </trkpt>
      <trkpt lat="45.985250" lon="6.952500">
        <ele>2172.0</ele>
        <time>2014-08-30T15:09:50Z</time>
      </trkpt>
      <trkpt lat="45.985333" lon="6.952467">
        <ele>2173.0</ele>
        <time>2014-08-30T15:09:51Z</time>
      </trkpt>
      <trkpt lat="45.985417" lon="6.952433">
        <ele>2175.0</ele>
        <time>2014-08-30T15:09:52Z</time>
      </trkpt>
      <trkpt lat="45.985483" lon="6.952400">
        <ele>2176.0</ele>
        <time>2014-08-30T15:09:53Z</time>
      </trkpt>
      <trkpt lat="45.985567" lon="6.952367">
        <ele>2177.0</ele>
        <time>2014-08-30T15:09:54Z</time>
      </trkpt>
      <trkpt lat="45.985650" lon="6.952350">
        <ele>2178.0</ele>
        <time>2014-08-30T15:09:55Z</time>
      </trkpt>
      <trkpt lat="45.985750" lon="6.952350">
        <ele>2178.0</ele>
        <time>2014-08-30T15:09:56Z</time>
      </trkpt>
      <trkpt lat="45.985850" lon="6.952350">
        <ele>2179.0</ele>
        <time>2014-08-30T15:09:57Z</time>
      </trkpt>
      <trkpt lat="45.985950" lon="6.952350">
        <ele>2180.0</ele>
        <time>2014-08-30T15:09:58Z</time>
      </trkpt>
      <trkpt lat="45.986050" lon="6.952367">
        <ele>2181.0</ele>
        <time>2014-08-30T15:09:59Z</time>
      </trkpt>
      <trkpt lat="45.986150" lon="6.952367">
        <ele>2181.0</ele>
        <time>2014-08-30T15:10:00Z</time>
      </trkpt>
      <trkpt lat="45.986233" lon="6.952333">
        <ele>2181.0</ele>
        <time>2014-08-30T15:10:01Z</time>
      </trkpt>
      <trkpt lat="45.986333" lon="6.952283">
        <ele>2181.0</ele>
        <time>2014-08-30T15:10:02Z</time>
      </trkpt>
      <trkpt lat="45.986417" lon="6.952200">
        <ele>2181.0</ele>
        <time>2014-08-30T15:10:03Z</time>
      </trkpt>
      <trkpt lat="45.986483" lon="6.952100">
        <ele>2182.0</ele>
        <time>2014-08-30T15:10:04Z</time>
      </trkpt>
      <trkpt lat="45.986517" lon="6.952000">
        <ele>2183.0</ele>
        <time>2014-08-30T15:10:05Z</time>
      </trkpt>
      <trkpt lat="45.986517" lon="6.951933">
        <ele>2185.0</ele>
        <time>2014-08-30T15:10:06Z</time>
      </trkpt>
      <trkpt lat="45.986467" lon="6.951900">
        <ele>2188.0</ele>
        <time>2014-08-30T15:10:07Z</time>
      </trkpt>
      <trkpt lat="45.986400" lon="6.951933">
        <ele>2190.0</ele>
        <time>2014-08-30T15:10:08Z</time>
      </trkpt>
      <trkpt lat="45.986350" lon="6.952000">
        <ele>2193.0</ele>
        <time>2014-08-30T15:10:09Z</time>
      </trkpt>
      <trkpt lat="45.986317" lon="6.952100">
        <ele>2197.0</ele>
        <time>2014-08-30T15:10:10Z</time>
      </trkpt>
      <trkpt lat="45.986300" lon="6.952200">
        <ele>2200.0</ele>
        <time>2014-08-30T15:10:11Z</time>
      </trkpt>
      <trkpt lat="45.986300" lon="6.952283">
        <ele>2202.0</ele>
        <time>2014-08-30T15:10:12Z</time>
      </trkpt>
      <trkpt lat="45.986283" lon="6.952367">
        <ele>2202.0</ele>
        <time>2014-08-30T15:10:13Z</time>
      </trkpt>
      <trkpt lat="45.986250" lon="6.952467">
        <ele>2201.0</ele>
        <time>2014-08-30T15:10:14Z</time>
      </trkpt>
      <trkpt lat="45.986200" lon="6.952583">
        <ele>2201.0</ele>
        <time>2014-08-30T15:10:15Z</time>
      </trkpt>
      <trkpt lat="45.986150" lon="6.952667">
        <ele>2203.0</ele>
        <time>2014-08-30T15:10:16Z</time>
      </trkpt>
      <trkpt lat="45.986100" lon="6.952717">
        <ele>2205.0</ele>
        <time>2014-08-30T15:10:17Z</time>
      </trkpt>
      <trkpt lat="45.986050" lon="6.952733">
        <ele>2205.0</ele>
        <time>2014-08-30T15:10:18Z</time>
      </trkpt>
      <trkpt lat="45.985983" lon="6.952750">
        <ele>2205.0</ele>
        <time>2014-08-30T15:10:19Z</time>
      </trkpt>
      <trkpt lat="45.985933" lon="6.952783">
        <ele>2205.0</ele>
        <time>2014-08-30T15:10:20Z</time>
      </trkpt>
      <trkpt lat="45.985867" lon="6.952850">
        <ele>2205.0</ele>
        <time>2014-08-30T15:10:21Z</time>
      </trkpt>
      <trkpt lat="45.985800" lon="6.952900">
        <ele>2205.0</ele>
        <time>2014-08-30T15:10:22Z</time>
      </trkpt>
      <trkpt lat="45.985750" lon="6.952917">
        <ele>2204.0</ele>
        <time>2014-08-30T15:10:23Z</time>
      </trkpt>
      <trkpt lat="45.985683" lon="6.952933">
        <ele>2203.0</ele>
        <time>2014-08-30T15:10:24Z</time>
      </trkpt>
      <trkpt lat="45.985617" lon="6.952950">
        <ele>2203.0</ele>
        <time>2014-08-30T15:10:25Z</time>
      </trkpt>
      <trkpt lat="45.985550" lon="6.952983">
        <ele>2203.0</ele>
        <time>2014-08-30T15:10:26Z</time>
      </trkpt>
      <trkpt lat="45.985483" lon="6.953017">
        <ele>2204.0</ele>
        <time>2014-08-30T15:10:27Z</time>
      </trkpt>
      <trkpt lat="45.985433" lon="6.953033">
        <ele>2204.0</ele>
        <time>2014-08-30T15:10:28Z</time>
      </trkpt>
      <trkpt lat="45.985367" lon="6.953050">
        <ele>2205.0</ele>
        <time>2014-08-30T15:10:29Z</time>
      </trkpt>
      <trkpt lat="45.985300" lon="6.953067">
        <ele>2205.0</ele>
        <time>2014-08-30T15:10:30Z</time>
      </trkpt>
      <trkpt lat="45.985233" lon="6.953083">
        <ele>2206.0</ele>
        <time>2014-08-30T15:10:31Z</time>
      </trkpt>
      <trkpt lat="45.985167" lon="6.953117">
        <ele>2208.0</ele>
        <time>2014-08-30T15:10:32Z</time>
      </trkpt>
      <trkpt lat="45.985100" lon="6.953150">
        <ele>2210.0</ele>
        <time>2014-08-30T15:10:33Z</time>
      </trkpt>
      <trkpt lat="45.985050" lon="6.953167">
        <ele>2212.0</ele>
        <time>2014-08-30T15:10:34Z</time>
      </trkpt>
      <trkpt lat="45.984983" lon="6.953200">
        <ele>2214.0</ele>
        <time>2014-08-30T15:10:35Z</time>
      </trkpt>
      <trkpt lat="45.984917" lon="6.953233">
        <ele>2216.0</ele>
        <time>2014-08-30T15:10:36Z</time>
      </trkpt>
      <trkpt lat="45.984850" lon="6.953300">
        <ele>2218.0</ele>
        <time>2014-08-30T15:10:37Z</time>
      </trkpt>
      <trkpt lat="45.984800" lon="6.953367">
        <ele>2220.0</ele>
        <time>2014-08-30T15:10:38Z</time>
      </trkpt>
      <trkpt lat="45.984733" lon="6.953417">
        <ele>2223.0</ele>
        <time>2014-08-30T15:10:39Z</time>
      </trkpt>
      <trkpt lat="45.984700" lon="6.953483">
        <ele>2225.0</ele>
        <time>2014-08-30T15:10:40Z</time>
      </trkpt>
      <trkpt lat="45.984650" lon="6.953550">
        <ele>2227.0</ele>
        <time>2014-08-30T15:10:41Z</time>
      </trkpt>
      <trkpt lat="45.984600" lon="6.953650">
        <ele>2228.0</ele>
        <time>2014-08-30T15:10:42Z</time>
      </trkpt>
      <trkpt lat="45.984550" lon="6.953767">
        <ele>2229.0</ele>
        <time>2014-08-30T15:10:43Z</time>
      </trkpt>
      <trkpt lat="45.984500" lon="6.953900">
        <ele>2232.0</ele>
        <time>2014-08-30T15:10:44Z</time>
      </trkpt>
      <trkpt lat="45.984450" lon="6.954017">
        <ele>2236.0</ele>
        <time>2014-08-30T15:10:45Z</time>
      </trkpt>
      <trkpt lat="45.984400" lon="6.954117">
        <ele>2239.0</ele>
        <time>2014-08-30T15:10:46Z</time>
      </trkpt>
      <trkpt lat="45.984350" lon="6.954200">
        <ele>2242.0</ele>
        <time>2014-08-30T15:10:47Z</time>
      </trkpt>
      <trkpt lat="45.984283" lon="6.954267">
        <ele>2244.0</ele>
        <time>2014-08-30T15:10:48Z</time>
      </trkpt>
      <trkpt lat="45.984217" lon="6.954350">
        <ele>2246.0</ele>
        <time>2014-08-30T15:10:49Z</time>
      </trkpt>
      <trkpt lat="45.984150" lon="6.954433">
        <ele>2249.0</ele>
        <time>2014-08-30T15:10:50Z</time>
      </trkpt>
      <trkpt lat="45.984083" lon="6.954533">
        <ele>2254.0</ele>
        <time>2014-08-30T15:10:51Z</time>
      </trkpt>
      <trkpt lat="45.984033" lon="6.954617">
        <ele>2258.0</ele>
        <time>2014-08-30T15:10:52Z</time>
      </trkpt>
      <trkpt lat="45.983983" lon="6.954717">
        <ele>2260.0</ele>
        <time>2014-08-30T15:10:53Z</time>
      </trkpt>
      <trkpt lat="45.983933" lon="6.954800">
        <ele>2263.0</ele>
        <time>2014-08-30T15:10:54Z</time>
      </trkpt>
      <trkpt lat="45.983867" lon="6.954917">
        <ele>2264.0</ele>
        <time>2014-08-30T15:10:55Z</time>
      </trkpt>
      <trkpt lat="45.983783" lon="6.955000">
        <ele>2266.0</ele>
        <time>2014-08-30T15:10:56Z</time>
      </trkpt>
      <trkpt lat="45.983700" lon="6.955033">
        <ele>2269.0</ele>
        <time>2014-08-30T15:10:57Z</time>
      </trkpt>
      <trkpt lat="45.983633" lon="6.955033">
        <ele>2271.0</ele>
        <time>2014-08-30T15:10:58Z</time>
      </trkpt>
      <trkpt lat="45.983583" lon="6.955000">
        <ele>2271.0</ele>
        <time>2014-08-30T15:10:59Z</time>
      </trkpt>
      <trkpt lat="45.983550" lon="6.954967">
        <ele>2271.0</ele>
        <time>2014-08-30T15:11:00Z</time>
      </trkpt>
      <trkpt lat="45.983517" lon="6.954917">
        <ele>2271.0</ele>
        <time>2014-08-30T15:11:01Z</time>
      </trkpt>
      <trkpt lat="45.983500" lon="6.954850">
        <ele>2270.0</ele>
        <time>2014-08-30T15:11:02Z</time>
      </trkpt>
      <trkpt lat="45.983517" lon="6.954767">
        <ele>2269.0</ele>
        <time>2014-08-30T15:11:03Z</time>
      </trkpt>
      <trkpt lat="45.983550" lon="6.954683">
        <ele>2268.0</ele>
        <time>2014-08-30T15:11:04Z</time>
      </trkpt>
      <trkpt lat="45.983617" lon="6.954617">
        <ele>2267.0</ele>
        <time>2014-08-30T15:11:05Z</time>
      </trkpt>
      <trkpt lat="45.983667" lon="6.954550">
        <ele>2268.0</ele>
        <time>2014-08-30T15:11:06Z</time>
      </trkpt>
      <trkpt lat="45.983733" lon="6.954500">
        <ele>2269.0</ele>
        <time>2014-08-30T15:11:07Z</time>
      </trkpt>
      <trkpt lat="45.983800" lon="6.954450">
        <ele>2270.0</ele>
        <time>2014-08-30T15:11:08Z</time>
      </trkpt>
      <trkpt lat="45.983883" lon="6.954400">
        <ele>2271.0</ele>
        <time>2014-08-30T15:11:09Z</time>
      </trkpt>
      <trkpt lat="45.983967" lon="6.954367">
        <ele>2272.0</ele>
        <time>2014-08-30T15:11:10Z</time>
      </trkpt>
      <trkpt lat="45.984050" lon="6.954333">
        <ele>2273.0</ele>
        <time>2014-08-30T15:11:11Z</time>
      </trkpt>
      <trkpt lat="45.984117" lon="6.954300">
        <ele>2274.0</ele>
        <time>2014-08-30T15:11:12Z</time>
      </trkpt>
      <trkpt lat="45.984183" lon="6.954250">
        <ele>2275.0</ele>
        <time>2014-08-30T15:11:13Z</time>
      </trkpt>
      <trkpt lat="45.984250" lon="6.954183">
        <ele>2276.0</ele>
        <time>2014-08-30T15:11:14Z</time>
      </trkpt>
      <trkpt lat="45.984317" lon="6.954150">
        <ele>2277.0</ele>
        <time>2014-08-30T15:11:15Z</time>
      </trkpt>
      <trkpt lat="45.984383" lon="6.954100">
        <ele>2278.0</ele>
        <time>2014-08-30T15:11:16Z</time>
      </trkpt>
      <trkpt lat="45.984467" lon="6.954067">
        <ele>2279.0</ele>
        <time>2014-08-30T15:11:17Z</time>
      </trkpt>
      <trkpt lat="45.984533" lon="6.954017">
        <ele>2279.0</ele>
        <time>2014-08-30T15:11:18Z</time>
      </trkpt>
      <trkpt lat="45.984600" lon="6.953983">
        <ele>2281.0</ele>
        <time>2014-08-30T15:11:19Z</time>
      </trkpt>
      <trkpt lat="45.984667" lon="6.953933">
        <ele>2281.0</ele>
        <time>2014-08-30T15:11:20Z</time>
      </trkpt>
      <trkpt lat="45.984750" lon="6.953900">
        <ele>2282.0</ele>
        <time>2014-08-30T15:11:21Z</time>
      </trkpt>
      <trkpt lat="45.984833" lon="6.953850">
        <ele>2282.0</ele>
        <time>2014-08-30T15:11:22Z</time>
      </trkpt>
      <trkpt lat="45.984917" lon="6.953817">
        <ele>2283.0</ele>
        <time>2014-08-30T15:11:23Z</time>
      </trkpt>
      <trkpt lat="45.985000" lon="6.953800">
        <ele>2285.0</ele>
        <time>2014-08-30T15:11:24Z</time>
      </trkpt>
      <trkpt lat="45.985100" lon="6.953800">
        <ele>2286.0</ele>
        <time>2014-08-30T15:11:25Z</time>
      </trkpt>
      <trkpt lat="45.985200" lon="6.953800">
        <ele>2287.0</ele>
        <time>2014-08-30T15:11:26Z</time>
      </trkpt>
      <trkpt lat="45.985283" lon="6.953800">
        <ele>2288.0</ele>
        <time>2014-08-30T15:11:27Z</time>
      </trkpt>
      <trkpt lat="45.985367" lon="6.953767">
        <ele>2289.0</ele>
        <time>2014-08-30T15:11:28Z</time>
      </trkpt>
      <trkpt lat="45.985467" lon="6.953750">
        <ele>2290.0</ele>
        <time>2014-08-30T15:11:29Z</time>
      </trkpt>
      <trkpt lat="45.985550" lon="6.953700">
        <ele>2291.0</ele>
        <time>2014-08-30T15:11:30Z</time>
      </trkpt>
      <trkpt lat="45.985633" lon="6.953650">
        <ele>2293.0</ele>
        <time>2014-08-30T15:11:31Z</time>
      </trkpt>
      <trkpt lat="45.985700" lon="6.953600">
        <ele>2294.0</ele>
        <time>2014-08-30T15:11:32Z</time>
      </trkpt>
      <trkpt lat="45.985767" lon="6.953550">
        <ele>2295.0</ele>
        <time>2014-08-30T15:11:33Z</time>
      </trkpt>
      <trkpt lat="45.985833" lon="6.953500">
        <ele>2295.0</ele>
        <time>2014-08-30T15:11:34Z</time>
      </trkpt>
      <trkpt lat="45.985900" lon="6.953433">
        <ele>2295.0</ele>
        <time>2014-08-30T15:11:35Z</time>
      </trkpt>
      <trkpt lat="45.985967" lon="6.953383">
        <ele>2295.0</ele>
        <time>2014-08-30T15:11:36Z</time>
      </trkpt>
      <trkpt lat="45.986050" lon="6.953317">
        <ele>2295.0</ele>
        <time>2014-08-30T15:11:37Z</time>
      </trkpt>
      <trkpt lat="45.986133" lon="6.953283">
        <ele>2295.0</ele>
        <time>2014-08-30T15:11:38Z</time>
      </trkpt>
      <trkpt lat="45.986217" lon="6.953250">
        <ele>2296.0</ele>
        <time>2014-08-30T15:11:39Z</time>
      </trkpt>
      <trkpt lat="45.986300" lon="6.953217">
        <ele>2296.0</ele>
        <time>2014-08-30T15:11:40Z</time>
      </trkpt>
      <trkpt lat="45.986383" lon="6.953183">
        <ele>2296.0</ele>
        <time>2014-08-30T15:11:41Z</time>
      </trkpt>
      <trkpt lat="45.986450" lon="6.953133">
        <ele>2296.0</ele>
        <time>2014-08-30T15:11:42Z</time>
      </trkpt>
      <trkpt lat="45.986517" lon="6.953067">
        <ele>2297.0</ele>
        <time>2014-08-30T15:11:43Z</time>
      </trkpt>
      <trkpt lat="45.986567" lon="6.953000">
        <ele>2297.0</ele>
        <time>2014-08-30T15:11:44Z</time>
      </trkpt>
      <trkpt lat="45.986567" lon="6.952933">
        <ele>2299.0</ele>
        <time>2014-08-30T15:11:45Z</time>
      </trkpt>
      <trkpt lat="45.986550" lon="6.952883">
        <ele>2300.0</ele>
        <time>2014-08-30T15:11:46Z</time>
      </trkpt>
      <trkpt lat="45.986500" lon="6.952867">
        <ele>2301.0</ele>
        <time>2014-08-30T15:11:47Z</time>
      </trkpt>
      <trkpt lat="45.986433" lon="6.952900">
        <ele>2301.0</ele>
        <time>2014-08-30T15:11:48Z</time>
      </trkpt>
      <trkpt lat="45.986383" lon="6.952967">
        <ele>2302.0</ele>
        <time>2014-08-30T15:11:49Z</time>
      </trkpt>
      <trkpt lat="45.986333" lon="6.953067">
        <ele>2303.0</ele>
        <time>2014-08-30T15:11:50Z</time>
      </trkpt>
      <trkpt lat="45.986283" lon="6.953167">
        <ele>2304.0</ele>
        <time>2014-08-30T15:11:51Z</time>
      </trkpt>
      <trkpt lat="45.986250" lon="6.953250">
        <ele>2304.0</ele>
        <time>2014-08-30T15:11:52Z</time>
      </trkpt>
      <trkpt lat="45.986200" lon="6.953333">
        <ele>2305.0</ele>
        <time>2014-08-30T15:11:53Z</time>
      </trkpt>
      <trkpt lat="45.986150" lon="6.953433">
        <ele>2304.0</ele>
        <time>2014-08-30T15:11:54Z</time>
      </trkpt>
      <trkpt lat="45.986100" lon="6.953517">
        <ele>2304.0</ele>
        <time>2014-08-30T15:11:55Z</time>
      </trkpt>
      <trkpt lat="45.986033" lon="6.953583">
        <ele>2304.0</ele>
        <time>2014-08-30T15:11:56Z</time>
      </trkpt>
      <trkpt lat="45.985983" lon="6.953617">
        <ele>2304.0</ele>
        <time>2014-08-30T15:11:57Z</time>
      </trkpt>
      <trkpt lat="45.985917" lon="6.953633">
        <ele>2305.0</ele>
        <time>2014-08-30T15:11:58Z</time>
      </trkpt>
      <trkpt lat="45.985867" lon="6.953667">
        <ele>2305.0</ele>
        <time>2014-08-30T15:11:59Z</time>
      </trkpt>
      <trkpt lat="45.985817" lon="6.953683">
        <ele>2306.0</ele>
        <time>2014-08-30T15:12:00Z</time>
      </trkpt>
      <trkpt lat="45.985750" lon="6.953733">
        <ele>2306.0</ele>
        <time>2014-08-30T15:12:01Z</time>
      </trkpt>
      <trkpt lat="45.985700" lon="6.953767">
        <ele>2306.0</ele>
        <time>2014-08-30T15:12:02Z</time>
      </trkpt>
      <trkpt lat="45.985650" lon="6.953833">
        <ele>2306.0</ele>
        <time>2014-08-30T15:12:03Z</time>
      </trkpt>
      <trkpt lat="45.985583" lon="6.953900">
        <ele>2306.0</ele>
        <time>2014-08-30T15:12:04Z</time>
      </trkpt>
      <trkpt lat="45.985517" lon="6.953983">
        <ele>2306.0</ele>
        <time>2014-08-30T15:12:05Z</time>
      </trkpt>
      <trkpt lat="45.985450" lon="6.954050">
        <ele>2307.0</ele>
        <time>2014-08-30T15:12:06Z</time>
      </trkpt>
      <trkpt lat="45.985400" lon="6.954100">
        <ele>2308.0</ele>
        <time>2014-08-30T15:12:07Z</time>
      </trkpt>
      <trkpt lat="45.985333" lon="6.954150">
        <ele>2308.0</ele>
        <time>2014-08-30T15:12:08Z</time>
      </trkpt>
      <trkpt lat="45.985283" lon="6.954217">
        <ele>2308.0</ele>
        <time>2014-08-30T15:12:09Z</time>
      </trkpt>
      <trkpt lat="45.985233" lon="6.954300">
        <ele>2308.0</ele>
        <time>2014-08-30T15:12:10Z</time>
      </trkpt>
      <trkpt lat="45.985167" lon="6.954383">
        <ele>2308.0</ele>
        <time>2014-08-30T15:12:11Z</time>
      </trkpt>
      <trkpt lat="45.985100" lon="6.954450">
        <ele>2308.0</ele>
        <time>2014-08-30T15:12:12Z</time>
      </trkpt>
      <trkpt lat="45.985033" lon="6.954533">
        <ele>2308.0</ele>
        <time>2014-08-30T15:12:13Z</time>
      </trkpt>
      <trkpt lat="45.984983" lon="6.954600">
        <ele>2309.0</ele>
        <time>2014-08-30T15:12:14Z</time>
      </trkpt>
      <trkpt lat="45.984933" lon="6.954683">
        <ele>2310.0</ele>
        <time>2014-08-30T15:12:15Z</time>
      </trkpt>
      <trkpt lat="45.984867" lon="6.954767">
        <ele>2310.0</ele>
        <time>2014-08-30T15:12:16Z</time>
      </trkpt>
      <trkpt lat="45.984817" lon="6.954867">
        <ele>2310.0</ele>
        <time>2014-08-30T15:12:17Z</time>
      </trkpt>
      <trkpt lat="45.984767" lon="6.954967">
        <ele>2309.0</ele>
        <time>2014-08-30T15:12:18Z</time>
      </trkpt>
      <trkpt lat="45.984700" lon="6.955067">
        <ele>2309.0</ele>
        <time>2014-08-30T15:12:19Z</time>
      </trkpt>
      <trkpt lat="45.984650" lon="6.955167">
        <ele>2310.0</ele>
        <time>2014-08-30T15:12:20Z</time>
      </trkpt>
      <trkpt lat="45.984600" lon="6.955267">
        <ele>2310.0</ele>
        <time>2014-08-30T15:12:21Z</time>
      </trkpt>
      <trkpt lat="45.984550" lon="6.955350">
        <ele>2310.0</ele>
        <time>2014-08-30T15:12:22Z</time>
      </trkpt>
      <trkpt lat="45.984483" lon="6.955400">
        <ele>2309.0</ele>
        <time>2014-08-30T15:12:23Z</time>
      </trkpt>
      <trkpt lat="45.984400" lon="6.955400">
        <ele>2308.0</ele>
        <time>2014-08-30T15:12:24Z</time>
      </trkpt>
      <trkpt lat="45.984350" lon="6.955350">
        <ele>2307.0</ele>
        <time>2014-08-30T15:12:25Z</time>
      </trkpt>
      <trkpt lat="45.984300" lon="6.955283">
        <ele>2307.0</ele>
        <time>2014-08-30T15:12:26Z</time>
      </trkpt>
      <trkpt lat="45.984300" lon="6.955183">
        <ele>2308.0</ele>
        <time>2014-08-30T15:12:27Z</time>
      </trkpt>
      <trkpt lat="45.984300" lon="6.955100">
        <ele>2309.0</ele>
        <time>2014-08-30T15:12:28Z</time>
      </trkpt>
      <trkpt lat="45.984333" lon="6.955033">
        <ele>2310.0</ele>
        <time>2014-08-30T15:12:29Z</time>
      </trkpt>
      <trkpt lat="45.984383" lon="6.954967">
        <ele>2310.0</ele>
        <time>2014-08-30T15:12:30Z</time>
      </trkpt>
      <trkpt lat="45.984450" lon="6.954917">
        <ele>2310.0</ele>
        <time>2014-08-30T15:12:31Z</time>
      </trkpt>
      <trkpt lat="45.984517" lon="6.954867">
        <ele>2310.0</ele>
        <time>2014-08-30T15:12:32Z</time>
      </trkpt>
      <trkpt lat="45.984600" lon="6.954817">
        <ele>2310.0</ele>
        <time>2014-08-30T15:12:33Z</time>
      </trkpt>
      <trkpt lat="45.984667" lon="6.954750">
        <ele>2309.0</ele>
        <time>2014-08-30T15:12:34Z</time>
      </trkpt>
      <trkpt lat="45.984733" lon="6.954683">
        <ele>2309.0</ele>
        <time>2014-08-30T15:12:35Z</time>
      </trkpt>
      <trkpt lat="45.984817" lon="6.954617">
        <ele>2309.0</ele>
        <time>2014-08-30T15:12:36Z</time>
      </trkpt>
      <trkpt lat="45.984883" lon="6.954567">
        <ele>2310.0</ele>
        <time>2014-08-30T15:12:37Z</time>
      </trkpt>
      <trkpt lat="45.984967" lon="6.954533">
        <ele>2310.0</ele>
        <time>2014-08-30T15:12:38Z</time>
      </trkpt>
      <trkpt lat="45.985050" lon="6.954517">
        <ele>2310.0</ele>
        <time>2014-08-30T15:12:39Z</time>
      </trkpt>
      <trkpt lat="45.985133" lon="6.954483">
        <ele>2309.0</ele>
        <time>2014-08-30T15:12:40Z</time>
      </trkpt>
      <trkpt lat="45.985217" lon="6.954450">
        <ele>2309.0</ele>
        <time>2014-08-30T15:12:41Z</time>
      </trkpt>
      <trkpt lat="45.985283" lon="6.954400">
        <ele>2309.0</ele>
        <time>2014-08-30T15:12:42Z</time>
      </trkpt>
      <trkpt lat="45.985317" lon="6.954350">
        <ele>2309.0</ele>
        <time>2014-08-30T15:12:43Z</time>
      </trkpt>
      <trkpt lat="45.985367" lon="6.954283">
        <ele>2307.0</ele>
        <time>2014-08-30T15:12:44Z</time>
      </trkpt>
      <trkpt lat="45.985400" lon="6.954183">
        <ele>2306.0</ele>
        <time>2014-08-30T15:12:45Z</time>
      </trkpt>
      <trkpt lat="45.985450" lon="6.954083">
        <ele>2307.0</ele>
        <time>2014-08-30T15:12:46Z</time>
      </trkpt>
      <trkpt lat="45.985467" lon="6.953983">
        <ele>2310.0</ele>
        <time>2014-08-30T15:12:47Z</time>
      </trkpt>
      <trkpt lat="45.985467" lon="6.953917">
        <ele>2313.0</ele>
        <time>2014-08-30T15:12:48Z</time>
      </trkpt>
      <trkpt lat="45.985450" lon="6.953867">
        <ele>2316.0</ele>
        <time>2014-08-30T15:12:49Z</time>
      </trkpt>
      <trkpt lat="45.985417" lon="6.953817">
        <ele>2319.0</ele>
        <time>2014-08-30T15:12:50Z</time>
      </trkpt>
      <trkpt lat="45.985400" lon="6.953767">
        <ele>2322.0</ele>
        <time>2014-08-30T15:12:51Z</time>
      </trkpt>
      <trkpt lat="45.985383" lon="6.953717">
        <ele>2326.0</ele>
        <time>2014-08-30T15:12:52Z</time>
      </trkpt>
      <trkpt lat="45.985367" lon="6.953683">
        <ele>2329.0</ele>
        <time>2014-08-30T15:12:53Z</time>
      </trkpt>
      <trkpt lat="45.985350" lon="6.953667">
        <ele>2331.0</ele>
        <time>2014-08-30T15:12:54Z</time>
      </trkpt>
      <trkpt lat="45.985333" lon="6.953633">
        <ele>2332.0</ele>
        <time>2014-08-30T15:12:55Z</time>
      </trkpt>
      <trkpt lat="45.985300" lon="6.953600">
        <ele>2331.0</ele>
        <time>2014-08-30T15:12:56Z</time>
      </trkpt>
      <trkpt lat="45.985250" lon="6.953550">
        <ele>2331.0</ele>
        <time>2014-08-30T15:12:57Z</time>
      </trkpt>
      <trkpt lat="45.985200" lon="6.953517">
        <ele>2332.0</ele>
        <time>2014-08-30T15:12:58Z</time>
      </trkpt>
      <trkpt lat="45.985150" lon="6.953483">
        <ele>2334.0</ele>
        <time>2014-08-30T15:12:59Z</time>
      </trkpt>
      <trkpt lat="45.985100" lon="6.953450">
        <ele>2335.0</ele>
        <time>2014-08-30T15:13:00Z</time>
      </trkpt>
      <trkpt lat="45.985067" lon="6.953383">
        <ele>2337.0</ele>
        <time>2014-08-30T15:13:01Z</time>
      </trkpt>
      <trkpt lat="45.985033" lon="6.953317">
        <ele>2338.0</ele>
        <time>2014-08-30T15:13:02Z</time>
      </trkpt>
      <trkpt lat="45.985000" lon="6.953250">
        <ele>2340.0</ele>
        <time>2014-08-30T15:13:03Z</time>
      </trkpt>
      <trkpt lat="45.984967" lon="6.953183">
        <ele>2341.0</ele>
        <time>2014-08-30T15:13:04Z</time>
      </trkpt>
      <trkpt lat="45.984917" lon="6.953133">
        <ele>2342.0</ele>
        <time>2014-08-30T15:13:05Z</time>
      </trkpt>
      <trkpt lat="45.984867" lon="6.953083">
        <ele>2343.0</ele>
        <time>2014-08-30T15:13:06Z</time>
      </trkpt>
      <trkpt lat="45.984817" lon="6.953033">
        <ele>2343.0</ele>
        <time>2014-08-30T15:13:07Z</time>
      </trkpt>
      <trkpt lat="45.984767" lon="6.952967">
        <ele>2343.0</ele>
        <time>2014-08-30T15:13:08Z</time>
      </trkpt>
      <trkpt lat="45.984733" lon="6.952900">
        <ele>2343.0</ele>
        <time>2014-08-30T15:13:09Z</time>
      </trkpt>
      <trkpt lat="45.984683" lon="6.952833">
        <ele>2343.0</ele>
        <time>2014-08-30T15:13:10Z</time>
      </trkpt>
      <trkpt lat="45.984633" lon="6.952767">
        <ele>2342.0</ele>
        <time>2014-08-30T15:13:11Z</time>
      </trkpt>
      <trkpt lat="45.984583" lon="6.952717">
        <ele>2343.0</ele>
        <time>2014-08-30T15:13:12Z</time>
      </trkpt>
      <trkpt lat="45.984550" lon="6.952650">
        <ele>2342.0</ele>
        <time>2014-08-30T15:13:13Z</time>
      </trkpt>
      <trkpt lat="45.984517" lon="6.952583">
        <ele>2342.0</ele>
        <time>2014-08-30T15:13:14Z</time>
      </trkpt>
      <trkpt lat="45.984483" lon="6.952483">
        <ele>2340.0</ele>
        <time>2014-08-30T15:13:15Z</time>
      </trkpt>
      <trkpt lat="45.984450" lon="6.952383">
        <ele>2340.0</ele>
        <time>2014-08-30T15:13:16Z</time>
      </trkpt>
      <trkpt lat="45.984450" lon="6.952283">
        <ele>2341.0</ele>
        <time>2014-08-30T15:13:17Z</time>
      </trkpt>
      <trkpt lat="45.984450" lon="6.952200">
        <ele>2341.0</ele>
        <time>2014-08-30T15:13:18Z</time>
      </trkpt>
      <trkpt lat="45.984467" lon="6.952100">
        <ele>2340.0</ele>
        <time>2014-08-30T15:13:19Z</time>
      </trkpt>
      <trkpt lat="45.984467" lon="6.952000">
        <ele>2338.0</ele>
        <time>2014-08-30T15:13:20Z</time>
      </trkpt>
      <trkpt lat="45.984467" lon="6.951883">
        <ele>2337.0</ele>
        <time>2014-08-30T15:13:21Z</time>
      </trkpt>
      <trkpt lat="45.984467" lon="6.951783">
        <ele>2336.0</ele>
        <time>2014-08-30T15:13:22Z</time>
      </trkpt>
      <trkpt lat="45.984450" lon="6.951667">
        <ele>2336.0</ele>
        <time>2014-08-30T15:13:23Z</time>
      </trkpt>
      <trkpt lat="45.984433" lon="6.951583">
        <ele>2337.0</ele>
        <time>2014-08-30T15:13:24Z</time>
      </trkpt>
      <trkpt lat="45.984400" lon="6.951517">
        <ele>2336.0</ele>
        <time>2014-08-30T15:13:25Z</time>
      </trkpt>
      <trkpt lat="45.984383" lon="6.951433">
        <ele>2335.0</ele>
        <time>2014-08-30T15:13:26Z</time>
      </trkpt>
      <trkpt lat="45.984350" lon="6.951350">
        <ele>2335.0</ele>
        <time>2014-08-30T15:13:27Z</time>
      </trkpt>
      <trkpt lat="45.984333" lon="6.951250">
        <ele>2335.0</ele>
        <time>2014-08-30T15:13:28Z</time>
      </trkpt>
      <trkpt lat="45.984317" lon="6.951167">
        <ele>2336.0</ele>
        <time>2014-08-30T15:13:29Z</time>
      </trkpt>
      <trkpt lat="45.984333" lon="6.951067">
        <ele>2337.0</ele>
        <time>2014-08-30T15:13:30Z</time>
      </trkpt>
      <trkpt lat="45.984367" lon="6.950983">
        <ele>2336.0</ele>
        <time>2014-08-30T15:13:31Z</time>
      </trkpt>
      <trkpt lat="45.984417" lon="6.950883">
        <ele>2335.0</ele>
        <time>2014-08-30T15:13:32Z</time>
      </trkpt>
      <trkpt lat="45.984467" lon="6.950783">
        <ele>2335.0</ele>
        <time>2014-08-30T15:13:33Z</time>
      </trkpt>
      <trkpt lat="45.984533" lon="6.950683">
        <ele>2335.0</ele>
        <time>2014-08-30T15:13:34Z</time>
      </trkpt>
      <trkpt lat="45.984617" lon="6.950600">
        <ele>2336.0</ele>
        <time>2014-08-30T15:13:35Z</time>
      </trkpt>
      <trkpt lat="45.984700" lon="6.950533">
        <ele>2337.0</ele>
        <time>2014-08-30T15:13:36Z</time>
      </trkpt>
      <trkpt lat="45.984783" lon="6.950483">
        <ele>2338.0</ele>
        <time>2014-08-30T15:13:37Z</time>
      </trkpt>
      <trkpt lat="45.984850" lon="6.950433">
        <ele>2339.0</ele>
        <time>2014-08-30T15:13:38Z</time>
      </trkpt>
      <trkpt lat="45.984933" lon="6.950383">
        <ele>2339.0</ele>
        <time>2014-08-30T15:13:39Z</time>
      </trkpt>
      <trkpt lat="45.985017" lon="6.950350">
        <ele>2338.0</ele>
        <time>2014-08-30T15:13:40Z</time>
      </trkpt>
      <trkpt lat="45.985117" lon="6.950317">
        <ele>2337.0</ele>
        <time>2014-08-30T15:13:41Z</time>
      </trkpt>
      <trkpt lat="45.985233" lon="6.950283">
        <ele>2336.0</ele>
        <time>2014-08-30T15:13:42Z</time>
      </trkpt>
      <trkpt lat="45.985333" lon="6.950250">
        <ele>2336.0</ele>
        <time>2014-08-30T15:13:43Z</time>
      </trkpt>
      <trkpt lat="45.985433" lon="6.950233">
        <ele>2336.0</ele>
        <time>2014-08-30T15:13:44Z</time>
      </trkpt>
      <trkpt lat="45.985533" lon="6.950233">
        <ele>2336.0</ele>
        <time>2014-08-30T15:13:45Z</time>
      </trkpt>
      <trkpt lat="45.985633" lon="6.950217">
        <ele>2335.0</ele>
        <time>2014-08-30T15:13:46Z</time>
      </trkpt>
      <trkpt lat="45.985750" lon="6.950217">
        <ele>2334.0</ele>
        <time>2014-08-30T15:13:47Z</time>
      </trkpt>
      <trkpt lat="45.985850" lon="6.950217">
        <ele>2333.0</ele>
        <time>2014-08-30T15:13:48Z</time>
      </trkpt>
      <trkpt lat="45.985950" lon="6.950217">
        <ele>2333.0</ele>
        <time>2014-08-30T15:13:49Z</time>
      </trkpt>
      <trkpt lat="45.986050" lon="6.950200">
        <ele>2332.0</ele>
        <time>2014-08-30T15:13:50Z</time>
      </trkpt>
      <trkpt lat="45.986150" lon="6.950183">
        <ele>2331.0</ele>
        <time>2014-08-30T15:13:51Z</time>
      </trkpt>
      <trkpt lat="45.986250" lon="6.950150">
        <ele>2329.0</ele>
        <time>2014-08-30T15:13:52Z</time>
      </trkpt>
      <trkpt lat="45.986367" lon="6.950117">
        <ele>2328.0</ele>
        <time>2014-08-30T15:13:53Z</time>
      </trkpt>
      <trkpt lat="45.986467" lon="6.950083">
        <ele>2328.0</ele>
        <time>2014-08-30T15:13:54Z</time>
      </trkpt>
      <trkpt lat="45.986550" lon="6.950050">
        <ele>2328.0</ele>
        <time>2014-08-30T15:13:55Z</time>
      </trkpt>
      <trkpt lat="45.986650" lon="6.950017">
        <ele>2328.0</ele>
        <time>2014-08-30T15:13:56Z</time>
      </trkpt>
      <trkpt lat="45.986733" lon="6.949967">
        <ele>2327.0</ele>
        <time>2014-08-30T15:13:57Z</time>
      </trkpt>
      <trkpt lat="45.986833" lon="6.949917">
        <ele>2326.0</ele>
        <time>2014-08-30T15:13:58Z</time>
      </trkpt>
      <trkpt lat="45.986917" lon="6.949867">
        <ele>2325.0</ele>
        <time>2014-08-30T15:13:59Z</time>
      </trkpt>
      <trkpt lat="45.987000" lon="6.949833">
        <ele>2323.0</ele>
        <time>2014-08-30T15:14:00Z</time>
      </trkpt>
      <trkpt lat="45.987100" lon="6.949800">
        <ele>2322.0</ele>
        <time>2014-08-30T15:14:01Z</time>
      </trkpt>
      <trkpt lat="45.987200" lon="6.949767">
        <ele>2320.0</ele>
        <time>2014-08-30T15:14:02Z</time>
      </trkpt>
      <trkpt lat="45.987300" lon="6.949733">
        <ele>2318.0</ele>
        <time>2014-08-30T15:14:03Z</time>
      </trkpt>
      <trkpt lat="45.987400" lon="6.949700">
        <ele>2317.0</ele>
        <time>2014-08-30T15:14:04Z</time>
      </trkpt>
      <trkpt lat="45.987517" lon="6.949683">
        <ele>2316.0</ele>
        <time>2014-08-30T15:14:05Z</time>
      </trkpt>
      <trkpt lat="45.987617" lon="6.949667">
        <ele>2314.0</ele>
        <time>2014-08-30T15:14:06Z</time>
      </trkpt>
      <trkpt lat="45.987717" lon="6.949633">
        <ele>2312.0</ele>
        <time>2014-08-30T15:14:07Z</time>
      </trkpt>
      <trkpt lat="45.987817" lon="6.949567">
        <ele>2310.0</ele>
        <time>2014-08-30T15:14:08Z</time>
      </trkpt>
      <trkpt lat="45.987933" lon="6.949517">
        <ele>2308.0</ele>
        <time>2014-08-30T15:14:09Z</time>
      </trkpt>
      <trkpt lat="45.988050" lon="6.949483">
        <ele>2308.0</ele>
        <time>2014-08-30T15:14:10Z</time>
      </trkpt>
      <trkpt lat="45.988167" lon="6.949467">
        <ele>2307.0</ele>
        <time>2014-08-30T15:14:11Z</time>
      </trkpt>
      <trkpt lat="45.988267" lon="6.949450">
        <ele>2307.0</ele>
        <time>2014-08-30T15:14:12Z</time>
      </trkpt>
      <trkpt lat="45.988383" lon="6.949433">
        <ele>2307.0</ele>
        <time>2014-08-30T15:14:13Z</time>
      </trkpt>
      <trkpt lat="45.988483" lon="6.949400">
        <ele>2305.0</ele>
        <time>2014-08-30T15:14:14Z</time>
      </trkpt>
      <trkpt lat="45.988583" lon="6.949367">
        <ele>2304.0</ele>
        <time>2014-08-30T15:14:15Z</time>
      </trkpt>
      <trkpt lat="45.988700" lon="6.949350">
        <ele>2302.0</ele>
        <time>2014-08-30T15:14:16Z</time>
      </trkpt>
      <trkpt lat="45.988817" lon="6.949350">
        <ele>2301.0</ele>
        <time>2014-08-30T15:14:17Z</time>
      </trkpt>
      <trkpt lat="45.988933" lon="6.949383">
        <ele>2299.0</ele>
        <time>2014-08-30T15:14:18Z</time>
      </trkpt>
      <trkpt lat="45.989033" lon="6.949400">
        <ele>2297.0</ele>
        <time>2014-08-30T15:14:19Z</time>
      </trkpt>
      <trkpt lat="45.989150" lon="6.949433">
        <ele>2295.0</ele>
        <time>2014-08-30T15:14:20Z</time>
      </trkpt>
      <trkpt lat="45.989267" lon="6.949483">
        <ele>2293.0</ele>
        <time>2014-08-30T15:14:21Z</time>
      </trkpt>
      <trkpt lat="45.989383" lon="6.949533">
        <ele>2290.0</ele>
        <time>2014-08-30T15:14:22Z</time>
      </trkpt>
      <trkpt lat="45.989483" lon="6.949600">
        <ele>2287.0</ele>
        <time>2014-08-30T15:14:23Z</time>
      </trkpt>
      <trkpt lat="45.989617" lon="6.949667">
        <ele>2286.0</ele>
        <time>2014-08-30T15:14:24Z</time>
      </trkpt>
      <trkpt lat="45.989733" lon="6.949700">
        <ele>2284.0</ele>
        <time>2014-08-30T15:14:25Z</time>
      </trkpt>
      <trkpt lat="45.989833" lon="6.949717">
        <ele>2282.0</ele>
        <time>2014-08-30T15:14:26Z</time>
      </trkpt>
      <trkpt lat="45.989950" lon="6.949750">
        <ele>2280.0</ele>
        <time>2014-08-30T15:14:27Z</time>
      </trkpt>
      <trkpt lat="45.990050" lon="6.949800">
        <ele>2278.0</ele>
        <time>2014-08-30T15:14:28Z</time>
      </trkpt>
      <trkpt lat="45.990150" lon="6.949850">
        <ele>2275.0</ele>
        <time>2014-08-30T15:14:29Z</time>
      </trkpt>
      <trkpt lat="45.990267" lon="6.949917">
        <ele>2272.0</ele>
        <time>2014-08-30T15:14:30Z</time>
      </trkpt>
      <trkpt lat="45.990383" lon="6.949983">
        <ele>2269.0</ele>
        <time>2014-08-30T15:14:31Z</time>
      </trkpt>
      <trkpt lat="45.990500" lon="6.950050">
        <ele>2266.0</ele>
        <time>2014-08-30T15:14:32Z</time>
      </trkpt>
      <trkpt lat="45.990633" lon="6.950117">
        <ele>2264.0</ele>
        <time>2014-08-30T15:14:33Z</time>
      </trkpt>
      <trkpt lat="45.990750" lon="6.950200">
        <ele>2261.0</ele>
        <time>2014-08-30T15:14:34Z</time>
      </trkpt>
      <trkpt lat="45.990867" lon="6.950267">
        <ele>2259.0</ele>
        <time>2014-08-30T15:14:35Z</time>
      </trkpt>
      <trkpt lat="45.990983" lon="6.950333">
        <ele>2257.0</ele>
        <time>2014-08-30T15:14:36Z</time>
      </trkpt>
      <trkpt lat="45.991100" lon="6.950400">
        <ele>2254.0</ele>
        <time>2014-08-30T15:14:37Z</time>
      </trkpt>
      <trkpt lat="45.991217" lon="6.950467">
        <ele>2251.0</ele>
        <time>2014-08-30T15:14:38Z</time>
      </trkpt>
      <trkpt lat="45.991333" lon="6.950533">
        <ele>2248.0</ele>
        <time>2014-08-30T15:14:39Z</time>
      </trkpt>
      <trkpt lat="45.991450" lon="6.950600">
        <ele>2246.0</ele>
        <time>2014-08-30T15:14:40Z</time>
      </trkpt>
      <trkpt lat="45.991567" lon="6.950667">
        <ele>2244.0</ele>
        <time>2014-08-30T15:14:41Z</time>
      </trkpt>
      <trkpt lat="45.991683" lon="6.950733">
        <ele>2241.0</ele>
        <time>2014-08-30T15:14:42Z</time>
      </trkpt>
      <trkpt lat="45.991783" lon="6.950800">
        <ele>2239.0</ele>
        <time>2014-08-30T15:14:43Z</time>
      </trkpt>
      <trkpt lat="45.991900" lon="6.950883">
        <ele>2236.0</ele>
        <time>2014-08-30T15:14:44Z</time>
      </trkpt>
      <trkpt lat="45.992017" lon="6.950983">
        <ele>2234.0</ele>
        <time>2014-08-30T15:14:45Z</time>
      </trkpt>
      <trkpt lat="45.992117" lon="6.951067">
        <ele>2231.0</ele>
        <time>2014-08-30T15:14:46Z</time>
      </trkpt>
      <trkpt lat="45.992217" lon="6.951167">
        <ele>2229.0</ele>
        <time>2014-08-30T15:14:47Z</time>
      </trkpt>
      <trkpt lat="45.992333" lon="6.951267">
        <ele>2227.0</ele>
        <time>2014-08-30T15:14:48Z</time>
      </trkpt>
      <trkpt lat="45.992433" lon="6.951367">
        <ele>2225.0</ele>
        <time>2014-08-30T15:14:49Z</time>
      </trkpt>
      <trkpt lat="45.992533" lon="6.951467">
        <ele>2222.0</ele>
        <time>2014-08-30T15:14:50Z</time>
      </trkpt>
      <trkpt lat="45.992633" lon="6.951567">
        <ele>2219.0</ele>
        <time>2014-08-30T15:14:51Z</time>
      </trkpt>
      <trkpt lat="45.992733" lon="6.951667">
        <ele>2216.0</ele>
        <time>2014-08-30T15:14:52Z</time>
      </trkpt>
      <trkpt lat="45.992850" lon="6.951783">
        <ele>2213.0</ele>
        <time>2014-08-30T15:14:53Z</time>
      </trkpt>
      <trkpt lat="45.992950" lon="6.951900">
        <ele>2211.0</ele>
        <time>2014-08-30T15:14:54Z</time>
      </trkpt>
      <trkpt lat="45.993050" lon="6.952000">
        <ele>2209.0</ele>
        <time>2014-08-30T15:14:55Z</time>
      </trkpt>
      <trkpt lat="45.993167" lon="6.952100">
        <ele>2207.0</ele>
        <time>2014-08-30T15:14:56Z</time>
      </trkpt>
      <trkpt lat="45.993267" lon="6.952183">
        <ele>2205.0</ele>
        <time>2014-08-30T15:14:57Z</time>
      </trkpt>
      <trkpt lat="45.993367" lon="6.952283">
        <ele>2202.0</ele>
        <time>2014-08-30T15:14:58Z</time>
      </trkpt>
      <trkpt lat="45.993467" lon="6.952367">
        <ele>2199.0</ele>
        <time>2014-08-30T15:14:59Z</time>
      </trkpt>
      <trkpt lat="45.993583" lon="6.952450">
        <ele>2196.0</ele>
        <time>2014-08-30T15:15:00Z</time>
      </trkpt>
      <trkpt lat="45.993700" lon="6.952533">
        <ele>2193.0</ele>
        <time>2014-08-30T15:15:01Z</time>
      </trkpt>
      <trkpt lat="45.993817" lon="6.952617">
        <ele>2190.0</ele>
        <time>2014-08-30T15:15:02Z</time>
      </trkpt>
      <trkpt lat="45.993933" lon="6.952683">
        <ele>2188.0</ele>
        <time>2014-08-30T15:15:03Z</time>
      </trkpt>
      <trkpt lat="45.994050" lon="6.952733">
        <ele>2186.0</ele>
        <time>2014-08-30T15:15:04Z</time>
      </trkpt>
      <trkpt lat="45.994150" lon="6.952783">
        <ele>2183.0</ele>
        <time>2014-08-30T15:15:05Z</time>
      </trkpt>
      <trkpt lat="45.994267" lon="6.952817">
        <ele>2180.0</ele>
        <time>2014-08-30T15:15:06Z</time>
      </trkpt>
      <trkpt lat="45.994383" lon="6.952867">
        <ele>2177.0</ele>
        <time>2014-08-30T15:15:07Z</time>
      </trkpt>
      <trkpt lat="45.994500" lon="6.952917">
        <ele>2174.0</ele>
        <time>2014-08-30T15:15:08Z</time>
      </trkpt>
      <trkpt lat="45.994633" lon="6.952950">
        <ele>2172.0</ele>
        <time>2014-08-30T15:15:09Z</time>
      </trkpt>
      <trkpt lat="45.994750" lon="6.953017">
        <ele>2169.0</ele>
        <time>2014-08-30T15:15:10Z</time>
      </trkpt>
      <trkpt lat="45.994867" lon="6.953067">
        <ele>2166.0</ele>
        <time>2014-08-30T15:15:11Z</time>
      </trkpt>
      <trkpt lat="45.995000" lon="6.953133">
        <ele>2164.0</ele>
        <time>2014-08-30T15:15:12Z</time>
      </trkpt>
      <trkpt lat="45.995117" lon="6.953183">
        <ele>2162.0</ele>
        <time>2014-08-30T15:15:13Z</time>
      </trkpt>
      <trkpt lat="45.995233" lon="6.953250">
        <ele>2160.0</ele>
        <time>2014-08-30T15:15:14Z</time>
      </trkpt>
      <trkpt lat="45.995350" lon="6.953333">
        <ele>2157.0</ele>
        <time>2014-08-30T15:15:15Z</time>
      </trkpt>
      <trkpt lat="45.995467" lon="6.953417">
        <ele>2154.0</ele>
        <time>2014-08-30T15:15:16Z</time>
      </trkpt>
      <trkpt lat="45.995600" lon="6.953500">
        <ele>2151.0</ele>
        <time>2014-08-30T15:15:17Z</time>
      </trkpt>
      <trkpt lat="45.995717" lon="6.953600">
        <ele>2150.0</ele>
        <time>2014-08-30T15:15:18Z</time>
      </trkpt>
      <trkpt lat="45.995833" lon="6.953683">
        <ele>2149.0</ele>
        <time>2014-08-30T15:15:19Z</time>
      </trkpt>
      <trkpt lat="45.995933" lon="6.953767">
        <ele>2148.0</ele>
        <time>2014-08-30T15:15:20Z</time>
      </trkpt>
      <trkpt lat="45.996033" lon="6.953850">
        <ele>2146.0</ele>
        <time>2014-08-30T15:15:21Z</time>
      </trkpt>
      <trkpt lat="45.996133" lon="6.953950">
        <ele>2144.0</ele>
        <time>2014-08-30T15:15:22Z</time>
      </trkpt>
      <trkpt lat="45.996233" lon="6.954033">
        <ele>2142.0</ele>
        <time>2014-08-30T15:15:23Z</time>
      </trkpt>
      <trkpt lat="45.996333" lon="6.954133">
        <ele>2140.0</ele>
        <time>2014-08-30T15:15:24Z</time>
      </trkpt>
      <trkpt lat="45.996450" lon="6.954217">
        <ele>2138.0</ele>
        <time>2014-08-30T15:15:25Z</time>
      </trkpt>
      <trkpt lat="45.996567" lon="6.954300">
        <ele>2136.0</ele>
        <time>2014-08-30T15:15:26Z</time>
      </trkpt>
      <trkpt lat="45.996667" lon="6.954400">
        <ele>2135.0</ele>
        <time>2014-08-30T15:15:27Z</time>
      </trkpt>
      <trkpt lat="45.996767" lon="6.954483">
        <ele>2134.0</ele>
        <time>2014-08-30T15:15:28Z</time>
      </trkpt>
      <trkpt lat="45.996850" lon="6.954583">
        <ele>2131.0</ele>
        <time>2014-08-30T15:15:29Z</time>
      </trkpt>
      <trkpt lat="45.996950" lon="6.954683">
        <ele>2128.0</ele>
        <time>2014-08-30T15:15:30Z</time>
      </trkpt>
      <trkpt lat="45.997067" lon="6.954800">
        <ele>2125.0</ele>
        <time>2014-08-30T15:15:31Z</time>
      </trkpt>
      <trkpt lat="45.997167" lon="6.954917">
        <ele>2122.0</ele>
        <time>2014-08-30T15:15:32Z</time>
      </trkpt>
      <trkpt lat="45.997250" lon="6.955017">
        <ele>2120.0</ele>
        <time>2014-08-30T15:15:33Z</time>
      </trkpt>
      <trkpt lat="45.997367" lon="6.955100">
        <ele>2117.0</ele>
        <time>2014-08-30T15:15:34Z</time>
      </trkpt>
      <trkpt lat="45.997467" lon="6.955200">
        <ele>2114.0</ele>
        <time>2014-08-30T15:15:35Z</time>
      </trkpt>
      <trkpt lat="45.997583" lon="6.955300">
        <ele>2111.0</ele>
        <time>2014-08-30T15:15:36Z</time>
      </trkpt>
      <trkpt lat="45.997683" lon="6.955417">
        <ele>2109.0</ele>
        <time>2014-08-30T15:15:37Z</time>
      </trkpt>
      <trkpt lat="45.997767" lon="6.955533">
        <ele>2107.0</ele>
        <time>2014-08-30T15:15:38Z</time>
      </trkpt>
      <trkpt lat="45.997867" lon="6.955633">
        <ele>2104.0</ele>
        <time>2014-08-30T15:15:39Z</time>
      </trkpt>
      <trkpt lat="45.997967" lon="6.955717">
        <ele>2101.0</ele>
        <time>2014-08-30T15:15:40Z</time>
      </trkpt>
      <trkpt lat="45.998067" lon="6.955800">
        <ele>2098.0</ele>
        <time>2014-08-30T15:15:41Z</time>
      </trkpt>
      <trkpt lat="45.998167" lon="6.955883">
        <ele>2094.0</ele>
        <time>2014-08-30T15:15:42Z</time>
      </trkpt>
      <trkpt lat="45.998267" lon="6.955967">
        <ele>2090.0</ele>
        <time>2014-08-30T15:15:43Z</time>
      </trkpt>
      <trkpt lat="45.998383" lon="6.956033">
        <ele>2086.0</ele>
        <time>2014-08-30T15:15:44Z</time>
      </trkpt>
      <trkpt lat="45.998483" lon="6.956117">
        <ele>2083.0</ele>
        <time>2014-08-30T15:15:45Z</time>
      </trkpt>
      <trkpt lat="45.998600" lon="6.956183">
        <ele>2081.0</ele>
        <time>2014-08-30T15:15:46Z</time>
      </trkpt>
      <trkpt lat="45.998733" lon="6.956250">
        <ele>2079.0</ele>
        <time>2014-08-30T15:15:47Z</time>
      </trkpt>
      <trkpt lat="45.998850" lon="6.956317">
        <ele>2076.0</ele>
        <time>2014-08-30T15:15:48Z</time>
      </trkpt>
      <trkpt lat="45.998950" lon="6.956383">
        <ele>2074.0</ele>
        <time>2014-08-30T15:15:49Z</time>
      </trkpt>
      <trkpt lat="45.999067" lon="6.956467">
        <ele>2072.0</ele>
        <time>2014-08-30T15:15:50Z</time>
      </trkpt>
      <trkpt lat="45.999150" lon="6.956567">
        <ele>2070.0</ele>
        <time>2014-08-30T15:15:51Z</time>
      </trkpt>
      <trkpt lat="45.999267" lon="6.956667">
        <ele>2067.0</ele>
        <time>2014-08-30T15:15:52Z</time>
      </trkpt>
      <trkpt lat="45.999367" lon="6.956750">
        <ele>2065.0</ele>
        <time>2014-08-30T15:15:53Z</time>
      </trkpt>
      <trkpt lat="45.999483" lon="6.956833">
        <ele>2063.0</ele>
        <time>2014-08-30T15:15:54Z</time>
      </trkpt>
      <trkpt lat="45.999583" lon="6.956900">
        <ele>2062.0</ele>
        <time>2014-08-30T15:15:55Z</time>
      </trkpt>
      <trkpt lat="45.999683" lon="6.956967">
        <ele>2060.0</ele>
        <time>2014-08-30T15:15:56Z</time>
      </trkpt>
      <trkpt lat="45.999800" lon="6.957033">
        <ele>2057.0</ele>
        <time>2014-08-30T15:15:57Z</time>
      </trkpt>
      <trkpt lat="45.999900" lon="6.957100">
        <ele>2055.0</ele>
        <time>2014-08-30T15:15:58Z</time>
      </trkpt>
      <trkpt lat="46.000017" lon="6.957183">
        <ele>2054.0</ele>
        <time>2014-08-30T15:15:59Z</time>
      </trkpt>
      <trkpt lat="46.000133" lon="6.957250">
        <ele>2053.0</ele>
        <time>2014-08-30T15:16:00Z</time>
      </trkpt>
      <trkpt lat="46.000233" lon="6.957350">
        <ele>2053.0</ele>
        <time>2014-08-30T15:16:01Z</time>
      </trkpt>
      <trkpt lat="46.000333" lon="6.957433">
        <ele>2052.0</ele>
        <time>2014-08-30T15:16:02Z</time>
      </trkpt>
      <trkpt lat="46.000400" lon="6.957533">
        <ele>2051.0</ele>
        <time>2014-08-30T15:16:03Z</time>
      </trkpt>
      <trkpt lat="46.000483" lon="6.957650">
        <ele>2048.0</ele>
        <time>2014-08-30T15:16:04Z</time>
      </trkpt>
      <trkpt lat="46.000567" lon="6.957767">
        <ele>2044.0</ele>
        <time>2014-08-30T15:16:05Z</time>
      </trkpt>
      <trkpt lat="46.000650" lon="6.957917">
        <ele>2041.0</ele>
        <time>2014-08-30T15:16:06Z</time>
      </trkpt>
      <trkpt lat="46.000733" lon="6.958067">
        <ele>2039.0</ele>
        <time>2014-08-30T15:16:07Z</time>
      </trkpt>
      <trkpt lat="46.000833" lon="6.958217">
        <ele>2039.0</ele>
        <time>2014-08-30T15:16:08Z</time>
      </trkpt>
      <trkpt lat="46.000917" lon="6.958333">
        <ele>2040.0</ele>
        <time>2014-08-30T15:16:09Z</time>
      </trkpt>
      <trkpt lat="46.000983" lon="6.958433">
        <ele>2038.0</ele>
        <time>2014-08-30T15:16:10Z</time>
      </trkpt>
      <trkpt lat="46.001067" lon="6.958550">
        <ele>2037.0</ele>
        <time>2014-08-30T15:16:11Z</time>
      </trkpt>
      <trkpt lat="46.001167" lon="6.958683">
        <ele>2035.0</ele>
        <time>2014-08-30T15:16:12Z</time>
      </trkpt>
      <trkpt lat="46.001283" lon="6.958850">
        <ele>2034.0</ele>
        <time>2014-08-30T15:16:13Z</time>
      </trkpt>
      <trkpt lat="46.001383" lon="6.958967">
        <ele>2037.0</ele>
        <time>2014-08-30T15:16:14Z</time>
      </trkpt>
      <trkpt lat="46.001483" lon="6.959067">
        <ele>2039.0</ele>
        <time>2014-08-30T15:16:15Z</time>
      </trkpt>
      <trkpt lat="46.001583" lon="6.959133">
        <ele>2041.0</ele>
        <time>2014-08-30T15:16:16Z</time>
      </trkpt>
      <trkpt lat="46.001683" lon="6.959217">
        <ele>2042.0</ele>
        <time>2014-08-30T15:16:17Z</time>
      </trkpt>
      <trkpt lat="46.001783" lon="6.959300">
        <ele>2042.0</ele>
        <time>2014-08-30T15:16:18Z</time>
      </trkpt>
      <trkpt lat="46.001883" lon="6.959400">
        <ele>2042.0</ele>
        <time>2014-08-30T15:16:19Z</time>
      </trkpt>
      <trkpt lat="46.001983" lon="6.959500">
        <ele>2042.0</ele>
        <time>2014-08-30T15:16:20Z</time>
      </trkpt>
      <trkpt lat="46.002067" lon="6.959600">
        <ele>2043.0</ele>
        <time>2014-08-30T15:16:21Z</time>
      </trkpt>
      <trkpt lat="46.002133" lon="6.959733">
        <ele>2044.0</ele>
        <time>2014-08-30T15:16:22Z</time>
      </trkpt>
      <trkpt lat="46.002183" lon="6.959867">
        <ele>2044.0</ele>
        <time>2014-08-30T15:16:23Z</time>
      </trkpt>
      <trkpt lat="46.002250" lon="6.960017">
        <ele>2044.0</ele>
        <time>2014-08-30T15:16:24Z</time>
      </trkpt>
      <trkpt lat="46.002300" lon="6.960167">
        <ele>2045.0</ele>
        <time>2014-08-30T15:16:25Z</time>
      </trkpt>
      <trkpt lat="46.002333" lon="6.960317">
        <ele>2046.0</ele>
        <time>2014-08-30T15:16:26Z</time>
      </trkpt>
      <trkpt lat="46.002367" lon="6.960467">
        <ele>2046.0</ele>
        <time>2014-08-30T15:16:27Z</time>
      </trkpt>
      <trkpt lat="46.002400" lon="6.960617">
        <ele>2046.0</ele>
        <time>2014-08-30T15:16:28Z</time>
      </trkpt>
      <trkpt lat="46.002433" lon="6.960767">
        <ele>2045.0</ele>
        <time>2014-08-30T15:16:29Z</time>
      </trkpt>
      <trkpt lat="46.002467" lon="6.960900">
        <ele>2044.0</ele>
        <time>2014-08-30T15:16:30Z</time>
      </trkpt>
      <trkpt lat="46.002533" lon="6.961000">
        <ele>2043.0</ele>
        <time>2014-08-30T15:16:31Z</time>
      </trkpt>
      <trkpt lat="46.002600" lon="6.961100">
        <ele>2042.0</ele>
        <time>2014-08-30T15:16:32Z</time>
      </trkpt>
      <trkpt lat="46.002667" lon="6.961167">
        <ele>2040.0</ele>
        <time>2014-08-30T15:16:33Z</time>
      </trkpt>
      <trkpt lat="46.002750" lon="6.961217">
        <ele>2039.0</ele>
        <time>2014-08-30T15:16:34Z</time>
      </trkpt>
      <trkpt lat="46.002833" lon="6.961267">
        <ele>2037.0</ele>
        <time>2014-08-30T15:16:35Z</time>
      </trkpt>
      <trkpt lat="46.002900" lon="6.961317">
        <ele>2035.0</ele>
        <time>2014-08-30T15:16:36Z</time>
      </trkpt>
      <trkpt lat="46.002967" lon="6.961350">
        <ele>2032.0</ele>
        <time>2014-08-30T15:16:37Z</time>
      </trkpt>
      <trkpt lat="46.003033" lon="6.961383">
        <ele>2029.0</ele>
        <time>2014-08-30T15:16:38Z</time>
      </trkpt>
      <trkpt lat="46.003100" lon="6.961450">
        <ele>2025.0</ele>
        <time>2014-08-30T15:16:39Z</time>
      </trkpt>
      <trkpt lat="46.003167" lon="6.961550">
        <ele>2021.0</ele>
        <time>2014-08-30T15:16:40Z</time>
      </trkpt>
      <trkpt lat="46.003200" lon="6.961700">
        <ele>2017.0</ele>
        <time>2014-08-30T15:16:41Z</time>
      </trkpt>
      <trkpt lat="46.003217" lon="6.961850">
        <ele>2017.0</ele>
        <time>2014-08-30T15:16:42Z</time>
      </trkpt>
      <trkpt lat="46.003233" lon="6.962000">
        <ele>2020.0</ele>
        <time>2014-08-30T15:16:43Z</time>
      </trkpt>
      <trkpt lat="46.003233" lon="6.962100">
        <ele>2020.0</ele>
        <time>2014-08-30T15:16:44Z</time>
      </trkpt>
      <trkpt lat="46.003250" lon="6.962200">
        <ele>2020.0</ele>
        <time>2014-08-30T15:16:45Z</time>
      </trkpt>
      <trkpt lat="46.003250" lon="6.962300">
        <ele>2018.0</ele>
        <time>2014-08-30T15:16:46Z</time>
      </trkpt>
      <trkpt lat="46.003250" lon="6.962433">
        <ele>2016.0</ele>
        <time>2014-08-30T15:16:47Z</time>
      </trkpt>
      <trkpt lat="46.003233" lon="6.962600">
        <ele>2014.0</ele>
        <time>2014-08-30T15:16:48Z</time>
      </trkpt>
      <trkpt lat="46.003233" lon="6.962767">
        <ele>2013.0</ele>
        <time>2014-08-30T15:16:49Z</time>
      </trkpt>
      <trkpt lat="46.003233" lon="6.962933">
        <ele>2015.0</ele>
        <time>2014-08-30T15:16:50Z</time>
      </trkpt>
      <trkpt lat="46.003217" lon="6.963083">
        <ele>2016.0</ele>
        <time>2014-08-30T15:16:51Z</time>
      </trkpt>
      <trkpt lat="46.003217" lon="6.963250">
        <ele>2018.0</ele>
        <time>2014-08-30T15:16:52Z</time>
      </trkpt>
      <trkpt lat="46.003183" lon="6.963433">
        <ele>2020.0</ele>
        <time>2014-08-30T15:16:53Z</time>
      </trkpt>
      <trkpt lat="46.003133" lon="6.963600">
        <ele>2024.0</ele>
        <time>2014-08-30T15:16:54Z</time>
      </trkpt>
      <trkpt lat="46.003083" lon="6.963750">
        <ele>2028.0</ele>
        <time>2014-08-30T15:16:55Z</time>
      </trkpt>
      <trkpt lat="46.003050" lon="6.963883">
        <ele>2032.0</ele>
        <time>2014-08-30T15:16:56Z</time>
      </trkpt>
      <trkpt lat="46.003017" lon="6.964000">
        <ele>2034.0</ele>
        <time>2014-08-30T15:16:57Z</time>
      </trkpt>
      <trkpt lat="46.002983" lon="6.964150">
        <ele>2036.0</ele>
        <time>2014-08-30T15:16:58Z</time>
      </trkpt>
      <trkpt lat="46.002933" lon="6.964317">
        <ele>2038.0</ele>
        <time>2014-08-30T15:16:59Z</time>
      </trkpt>
      <trkpt lat="46.002900" lon="6.964483">
        <ele>2040.0</ele>
        <time>2014-08-30T15:17:00Z</time>
      </trkpt>
      <trkpt lat="46.002850" lon="6.964633">
        <ele>2042.0</ele>
        <time>2014-08-30T15:17:01Z</time>
      </trkpt>
      <trkpt lat="46.002817" lon="6.964750">
        <ele>2044.0</ele>
        <time>2014-08-30T15:17:02Z</time>
      </trkpt>
      <trkpt lat="46.002767" lon="6.964867">
        <ele>2045.0</ele>
        <time>2014-08-30T15:17:03Z</time>
      </trkpt>
      <trkpt lat="46.002683" lon="6.964983">
        <ele>2045.0</ele>
        <time>2014-08-30T15:17:04Z</time>
      </trkpt>
      <trkpt lat="46.002600" lon="6.965083">
        <ele>2044.0</ele>
        <time>2014-08-30T15:17:05Z</time>
      </trkpt>
      <trkpt lat="46.002483" lon="6.965183">
        <ele>2044.0</ele>
        <time>2014-08-30T15:17:06Z</time>
      </trkpt>
      <trkpt lat="46.002367" lon="6.965233">
        <ele>2045.0</ele>
        <time>2014-08-30T15:17:07Z</time>
      </trkpt>
      <trkpt lat="46.002267" lon="6.965233">
        <ele>2046.0</ele>
        <time>2014-08-30T15:17:08Z</time>
      </trkpt>
      <trkpt lat="46.002200" lon="6.965200">
        <ele>2048.0</ele>
        <time>2014-08-30T15:17:09Z</time>
      </trkpt>
      <trkpt lat="46.002150" lon="6.965150">
        <ele>2051.0</ele>
        <time>2014-08-30T15:17:10Z</time>
      </trkpt>
      <trkpt lat="46.002117" lon="6.965117">
        <ele>2053.0</ele>
        <time>2014-08-30T15:17:11Z</time>
      </trkpt>
      <trkpt lat="46.002100" lon="6.965083">
        <ele>2053.0</ele>
        <time>2014-08-30T15:17:12Z</time>
      </trkpt>
      <trkpt lat="46.002050" lon="6.965033">
        <ele>2052.0</ele>
        <time>2014-08-30T15:17:13Z</time>
      </trkpt>
      <trkpt lat="46.002017" lon="6.964950">
        <ele>2051.0</ele>
        <time>2014-08-30T15:17:14Z</time>
      </trkpt>
      <trkpt lat="46.001967" lon="6.964850">
        <ele>2053.0</ele>
        <time>2014-08-30T15:17:15Z</time>
      </trkpt>
      <trkpt lat="46.001950" lon="6.964767">
        <ele>2057.0</ele>
        <time>2014-08-30T15:17:16Z</time>
      </trkpt>
      <trkpt lat="46.001917" lon="6.964700">
        <ele>2061.0</ele>
        <time>2014-08-30T15:17:17Z</time>
      </trkpt>
      <trkpt lat="46.001900" lon="6.964650">
        <ele>2063.0</ele>
        <time>2014-08-30T15:17:18Z</time>
      </trkpt>
      <trkpt lat="46.001867" lon="6.964617">
        <ele>2065.0</ele>
        <time>2014-08-30T15:17:19Z</time>
      </trkpt>
      <trkpt lat="46.001850" lon="6.964550">
        <ele>2065.0</ele>
        <time>2014-08-30T15:17:20Z</time>
      </trkpt>
      <trkpt lat="46.001833" lon="6.964467">
        <ele>2066.0</ele>
        <time>2014-08-30T15:17:21Z</time>
      </trkpt>
      <trkpt lat="46.001800" lon="6.964367">
        <ele>2067.0</ele>
        <time>2014-08-30T15:17:22Z</time>
      </trkpt>
      <trkpt lat="46.001783" lon="6.964283">
        <ele>2069.0</ele>
        <time>2014-08-30T15:17:23Z</time>
      </trkpt>
      <trkpt lat="46.001767" lon="6.964200">
        <ele>2072.0</ele>
        <time>2014-08-30T15:17:24Z</time>
      </trkpt>
      <trkpt lat="46.001750" lon="6.964133">
        <ele>2074.0</ele>
        <time>2014-08-30T15:17:25Z</time>
      </trkpt>
      <trkpt lat="46.001750" lon="6.964067">
        <ele>2076.0</ele>
        <time>2014-08-30T15:17:26Z</time>
      </trkpt>
      <trkpt lat="46.001767" lon="6.964000">
        <ele>2076.0</ele>
        <time>2014-08-30T15:17:27Z</time>
      </trkpt>
      <trkpt lat="46.001783" lon="6.963917">
        <ele>2076.0</ele>
        <time>2014-08-30T15:17:28Z</time>
      </trkpt>
      <trkpt lat="46.001800" lon="6.963817">
        <ele>2075.0</ele>
        <time>2014-08-30T15:17:29Z</time>
      </trkpt>
      <trkpt lat="46.001833" lon="6.963733">
        <ele>2075.0</ele>
        <time>2014-08-30T15:17:30Z</time>
      </trkpt>
      <trkpt lat="46.001883" lon="6.963683">
        <ele>2075.0</ele>
        <time>2014-08-30T15:17:31Z</time>
      </trkpt>
      <trkpt lat="46.001933" lon="6.963650">
        <ele>2075.0</ele>
        <time>2014-08-30T15:17:32Z</time>
      </trkpt>
      <trkpt lat="46.001983" lon="6.963617">
        <ele>2073.0</ele>
        <time>2014-08-30T15:17:33Z</time>
      </trkpt>
      <trkpt lat="46.002033" lon="6.963600">
        <ele>2071.0</ele>
        <time>2014-08-30T15:17:34Z</time>
      </trkpt>
      <trkpt lat="46.002083" lon="6.963550">
        <ele>2068.0</ele>
        <time>2014-08-30T15:17:35Z</time>
      </trkpt>
      <trkpt lat="46.002150" lon="6.963500">
        <ele>2065.0</ele>
        <time>2014-08-30T15:17:36Z</time>
      </trkpt>
      <trkpt lat="46.002217" lon="6.963450">
        <ele>2064.0</ele>
        <time>2014-08-30T15:17:37Z</time>
      </trkpt>
      <trkpt lat="46.002267" lon="6.963433">
        <ele>2062.0</ele>
        <time>2014-08-30T15:17:38Z</time>
      </trkpt>
      <trkpt lat="46.002317" lon="6.963400">
        <ele>2059.0</ele>
        <time>2014-08-30T15:17:39Z</time>
      </trkpt>
      <trkpt lat="46.002383" lon="6.963383">
        <ele>2056.0</ele>
        <time>2014-08-30T15:17:40Z</time>
      </trkpt>
      <trkpt lat="46.002433" lon="6.963350">
        <ele>2053.0</ele>
        <time>2014-08-30T15:17:41Z</time>
      </trkpt>
      <trkpt lat="46.002500" lon="6.963333">
        <ele>2051.0</ele>
        <time>2014-08-30T15:17:42Z</time>
      </trkpt>
      <trkpt lat="46.002583" lon="6.963333">
        <ele>2049.0</ele>
        <time>2014-08-30T15:17:43Z</time>
      </trkpt>
      <trkpt lat="46.002650" lon="6.963350">
        <ele>2049.0</ele>
        <time>2014-08-30T15:17:44Z</time>
      </trkpt>
      <trkpt lat="46.002717" lon="6.963383">
        <ele>2048.0</ele>
        <time>2014-08-30T15:17:45Z</time>
      </trkpt>
      <trkpt lat="46.002767" lon="6.963450">
        <ele>2047.0</ele>
        <time>2014-08-30T15:17:46Z</time>
      </trkpt>
      <trkpt lat="46.002817" lon="6.963550">
        <ele>2045.0</ele>
        <time>2014-08-30T15:17:47Z</time>
      </trkpt>
      <trkpt lat="46.002850" lon="6.963683">
        <ele>2043.0</ele>
        <time>2014-08-30T15:17:48Z</time>
      </trkpt>
      <trkpt lat="46.002883" lon="6.963850">
        <ele>2042.0</ele>
        <time>2014-08-30T15:17:49Z</time>
      </trkpt>
      <trkpt lat="46.002900" lon="6.964017">
        <ele>2041.0</ele>
        <time>2014-08-30T15:17:50Z</time>
      </trkpt>
      <trkpt lat="46.002900" lon="6.964183">
        <ele>2041.0</ele>
        <time>2014-08-30T15:17:51Z</time>
      </trkpt>
      <trkpt lat="46.002900" lon="6.964367">
        <ele>2041.0</ele>
        <time>2014-08-30T15:17:52Z</time>
      </trkpt>
      <trkpt lat="46.002867" lon="6.964567">
        <ele>2041.0</ele>
        <time>2014-08-30T15:17:53Z</time>
      </trkpt>
      <trkpt lat="46.002833" lon="6.964733">
        <ele>2043.0</ele>
        <time>2014-08-30T15:17:54Z</time>
      </trkpt>
      <trkpt lat="46.002800" lon="6.964917">
        <ele>2046.0</ele>
        <time>2014-08-30T15:17:55Z</time>
      </trkpt>
      <trkpt lat="46.002750" lon="6.965067">
        <ele>2048.0</ele>
        <time>2014-08-30T15:17:56Z</time>
      </trkpt>
      <trkpt lat="46.002683" lon="6.965200">
        <ele>2049.0</ele>
        <time>2014-08-30T15:17:57Z</time>
      </trkpt>
      <trkpt lat="46.002617" lon="6.965317">
        <ele>2050.0</ele>
        <time>2014-08-30T15:17:58Z</time>
      </trkpt>
      <trkpt lat="46.002533" lon="6.965433">
        <ele>2051.0</ele>
        <time>2014-08-30T15:17:59Z</time>
      </trkpt>
      <trkpt lat="46.002433" lon="6.965533">
        <ele>2054.0</ele>
        <time>2014-08-30T15:18:00Z</time>
      </trkpt>
      <trkpt lat="46.002350" lon="6.965617">
        <ele>2056.0</ele>
        <time>2014-08-30T15:18:01Z</time>
      </trkpt>
      <trkpt lat="46.002283" lon="6.965650">
        <ele>2060.0</ele>
        <time>2014-08-30T15:18:02Z</time>
      </trkpt>
      <trkpt lat="46.002233" lon="6.965667">
        <ele>2063.0</ele>
        <time>2014-08-30T15:18:03Z</time>
      </trkpt>
      <trkpt lat="46.002183" lon="6.965683">
        <ele>2066.0</ele>
        <time>2014-08-30T15:18:04Z</time>
      </trkpt>
      <trkpt lat="46.002133" lon="6.965700">
        <ele>2068.0</ele>
        <time>2014-08-30T15:18:05Z</time>
      </trkpt>
      <trkpt lat="46.002100" lon="6.965700">
        <ele>2069.0</ele>
        <time>2014-08-30T15:18:06Z</time>
      </trkpt>
      <trkpt lat="46.002050" lon="6.965667">
        <ele>2070.0</ele>
        <time>2014-08-30T15:18:07Z</time>
      </trkpt>
      <trkpt lat="46.002033" lon="6.965633">
        <ele>2072.0</ele>
        <time>2014-08-30T15:18:08Z</time>
      </trkpt>
      <trkpt lat="46.002000" lon="6.965583">
        <ele>2075.0</ele>
        <time>2014-08-30T15:18:09Z</time>
      </trkpt>
      <trkpt lat="46.001967" lon="6.965567">
        <ele>2077.0</ele>
        <time>2014-08-30T15:18:10Z</time>
      </trkpt>
      <trkpt lat="46.001917" lon="6.965567">
        <ele>2079.0</ele>
        <time>2014-08-30T15:18:11Z</time>
      </trkpt>
      <trkpt lat="46.001883" lon="6.965550">
        <ele>2079.0</ele>
        <time>2014-08-30T15:18:12Z</time>
      </trkpt>
      <trkpt lat="46.001850" lon="6.965517">
        <ele>2078.0</ele>
        <time>2014-08-30T15:18:13Z</time>
      </trkpt>
      <trkpt lat="46.001800" lon="6.965467">
        <ele>2077.0</ele>
        <time>2014-08-30T15:18:14Z</time>
      </trkpt>
      <trkpt lat="46.001750" lon="6.965417">
        <ele>2076.0</ele>
        <time>2014-08-30T15:18:15Z</time>
      </trkpt>
      <trkpt lat="46.001700" lon="6.965400">
        <ele>2076.0</ele>
        <time>2014-08-30T15:18:16Z</time>
      </trkpt>
      <trkpt lat="46.001650" lon="6.965367">
        <ele>2075.0</ele>
        <time>2014-08-30T15:18:17Z</time>
      </trkpt>
      <trkpt lat="46.001600" lon="6.965333">
        <ele>2073.0</ele>
        <time>2014-08-30T15:18:18Z</time>
      </trkpt>
      <trkpt lat="46.001567" lon="6.965267">
        <ele>2072.0</ele>
        <time>2014-08-30T15:18:19Z</time>
      </trkpt>
      <trkpt lat="46.001550" lon="6.965217">
        <ele>2069.0</ele>
        <time>2014-08-30T15:18:20Z</time>
      </trkpt>
      <trkpt lat="46.001533" lon="6.965150">
        <ele>2067.0</ele>
        <time>2014-08-30T15:18:21Z</time>
      </trkpt>
      <trkpt lat="46.001500" lon="6.965083">
        <ele>2064.0</ele>
        <time>2014-08-30T15:18:22Z</time>
      </trkpt>
      <trkpt lat="46.001500" lon="6.965017">
        <ele>2062.0</ele>
        <time>2014-08-30T15:18:23Z</time>
      </trkpt>
      <trkpt lat="46.001500" lon="6.964933">
        <ele>2059.0</ele>
        <time>2014-08-30T15:18:24Z</time>
      </trkpt>
      <trkpt lat="46.001517" lon="6.964850">
        <ele>2055.0</ele>
        <time>2014-08-30T15:18:25Z</time>
      </trkpt>
      <trkpt lat="46.001550" lon="6.964767">
        <ele>2052.0</ele>
        <time>2014-08-30T15:18:26Z</time>
      </trkpt>
      <trkpt lat="46.001583" lon="6.964667">
        <ele>2049.0</ele>
        <time>2014-08-30T15:18:27Z</time>
      </trkpt>
      <trkpt lat="46.001633" lon="6.964583">
        <ele>2048.0</ele>
        <time>2014-08-30T15:18:28Z</time>
      </trkpt>
      <trkpt lat="46.001683" lon="6.964483">
        <ele>2046.0</ele>
        <time>2014-08-30T15:18:29Z</time>
      </trkpt>
      <trkpt lat="46.001733" lon="6.964400">
        <ele>2045.0</ele>
        <time>2014-08-30T15:18:30Z</time>
      </trkpt>
      <trkpt lat="46.001783" lon="6.964300">
        <ele>2047.0</ele>
        <time>2014-08-30T15:18:31Z</time>
      </trkpt>
      <trkpt lat="46.001833" lon="6.964233">
        <ele>2050.0</ele>
        <time>2014-08-30T15:18:32Z</time>
      </trkpt>
      <trkpt lat="46.001867" lon="6.964183">
        <ele>2053.0</ele>
        <time>2014-08-30T15:18:33Z</time>
      </trkpt>
      <trkpt lat="46.001917" lon="6.964133">
        <ele>2056.0</ele>
        <time>2014-08-30T15:18:34Z</time>
      </trkpt>
      <trkpt lat="46.001950" lon="6.964100">
        <ele>2057.0</ele>
        <time>2014-08-30T15:18:35Z</time>
      </trkpt>
      <trkpt lat="46.001983" lon="6.964033">
        <ele>2057.0</ele>
        <time>2014-08-30T15:18:36Z</time>
      </trkpt>
      <trkpt lat="46.002017" lon="6.963950">
        <ele>2057.0</ele>
        <time>2014-08-30T15:18:37Z</time>
      </trkpt>
      <trkpt lat="46.002067" lon="6.963850">
        <ele>2059.0</ele>
        <time>2014-08-30T15:18:38Z</time>
      </trkpt>
      <trkpt lat="46.002117" lon="6.963783">
        <ele>2063.0</ele>
        <time>2014-08-30T15:18:39Z</time>
      </trkpt>
      <trkpt lat="46.002167" lon="6.963733">
        <ele>2067.0</ele>
        <time>2014-08-30T15:18:40Z</time>
      </trkpt>
      <trkpt lat="46.002217" lon="6.963700">
        <ele>2070.0</ele>
        <time>2014-08-30T15:18:41Z</time>
      </trkpt>
      <trkpt lat="46.002267" lon="6.963633">
        <ele>2072.0</ele>
        <time>2014-08-30T15:18:42Z</time>
      </trkpt>
      <trkpt lat="46.002317" lon="6.963567">
        <ele>2072.0</ele>
        <time>2014-08-30T15:18:43Z</time>
      </trkpt>
      <trkpt lat="46.002367" lon="6.963500">
        <ele>2074.0</ele>
        <time>2014-08-30T15:18:44Z</time>
      </trkpt>
      <trkpt lat="46.002400" lon="6.963433">
        <ele>2076.0</ele>
        <time>2014-08-30T15:18:45Z</time>
      </trkpt>
      <trkpt lat="46.002450" lon="6.963350">
        <ele>2077.0</ele>
        <time>2014-08-30T15:18:46Z</time>
      </trkpt>
      <trkpt lat="46.002483" lon="6.963267">
        <ele>2078.0</ele>
        <time>2014-08-30T15:18:47Z</time>
      </trkpt>
      <trkpt lat="46.002500" lon="6.963150">
        <ele>2079.0</ele>
        <time>2014-08-30T15:18:48Z</time>
      </trkpt>
      <trkpt lat="46.002533" lon="6.963050">
        <ele>2081.0</ele>
        <time>2014-08-30T15:18:49Z</time>
      </trkpt>
      <trkpt lat="46.002550" lon="6.962967">
        <ele>2083.0</ele>
        <time>2014-08-30T15:18:50Z</time>
      </trkpt>
      <trkpt lat="46.002550" lon="6.962883">
        <ele>2084.0</ele>
        <time>2014-08-30T15:18:51Z</time>
      </trkpt>
      <trkpt lat="46.002550" lon="6.962783">
        <ele>2085.0</ele>
        <time>2014-08-30T15:18:52Z</time>
      </trkpt>
      <trkpt lat="46.002517" lon="6.962683">
        <ele>2085.0</ele>
        <time>2014-08-30T15:18:53Z</time>
      </trkpt>
      <trkpt lat="46.002483" lon="6.962583">
        <ele>2086.0</ele>
        <time>2014-08-30T15:18:54Z</time>
      </trkpt>
      <trkpt lat="46.002433" lon="6.962533">
        <ele>2086.0</ele>
        <time>2014-08-30T15:18:55Z</time>
      </trkpt>
      <trkpt lat="46.002383" lon="6.962500">
        <ele>2084.0</ele>
        <time>2014-08-30T15:18:56Z</time>
      </trkpt>
      <trkpt lat="46.002317" lon="6.962483">
        <ele>2082.0</ele>
        <time>2014-08-30T15:18:57Z</time>
      </trkpt>
      <trkpt lat="46.002250" lon="6.962483">
        <ele>2081.0</ele>
        <time>2014-08-30T15:18:58Z</time>
      </trkpt>
      <trkpt lat="46.002183" lon="6.962483">
        <ele>2079.0</ele>
        <time>2014-08-30T15:18:59Z</time>
      </trkpt>
      <trkpt lat="46.002133" lon="6.962500">
        <ele>2079.0</ele>
        <time>2014-08-30T15:19:00Z</time>
      </trkpt>
      <trkpt lat="46.002083" lon="6.962517">
        <ele>2078.0</ele>
        <time>2014-08-30T15:19:01Z</time>
      </trkpt>
      <trkpt lat="46.002050" lon="6.962550">
        <ele>2075.0</ele>
        <time>2014-08-30T15:19:02Z</time>
      </trkpt>
      <trkpt lat="46.002000" lon="6.962550">
        <ele>2072.0</ele>
        <time>2014-08-30T15:19:03Z</time>
      </trkpt>
      <trkpt lat="46.001950" lon="6.962500">
        <ele>2068.0</ele>
        <time>2014-08-30T15:19:04Z</time>
      </trkpt>
      <trkpt lat="46.001900" lon="6.962433">
        <ele>2066.0</ele>
        <time>2014-08-30T15:19:05Z</time>
      </trkpt>
      <trkpt lat="46.001883" lon="6.962333">
        <ele>2065.0</ele>
        <time>2014-08-30T15:19:06Z</time>
      </trkpt>
      <trkpt lat="46.001883" lon="6.962233">
        <ele>2064.0</ele>
        <time>2014-08-30T15:19:07Z</time>
      </trkpt>
      <trkpt lat="46.001900" lon="6.962133">
        <ele>2062.0</ele>
        <time>2014-08-30T15:19:08Z</time>
      </trkpt>
      <trkpt lat="46.001933" lon="6.962000">
        <ele>2060.0</ele>
        <time>2014-08-30T15:19:09Z</time>
      </trkpt>
      <trkpt lat="46.001983" lon="6.961883">
        <ele>2059.0</ele>
        <time>2014-08-30T15:19:10Z</time>
      </trkpt>
      <trkpt lat="46.002067" lon="6.961800">
        <ele>2058.0</ele>
        <time>2014-08-30T15:19:11Z</time>
      </trkpt>
      <trkpt lat="46.002133" lon="6.961717">
        <ele>2058.0</ele>
        <time>2014-08-30T15:19:12Z</time>
      </trkpt>
      <trkpt lat="46.002200" lon="6.961650">
        <ele>2057.0</ele>
        <time>2014-08-30T15:19:13Z</time>
      </trkpt>
      <trkpt lat="46.002283" lon="6.961583">
        <ele>2055.0</ele>
        <time>2014-08-30T15:19:14Z</time>
      </trkpt>
      <trkpt lat="46.002367" lon="6.961533">
        <ele>2053.0</ele>
        <time>2014-08-30T15:19:15Z</time>
      </trkpt>
      <trkpt lat="46.002450" lon="6.961467">
        <ele>2051.0</ele>
        <time>2014-08-30T15:19:16Z</time>
      </trkpt>
      <trkpt lat="46.002550" lon="6.961433">
        <ele>2049.0</ele>
        <time>2014-08-30T15:19:17Z</time>
      </trkpt>
      <trkpt lat="46.002667" lon="6.961417">
        <ele>2050.0</ele>
        <time>2014-08-30T15:19:18Z</time>
      </trkpt>
      <trkpt lat="46.002767" lon="6.961417">
        <ele>2051.0</ele>
        <time>2014-08-30T15:19:19Z</time>
      </trkpt>
      <trkpt lat="46.002850" lon="6.961400">
        <ele>2052.0</ele>
        <time>2014-08-30T15:19:20Z</time>
      </trkpt>
      <trkpt lat="46.002950" lon="6.961383">
        <ele>2051.0</ele>
        <time>2014-08-30T15:19:21Z</time>
      </trkpt>
      <trkpt lat="46.003033" lon="6.961350">
        <ele>2050.0</ele>
        <time>2014-08-30T15:19:22Z</time>
      </trkpt>
      <trkpt lat="46.003150" lon="6.961333">
        <ele>2049.0</ele>
        <time>2014-08-30T15:19:23Z</time>
      </trkpt>
      <trkpt lat="46.003250" lon="6.961317">
        <ele>2048.0</ele>
        <time>2014-08-30T15:19:24Z</time>
      </trkpt>
      <trkpt lat="46.003350" lon="6.961317">
        <ele>2048.0</ele>
        <time>2014-08-30T15:19:25Z</time>
      </trkpt>
      <trkpt lat="46.003450" lon="6.961333">
        <ele>2047.0</ele>
        <time>2014-08-30T15:19:26Z</time>
      </trkpt>
      <trkpt lat="46.003550" lon="6.961317">
        <ele>2045.0</ele>
        <time>2014-08-30T15:19:27Z</time>
      </trkpt>
      <trkpt lat="46.003650" lon="6.961250">
        <ele>2042.0</ele>
        <time>2014-08-30T15:19:28Z</time>
      </trkpt>
      <trkpt lat="46.003750" lon="6.961183">
        <ele>2041.0</ele>
        <time>2014-08-30T15:19:29Z</time>
      </trkpt>
      <trkpt lat="46.003867" lon="6.961117">
        <ele>2043.0</ele>
        <time>2014-08-30T15:19:30Z</time>
      </trkpt>
      <trkpt lat="46.003950" lon="6.961050">
        <ele>2045.0</ele>
        <time>2014-08-30T15:19:31Z</time>
      </trkpt>
      <trkpt lat="46.004017" lon="6.960983">
        <ele>2047.0</ele>
        <time>2014-08-30T15:19:32Z</time>
      </trkpt>
      <trkpt lat="46.004083" lon="6.960900">
        <ele>2046.0</ele>
        <time>2014-08-30T15:19:33Z</time>
      </trkpt>
      <trkpt lat="46.004133" lon="6.960833">
        <ele>2045.0</ele>
        <time>2014-08-30T15:19:34Z</time>
      </trkpt>
      <trkpt lat="46.004200" lon="6.960733">
        <ele>2043.0</ele>
        <time>2014-08-30T15:19:35Z</time>
      </trkpt>
      <trkpt lat="46.004267" lon="6.960633">
        <ele>2041.0</ele>
        <time>2014-08-30T15:19:36Z</time>
      </trkpt>
      <trkpt lat="46.004333" lon="6.960533">
        <ele>2041.0</ele>
        <time>2014-08-30T15:19:37Z</time>
      </trkpt>
      <trkpt lat="46.004400" lon="6.960433">
        <ele>2042.0</ele>
        <time>2014-08-30T15:19:38Z</time>
      </trkpt>
      <trkpt lat="46.004483" lon="6.960367">
        <ele>2043.0</ele>
        <time>2014-08-30T15:19:39Z</time>
      </trkpt>
      <trkpt lat="46.004550" lon="6.960300">
        <ele>2043.0</ele>
        <time>2014-08-30T15:19:40Z</time>
      </trkpt>
      <trkpt lat="46.004633" lon="6.960233">
        <ele>2043.0</ele>
        <time>2014-08-30T15:19:41Z</time>
      </trkpt>
      <trkpt lat="46.004700" lon="6.960150">
        <ele>2042.0</ele>
        <time>2014-08-30T15:19:42Z</time>
      </trkpt>
      <trkpt lat="46.004783" lon="6.960067">
        <ele>2041.0</ele>
        <time>2014-08-30T15:19:43Z</time>
      </trkpt>
      <trkpt lat="46.004883" lon="6.960000">
        <ele>2041.0</ele>
        <time>2014-08-30T15:19:44Z</time>
      </trkpt>
      <trkpt lat="46.004983" lon="6.959933">
        <ele>2041.0</ele>
        <time>2014-08-30T15:19:45Z</time>
      </trkpt>
      <trkpt lat="46.005083" lon="6.959883">
        <ele>2042.0</ele>
        <time>2014-08-30T15:19:46Z</time>
      </trkpt>
      <trkpt lat="46.005183" lon="6.959817">
        <ele>2042.0</ele>
        <time>2014-08-30T15:19:47Z</time>
      </trkpt>
      <trkpt lat="46.005267" lon="6.959750">
        <ele>2042.0</ele>
        <time>2014-08-30T15:19:48Z</time>
      </trkpt>
      <trkpt lat="46.005367" lon="6.959683">
        <ele>2042.0</ele>
        <time>2014-08-30T15:19:49Z</time>
      </trkpt>
      <trkpt lat="46.005450" lon="6.959633">
        <ele>2041.0</ele>
        <time>2014-08-30T15:19:50Z</time>
      </trkpt>
      <trkpt lat="46.005533" lon="6.959550">
        <ele>2040.0</ele>
        <time>2014-08-30T15:19:51Z</time>
      </trkpt>
      <trkpt lat="46.005633" lon="6.959450">
        <ele>2039.0</ele>
        <time>2014-08-30T15:19:52Z</time>
      </trkpt>
      <trkpt lat="46.005717" lon="6.959367">
        <ele>2038.0</ele>
        <time>2014-08-30T15:19:53Z</time>
      </trkpt>
      <trkpt lat="46.005800" lon="6.959267">
        <ele>2039.0</ele>
        <time>2014-08-30T15:19:54Z</time>
      </trkpt>
      <trkpt lat="46.005883" lon="6.959183">
        <ele>2041.0</ele>
        <time>2014-08-30T15:19:55Z</time>
      </trkpt>
      <trkpt lat="46.005950" lon="6.959117">
        <ele>2042.0</ele>
        <time>2014-08-30T15:19:56Z</time>
      </trkpt>
      <trkpt lat="46.006017" lon="6.959050">
        <ele>2042.0</ele>
        <time>2014-08-30T15:19:57Z</time>
      </trkpt>
      <trkpt lat="46.006083" lon="6.958983">
        <ele>2041.0</ele>
        <time>2014-08-30T15:19:58Z</time>
      </trkpt>
      <trkpt lat="46.006167" lon="6.958900">
        <ele>2040.0</ele>
        <time>2014-08-30T15:19:59Z</time>
      </trkpt>
      <trkpt lat="46.006233" lon="6.958800">
        <ele>2039.0</ele>
        <time>2014-08-30T15:20:00Z</time>
      </trkpt>
      <trkpt lat="46.006333" lon="6.958700">
        <ele>2040.0</ele>
        <time>2014-08-30T15:20:01Z</time>
      </trkpt>
      <trkpt lat="46.006417" lon="6.958633">
        <ele>2040.0</ele>
        <time>2014-08-30T15:20:02Z</time>
      </trkpt>
      <trkpt lat="46.006517" lon="6.958583">
        <ele>2040.0</ele>
        <time>2014-08-30T15:20:03Z</time>
      </trkpt>
      <trkpt lat="46.006600" lon="6.958517">
        <ele>2040.0</ele>
        <time>2014-08-30T15:20:04Z</time>
      </trkpt>
      <trkpt lat="46.006700" lon="6.958450">
        <ele>2039.0</ele>
        <time>2014-08-30T15:20:05Z</time>
      </trkpt>
      <trkpt lat="46.006783" lon="6.958383">
        <ele>2038.0</ele>
        <time>2014-08-30T15:20:06Z</time>
      </trkpt>
      <trkpt lat="46.006883" lon="6.958317">
        <ele>2038.0</ele>
        <time>2014-08-30T15:20:07Z</time>
      </trkpt>
      <trkpt lat="46.006983" lon="6.958267">
        <ele>2038.0</ele>
        <time>2014-08-30T15:20:08Z</time>
      </trkpt>
      <trkpt lat="46.007083" lon="6.958217">
        <ele>2038.0</ele>
        <time>2014-08-30T15:20:09Z</time>
      </trkpt>
      <trkpt lat="46.007167" lon="6.958167">
        <ele>2037.0</ele>
        <time>2014-08-30T15:20:10Z</time>
      </trkpt>
      <trkpt lat="46.007250" lon="6.958100">
        <ele>2036.0</ele>
        <time>2014-08-30T15:20:11Z</time>
      </trkpt>
      <trkpt lat="46.007333" lon="6.958050">
        <ele>2036.0</ele>
        <time>2014-08-30T15:20:12Z</time>
      </trkpt>
      <trkpt lat="46.007417" lon="6.958000">
        <ele>2035.0</ele>
        <time>2014-08-30T15:20:13Z</time>
      </trkpt>
      <trkpt lat="46.007517" lon="6.957950">
        <ele>2035.0</ele>
        <time>2014-08-30T15:20:14Z</time>
      </trkpt>
      <trkpt lat="46.007600" lon="6.957883">
        <ele>2035.0</ele>
        <time>2014-08-30T15:20:15Z</time>
      </trkpt>
      <trkpt lat="46.007700" lon="6.957833">
        <ele>2034.0</ele>
        <time>2014-08-30T15:20:16Z</time>
      </trkpt>
      <trkpt lat="46.007783" lon="6.957767">
        <ele>2034.0</ele>
        <time>2014-08-30T15:20:17Z</time>
      </trkpt>
      <trkpt lat="46.007883" lon="6.957700">
        <ele>2034.0</ele>
        <time>2014-08-30T15:20:18Z</time>
      </trkpt>
      <trkpt lat="46.007967" lon="6.957650">
        <ele>2035.0</ele>
        <time>2014-08-30T15:20:19Z</time>
      </trkpt>
      <trkpt lat="46.008067" lon="6.957600">
        <ele>2035.0</ele>
        <time>2014-08-30T15:20:20Z</time>
      </trkpt>
      <trkpt lat="46.008167" lon="6.957550">
        <ele>2035.0</ele>
        <time>2014-08-30T15:20:21Z</time>
      </trkpt>
      <trkpt lat="46.008250" lon="6.957500">
        <ele>2036.0</ele>
        <time>2014-08-30T15:20:22Z</time>
      </trkpt>
      <trkpt lat="46.008350" lon="6.957467">
        <ele>2036.0</ele>
        <time>2014-08-30T15:20:23Z</time>
      </trkpt>
      <trkpt lat="46.008467" lon="6.957417">
        <ele>2035.0</ele>
        <time>2014-08-30T15:20:24Z</time>
      </trkpt>
      <trkpt lat="46.008567" lon="6.957383">
        <ele>2035.0</ele>
        <time>2014-08-30T15:20:25Z</time>
      </trkpt>
      <trkpt lat="46.008667" lon="6.957350">
        <ele>2035.0</ele>
        <time>2014-08-30T15:20:26Z</time>
      </trkpt>
      <trkpt lat="46.008783" lon="6.957333">
        <ele>2035.0</ele>
        <time>2014-08-30T15:20:27Z</time>
      </trkpt>
      <trkpt lat="46.008900" lon="6.957300">
        <ele>2035.0</ele>
        <time>2014-08-30T15:20:28Z</time>
      </trkpt>
      <trkpt lat="46.009000" lon="6.957283">
        <ele>2035.0</ele>
        <time>2014-08-30T15:20:29Z</time>
      </trkpt>
      <trkpt lat="46.009100" lon="6.957250">
        <ele>2036.0</ele>
        <time>2014-08-30T15:20:30Z</time>
      </trkpt>
      <trkpt lat="46.009200" lon="6.957233">
        <ele>2036.0</ele>
        <time>2014-08-30T15:20:31Z</time>
      </trkpt>
      <trkpt lat="46.009300" lon="6.957200">
        <ele>2035.0</ele>
        <time>2014-08-30T15:20:32Z</time>
      </trkpt>
      <trkpt lat="46.009400" lon="6.957150">
        <ele>2035.0</ele>
        <time>2014-08-30T15:20:33Z</time>
      </trkpt>
      <trkpt lat="46.009483" lon="6.957117">
        <ele>2035.0</ele>
        <time>2014-08-30T15:20:34Z</time>
      </trkpt>
      <trkpt lat="46.009583" lon="6.957083">
        <ele>2036.0</ele>
        <time>2014-08-30T15:20:35Z</time>
      </trkpt>
      <trkpt lat="46.009667" lon="6.957050">
        <ele>2036.0</ele>
        <time>2014-08-30T15:20:36Z</time>
      </trkpt>
      <trkpt lat="46.009750" lon="6.957000">
        <ele>2036.0</ele>
        <time>2014-08-30T15:20:37Z</time>
      </trkpt>
      <trkpt lat="46.009833" lon="6.956950">
        <ele>2035.0</ele>
        <time>2014-08-30T15:20:38Z</time>
      </trkpt>
      <trkpt lat="46.009900" lon="6.956867">
        <ele>2034.0</ele>
        <time>2014-08-30T15:20:39Z</time>
      </trkpt>
      <trkpt lat="46.009967" lon="6.956800">
        <ele>2034.0</ele>
        <time>2014-08-30T15:20:40Z</time>
      </trkpt>
      <trkpt lat="46.010033" lon="6.956717">
        <ele>2035.0</ele>
        <time>2014-08-30T15:20:41Z</time>
      </trkpt>
      <trkpt lat="46.010067" lon="6.956633">
        <ele>2035.0</ele>
        <time>2014-08-30T15:20:42Z</time>
      </trkpt>
      <trkpt lat="46.010117" lon="6.956567">
        <ele>2035.0</ele>
        <time>2014-08-30T15:20:43Z</time>
      </trkpt>
      <trkpt lat="46.010150" lon="6.956483">
        <ele>2035.0</ele>
        <time>2014-08-30T15:20:44Z</time>
      </trkpt>
      <trkpt lat="46.010167" lon="6.956400">
        <ele>2035.0</ele>
        <time>2014-08-30T15:20:45Z</time>
      </trkpt>
      <trkpt lat="46.010200" lon="6.956317">
        <ele>2034.0</ele>
        <time>2014-08-30T15:20:46Z</time>
      </trkpt>
      <trkpt lat="46.010217" lon="6.956217">
        <ele>2035.0</ele>
        <time>2014-08-30T15:20:47Z</time>
      </trkpt>
      <trkpt lat="46.010250" lon="6.956133">
        <ele>2035.0</ele>
        <time>2014-08-30T15:20:48Z</time>
      </trkpt>
      <trkpt lat="46.010283" lon="6.956067">
        <ele>2036.0</ele>
        <time>2014-08-30T15:20:49Z</time>
      </trkpt>
      <trkpt lat="46.010333" lon="6.955983">
        <ele>2037.0</ele>
        <time>2014-08-30T15:20:50Z</time>
      </trkpt>
      <trkpt lat="46.010383" lon="6.955917">
        <ele>2037.0</ele>
        <time>2014-08-30T15:20:51Z</time>
      </trkpt>
      <trkpt lat="46.010450" lon="6.955833">
        <ele>2037.0</ele>
        <time>2014-08-30T15:20:52Z</time>
      </trkpt>
      <trkpt lat="46.010517" lon="6.955767">
        <ele>2037.0</ele>
        <time>2014-08-30T15:20:53Z</time>
      </trkpt>
      <trkpt lat="46.010600" lon="6.955700">
        <ele>2037.0</ele>
        <time>2014-08-30T15:20:54Z</time>
      </trkpt>
      <trkpt lat="46.010700" lon="6.955667">
        <ele>2037.0</ele>
        <time>2014-08-30T15:20:55Z</time>
      </trkpt>
      <trkpt lat="46.010800" lon="6.955650">
        <ele>2037.0</ele>
        <time>2014-08-30T15:20:56Z</time>
      </trkpt>
      <trkpt lat="46.010917" lon="6.955633">
        <ele>2037.0</ele>
        <time>2014-08-30T15:20:57Z</time>
      </trkpt>
      <trkpt lat="46.011033" lon="6.955633">
        <ele>2037.0</ele>
        <time>2014-08-30T15:20:58Z</time>
      </trkpt>
      <trkpt lat="46.011150" lon="6.955667">
        <ele>2037.0</ele>
        <time>2014-08-30T15:20:59Z</time>
      </trkpt>
      <trkpt lat="46.011267" lon="6.955717">
        <ele>2037.0</ele>
        <time>2014-08-30T15:21:00Z</time>
      </trkpt>
      <trkpt lat="46.011383" lon="6.955783">
        <ele>2037.0</ele>
        <time>2014-08-30T15:21:01Z</time>
      </trkpt>
      <trkpt lat="46.011483" lon="6.955900">
        <ele>2037.0</ele>
        <time>2014-08-30T15:21:02Z</time>
      </trkpt>
      <trkpt lat="46.011583" lon="6.956017">
        <ele>2037.0</ele>
        <time>2014-08-30T15:21:03Z</time>
      </trkpt>
      <trkpt lat="46.011667" lon="6.956150">
        <ele>2036.0</ele>
        <time>2014-08-30T15:21:04Z</time>
      </trkpt>
      <trkpt lat="46.011733" lon="6.956300">
        <ele>2036.0</ele>
        <time>2014-08-30T15:21:05Z</time>
      </trkpt>
      <trkpt lat="46.011783" lon="6.956450">
        <ele>2036.0</ele>
        <time>2014-08-30T15:21:06Z</time>
      </trkpt>
      <trkpt lat="46.011817" lon="6.956600">
        <ele>2036.0</ele>
        <time>2014-08-30T15:21:07Z</time>
      </trkpt>
      <trkpt lat="46.011833" lon="6.956750">
        <ele>2036.0</ele>
        <time>2014-08-30T15:21:08Z</time>
      </trkpt>
      <trkpt lat="46.011833" lon="6.956883">
        <ele>2036.0</ele>
        <time>2014-08-30T15:21:09Z</time>
      </trkpt>
      <trkpt lat="46.011817" lon="6.957017">
        <ele>2036.0</ele>
        <time>2014-08-30T15:21:10Z</time>
      </trkpt>
      <trkpt lat="46.011783" lon="6.957133">
        <ele>2036.0</ele>
        <time>2014-08-30T15:21:11Z</time>
      </trkpt>
      <trkpt lat="46.011750" lon="6.957250">
        <ele>2035.0</ele>
        <time>2014-08-30T15:21:12Z</time>
      </trkpt>
      <trkpt lat="46.011700" lon="6.957350">
        <ele>2035.0</ele>
        <time>2014-08-30T15:21:13Z</time>
      </trkpt>
      <trkpt lat="46.011667" lon="6.957467">
        <ele>2034.0</ele>
        <time>2014-08-30T15:21:14Z</time>
      </trkpt>
      <trkpt lat="46.011617" lon="6.957583">
        <ele>2034.0</ele>
        <time>2014-08-30T15:21:15Z</time>
      </trkpt>
      <trkpt lat="46.011567" lon="6.957683">
        <ele>2034.0</ele>
        <time>2014-08-30T15:21:16Z</time>
      </trkpt>
      <trkpt lat="46.011533" lon="6.957783">
        <ele>2035.0</ele>
        <time>2014-08-30T15:21:17Z</time>
      </trkpt>
      <trkpt lat="46.011483" lon="6.957867">
        <ele>2035.0</ele>
        <time>2014-08-30T15:21:18Z</time>
      </trkpt>
      <trkpt lat="46.011433" lon="6.957983">
        <ele>2035.0</ele>
        <time>2014-08-30T15:21:19Z</time>
      </trkpt>
      <trkpt lat="46.011383" lon="6.958083">
        <ele>2035.0</ele>
        <time>2014-08-30T15:21:20Z</time>
      </trkpt>
      <trkpt lat="46.011333" lon="6.958183">
        <ele>2035.0</ele>
        <time>2014-08-30T15:21:21Z</time>
      </trkpt>
      <trkpt lat="46.011283" lon="6.958283">
        <ele>2035.0</ele>
        <time>2014-08-30T15:21:22Z</time>
      </trkpt>
      <trkpt lat="46.011233" lon="6.958383">
        <ele>2035.0</ele>
        <time>2014-08-30T15:21:23Z</time>
      </trkpt>
      <trkpt lat="46.011183" lon="6.958483">
        <ele>2035.0</ele>
        <time>2014-08-30T15:21:24Z</time>
      </trkpt>
      <trkpt lat="46.011133" lon="6.958583">
        <ele>2035.0</ele>
        <time>2014-08-30T15:21:25Z</time>
      </trkpt>
      <trkpt lat="46.011083" lon="6.958683">
        <ele>2035.0</ele>
        <time>2014-08-30T15:21:26Z</time>
      </trkpt>
      <trkpt lat="46.011033" lon="6.958783">
        <ele>2035.0</ele>
        <time>2014-08-30T15:21:27Z</time>
      </trkpt>
      <trkpt lat="46.010983" lon="6.958867">
        <ele>2035.0</ele>
        <time>2014-08-30T15:21:28Z</time>
      </trkpt>
      <trkpt lat="46.010933" lon="6.958967">
        <ele>2034.0</ele>
        <time>2014-08-30T15:21:29Z</time>
      </trkpt>
      <trkpt lat="46.010883" lon="6.959050">
        <ele>2033.0</ele>
        <time>2014-08-30T15:21:30Z</time>
      </trkpt>
      <trkpt lat="46.010817" lon="6.959133">
        <ele>2033.0</ele>
        <time>2014-08-30T15:21:31Z</time>
      </trkpt>
      <trkpt lat="46.010767" lon="6.959200">
        <ele>2033.0</ele>
        <time>2014-08-30T15:21:32Z</time>
      </trkpt>
      <trkpt lat="46.010717" lon="6.959267">
        <ele>2032.0</ele>
        <time>2014-08-30T15:21:33Z</time>
      </trkpt>
      <trkpt lat="46.010667" lon="6.959333">
        <ele>2032.0</ele>
        <time>2014-08-30T15:21:34Z</time>
      </trkpt>
      <trkpt lat="46.010617" lon="6.959383">
        <ele>2031.0</ele>
        <time>2014-08-30T15:21:35Z</time>
      </trkpt>
      <trkpt lat="46.010550" lon="6.959433">
        <ele>2030.0</ele>
        <time>2014-08-30T15:21:36Z</time>
      </trkpt>
      <trkpt lat="46.010500" lon="6.959483">
        <ele>2029.0</ele>
        <time>2014-08-30T15:21:37Z</time>
      </trkpt>
      <trkpt lat="46.010433" lon="6.959533">
        <ele>2027.0</ele>
        <time>2014-08-30T15:21:38Z</time>
      </trkpt>
      <trkpt lat="46.010383" lon="6.959583">
        <ele>2026.0</ele>
        <time>2014-08-30T15:21:39Z</time>
      </trkpt>
      <trkpt lat="46.010317" lon="6.959650">
        <ele>2025.0</ele>
        <time>2014-08-30T15:21:40Z</time>
      </trkpt>
      <trkpt lat="46.010267" lon="6.959733">
        <ele>2024.0</ele>
        <time>2014-08-30T15:21:41Z</time>
      </trkpt>
      <trkpt lat="46.010217" lon="6.959800">
        <ele>2023.0</ele>
        <time>2014-08-30T15:21:42Z</time>
      </trkpt>
      <trkpt lat="46.010167" lon="6.959867">
        <ele>2022.0</ele>
        <time>2014-08-30T15:21:43Z</time>
      </trkpt>
      <trkpt lat="46.010117" lon="6.959933">
        <ele>2021.0</ele>
        <time>2014-08-30T15:21:44Z</time>
      </trkpt>
      <trkpt lat="46.010067" lon="6.960017">
        <ele>2020.0</ele>
        <time>2014-08-30T15:21:45Z</time>
      </trkpt>
      <trkpt lat="46.010017" lon="6.960083">
        <ele>2019.0</ele>
        <time>2014-08-30T15:21:46Z</time>
      </trkpt>
      <trkpt lat="46.009967" lon="6.960167">
        <ele>2019.0</ele>
        <time>2014-08-30T15:21:47Z</time>
      </trkpt>
      <trkpt lat="46.009917" lon="6.960250">
        <ele>2019.0</ele>
        <time>2014-08-30T15:21:48Z</time>
      </trkpt>
      <trkpt lat="46.009883" lon="6.960317">
        <ele>2019.0</ele>
        <time>2014-08-30T15:21:49Z</time>
      </trkpt>
      <trkpt lat="46.009833" lon="6.960400">
        <ele>2018.0</ele>
        <time>2014-08-30T15:21:50Z</time>
      </trkpt>
      <trkpt lat="46.009783" lon="6.960467">
        <ele>2017.0</ele>
        <time>2014-08-30T15:21:51Z</time>
      </trkpt>
      <trkpt lat="46.009733" lon="6.960550">
        <ele>2016.0</ele>
        <time>2014-08-30T15:21:52Z</time>
      </trkpt>
      <trkpt lat="46.009667" lon="6.960617">
        <ele>2015.0</ele>
        <time>2014-08-30T15:21:53Z</time>
      </trkpt>
      <trkpt lat="46.009617" lon="6.960700">
        <ele>2015.0</ele>
        <time>2014-08-30T15:21:54Z</time>
      </trkpt>
      <trkpt lat="46.009583" lon="6.960783">
        <ele>2015.0</ele>
        <time>2014-08-30T15:21:55Z</time>
      </trkpt>
      <trkpt lat="46.009533" lon="6.960850">
        <ele>2015.0</ele>
        <time>2014-08-30T15:21:56Z</time>
      </trkpt>
      <trkpt lat="46.009500" lon="6.960917">
        <ele>2014.0</ele>
        <time>2014-08-30T15:21:57Z</time>
      </trkpt>
      <trkpt lat="46.009450" lon="6.961000">
        <ele>2013.0</ele>
        <time>2014-08-30T15:21:58Z</time>
      </trkpt>
      <trkpt lat="46.009400" lon="6.961067">
        <ele>2011.0</ele>
        <time>2014-08-30T15:21:59Z</time>
      </trkpt>
      <trkpt lat="46.009350" lon="6.961150">
        <ele>2010.0</ele>
        <time>2014-08-30T15:22:00Z</time>
      </trkpt>
      <trkpt lat="46.009283" lon="6.961233">
        <ele>2010.0</ele>
        <time>2014-08-30T15:22:01Z</time>
      </trkpt>
      <trkpt lat="46.009233" lon="6.961300">
        <ele>2010.0</ele>
        <time>2014-08-30T15:22:02Z</time>
      </trkpt>
      <trkpt lat="46.009183" lon="6.961367">
        <ele>2011.0</ele>
        <time>2014-08-30T15:22:03Z</time>
      </trkpt>
      <trkpt lat="46.009150" lon="6.961433">
        <ele>2011.0</ele>
        <time>2014-08-30T15:22:04Z</time>
      </trkpt>
      <trkpt lat="46.009100" lon="6.961483">
        <ele>2010.0</ele>
        <time>2014-08-30T15:22:05Z</time>
      </trkpt>
      <trkpt lat="46.009033" lon="6.961550">
        <ele>2010.0</ele>
        <time>2014-08-30T15:22:06Z</time>
      </trkpt>
      <trkpt lat="46.008983" lon="6.961617">
        <ele>2010.0</ele>
        <time>2014-08-30T15:22:07Z</time>
      </trkpt>
      <trkpt lat="46.008917" lon="6.961683">
        <ele>2010.0</ele>
        <time>2014-08-30T15:22:08Z</time>
      </trkpt>
      <trkpt lat="46.008867" lon="6.961750">
        <ele>2010.0</ele>
        <time>2014-08-30T15:22:09Z</time>
      </trkpt>
      <trkpt lat="46.008817" lon="6.961817">
        <ele>2011.0</ele>
        <time>2014-08-30T15:22:10Z</time>
      </trkpt>
      <trkpt lat="46.008750" lon="6.961900">
        <ele>2011.0</ele>
        <time>2014-08-30T15:22:11Z</time>
      </trkpt>
      <trkpt lat="46.008700" lon="6.961983">
        <ele>2012.0</ele>
        <time>2014-08-30T15:22:12Z</time>
      </trkpt>
      <trkpt lat="46.008650" lon="6.962067">
        <ele>2012.0</ele>
        <time>2014-08-30T15:22:13Z</time>
      </trkpt>
      <trkpt lat="46.008600" lon="6.962167">
        <ele>2013.0</ele>
        <time>2014-08-30T15:22:14Z</time>
      </trkpt>
      <trkpt lat="46.008550" lon="6.962250">
        <ele>2014.0</ele>
        <time>2014-08-30T15:22:15Z</time>
      </trkpt>
      <trkpt lat="46.008483" lon="6.962350">
        <ele>2015.0</ele>
        <time>2014-08-30T15:22:16Z</time>
      </trkpt>
      <trkpt lat="46.008433" lon="6.962450">
        <ele>2017.0</ele>
        <time>2014-08-30T15:22:17Z</time>
      </trkpt>
      <trkpt lat="46.008383" lon="6.962550">
        <ele>2020.0</ele>
        <time>2014-08-30T15:22:18Z</time>
      </trkpt>
      <trkpt lat="46.008333" lon="6.962633">
        <ele>2022.0</ele>
        <time>2014-08-30T15:22:19Z</time>
      </trkpt>
      <trkpt lat="46.008283" lon="6.962717">
        <ele>2023.0</ele>
        <time>2014-08-30T15:22:20Z</time>
      </trkpt>
      <trkpt lat="46.008233" lon="6.962800">
        <ele>2025.0</ele>
        <time>2014-08-30T15:22:21Z</time>
      </trkpt>
      <trkpt lat="46.008167" lon="6.962883">
        <ele>2026.0</ele>
        <time>2014-08-30T15:22:22Z</time>
      </trkpt>
      <trkpt lat="46.008117" lon="6.962950">
        <ele>2028.0</ele>
        <time>2014-08-30T15:22:23Z</time>
      </trkpt>
      <trkpt lat="46.008050" lon="6.963017">
        <ele>2029.0</ele>
        <time>2014-08-30T15:22:24Z</time>
      </trkpt>
      <trkpt lat="46.008000" lon="6.963067">
        <ele>2030.0</ele>
        <time>2014-08-30T15:22:25Z</time>
      </trkpt>
      <trkpt lat="46.007933" lon="6.963117">
        <ele>2031.0</ele>
        <time>2014-08-30T15:22:26Z</time>
      </trkpt>
      <trkpt lat="46.007867" lon="6.963133">
        <ele>2033.0</ele>
        <time>2014-08-30T15:22:27Z</time>
      </trkpt>
      <trkpt lat="46.007817" lon="6.963150">
        <ele>2035.0</ele>
        <time>2014-08-30T15:22:28Z</time>
      </trkpt>
      <trkpt lat="46.007767" lon="6.963183">
        <ele>2037.0</ele>
        <time>2014-08-30T15:22:29Z</time>
      </trkpt>
      <trkpt lat="46.007717" lon="6.963233">
        <ele>2040.0</ele>
        <time>2014-08-30T15:22:30Z</time>
      </trkpt>
      <trkpt lat="46.007667" lon="6.963283">
        <ele>2042.0</ele>
        <time>2014-08-30T15:22:31Z</time>
      </trkpt>
      <trkpt lat="46.007633" lon="6.963333">
        <ele>2044.0</ele>
        <time>2014-08-30T15:22:32Z</time>
      </trkpt>
      <trkpt lat="46.007583" lon="6.963383">
        <ele>2046.0</ele>
        <time>2014-08-30T15:22:33Z</time>
      </trkpt>
      <trkpt lat="46.007533" lon="6.963433">
        <ele>2048.0</ele>
        <time>2014-08-30T15:22:34Z</time>
      </trkpt>
      <trkpt lat="46.007467" lon="6.963483">
        <ele>2051.0</ele>
        <time>2014-08-30T15:22:35Z</time>
      </trkpt>
      <trkpt lat="46.007417" lon="6.963533">
        <ele>2053.0</ele>
        <time>2014-08-30T15:22:36Z</time>
      </trkpt>
      <trkpt lat="46.007367" lon="6.963567">
        <ele>2056.0</ele>
        <time>2014-08-30T15:22:37Z</time>
      </trkpt>
      <trkpt lat="46.007317" lon="6.963600">
        <ele>2058.0</ele>
        <time>2014-08-30T15:22:38Z</time>
      </trkpt>
      <trkpt lat="46.007267" lon="6.963633">
        <ele>2061.0</ele>
        <time>2014-08-30T15:22:39Z</time>
      </trkpt>
      <trkpt lat="46.007217" lon="6.963667">
        <ele>2063.0</ele>
        <time>2014-08-30T15:22:40Z</time>
      </trkpt>
      <trkpt lat="46.007167" lon="6.963683">
        <ele>2065.0</ele>
        <time>2014-08-30T15:22:41Z</time>
      </trkpt>
      <trkpt lat="46.007133" lon="6.963700">
        <ele>2067.0</ele>
        <time>2014-08-30T15:22:42Z</time>
      </trkpt>
      <trkpt lat="46.007083" lon="6.963717">
        <ele>2069.0</ele>
        <time>2014-08-30T15:22:43Z</time>
      </trkpt>
      <trkpt lat="46.007033" lon="6.963750">
        <ele>2070.0</ele>
        <time>2014-08-30T15:22:44Z</time>
      </trkpt>
      <trkpt lat="46.006983" lon="6.963783">
        <ele>2072.0</ele>
        <time>2014-08-30T15:22:45Z</time>
      </trkpt>
      <trkpt lat="46.006933" lon="6.963817">
        <ele>2075.0</ele>
        <time>2014-08-30T15:22:46Z</time>
      </trkpt>
      <trkpt lat="46.006900" lon="6.963817">
        <ele>2077.0</ele>
        <time>2014-08-30T15:22:47Z</time>
      </trkpt>
      <trkpt lat="46.006867" lon="6.963817">
        <ele>2079.0</ele>
        <time>2014-08-30T15:22:48Z</time>
      </trkpt>
      <trkpt lat="46.006833" lon="6.963833">
        <ele>2081.0</ele>
        <time>2014-08-30T15:22:49Z</time>
      </trkpt>
      <trkpt lat="46.006783" lon="6.963850">
        <ele>2083.0</ele>
        <time>2014-08-30T15:22:50Z</time>
      </trkpt>
      <trkpt lat="46.006733" lon="6.963883">
        <ele>2085.0</ele>
        <time>2014-08-30T15:22:51Z</time>
      </trkpt>
      <trkpt lat="46.006667" lon="6.963917">
        <ele>2087.0</ele>
        <time>2014-08-30T15:22:52Z</time>
      </trkpt>
      <trkpt lat="46.006633" lon="6.963950">
        <ele>2089.0</ele>
        <time>2014-08-30T15:22:53Z</time>
      </trkpt>
      <trkpt lat="46.006583" lon="6.963983">
        <ele>2091.0</ele>
        <time>2014-08-30T15:22:54Z</time>
      </trkpt>
      <trkpt lat="46.006533" lon="6.964017">
        <ele>2092.0</ele>
        <time>2014-08-30T15:22:55Z</time>
      </trkpt>
      <trkpt lat="46.006483" lon="6.964067">
        <ele>2094.0</ele>
        <time>2014-08-30T15:22:56Z</time>
      </trkpt>
      <trkpt lat="46.006417" lon="6.964100">
        <ele>2096.0</ele>
        <time>2014-08-30T15:22:57Z</time>
      </trkpt>
      <trkpt lat="46.006367" lon="6.964133">
        <ele>2099.0</ele>
        <time>2014-08-30T15:22:58Z</time>
      </trkpt>
      <trkpt lat="46.006317" lon="6.964150">
        <ele>2104.0</ele>
        <time>2014-08-30T15:22:59Z</time>
      </trkpt>
      <trkpt lat="46.006267" lon="6.964150">
        <ele>2107.0</ele>
        <time>2014-08-30T15:23:00Z</time>
      </trkpt>
      <trkpt lat="46.006250" lon="6.964133">
        <ele>2110.0</ele>
        <time>2014-08-30T15:23:01Z</time>
      </trkpt>
      <trkpt lat="46.006217" lon="6.964100">
        <ele>2112.0</ele>
        <time>2014-08-30T15:23:02Z</time>
      </trkpt>
      <trkpt lat="46.006167" lon="6.964050">
        <ele>2115.0</ele>
        <time>2014-08-30T15:23:03Z</time>
      </trkpt>
      <trkpt lat="46.006117" lon="6.964017">
        <ele>2118.0</ele>
        <time>2014-08-30T15:23:04Z</time>
      </trkpt>
      <trkpt lat="46.006067" lon="6.964000">
        <ele>2121.0</ele>
        <time>2014-08-30T15:23:05Z</time>
      </trkpt>
      <trkpt lat="46.006033" lon="6.964000">
        <ele>2124.0</ele>
        <time>2014-08-30T15:23:06Z</time>
      </trkpt>
      <trkpt lat="46.006017" lon="6.963983">
        <ele>2125.0</ele>
        <time>2014-08-30T15:23:07Z</time>
      </trkpt>
      <trkpt lat="46.005967" lon="6.963983">
        <ele>2125.0</ele>
        <time>2014-08-30T15:23:08Z</time>
      </trkpt>
      <trkpt lat="46.005900" lon="6.964000">
        <ele>2124.0</ele>
        <time>2014-08-30T15:23:09Z</time>
      </trkpt>
      <trkpt lat="46.005817" lon="6.964017">
        <ele>2124.0</ele>
        <time>2014-08-30T15:23:10Z</time>
      </trkpt>
      <trkpt lat="46.005750" lon="6.964083">
        <ele>2125.0</ele>
        <time>2014-08-30T15:23:11Z</time>
      </trkpt>
      <trkpt lat="46.005683" lon="6.964150">
        <ele>2127.0</ele>
        <time>2014-08-30T15:23:12Z</time>
      </trkpt>
      <trkpt lat="46.005633" lon="6.964233">
        <ele>2128.0</ele>
        <time>2014-08-30T15:23:13Z</time>
      </trkpt>
      <trkpt lat="46.005567" lon="6.964300">
        <ele>2129.0</ele>
        <time>2014-08-30T15:23:14Z</time>
      </trkpt>
      <trkpt lat="46.005517" lon="6.964383">
        <ele>2129.0</ele>
        <time>2014-08-30T15:23:15Z</time>
      </trkpt>
      <trkpt lat="46.005450" lon="6.964483">
        <ele>2129.0</ele>
        <time>2014-08-30T15:23:16Z</time>
      </trkpt>
      <trkpt lat="46.005383" lon="6.964583">
        <ele>2131.0</ele>
        <time>2014-08-30T15:23:17Z</time>
      </trkpt>
      <trkpt lat="46.005317" lon="6.964667">
        <ele>2132.0</ele>
        <time>2014-08-30T15:23:18Z</time>
      </trkpt>
      <trkpt lat="46.005250" lon="6.964750">
        <ele>2134.0</ele>
        <time>2014-08-30T15:23:19Z</time>
      </trkpt>
      <trkpt lat="46.005200" lon="6.964833">
        <ele>2134.0</ele>
        <time>2014-08-30T15:23:20Z</time>
      </trkpt>
      <trkpt lat="46.005133" lon="6.964933">
        <ele>2134.0</ele>
        <time>2014-08-30T15:23:21Z</time>
      </trkpt>
      <trkpt lat="46.005067" lon="6.965033">
        <ele>2134.0</ele>
        <time>2014-08-30T15:23:22Z</time>
      </trkpt>
      <trkpt lat="46.005000" lon="6.965133">
        <ele>2136.0</ele>
        <time>2014-08-30T15:23:23Z</time>
      </trkpt>
      <trkpt lat="46.004917" lon="6.965233">
        <ele>2137.0</ele>
        <time>2014-08-30T15:23:24Z</time>
      </trkpt>
      <trkpt lat="46.004850" lon="6.965300">
        <ele>2140.0</ele>
        <time>2014-08-30T15:23:25Z</time>
      </trkpt>
      <trkpt lat="46.004783" lon="6.965350">
        <ele>2143.0</ele>
        <time>2014-08-30T15:23:26Z</time>
      </trkpt>
      <trkpt lat="46.004717" lon="6.965433">
        <ele>2147.0</ele>
        <time>2014-08-30T15:23:27Z</time>
      </trkpt>
      <trkpt lat="46.004667" lon="6.965500">
        <ele>2151.0</ele>
        <time>2014-08-30T15:23:28Z</time>
      </trkpt>
      <trkpt lat="46.004600" lon="6.965567">
        <ele>2154.0</ele>
        <time>2014-08-30T15:23:29Z</time>
      </trkpt>
      <trkpt lat="46.004550" lon="6.965617">
        <ele>2155.0</ele>
        <time>2014-08-30T15:23:30Z</time>
      </trkpt>
      <trkpt lat="46.004467" lon="6.965700">
        <ele>2155.0</ele>
        <time>2014-08-30T15:23:31Z</time>
      </trkpt>
      <trkpt lat="46.004400" lon="6.965783">
        <ele>2156.0</ele>
        <time>2014-08-30T15:23:32Z</time>
      </trkpt>
      <trkpt lat="46.004317" lon="6.965883">
        <ele>2159.0</ele>
        <time>2014-08-30T15:23:33Z</time>
      </trkpt>
      <trkpt lat="46.004250" lon="6.965983">
        <ele>2164.0</ele>
        <time>2014-08-30T15:23:34Z</time>
      </trkpt>
      <trkpt lat="46.004200" lon="6.966083">
        <ele>2170.0</ele>
        <time>2014-08-30T15:23:35Z</time>
      </trkpt>
      <trkpt lat="46.004167" lon="6.966200">
        <ele>2174.0</ele>
        <time>2014-08-30T15:23:36Z</time>
      </trkpt>
      <trkpt lat="46.004117" lon="6.966317">
        <ele>2178.0</ele>
        <time>2014-08-30T15:23:37Z</time>
      </trkpt>
      <trkpt lat="46.004067" lon="6.966450">
        <ele>2182.0</ele>
        <time>2014-08-30T15:23:38Z</time>
      </trkpt>
      <trkpt lat="46.004017" lon="6.966567">
        <ele>2186.0</ele>
        <time>2014-08-30T15:23:39Z</time>
      </trkpt>
      <trkpt lat="46.003967" lon="6.966667">
        <ele>2189.0</ele>
        <time>2014-08-30T15:23:40Z</time>
      </trkpt>
      <trkpt lat="46.003933" lon="6.966783">
        <ele>2192.0</ele>
        <time>2014-08-30T15:23:41Z</time>
      </trkpt>
      <trkpt lat="46.003883" lon="6.966883">
        <ele>2195.0</ele>
        <time>2014-08-30T15:23:42Z</time>
      </trkpt>
      <trkpt lat="46.003817" lon="6.966950">
        <ele>2197.0</ele>
        <time>2014-08-30T15:23:43Z</time>
      </trkpt>
      <trkpt lat="46.003750" lon="6.967000">
        <ele>2198.0</ele>
        <time>2014-08-30T15:23:44Z</time>
      </trkpt>
      <trkpt lat="46.003683" lon="6.967000">
        <ele>2200.0</ele>
        <time>2014-08-30T15:23:45Z</time>
      </trkpt>
      <trkpt lat="46.003650" lon="6.966983">
        <ele>2202.0</ele>
        <time>2014-08-30T15:23:46Z</time>
      </trkpt>
      <trkpt lat="46.003617" lon="6.966933">
        <ele>2203.0</ele>
        <time>2014-08-30T15:23:47Z</time>
      </trkpt>
      <trkpt lat="46.003617" lon="6.966883">
        <ele>2205.0</ele>
        <time>2014-08-30T15:23:48Z</time>
      </trkpt>
      <trkpt lat="46.003617" lon="6.966850">
        <ele>2206.0</ele>
        <time>2014-08-30T15:23:49Z</time>
      </trkpt>
      <trkpt lat="46.003633" lon="6.966800">
        <ele>2207.0</ele>
        <time>2014-08-30T15:23:50Z</time>
      </trkpt>
      <trkpt lat="46.003667" lon="6.966750">
        <ele>2207.0</ele>
        <time>2014-08-30T15:23:51Z</time>
      </trkpt>
      <trkpt lat="46.003717" lon="6.966700">
        <ele>2207.0</ele>
        <time>2014-08-30T15:23:52Z</time>
      </trkpt>
      <trkpt lat="46.003767" lon="6.966667">
        <ele>2207.0</ele>
        <time>2014-08-30T15:23:53Z</time>
      </trkpt>
      <trkpt lat="46.003817" lon="6.966617">
        <ele>2207.0</ele>
        <time>2014-08-30T15:23:54Z</time>
      </trkpt>
      <trkpt lat="46.003867" lon="6.966550">
        <ele>2205.0</ele>
        <time>2014-08-30T15:23:55Z</time>
      </trkpt>
      <trkpt lat="46.003900" lon="6.966467">
        <ele>2205.0</ele>
        <time>2014-08-30T15:23:56Z</time>
      </trkpt>
      <trkpt lat="46.003950" lon="6.966400">
        <ele>2207.0</ele>
        <time>2014-08-30T15:23:57Z</time>
      </trkpt>
      <trkpt lat="46.004000" lon="6.966350">
        <ele>2208.0</ele>
        <time>2014-08-30T15:23:58Z</time>
      </trkpt>
      <trkpt lat="46.004050" lon="6.966283">
        <ele>2210.0</ele>
        <time>2014-08-30T15:23:59Z</time>
      </trkpt>
      <trkpt lat="46.004083" lon="6.966233">
        <ele>2210.0</ele>
        <time>2014-08-30T15:24:00Z</time>
      </trkpt>
      <trkpt lat="46.004117" lon="6.966167">
        <ele>2209.0</ele>
        <time>2014-08-30T15:24:01Z</time>
      </trkpt>
      <trkpt lat="46.004167" lon="6.966100">
        <ele>2208.0</ele>
        <time>2014-08-30T15:24:02Z</time>
      </trkpt>
      <trkpt lat="46.004217" lon="6.966033">
        <ele>2207.0</ele>
        <time>2014-08-30T15:24:03Z</time>
      </trkpt>
      <trkpt lat="46.004283" lon="6.965950">
        <ele>2206.0</ele>
        <time>2014-08-30T15:24:04Z</time>
      </trkpt>
      <trkpt lat="46.004350" lon="6.965900">
        <ele>2205.0</ele>
        <time>2014-08-30T15:24:05Z</time>
      </trkpt>
      <trkpt lat="46.004417" lon="6.965867">
        <ele>2204.0</ele>
        <time>2014-08-30T15:24:06Z</time>
      </trkpt>
      <trkpt lat="46.004500" lon="6.965833">
        <ele>2203.0</ele>
        <time>2014-08-30T15:24:07Z</time>
      </trkpt>
      <trkpt lat="46.004583" lon="6.965817">
        <ele>2201.0</ele>
        <time>2014-08-30T15:24:08Z</time>
      </trkpt>
      <trkpt lat="46.004683" lon="6.965800">
        <ele>2201.0</ele>
        <time>2014-08-30T15:24:09Z</time>
      </trkpt>
      <trkpt lat="46.004783" lon="6.965767">
        <ele>2203.0</ele>
        <time>2014-08-30T15:24:10Z</time>
      </trkpt>
      <trkpt lat="46.004850" lon="6.965733">
        <ele>2206.0</ele>
        <time>2014-08-30T15:24:11Z</time>
      </trkpt>
      <trkpt lat="46.004883" lon="6.965683">
        <ele>2208.0</ele>
        <time>2014-08-30T15:24:12Z</time>
      </trkpt>
      <trkpt lat="46.004917" lon="6.965617">
        <ele>2209.0</ele>
        <time>2014-08-30T15:24:13Z</time>
      </trkpt>
      <trkpt lat="46.004950" lon="6.965550">
        <ele>2210.0</ele>
        <time>2014-08-30T15:24:14Z</time>
      </trkpt>
      <trkpt lat="46.005000" lon="6.965467">
        <ele>2211.0</ele>
        <time>2014-08-30T15:24:15Z</time>
      </trkpt>
      <trkpt lat="46.005050" lon="6.965367">
        <ele>2212.0</ele>
        <time>2014-08-30T15:24:16Z</time>
      </trkpt>
      <trkpt lat="46.005117" lon="6.965300">
        <ele>2214.0</ele>
        <time>2014-08-30T15:24:17Z</time>
      </trkpt>
      <trkpt lat="46.005183" lon="6.965233">
        <ele>2217.0</ele>
        <time>2014-08-30T15:24:18Z</time>
      </trkpt>
      <trkpt lat="46.005250" lon="6.965183">
        <ele>2220.0</ele>
        <time>2014-08-30T15:24:19Z</time>
      </trkpt>
      <trkpt lat="46.005317" lon="6.965133">
        <ele>2223.0</ele>
        <time>2014-08-30T15:24:20Z</time>
      </trkpt>
      <trkpt lat="46.005400" lon="6.965100">
        <ele>2224.0</ele>
        <time>2014-08-30T15:24:21Z</time>
      </trkpt>
      <trkpt lat="46.005483" lon="6.965083">
        <ele>2225.0</ele>
        <time>2014-08-30T15:24:22Z</time>
      </trkpt>
      <trkpt lat="46.005583" lon="6.965067">
        <ele>2225.0</ele>
        <time>2014-08-30T15:24:23Z</time>
      </trkpt>
      <trkpt lat="46.005700" lon="6.965033">
        <ele>2226.0</ele>
        <time>2014-08-30T15:24:24Z</time>
      </trkpt>
      <trkpt lat="46.005783" lon="6.965000">
        <ele>2228.0</ele>
        <time>2014-08-30T15:24:25Z</time>
      </trkpt>
      <trkpt lat="46.005883" lon="6.964983">
        <ele>2229.0</ele>
        <time>2014-08-30T15:24:26Z</time>
      </trkpt>
      <trkpt lat="46.005983" lon="6.964967">
        <ele>2230.0</ele>
        <time>2014-08-30T15:24:27Z</time>
      </trkpt>
      <trkpt lat="46.006083" lon="6.964950">
        <ele>2231.0</ele>
        <time>2014-08-30T15:24:28Z</time>
      </trkpt>
      <trkpt lat="46.006183" lon="6.964950">
        <ele>2232.0</ele>
        <time>2014-08-30T15:24:29Z</time>
      </trkpt>
      <trkpt lat="46.006283" lon="6.964933">
        <ele>2233.0</ele>
        <time>2014-08-30T15:24:30Z</time>
      </trkpt>
      <trkpt lat="46.006400" lon="6.964950">
        <ele>2233.0</ele>
        <time>2014-08-30T15:24:31Z</time>
      </trkpt>
      <trkpt lat="46.006517" lon="6.964983">
        <ele>2233.0</ele>
        <time>2014-08-30T15:24:32Z</time>
      </trkpt>
      <trkpt lat="46.006633" lon="6.965033">
        <ele>2234.0</ele>
        <time>2014-08-30T15:24:33Z</time>
      </trkpt>
      <trkpt lat="46.006750" lon="6.965100">
        <ele>2236.0</ele>
        <time>2014-08-30T15:24:34Z</time>
      </trkpt>
      <trkpt lat="46.006867" lon="6.965167">
        <ele>2238.0</ele>
        <time>2014-08-30T15:24:35Z</time>
      </trkpt>
      <trkpt lat="46.006967" lon="6.965233">
        <ele>2240.0</ele>
        <time>2014-08-30T15:24:36Z</time>
      </trkpt>
      <trkpt lat="46.007050" lon="6.965300">
        <ele>2241.0</ele>
        <time>2014-08-30T15:24:37Z</time>
      </trkpt>
      <trkpt lat="46.007150" lon="6.965383">
        <ele>2243.0</ele>
        <time>2014-08-30T15:24:38Z</time>
      </trkpt>
      <trkpt lat="46.007233" lon="6.965450">
        <ele>2243.0</ele>
        <time>2014-08-30T15:24:39Z</time>
      </trkpt>
      <trkpt lat="46.007333" lon="6.965533">
        <ele>2243.0</ele>
        <time>2014-08-30T15:24:40Z</time>
      </trkpt>
      <trkpt lat="46.007433" lon="6.965617">
        <ele>2242.0</ele>
        <time>2014-08-30T15:24:41Z</time>
      </trkpt>
      <trkpt lat="46.007533" lon="6.965717">
        <ele>2242.0</ele>
        <time>2014-08-30T15:24:42Z</time>
      </trkpt>
      <trkpt lat="46.007633" lon="6.965800">
        <ele>2242.0</ele>
        <time>2014-08-30T15:24:43Z</time>
      </trkpt>
      <trkpt lat="46.007733" lon="6.965850">
        <ele>2243.0</ele>
        <time>2014-08-30T15:24:44Z</time>
      </trkpt>
      <trkpt lat="46.007850" lon="6.965883">
        <ele>2243.0</ele>
        <time>2014-08-30T15:24:45Z</time>
      </trkpt>
      <trkpt lat="46.007950" lon="6.965917">
        <ele>2245.0</ele>
        <time>2014-08-30T15:24:46Z</time>
      </trkpt>
      <trkpt lat="46.008067" lon="6.965967">
        <ele>2247.0</ele>
        <time>2014-08-30T15:24:47Z</time>
      </trkpt>
      <trkpt lat="46.008150" lon="6.966000">
        <ele>2248.0</ele>
        <time>2014-08-30T15:24:48Z</time>
      </trkpt>
      <trkpt lat="46.008250" lon="6.966017">
        <ele>2250.0</ele>
        <time>2014-08-30T15:24:49Z</time>
      </trkpt>
      <trkpt lat="46.008333" lon="6.966017">
        <ele>2250.0</ele>
        <time>2014-08-30T15:24:50Z</time>
      </trkpt>
      <trkpt lat="46.008417" lon="6.966000">
        <ele>2250.0</ele>
        <time>2014-08-30T15:24:51Z</time>
      </trkpt>
      <trkpt lat="46.008517" lon="6.966000">
        <ele>2250.0</ele>
        <time>2014-08-30T15:24:52Z</time>
      </trkpt>
      <trkpt lat="46.008617" lon="6.966000">
        <ele>2250.0</ele>
        <time>2014-08-30T15:24:53Z</time>
      </trkpt>
      <trkpt lat="46.008717" lon="6.965983">
        <ele>2251.0</ele>
        <time>2014-08-30T15:24:54Z</time>
      </trkpt>
      <trkpt lat="46.008800" lon="6.965950">
        <ele>2252.0</ele>
        <time>2014-08-30T15:24:55Z</time>
      </trkpt>
      <trkpt lat="46.008883" lon="6.965900">
        <ele>2253.0</ele>
        <time>2014-08-30T15:24:56Z</time>
      </trkpt>
      <trkpt lat="46.008950" lon="6.965833">
        <ele>2254.0</ele>
        <time>2014-08-30T15:24:57Z</time>
      </trkpt>
      <trkpt lat="46.009017" lon="6.965767">
        <ele>2254.0</ele>
        <time>2014-08-30T15:24:58Z</time>
      </trkpt>
      <trkpt lat="46.009083" lon="6.965700">
        <ele>2254.0</ele>
        <time>2014-08-30T15:24:59Z</time>
      </trkpt>
      <trkpt lat="46.009167" lon="6.965617">
        <ele>2255.0</ele>
        <time>2014-08-30T15:25:00Z</time>
      </trkpt>
      <trkpt lat="46.009233" lon="6.965567">
        <ele>2257.0</ele>
        <time>2014-08-30T15:25:01Z</time>
      </trkpt>
      <trkpt lat="46.009267" lon="6.965500">
        <ele>2259.0</ele>
        <time>2014-08-30T15:25:02Z</time>
      </trkpt>
      <trkpt lat="46.009300" lon="6.965433">
        <ele>2259.0</ele>
        <time>2014-08-30T15:25:03Z</time>
      </trkpt>
      <trkpt lat="46.009333" lon="6.965367">
        <ele>2260.0</ele>
        <time>2014-08-30T15:25:04Z</time>
      </trkpt>
      <trkpt lat="46.009367" lon="6.965300">
        <ele>2259.0</ele>
        <time>2014-08-30T15:25:05Z</time>
      </trkpt>
      <trkpt lat="46.009417" lon="6.965217">
        <ele>2258.0</ele>
        <time>2014-08-30T15:25:06Z</time>
      </trkpt>
      <trkpt lat="46.009483" lon="6.965133">
        <ele>2257.0</ele>
        <time>2014-08-30T15:25:07Z</time>
      </trkpt>
      <trkpt lat="46.009533" lon="6.965050">
        <ele>2257.0</ele>
        <time>2014-08-30T15:25:08Z</time>
      </trkpt>
      <trkpt lat="46.009600" lon="6.964967">
        <ele>2257.0</ele>
        <time>2014-08-30T15:25:09Z</time>
      </trkpt>
      <trkpt lat="46.009667" lon="6.964900">
        <ele>2257.0</ele>
        <time>2014-08-30T15:25:10Z</time>
      </trkpt>
      <trkpt lat="46.009733" lon="6.964833">
        <ele>2256.0</ele>
        <time>2014-08-30T15:25:11Z</time>
      </trkpt>
      <trkpt lat="46.009833" lon="6.964783">
        <ele>2255.0</ele>
        <time>2014-08-30T15:25:12Z</time>
      </trkpt>
      <trkpt lat="46.009917" lon="6.964733">
        <ele>2253.0</ele>
        <time>2014-08-30T15:25:13Z</time>
      </trkpt>
      <trkpt lat="46.010017" lon="6.964683">
        <ele>2253.0</ele>
        <time>2014-08-30T15:25:14Z</time>
      </trkpt>
      <trkpt lat="46.010100" lon="6.964633">
        <ele>2252.0</ele>
        <time>2014-08-30T15:25:15Z</time>
      </trkpt>
      <trkpt lat="46.010167" lon="6.964583">
        <ele>2251.0</ele>
        <time>2014-08-30T15:25:16Z</time>
      </trkpt>
      <trkpt lat="46.010267" lon="6.964533">
        <ele>2251.0</ele>
        <time>2014-08-30T15:25:17Z</time>
      </trkpt>
      <trkpt lat="46.010350" lon="6.964483">
        <ele>2250.0</ele>
        <time>2014-08-30T15:25:18Z</time>
      </trkpt>
      <trkpt lat="46.010450" lon="6.964450">
        <ele>2250.0</ele>
        <time>2014-08-30T15:25:19Z</time>
      </trkpt>
      <trkpt lat="46.010550" lon="6.964417">
        <ele>2251.0</ele>
        <time>2014-08-30T15:25:20Z</time>
      </trkpt>
      <trkpt lat="46.010650" lon="6.964383">
        <ele>2251.0</ele>
        <time>2014-08-30T15:25:21Z</time>
      </trkpt>
      <trkpt lat="46.010750" lon="6.964367">
        <ele>2250.0</ele>
        <time>2014-08-30T15:25:22Z</time>
      </trkpt>
      <trkpt lat="46.010867" lon="6.964367">
        <ele>2249.0</ele>
        <time>2014-08-30T15:25:23Z</time>
      </trkpt>
      <trkpt lat="46.010967" lon="6.964367">
        <ele>2249.0</ele>
        <time>2014-08-30T15:25:24Z</time>
      </trkpt>
      <trkpt lat="46.011083" lon="6.964367">
        <ele>2250.0</ele>
        <time>2014-08-30T15:25:25Z</time>
      </trkpt>
      <trkpt lat="46.011183" lon="6.964367">
        <ele>2251.0</ele>
        <time>2014-08-30T15:25:26Z</time>
      </trkpt>
      <trkpt lat="46.011267" lon="6.964350">
        <ele>2250.0</ele>
        <time>2014-08-30T15:25:27Z</time>
      </trkpt>
      <trkpt lat="46.011350" lon="6.964300">
        <ele>2249.0</ele>
        <time>2014-08-30T15:25:28Z</time>
      </trkpt>
      <trkpt lat="46.011450" lon="6.964233">
        <ele>2247.0</ele>
        <time>2014-08-30T15:25:29Z</time>
      </trkpt>
      <trkpt lat="46.011533" lon="6.964150">
        <ele>2247.0</ele>
        <time>2014-08-30T15:25:30Z</time>
      </trkpt>
      <trkpt lat="46.011600" lon="6.964067">
        <ele>2247.0</ele>
        <time>2014-08-30T15:25:31Z</time>
      </trkpt>
      <trkpt lat="46.011633" lon="6.963967">
        <ele>2247.0</ele>
        <time>2014-08-30T15:25:32Z</time>
      </trkpt>
      <trkpt lat="46.011650" lon="6.963867">
        <ele>2247.0</ele>
        <time>2014-08-30T15:25:33Z</time>
      </trkpt>
      <trkpt lat="46.011650" lon="6.963783">
        <ele>2246.0</ele>
        <time>2014-08-30T15:25:34Z</time>
      </trkpt>
      <trkpt lat="46.011633" lon="6.963683">
        <ele>2246.0</ele>
        <time>2014-08-30T15:25:35Z</time>
      </trkpt>
      <trkpt lat="46.011617" lon="6.963617">
        <ele>2246.0</ele>
        <time>2014-08-30T15:25:36Z</time>
      </trkpt>
      <trkpt lat="46.011583" lon="6.963567">
        <ele>2245.0</ele>
        <time>2014-08-30T15:25:37Z</time>
      </trkpt>
      <trkpt lat="46.011533" lon="6.963517">
        <ele>2244.0</ele>
        <time>2014-08-30T15:25:38Z</time>
      </trkpt>
      <trkpt lat="46.011483" lon="6.963483">
        <ele>2243.0</ele>
        <time>2014-08-30T15:25:39Z</time>
      </trkpt>
      <trkpt lat="46.011433" lon="6.963483">
        <ele>2243.0</ele>
        <time>2014-08-30T15:25:40Z</time>
      </trkpt>
      <trkpt lat="46.011367" lon="6.963483">
        <ele>2244.0</ele>
        <time>2014-08-30T15:25:41Z</time>
      </trkpt>
      <trkpt lat="46.011317" lon="6.963483">
        <ele>2244.0</ele>
        <time>2014-08-30T15:25:42Z</time>
      </trkpt>
      <trkpt lat="46.011283" lon="6.963483">
        <ele>2244.0</ele>
        <time>2014-08-30T15:25:43Z</time>
      </trkpt>
      <trkpt lat="46.011233" lon="6.963467">
        <ele>2243.0</ele>
        <time>2014-08-30T15:25:44Z</time>
      </trkpt>
      <trkpt lat="46.011167" lon="6.963450">
        <ele>2242.0</ele>
        <time>2014-08-30T15:25:45Z</time>
      </trkpt>
      <trkpt lat="46.011100" lon="6.963450">
        <ele>2242.0</ele>
        <time>2014-08-30T15:25:46Z</time>
      </trkpt>
      <trkpt lat="46.011033" lon="6.963433">
        <ele>2242.0</ele>
        <time>2014-08-30T15:25:47Z</time>
      </trkpt>
      <trkpt lat="46.010983" lon="6.963400">
        <ele>2242.0</ele>
        <time>2014-08-30T15:25:48Z</time>
      </trkpt>
      <trkpt lat="46.010933" lon="6.963367">
        <ele>2243.0</ele>
        <time>2014-08-30T15:25:49Z</time>
      </trkpt>
      <trkpt lat="46.010867" lon="6.963333">
        <ele>2242.0</ele>
        <time>2014-08-30T15:25:50Z</time>
      </trkpt>
      <trkpt lat="46.010817" lon="6.963300">
        <ele>2241.0</ele>
        <time>2014-08-30T15:25:51Z</time>
      </trkpt>
      <trkpt lat="46.010750" lon="6.963267">
        <ele>2240.0</ele>
        <time>2014-08-30T15:25:52Z</time>
      </trkpt>
      <trkpt lat="46.010683" lon="6.963250">
        <ele>2240.0</ele>
        <time>2014-08-30T15:25:53Z</time>
      </trkpt>
      <trkpt lat="46.010633" lon="6.963217">
        <ele>2239.0</ele>
        <time>2014-08-30T15:25:54Z</time>
      </trkpt>
      <trkpt lat="46.010583" lon="6.963183">
        <ele>2239.0</ele>
        <time>2014-08-30T15:25:55Z</time>
      </trkpt>
      <trkpt lat="46.010533" lon="6.963150">
        <ele>2239.0</ele>
        <time>2014-08-30T15:25:56Z</time>
      </trkpt>
      <trkpt lat="46.010467" lon="6.963133">
        <ele>2239.0</ele>
        <time>2014-08-30T15:25:57Z</time>
      </trkpt>
      <trkpt lat="46.010417" lon="6.963117">
        <ele>2238.0</ele>
        <time>2014-08-30T15:25:58Z</time>
      </trkpt>
      <trkpt lat="46.010367" lon="6.963117">
        <ele>2238.0</ele>
        <time>2014-08-30T15:25:59Z</time>
      </trkpt>
      <trkpt lat="46.010317" lon="6.963133">
        <ele>2238.0</ele>
        <time>2014-08-30T15:26:00Z</time>
      </trkpt>
      <trkpt lat="46.010250" lon="6.963133">
        <ele>2238.0</ele>
        <time>2014-08-30T15:26:01Z</time>
      </trkpt>
      <trkpt lat="46.010200" lon="6.963133">
        <ele>2237.0</ele>
        <time>2014-08-30T15:26:02Z</time>
      </trkpt>
      <trkpt lat="46.010150" lon="6.963133">
        <ele>2237.0</ele>
        <time>2014-08-30T15:26:03Z</time>
      </trkpt>
      <trkpt lat="46.010100" lon="6.963133">
        <ele>2237.0</ele>
        <time>2014-08-30T15:26:04Z</time>
      </trkpt>
      <trkpt lat="46.010050" lon="6.963133">
        <ele>2237.0</ele>
        <time>2014-08-30T15:26:05Z</time>
      </trkpt>
      <trkpt lat="46.010000" lon="6.963133">
        <ele>2238.0</ele>
        <time>2014-08-30T15:26:06Z</time>
      </trkpt>
      <trkpt lat="46.009967" lon="6.963133">
        <ele>2238.0</ele>
        <time>2014-08-30T15:26:07Z</time>
      </trkpt>
      <trkpt lat="46.009917" lon="6.963117">
        <ele>2237.0</ele>
        <time>2014-08-30T15:26:08Z</time>
      </trkpt>
      <trkpt lat="46.009867" lon="6.963083">
        <ele>2235.0</ele>
        <time>2014-08-30T15:26:09Z</time>
      </trkpt>
      <trkpt lat="46.009817" lon="6.963050">
        <ele>2234.0</ele>
        <time>2014-08-30T15:26:10Z</time>
      </trkpt>
      <trkpt lat="46.009767" lon="6.963017">
        <ele>2233.0</ele>
        <time>2014-08-30T15:26:11Z</time>
      </trkpt>
      <trkpt lat="46.009717" lon="6.962983">
        <ele>2233.0</ele>
        <time>2014-08-30T15:26:12Z</time>
      </trkpt>
      <trkpt lat="46.009667" lon="6.962950">
        <ele>2233.0</ele>
        <time>2014-08-30T15:26:13Z</time>
      </trkpt>
      <trkpt lat="46.009617" lon="6.962933">
        <ele>2232.0</ele>
        <time>2014-08-30T15:26:14Z</time>
      </trkpt>
      <trkpt lat="46.009567" lon="6.962917">
        <ele>2232.0</ele>
        <time>2014-08-30T15:26:15Z</time>
      </trkpt>
      <trkpt lat="46.009517" lon="6.962900">
        <ele>2232.0</ele>
        <time>2014-08-30T15:26:16Z</time>
      </trkpt>
      <trkpt lat="46.009467" lon="6.962917">
        <ele>2231.0</ele>
        <time>2014-08-30T15:26:17Z</time>
      </trkpt>
      <trkpt lat="46.009417" lon="6.962933">
        <ele>2231.0</ele>
        <time>2014-08-30T15:26:18Z</time>
      </trkpt>
      <trkpt lat="46.009350" lon="6.962950">
        <ele>2232.0</ele>
        <time>2014-08-30T15:26:19Z</time>
      </trkpt>
      <trkpt lat="46.009300" lon="6.962983">
        <ele>2232.0</ele>
        <time>2014-08-30T15:26:20Z</time>
      </trkpt>
      <trkpt lat="46.009250" lon="6.963017">
        <ele>2233.0</ele>
        <time>2014-08-30T15:26:21Z</time>
      </trkpt>
      <trkpt lat="46.009200" lon="6.963067">
        <ele>2233.0</ele>
        <time>2014-08-30T15:26:22Z</time>
      </trkpt>
      <trkpt lat="46.009150" lon="6.963117">
        <ele>2232.0</ele>
        <time>2014-08-30T15:26:23Z</time>
      </trkpt>
      <trkpt lat="46.009100" lon="6.963167">
        <ele>2232.0</ele>
        <time>2014-08-30T15:26:24Z</time>
      </trkpt>
      <trkpt lat="46.009033" lon="6.963217">
        <ele>2231.0</ele>
        <time>2014-08-30T15:26:25Z</time>
      </trkpt>
      <trkpt lat="46.008983" lon="6.963250">
        <ele>2231.0</ele>
        <time>2014-08-30T15:26:26Z</time>
      </trkpt>
      <trkpt lat="46.008933" lon="6.963300">
        <ele>2231.0</ele>
        <time>2014-08-30T15:26:27Z</time>
      </trkpt>
      <trkpt lat="46.008867" lon="6.963350">
        <ele>2231.0</ele>
        <time>2014-08-30T15:26:28Z</time>
      </trkpt>
      <trkpt lat="46.008800" lon="6.963383">
        <ele>2231.0</ele>
        <time>2014-08-30T15:26:29Z</time>
      </trkpt>
      <trkpt lat="46.008733" lon="6.963417">
        <ele>2231.0</ele>
        <time>2014-08-30T15:26:30Z</time>
      </trkpt>
      <trkpt lat="46.008683" lon="6.963433">
        <ele>2231.0</ele>
        <time>2014-08-30T15:26:31Z</time>
      </trkpt>
      <trkpt lat="46.008617" lon="6.963433">
        <ele>2232.0</ele>
        <time>2014-08-30T15:26:32Z</time>
      </trkpt>
      <trkpt lat="46.008550" lon="6.963433">
        <ele>2232.0</ele>
        <time>2014-08-30T15:26:33Z</time>
      </trkpt>
      <trkpt lat="46.008483" lon="6.963433">
        <ele>2233.0</ele>
        <time>2014-08-30T15:26:34Z</time>
      </trkpt>
      <trkpt lat="46.008433" lon="6.963433">
        <ele>2235.0</ele>
        <time>2014-08-30T15:26:35Z</time>
      </trkpt>
      <trkpt lat="46.008383" lon="6.963417">
        <ele>2236.0</ele>
        <time>2014-08-30T15:26:36Z</time>
      </trkpt>
      <trkpt lat="46.008333" lon="6.963400">
        <ele>2237.0</ele>
        <time>2014-08-30T15:26:37Z</time>
      </trkpt>
      <trkpt lat="46.008283" lon="6.963350">
        <ele>2238.0</ele>
        <time>2014-08-30T15:26:38Z</time>
      </trkpt>
      <trkpt lat="46.008250" lon="6.963317">
        <ele>2238.0</ele>
        <time>2014-08-30T15:26:39Z</time>
      </trkpt>
      <trkpt lat="46.008200" lon="6.963283">
        <ele>2238.0</ele>
        <time>2014-08-30T15:26:40Z</time>
      </trkpt>
      <trkpt lat="46.008150" lon="6.963233">
        <ele>2239.0</ele>
        <time>2014-08-30T15:26:41Z</time>
      </trkpt>
      <trkpt lat="46.008100" lon="6.963167">
        <ele>2240.0</ele>
        <time>2014-08-30T15:26:42Z</time>
      </trkpt>
      <trkpt lat="46.008067" lon="6.963117">
        <ele>2241.0</ele>
        <time>2014-08-30T15:26:43Z</time>
      </trkpt>
      <trkpt lat="46.008033" lon="6.963067">
        <ele>2244.0</ele>
        <time>2014-08-30T15:26:44Z</time>
      </trkpt>
      <trkpt lat="46.008000" lon="6.963017">
        <ele>2244.0</ele>
        <time>2014-08-30T15:26:45Z</time>
      </trkpt>
      <trkpt lat="46.007983" lon="6.962967">
        <ele>2244.0</ele>
        <time>2014-08-30T15:26:46Z</time>
      </trkpt>
      <trkpt lat="46.007933" lon="6.962917">
        <ele>2243.0</ele>
        <time>2014-08-30T15:26:47Z</time>
      </trkpt>
      <trkpt lat="46.007900" lon="6.962850">
        <ele>2243.0</ele>
        <time>2014-08-30T15:26:48Z</time>
      </trkpt>
      <trkpt lat="46.007867" lon="6.962800">
        <ele>2243.0</ele>
        <time>2014-08-30T15:26:49Z</time>
      </trkpt>
      <trkpt lat="46.007833" lon="6.962750">
        <ele>2244.0</ele>
        <time>2014-08-30T15:26:50Z</time>
      </trkpt>
      <trkpt lat="46.007800" lon="6.962700">
        <ele>2244.0</ele>
        <time>2014-08-30T15:26:51Z</time>
      </trkpt>
      <trkpt lat="46.007783" lon="6.962650">
        <ele>2244.0</ele>
        <time>2014-08-30T15:26:52Z</time>
      </trkpt>
      <trkpt lat="46.007750" lon="6.962600">
        <ele>2243.0</ele>
        <time>2014-08-30T15:26:53Z</time>
      </trkpt>
      <trkpt lat="46.007700" lon="6.962517">
        <ele>2242.0</ele>
        <time>2014-08-30T15:26:54Z</time>
      </trkpt>
      <trkpt lat="46.007650" lon="6.962450">
        <ele>2242.0</ele>
        <time>2014-08-30T15:26:55Z</time>
      </trkpt>
      <trkpt lat="46.007617" lon="6.962367">
        <ele>2244.0</ele>
        <time>2014-08-30T15:26:56Z</time>
      </trkpt>
      <trkpt lat="46.007567" lon="6.962317">
        <ele>2245.0</ele>
        <time>2014-08-30T15:26:57Z</time>
      </trkpt>
      <trkpt lat="46.007517" lon="6.962283">
        <ele>2246.0</ele>
        <time>2014-08-30T15:26:58Z</time>
      </trkpt>
      <trkpt lat="46.007483" lon="6.962283">
        <ele>2246.0</ele>
        <time>2014-08-30T15:26:59Z</time>
      </trkpt>
      <trkpt lat="46.007433" lon="6.962317">
        <ele>2245.0</ele>
        <time>2014-08-30T15:27:00Z</time>
      </trkpt>
      <trkpt lat="46.007383" lon="6.962350">
        <ele>2244.0</ele>
        <time>2014-08-30T15:27:01Z</time>
      </trkpt>
      <trkpt lat="46.007333" lon="6.962400">
        <ele>2242.0</ele>
        <time>2014-08-30T15:27:02Z</time>
      </trkpt>
      <trkpt lat="46.007300" lon="6.962450">
        <ele>2241.0</ele>
        <time>2014-08-30T15:27:03Z</time>
      </trkpt>
      <trkpt lat="46.007250" lon="6.962533">
        <ele>2241.0</ele>
        <time>2014-08-30T15:27:04Z</time>
      </trkpt>
      <trkpt lat="46.007217" lon="6.962633">
        <ele>2240.0</ele>
        <time>2014-08-30T15:27:05Z</time>
      </trkpt>
      <trkpt lat="46.007167" lon="6.962717">
        <ele>2239.0</ele>
        <time>2014-08-30T15:27:06Z</time>
      </trkpt>
      <trkpt lat="46.007133" lon="6.962817">
        <ele>2239.0</ele>
        <time>2014-08-30T15:27:07Z</time>
      </trkpt>
      <trkpt lat="46.007100" lon="6.962900">
        <ele>2239.0</ele>
        <time>2014-08-30T15:27:08Z</time>
      </trkpt>
      <trkpt lat="46.007067" lon="6.962983">
        <ele>2239.0</ele>
        <time>2014-08-30T15:27:09Z</time>
      </trkpt>
      <trkpt lat="46.007033" lon="6.963083">
        <ele>2238.0</ele>
        <time>2014-08-30T15:27:10Z</time>
      </trkpt>
      <trkpt lat="46.007000" lon="6.963183">
        <ele>2236.0</ele>
        <time>2014-08-30T15:27:11Z</time>
      </trkpt>
      <trkpt lat="46.006950" lon="6.963283">
        <ele>2235.0</ele>
        <time>2014-08-30T15:27:12Z</time>
      </trkpt>
      <trkpt lat="46.006883" lon="6.963383">
        <ele>2234.0</ele>
        <time>2014-08-30T15:27:13Z</time>
      </trkpt>
      <trkpt lat="46.006833" lon="6.963467">
        <ele>2234.0</ele>
        <time>2014-08-30T15:27:14Z</time>
      </trkpt>
      <trkpt lat="46.006783" lon="6.963550">
        <ele>2234.0</ele>
        <time>2014-08-30T15:27:15Z</time>
      </trkpt>
      <trkpt lat="46.006750" lon="6.963633">
        <ele>2235.0</ele>
        <time>2014-08-30T15:27:16Z</time>
      </trkpt>
      <trkpt lat="46.006717" lon="6.963733">
        <ele>2235.0</ele>
        <time>2014-08-30T15:27:17Z</time>
      </trkpt>
      <trkpt lat="46.006683" lon="6.963833">
        <ele>2234.0</ele>
        <time>2014-08-30T15:27:18Z</time>
      </trkpt>
      <trkpt lat="46.006650" lon="6.963950">
        <ele>2233.0</ele>
        <time>2014-08-30T15:27:19Z</time>
      </trkpt>
      <trkpt lat="46.006617" lon="6.964067">
        <ele>2233.0</ele>
        <time>2014-08-30T15:27:20Z</time>
      </trkpt>
      <trkpt lat="46.006567" lon="6.964183">
        <ele>2234.0</ele>
        <time>2014-08-30T15:27:21Z</time>
      </trkpt>
      <trkpt lat="46.006517" lon="6.964267">
        <ele>2235.0</ele>
        <time>2014-08-30T15:27:22Z</time>
      </trkpt>
      <trkpt lat="46.006483" lon="6.964367">
        <ele>2235.0</ele>
        <time>2014-08-30T15:27:23Z</time>
      </trkpt>
      <trkpt lat="46.006450" lon="6.964467">
        <ele>2234.0</ele>
        <time>2014-08-30T15:27:24Z</time>
      </trkpt>
      <trkpt lat="46.006417" lon="6.964567">
        <ele>2233.0</ele>
        <time>2014-08-30T15:27:25Z</time>
      </trkpt>
      <trkpt lat="46.006383" lon="6.964667">
        <ele>2231.0</ele>
        <time>2014-08-30T15:27:26Z</time>
      </trkpt>
      <trkpt lat="46.006333" lon="6.964767">
        <ele>2230.0</ele>
        <time>2014-08-30T15:27:27Z</time>
      </trkpt>
      <trkpt lat="46.006283" lon="6.964867">
        <ele>2229.0</ele>
        <time>2014-08-30T15:27:28Z</time>
      </trkpt>
      <trkpt lat="46.006233" lon="6.964967">
        <ele>2229.0</ele>
        <time>2014-08-30T15:27:29Z</time>
      </trkpt>
      <trkpt lat="46.006183" lon="6.965050">
        <ele>2229.0</ele>
        <time>2014-08-30T15:27:30Z</time>
      </trkpt>
      <trkpt lat="46.006133" lon="6.965150">
        <ele>2229.0</ele>
        <time>2014-08-30T15:27:31Z</time>
      </trkpt>
      <trkpt lat="46.006083" lon="6.965217">
        <ele>2228.0</ele>
        <time>2014-08-30T15:27:32Z</time>
      </trkpt>
      <trkpt lat="46.006033" lon="6.965300">
        <ele>2226.0</ele>
        <time>2014-08-30T15:27:33Z</time>
      </trkpt>
      <trkpt lat="46.005967" lon="6.965383">
        <ele>2224.0</ele>
        <time>2014-08-30T15:27:34Z</time>
      </trkpt>
      <trkpt lat="46.005883" lon="6.965467">
        <ele>2223.0</ele>
        <time>2014-08-30T15:27:35Z</time>
      </trkpt>
      <trkpt lat="46.005800" lon="6.965550">
        <ele>2223.0</ele>
        <time>2014-08-30T15:27:36Z</time>
      </trkpt>
      <trkpt lat="46.005700" lon="6.965633">
        <ele>2225.0</ele>
        <time>2014-08-30T15:27:37Z</time>
      </trkpt>
      <trkpt lat="46.005617" lon="6.965733">
        <ele>2229.0</ele>
        <time>2014-08-30T15:27:38Z</time>
      </trkpt>
      <trkpt lat="46.005550" lon="6.965833">
        <ele>2234.0</ele>
        <time>2014-08-30T15:27:39Z</time>
      </trkpt>
      <trkpt lat="46.005483" lon="6.965933">
        <ele>2239.0</ele>
        <time>2014-08-30T15:27:40Z</time>
      </trkpt>
      <trkpt lat="46.005417" lon="6.966050">
        <ele>2243.0</ele>
        <time>2014-08-30T15:27:41Z</time>
      </trkpt>
      <trkpt lat="46.005367" lon="6.966183">
        <ele>2246.0</ele>
        <time>2014-08-30T15:27:42Z</time>
      </trkpt>
      <trkpt lat="46.005300" lon="6.966300">
        <ele>2249.0</ele>
        <time>2014-08-30T15:27:43Z</time>
      </trkpt>
      <trkpt lat="46.005250" lon="6.966433">
        <ele>2252.0</ele>
        <time>2014-08-30T15:27:44Z</time>
      </trkpt>
      <trkpt lat="46.005200" lon="6.966567">
        <ele>2256.0</ele>
        <time>2014-08-30T15:27:45Z</time>
      </trkpt>
      <trkpt lat="46.005150" lon="6.966700">
        <ele>2259.0</ele>
        <time>2014-08-30T15:27:46Z</time>
      </trkpt>
      <trkpt lat="46.005100" lon="6.966833">
        <ele>2263.0</ele>
        <time>2014-08-30T15:27:47Z</time>
      </trkpt>
      <trkpt lat="46.005050" lon="6.966967">
        <ele>2267.0</ele>
        <time>2014-08-30T15:27:48Z</time>
      </trkpt>
      <trkpt lat="46.005000" lon="6.967100">
        <ele>2273.0</ele>
        <time>2014-08-30T15:27:49Z</time>
      </trkpt>
      <trkpt lat="46.004950" lon="6.967217">
        <ele>2279.0</ele>
        <time>2014-08-30T15:27:50Z</time>
      </trkpt>
      <trkpt lat="46.004900" lon="6.967300">
        <ele>2285.0</ele>
        <time>2014-08-30T15:27:51Z</time>
      </trkpt>
      <trkpt lat="46.004867" lon="6.967400">
        <ele>2289.0</ele>
        <time>2014-08-30T15:27:52Z</time>
      </trkpt>
      <trkpt lat="46.004817" lon="6.967500">
        <ele>2293.0</ele>
        <time>2014-08-30T15:27:53Z</time>
      </trkpt>
      <trkpt lat="46.004767" lon="6.967600">
        <ele>2295.0</ele>
        <time>2014-08-30T15:27:54Z</time>
      </trkpt>
      <trkpt lat="46.004717" lon="6.967733">
        <ele>2299.0</ele>
        <time>2014-08-30T15:27:55Z</time>
      </trkpt>
      <trkpt lat="46.004683" lon="6.967850">
        <ele>2303.0</ele>
        <time>2014-08-30T15:27:56Z</time>
      </trkpt>
      <trkpt lat="46.004667" lon="6.967950">
        <ele>2305.0</ele>
        <time>2014-08-30T15:27:57Z</time>
      </trkpt>
      <trkpt lat="46.004633" lon="6.968017">
        <ele>2306.0</ele>
        <time>2014-08-30T15:27:58Z</time>
      </trkpt>
      <trkpt lat="46.004583" lon="6.968100">
        <ele>2304.0</ele>
        <time>2014-08-30T15:27:59Z</time>
      </trkpt>
      <trkpt lat="46.004500" lon="6.968183">
        <ele>2301.0</ele>
        <time>2014-08-30T15:28:00Z</time>
      </trkpt>
      <trkpt lat="46.004433" lon="6.968283">
        <ele>2301.0</ele>
        <time>2014-08-30T15:28:01Z</time>
      </trkpt>
      <trkpt lat="46.004350" lon="6.968367">
        <ele>2303.0</ele>
        <time>2014-08-30T15:28:02Z</time>
      </trkpt>
      <trkpt lat="46.004300" lon="6.968417">
        <ele>2305.0</ele>
        <time>2014-08-30T15:28:03Z</time>
      </trkpt>
      <trkpt lat="46.004250" lon="6.968433">
        <ele>2307.0</ele>
        <time>2014-08-30T15:28:04Z</time>
      </trkpt>
      <trkpt lat="46.004200" lon="6.968450">
        <ele>2308.0</ele>
        <time>2014-08-30T15:28:05Z</time>
      </trkpt>
      <trkpt lat="46.004150" lon="6.968467">
        <ele>2308.0</ele>
        <time>2014-08-30T15:28:06Z</time>
      </trkpt>
      <trkpt lat="46.004083" lon="6.968467">
        <ele>2307.0</ele>
        <time>2014-08-30T15:28:07Z</time>
      </trkpt>
      <trkpt lat="46.004000" lon="6.968467">
        <ele>2308.0</ele>
        <time>2014-08-30T15:28:08Z</time>
      </trkpt>
      <trkpt lat="46.003950" lon="6.968433">
        <ele>2309.0</ele>
        <time>2014-08-30T15:28:09Z</time>
      </trkpt>
      <trkpt lat="46.003883" lon="6.968383">
        <ele>2311.0</ele>
        <time>2014-08-30T15:28:10Z</time>
      </trkpt>
      <trkpt lat="46.003850" lon="6.968333">
        <ele>2313.0</ele>
        <time>2014-08-30T15:28:11Z</time>
      </trkpt>
      <trkpt lat="46.003800" lon="6.968283">
        <ele>2314.0</ele>
        <time>2014-08-30T15:28:12Z</time>
      </trkpt>
      <trkpt lat="46.003750" lon="6.968217">
        <ele>2315.0</ele>
        <time>2014-08-30T15:28:13Z</time>
      </trkpt>
      <trkpt lat="46.003700" lon="6.968133">
        <ele>2315.0</ele>
        <time>2014-08-30T15:28:14Z</time>
      </trkpt>
      <trkpt lat="46.003633" lon="6.968033">
        <ele>2315.0</ele>
        <time>2014-08-30T15:28:15Z</time>
      </trkpt>
      <trkpt lat="46.003600" lon="6.967933">
        <ele>2318.0</ele>
        <time>2014-08-30T15:28:16Z</time>
      </trkpt>
      <trkpt lat="46.003583" lon="6.967867">
        <ele>2319.0</ele>
        <time>2014-08-30T15:28:17Z</time>
      </trkpt>
      <trkpt lat="46.003583" lon="6.967800">
        <ele>2319.0</ele>
        <time>2014-08-30T15:28:18Z</time>
      </trkpt>
      <trkpt lat="46.003550" lon="6.967750">
        <ele>2318.0</ele>
        <time>2014-08-30T15:28:19Z</time>
      </trkpt>
      <trkpt lat="46.003517" lon="6.967683">
        <ele>2315.0</ele>
        <time>2014-08-30T15:28:20Z</time>
      </trkpt>
      <trkpt lat="46.003467" lon="6.967617">
        <ele>2314.0</ele>
        <time>2014-08-30T15:28:21Z</time>
      </trkpt>
      <trkpt lat="46.003417" lon="6.967550">
        <ele>2313.0</ele>
        <time>2014-08-30T15:28:22Z</time>
      </trkpt>
      <trkpt lat="46.003383" lon="6.967500">
        <ele>2313.0</ele>
        <time>2014-08-30T15:28:23Z</time>
      </trkpt>
      <trkpt lat="46.003367" lon="6.967450">
        <ele>2312.0</ele>
        <time>2014-08-30T15:28:24Z</time>
      </trkpt>
      <trkpt lat="46.003350" lon="6.967400">
        <ele>2311.0</ele>
        <time>2014-08-30T15:28:25Z</time>
      </trkpt>
      <trkpt lat="46.003333" lon="6.967333">
        <ele>2310.0</ele>
        <time>2014-08-30T15:28:26Z</time>
      </trkpt>
      <trkpt lat="46.003300" lon="6.967250">
        <ele>2308.0</ele>
        <time>2014-08-30T15:28:27Z</time>
      </trkpt>
      <trkpt lat="46.003267" lon="6.967167">
        <ele>2307.0</ele>
        <time>2014-08-30T15:28:28Z</time>
      </trkpt>
      <trkpt lat="46.003233" lon="6.967083">
        <ele>2307.0</ele>
        <time>2014-08-30T15:28:29Z</time>
      </trkpt>
      <trkpt lat="46.003217" lon="6.967017">
        <ele>2307.0</ele>
        <time>2014-08-30T15:28:30Z</time>
      </trkpt>
      <trkpt lat="46.003183" lon="6.966950">
        <ele>2307.0</ele>
        <time>2014-08-30T15:28:31Z</time>
      </trkpt>
      <trkpt lat="46.003150" lon="6.966883">
        <ele>2306.0</ele>
        <time>2014-08-30T15:28:32Z</time>
      </trkpt>
      <trkpt lat="46.003117" lon="6.966800">
        <ele>2305.0</ele>
        <time>2014-08-30T15:28:33Z</time>
      </trkpt>
      <trkpt lat="46.003083" lon="6.966700">
        <ele>2304.0</ele>
        <time>2014-08-30T15:28:34Z</time>
      </trkpt>
      <trkpt lat="46.003050" lon="6.966600">
        <ele>2305.0</ele>
        <time>2014-08-30T15:28:35Z</time>
      </trkpt>
      <trkpt lat="46.003033" lon="6.966500">
        <ele>2308.0</ele>
        <time>2014-08-30T15:28:36Z</time>
      </trkpt>
      <trkpt lat="46.003033" lon="6.966417">
        <ele>2311.0</ele>
        <time>2014-08-30T15:28:37Z</time>
      </trkpt>
      <trkpt lat="46.003017" lon="6.966333">
        <ele>2312.0</ele>
        <time>2014-08-30T15:28:38Z</time>
      </trkpt>
      <trkpt lat="46.003017" lon="6.966233">
        <ele>2313.0</ele>
        <time>2014-08-30T15:28:39Z</time>
      </trkpt>
      <trkpt lat="46.003000" lon="6.966117">
        <ele>2312.0</ele>
        <time>2014-08-30T15:28:40Z</time>
      </trkpt>
      <trkpt lat="46.003000" lon="6.966000">
        <ele>2313.0</ele>
        <time>2014-08-30T15:28:41Z</time>
      </trkpt>
      <trkpt lat="46.003000" lon="6.965883">
        <ele>2314.0</ele>
        <time>2014-08-30T15:28:42Z</time>
      </trkpt>
      <trkpt lat="46.003000" lon="6.965800">
        <ele>2316.0</ele>
        <time>2014-08-30T15:28:43Z</time>
      </trkpt>
      <trkpt lat="46.003017" lon="6.965717">
        <ele>2317.0</ele>
        <time>2014-08-30T15:28:44Z</time>
      </trkpt>
      <trkpt lat="46.003033" lon="6.965617">
        <ele>2317.0</ele>
        <time>2014-08-30T15:28:45Z</time>
      </trkpt>
      <trkpt lat="46.003033" lon="6.965517">
        <ele>2316.0</ele>
        <time>2014-08-30T15:28:46Z</time>
      </trkpt>
      <trkpt lat="46.003050" lon="6.965383">
        <ele>2316.0</ele>
        <time>2014-08-30T15:28:47Z</time>
      </trkpt>
      <trkpt lat="46.003067" lon="6.965267">
        <ele>2317.0</ele>
        <time>2014-08-30T15:28:48Z</time>
      </trkpt>
      <trkpt lat="46.003083" lon="6.965150">
        <ele>2317.0</ele>
        <time>2014-08-30T15:28:49Z</time>
      </trkpt>
      <trkpt lat="46.003100" lon="6.965050">
        <ele>2318.0</ele>
        <time>2014-08-30T15:28:50Z</time>
      </trkpt>
      <trkpt lat="46.003117" lon="6.964933">
        <ele>2318.0</ele>
        <time>2014-08-30T15:28:51Z</time>
      </trkpt>
      <trkpt lat="46.003117" lon="6.964833">
        <ele>2318.0</ele>
        <time>2014-08-30T15:28:52Z</time>
      </trkpt>
      <trkpt lat="46.003133" lon="6.964717">
        <ele>2317.0</ele>
        <time>2014-08-30T15:28:53Z</time>
      </trkpt>
      <trkpt lat="46.003150" lon="6.964600">
        <ele>2318.0</ele>
        <time>2014-08-30T15:28:54Z</time>
      </trkpt>
      <trkpt lat="46.003167" lon="6.964483">
        <ele>2318.0</ele>
        <time>2014-08-30T15:28:55Z</time>
      </trkpt>
      <trkpt lat="46.003167" lon="6.964383">
        <ele>2318.0</ele>
        <time>2014-08-30T15:28:56Z</time>
      </trkpt>
      <trkpt lat="46.003183" lon="6.964300">
        <ele>2318.0</ele>
        <time>2014-08-30T15:28:57Z</time>
      </trkpt>
      <trkpt lat="46.003183" lon="6.964200">
        <ele>2316.0</ele>
        <time>2014-08-30T15:28:58Z</time>
      </trkpt>
      <trkpt lat="46.003183" lon="6.964083">
        <ele>2315.0</ele>
        <time>2014-08-30T15:28:59Z</time>
      </trkpt>
      <trkpt lat="46.003200" lon="6.963983">
        <ele>2315.0</ele>
        <time>2014-08-30T15:29:00Z</time>
      </trkpt>
      <trkpt lat="46.003217" lon="6.963867">
        <ele>2314.0</ele>
        <time>2014-08-30T15:29:01Z</time>
      </trkpt>
      <trkpt lat="46.003217" lon="6.963750">
        <ele>2315.0</ele>
        <time>2014-08-30T15:29:02Z</time>
      </trkpt>
      <trkpt lat="46.003217" lon="6.963633">
        <ele>2316.0</ele>
        <time>2014-08-30T15:29:03Z</time>
      </trkpt>
      <trkpt lat="46.003217" lon="6.963533">
        <ele>2318.0</ele>
        <time>2014-08-30T15:29:04Z</time>
      </trkpt>
      <trkpt lat="46.003233" lon="6.963433">
        <ele>2318.0</ele>
        <time>2014-08-30T15:29:05Z</time>
      </trkpt>
      <trkpt lat="46.003233" lon="6.963350">
        <ele>2317.0</ele>
        <time>2014-08-30T15:29:06Z</time>
      </trkpt>
      <trkpt lat="46.003250" lon="6.963250">
        <ele>2317.0</ele>
        <time>2014-08-30T15:29:07Z</time>
      </trkpt>
      <trkpt lat="46.003250" lon="6.963133">
        <ele>2315.0</ele>
        <time>2014-08-30T15:29:08Z</time>
      </trkpt>
      <trkpt lat="46.003250" lon="6.963017">
        <ele>2315.0</ele>
        <time>2014-08-30T15:29:09Z</time>
      </trkpt>
      <trkpt lat="46.003267" lon="6.962917">
        <ele>2316.0</ele>
        <time>2014-08-30T15:29:10Z</time>
      </trkpt>
      <trkpt lat="46.003267" lon="6.962833">
        <ele>2317.0</ele>
        <time>2014-08-30T15:29:11Z</time>
      </trkpt>
      <trkpt lat="46.003300" lon="6.962750">
        <ele>2317.0</ele>
        <time>2014-08-30T15:29:12Z</time>
      </trkpt>
      <trkpt lat="46.003317" lon="6.962650">
        <ele>2316.0</ele>
        <time>2014-08-30T15:29:13Z</time>
      </trkpt>
      <trkpt lat="46.003350" lon="6.962550">
        <ele>2315.0</ele>
        <time>2014-08-30T15:29:14Z</time>
      </trkpt>
      <trkpt lat="46.003367" lon="6.962433">
        <ele>2314.0</ele>
        <time>2014-08-30T15:29:15Z</time>
      </trkpt>
      <trkpt lat="46.003400" lon="6.962317">
        <ele>2314.0</ele>
        <time>2014-08-30T15:29:16Z</time>
      </trkpt>
      <trkpt lat="46.003433" lon="6.962217">
        <ele>2313.0</ele>
        <time>2014-08-30T15:29:17Z</time>
      </trkpt>
      <trkpt lat="46.003450" lon="6.962100">
        <ele>2313.0</ele>
        <time>2014-08-30T15:29:18Z</time>
      </trkpt>
      <trkpt lat="46.003467" lon="6.962000">
        <ele>2313.0</ele>
        <time>2014-08-30T15:29:19Z</time>
      </trkpt>
      <trkpt lat="46.003483" lon="6.961900">
        <ele>2312.0</ele>
        <time>2014-08-30T15:29:20Z</time>
      </trkpt>
      <trkpt lat="46.003483" lon="6.961783">
        <ele>2310.0</ele>
        <time>2014-08-30T15:29:21Z</time>
      </trkpt>
      <trkpt lat="46.003500" lon="6.961667">
        <ele>2309.0</ele>
        <time>2014-08-30T15:29:22Z</time>
      </trkpt>
      <trkpt lat="46.003517" lon="6.961550">
        <ele>2308.0</ele>
        <time>2014-08-30T15:29:23Z</time>
      </trkpt>
      <trkpt lat="46.003517" lon="6.961433">
        <ele>2308.0</ele>
        <time>2014-08-30T15:29:24Z</time>
      </trkpt>
      <trkpt lat="46.003533" lon="6.961317">
        <ele>2307.0</ele>
        <time>2014-08-30T15:29:25Z</time>
      </trkpt>
      <trkpt lat="46.003550" lon="6.961200">
        <ele>2306.0</ele>
        <time>2014-08-30T15:29:26Z</time>
      </trkpt>
      <trkpt lat="46.003567" lon="6.961083">
        <ele>2305.0</ele>
        <time>2014-08-30T15:29:27Z</time>
      </trkpt>
      <trkpt lat="46.003567" lon="6.960967">
        <ele>2304.0</ele>
        <time>2014-08-30T15:29:28Z</time>
      </trkpt>
      <trkpt lat="46.003583" lon="6.960850">
        <ele>2304.0</ele>
        <time>2014-08-30T15:29:29Z</time>
      </trkpt>
      <trkpt lat="46.003600" lon="6.960733">
        <ele>2304.0</ele>
        <time>2014-08-30T15:29:30Z</time>
      </trkpt>
      <trkpt lat="46.003617" lon="6.960633">
        <ele>2304.0</ele>
        <time>2014-08-30T15:29:31Z</time>
      </trkpt>
      <trkpt lat="46.003633" lon="6.960517">
        <ele>2304.0</ele>
        <time>2014-08-30T15:29:32Z</time>
      </trkpt>
      <trkpt lat="46.003650" lon="6.960417">
        <ele>2303.0</ele>
        <time>2014-08-30T15:29:33Z</time>
      </trkpt>
      <trkpt lat="46.003667" lon="6.960300">
        <ele>2302.0</ele>
        <time>2014-08-30T15:29:34Z</time>
      </trkpt>
      <trkpt lat="46.003683" lon="6.960183">
        <ele>2302.0</ele>
        <time>2014-08-30T15:29:35Z</time>
      </trkpt>
      <trkpt lat="46.003683" lon="6.960083">
        <ele>2302.0</ele>
        <time>2014-08-30T15:29:36Z</time>
      </trkpt>
      <trkpt lat="46.003700" lon="6.960000">
        <ele>2302.0</ele>
        <time>2014-08-30T15:29:37Z</time>
      </trkpt>
      <trkpt lat="46.003700" lon="6.959917">
        <ele>2301.0</ele>
        <time>2014-08-30T15:29:38Z</time>
      </trkpt>
      <trkpt lat="46.003700" lon="6.959817">
        <ele>2300.0</ele>
        <time>2014-08-30T15:29:39Z</time>
      </trkpt>
      <trkpt lat="46.003700" lon="6.959717">
        <ele>2299.0</ele>
        <time>2014-08-30T15:29:40Z</time>
      </trkpt>
      <trkpt lat="46.003683" lon="6.959617">
        <ele>2297.0</ele>
        <time>2014-08-30T15:29:41Z</time>
      </trkpt>
      <trkpt lat="46.003683" lon="6.959533">
        <ele>2296.0</ele>
        <time>2014-08-30T15:29:42Z</time>
      </trkpt>
      <trkpt lat="46.003667" lon="6.959450">
        <ele>2296.0</ele>
        <time>2014-08-30T15:29:43Z</time>
      </trkpt>
      <trkpt lat="46.003633" lon="6.959367">
        <ele>2296.0</ele>
        <time>2014-08-30T15:29:44Z</time>
      </trkpt>
      <trkpt lat="46.003617" lon="6.959283">
        <ele>2294.0</ele>
        <time>2014-08-30T15:29:45Z</time>
      </trkpt>
      <trkpt lat="46.003600" lon="6.959200">
        <ele>2293.0</ele>
        <time>2014-08-30T15:29:46Z</time>
      </trkpt>
      <trkpt lat="46.003567" lon="6.959100">
        <ele>2292.0</ele>
        <time>2014-08-30T15:29:47Z</time>
      </trkpt>
      <trkpt lat="46.003533" lon="6.959017">
        <ele>2291.0</ele>
        <time>2014-08-30T15:29:48Z</time>
      </trkpt>
      <trkpt lat="46.003517" lon="6.958933">
        <ele>2292.0</ele>
        <time>2014-08-30T15:29:49Z</time>
      </trkpt>
      <trkpt lat="46.003483" lon="6.958867">
        <ele>2292.0</ele>
        <time>2014-08-30T15:29:50Z</time>
      </trkpt>
      <trkpt lat="46.003467" lon="6.958800">
        <ele>2292.0</ele>
        <time>2014-08-30T15:29:51Z</time>
      </trkpt>
      <trkpt lat="46.003450" lon="6.958717">
        <ele>2291.0</ele>
        <time>2014-08-30T15:29:52Z</time>
      </trkpt>
      <trkpt lat="46.003417" lon="6.958617">
        <ele>2290.0</ele>
        <time>2014-08-30T15:29:53Z</time>
      </trkpt>
      <trkpt lat="46.003383" lon="6.958533">
        <ele>2289.0</ele>
        <time>2014-08-30T15:29:54Z</time>
      </trkpt>
      <trkpt lat="46.003350" lon="6.958450">
        <ele>2288.0</ele>
        <time>2014-08-30T15:29:55Z</time>
      </trkpt>
      <trkpt lat="46.003317" lon="6.958367">
        <ele>2288.0</ele>
        <time>2014-08-30T15:29:56Z</time>
      </trkpt>
      <trkpt lat="46.003283" lon="6.958283">
        <ele>2288.0</ele>
        <time>2014-08-30T15:29:57Z</time>
      </trkpt>
      <trkpt lat="46.003267" lon="6.958200">
        <ele>2288.0</ele>
        <time>2014-08-30T15:29:58Z</time>
      </trkpt>
      <trkpt lat="46.003267" lon="6.958117">
        <ele>2287.0</ele>
        <time>2014-08-30T15:29:59Z</time>
      </trkpt>
      <trkpt lat="46.003250" lon="6.958017">
        <ele>2287.0</ele>
        <time>2014-08-30T15:30:00Z</time>
      </trkpt>
      <trkpt lat="46.003233" lon="6.957933">
        <ele>2286.0</ele>
        <time>2014-08-30T15:30:01Z</time>
      </trkpt>
      <trkpt lat="46.003200" lon="6.957833">
        <ele>2286.0</ele>
        <time>2014-08-30T15:30:02Z</time>
      </trkpt>
      <trkpt lat="46.003183" lon="6.957750">
        <ele>2285.0</ele>
        <time>2014-08-30T15:30:03Z</time>
      </trkpt>
      <trkpt lat="46.003183" lon="6.957667">
        <ele>2284.0</ele>
        <time>2014-08-30T15:30:04Z</time>
      </trkpt>
      <trkpt lat="46.003167" lon="6.957567">
        <ele>2283.0</ele>
        <time>2014-08-30T15:30:05Z</time>
      </trkpt>
      <trkpt lat="46.003150" lon="6.957483">
        <ele>2281.0</ele>
        <time>2014-08-30T15:30:06Z</time>
      </trkpt>
      <trkpt lat="46.003150" lon="6.957383">
        <ele>2280.0</ele>
        <time>2014-08-30T15:30:07Z</time>
      </trkpt>
      <trkpt lat="46.003133" lon="6.957267">
        <ele>2278.0</ele>
        <time>2014-08-30T15:30:08Z</time>
      </trkpt>
      <trkpt lat="46.003133" lon="6.957167">
        <ele>2278.0</ele>
        <time>2014-08-30T15:30:09Z</time>
      </trkpt>
      <trkpt lat="46.003133" lon="6.957083">
        <ele>2277.0</ele>
        <time>2014-08-30T15:30:10Z</time>
      </trkpt>
      <trkpt lat="46.003117" lon="6.956983">
        <ele>2277.0</ele>
        <time>2014-08-30T15:30:11Z</time>
      </trkpt>
      <trkpt lat="46.003117" lon="6.956900">
        <ele>2276.0</ele>
        <time>2014-08-30T15:30:12Z</time>
      </trkpt>
      <trkpt lat="46.003100" lon="6.956817">
        <ele>2274.0</ele>
        <time>2014-08-30T15:30:13Z</time>
      </trkpt>
      <trkpt lat="46.003100" lon="6.956717">
        <ele>2273.0</ele>
        <time>2014-08-30T15:30:14Z</time>
      </trkpt>
      <trkpt lat="46.003083" lon="6.956617">
        <ele>2272.0</ele>
        <time>2014-08-30T15:30:15Z</time>
      </trkpt>
      <trkpt lat="46.003083" lon="6.956517">
        <ele>2271.0</ele>
        <time>2014-08-30T15:30:16Z</time>
      </trkpt>
      <trkpt lat="46.003067" lon="6.956433">
        <ele>2271.0</ele>
        <time>2014-08-30T15:30:17Z</time>
      </trkpt>
      <trkpt lat="46.003067" lon="6.956350">
        <ele>2270.0</ele>
        <time>2014-08-30T15:30:18Z</time>
      </trkpt>
      <trkpt lat="46.003050" lon="6.956267">
        <ele>2269.0</ele>
        <time>2014-08-30T15:30:19Z</time>
      </trkpt>
      <trkpt lat="46.003033" lon="6.956183">
        <ele>2267.0</ele>
        <time>2014-08-30T15:30:20Z</time>
      </trkpt>
      <trkpt lat="46.003017" lon="6.956083">
        <ele>2266.0</ele>
        <time>2014-08-30T15:30:21Z</time>
      </trkpt>
      <trkpt lat="46.003000" lon="6.955983">
        <ele>2265.0</ele>
        <time>2014-08-30T15:30:22Z</time>
      </trkpt>
      <trkpt lat="46.002983" lon="6.955900">
        <ele>2265.0</ele>
        <time>2014-08-30T15:30:23Z</time>
      </trkpt>
      <trkpt lat="46.002967" lon="6.955817">
        <ele>2264.0</ele>
        <time>2014-08-30T15:30:24Z</time>
      </trkpt>
      <trkpt lat="46.002950" lon="6.955733">
        <ele>2262.0</ele>
        <time>2014-08-30T15:30:25Z</time>
      </trkpt>
      <trkpt lat="46.002917" lon="6.955633">
        <ele>2261.0</ele>
        <time>2014-08-30T15:30:26Z</time>
      </trkpt>
      <trkpt lat="46.002900" lon="6.955533">
        <ele>2260.0</ele>
        <time>2014-08-30T15:30:27Z</time>
      </trkpt>
      <trkpt lat="46.002883" lon="6.955433">
        <ele>2259.0</ele>
        <time>2014-08-30T15:30:28Z</time>
      </trkpt>
      <trkpt lat="46.002867" lon="6.955350">
        <ele>2259.0</ele>
        <time>2014-08-30T15:30:29Z</time>
      </trkpt>
      <trkpt lat="46.002850" lon="6.955250">
        <ele>2259.0</ele>
        <time>2014-08-30T15:30:30Z</time>
      </trkpt>
      <trkpt lat="46.002833" lon="6.955167">
        <ele>2258.0</ele>
        <time>2014-08-30T15:30:31Z</time>
      </trkpt>
      <trkpt lat="46.002833" lon="6.955083">
        <ele>2257.0</ele>
        <time>2014-08-30T15:30:32Z</time>
      </trkpt>
      <trkpt lat="46.002833" lon="6.954983">
        <ele>2255.0</ele>
        <time>2014-08-30T15:30:33Z</time>
      </trkpt>
      <trkpt lat="46.002817" lon="6.954883">
        <ele>2253.0</ele>
        <time>2014-08-30T15:30:34Z</time>
      </trkpt>
      <trkpt lat="46.002817" lon="6.954767">
        <ele>2251.0</ele>
        <time>2014-08-30T15:30:35Z</time>
      </trkpt>
      <trkpt lat="46.002800" lon="6.954667">
        <ele>2251.0</ele>
        <time>2014-08-30T15:30:36Z</time>
      </trkpt>
      <trkpt lat="46.002800" lon="6.954567">
        <ele>2250.0</ele>
        <time>2014-08-30T15:30:37Z</time>
      </trkpt>
      <trkpt lat="46.002800" lon="6.954467">
        <ele>2249.0</ele>
        <time>2014-08-30T15:30:38Z</time>
      </trkpt>
      <trkpt lat="46.002783" lon="6.954350">
        <ele>2248.0</ele>
        <time>2014-08-30T15:30:39Z</time>
      </trkpt>
      <trkpt lat="46.002783" lon="6.954250">
        <ele>2247.0</ele>
        <time>2014-08-30T15:30:40Z</time>
      </trkpt>
      <trkpt lat="46.002767" lon="6.954150">
        <ele>2245.0</ele>
        <time>2014-08-30T15:30:41Z</time>
      </trkpt>
      <trkpt lat="46.002750" lon="6.954050">
        <ele>2244.0</ele>
        <time>2014-08-30T15:30:42Z</time>
      </trkpt>
      <trkpt lat="46.002733" lon="6.953950">
        <ele>2243.0</ele>
        <time>2014-08-30T15:30:43Z</time>
      </trkpt>
      <trkpt lat="46.002717" lon="6.953850">
        <ele>2242.0</ele>
        <time>2014-08-30T15:30:44Z</time>
      </trkpt>
      <trkpt lat="46.002683" lon="6.953767">
        <ele>2241.0</ele>
        <time>2014-08-30T15:30:45Z</time>
      </trkpt>
      <trkpt lat="46.002667" lon="6.953667">
        <ele>2240.0</ele>
        <time>2014-08-30T15:30:46Z</time>
      </trkpt>
      <trkpt lat="46.002650" lon="6.953567">
        <ele>2239.0</ele>
        <time>2014-08-30T15:30:47Z</time>
      </trkpt>
      <trkpt lat="46.002617" lon="6.953483">
        <ele>2239.0</ele>
        <time>2014-08-30T15:30:48Z</time>
      </trkpt>
      <trkpt lat="46.002583" lon="6.953400">
        <ele>2238.0</ele>
        <time>2014-08-30T15:30:49Z</time>
      </trkpt>
      <trkpt lat="46.002550" lon="6.953333">
        <ele>2237.0</ele>
        <time>2014-08-30T15:30:50Z</time>
      </trkpt>
      <trkpt lat="46.002533" lon="6.953250">
        <ele>2235.0</ele>
        <time>2014-08-30T15:30:51Z</time>
      </trkpt>
      <trkpt lat="46.002483" lon="6.953167">
        <ele>2233.0</ele>
        <time>2014-08-30T15:30:52Z</time>
      </trkpt>
      <trkpt lat="46.002450" lon="6.953083">
        <ele>2231.0</ele>
        <time>2014-08-30T15:30:53Z</time>
      </trkpt>
      <trkpt lat="46.002417" lon="6.953000">
        <ele>2230.0</ele>
        <time>2014-08-30T15:30:54Z</time>
      </trkpt>
      <trkpt lat="46.002383" lon="6.952917">
        <ele>2229.0</ele>
        <time>2014-08-30T15:30:55Z</time>
      </trkpt>
      <trkpt lat="46.002350" lon="6.952850">
        <ele>2229.0</ele>
        <time>2014-08-30T15:30:56Z</time>
      </trkpt>
      <trkpt lat="46.002317" lon="6.952783">
        <ele>2228.0</ele>
        <time>2014-08-30T15:30:57Z</time>
      </trkpt>
      <trkpt lat="46.002283" lon="6.952717">
        <ele>2226.0</ele>
        <time>2014-08-30T15:30:58Z</time>
      </trkpt>
      <trkpt lat="46.002250" lon="6.952650">
        <ele>2225.0</ele>
        <time>2014-08-30T15:30:59Z</time>
      </trkpt>
      <trkpt lat="46.002217" lon="6.952583">
        <ele>2223.0</ele>
        <time>2014-08-30T15:31:00Z</time>
      </trkpt>
      <trkpt lat="46.002167" lon="6.952517">
        <ele>2221.0</ele>
        <time>2014-08-30T15:31:01Z</time>
      </trkpt>
      <trkpt lat="46.002133" lon="6.952433">
        <ele>2220.0</ele>
        <time>2014-08-30T15:31:02Z</time>
      </trkpt>
      <trkpt lat="46.002100" lon="6.952367">
        <ele>2218.0</ele>
        <time>2014-08-30T15:31:03Z</time>
      </trkpt>
      <trkpt lat="46.002067" lon="6.952300">
        <ele>2217.0</ele>
        <time>2014-08-30T15:31:04Z</time>
      </trkpt>
      <trkpt lat="46.002033" lon="6.952217">
        <ele>2215.0</ele>
        <time>2014-08-30T15:31:05Z</time>
      </trkpt>
      <trkpt lat="46.002000" lon="6.952150">
        <ele>2214.0</ele>
        <time>2014-08-30T15:31:06Z</time>
      </trkpt>
      <trkpt lat="46.001983" lon="6.952067">
        <ele>2212.0</ele>
        <time>2014-08-30T15:31:07Z</time>
      </trkpt>
      <trkpt lat="46.001950" lon="6.951983">
        <ele>2210.0</ele>
        <time>2014-08-30T15:31:08Z</time>
      </trkpt>
      <trkpt lat="46.001900" lon="6.951900">
        <ele>2209.0</ele>
        <time>2014-08-30T15:31:09Z</time>
      </trkpt>
      <trkpt lat="46.001867" lon="6.951833">
        <ele>2208.0</ele>
        <time>2014-08-30T15:31:10Z</time>
      </trkpt>
      <trkpt lat="46.001817" lon="6.951783">
        <ele>2207.0</ele>
        <time>2014-08-30T15:31:11Z</time>
      </trkpt>
      <trkpt lat="46.001783" lon="6.951733">
        <ele>2205.0</ele>
        <time>2014-08-30T15:31:12Z</time>
      </trkpt>
      <trkpt lat="46.001733" lon="6.951683">
        <ele>2204.0</ele>
        <time>2014-08-30T15:31:13Z</time>
      </trkpt>
      <trkpt lat="46.001683" lon="6.951633">
        <ele>2203.0</ele>
        <time>2014-08-30T15:31:14Z</time>
      </trkpt>
      <trkpt lat="46.001650" lon="6.951583">
        <ele>2201.0</ele>
        <time>2014-08-30T15:31:15Z</time>
      </trkpt>
      <trkpt lat="46.001600" lon="6.951550">
        <ele>2200.0</ele>
        <time>2014-08-30T15:31:16Z</time>
      </trkpt>
      <trkpt lat="46.001567" lon="6.951517">
        <ele>2198.0</ele>
        <time>2014-08-30T15:31:17Z</time>
      </trkpt>
      <trkpt lat="46.001533" lon="6.951483">
        <ele>2195.0</ele>
        <time>2014-08-30T15:31:18Z</time>
      </trkpt>
      <trkpt lat="46.001483" lon="6.951433">
        <ele>2192.0</ele>
        <time>2014-08-30T15:31:19Z</time>
      </trkpt>
      <trkpt lat="46.001433" lon="6.951400">
        <ele>2190.0</ele>
        <time>2014-08-30T15:31:20Z</time>
      </trkpt>
      <trkpt lat="46.001400" lon="6.951367">
        <ele>2189.0</ele>
        <time>2014-08-30T15:31:21Z</time>
      </trkpt>
      <trkpt lat="46.001367" lon="6.951333">
        <ele>2187.0</ele>
        <time>2014-08-30T15:31:22Z</time>
      </trkpt>
      <trkpt lat="46.001333" lon="6.951317">
        <ele>2184.0</ele>
        <time>2014-08-30T15:31:23Z</time>
      </trkpt>
      <trkpt lat="46.001300" lon="6.951283">
        <ele>2181.0</ele>
        <time>2014-08-30T15:31:24Z</time>
      </trkpt>
      <trkpt lat="46.001250" lon="6.951250">
        <ele>2178.0</ele>
        <time>2014-08-30T15:31:25Z</time>
      </trkpt>
      <trkpt lat="46.001217" lon="6.951200">
        <ele>2176.0</ele>
        <time>2014-08-30T15:31:26Z</time>
      </trkpt>
      <trkpt lat="46.001167" lon="6.951167">
        <ele>2174.0</ele>
        <time>2014-08-30T15:31:27Z</time>
      </trkpt>
      <trkpt lat="46.001133" lon="6.951117">
        <ele>2172.0</ele>
        <time>2014-08-30T15:31:28Z</time>
      </trkpt>
      <trkpt lat="46.001100" lon="6.951083">
        <ele>2170.0</ele>
        <time>2014-08-30T15:31:29Z</time>
      </trkpt>
      <trkpt lat="46.001067" lon="6.951050">
        <ele>2167.0</ele>
        <time>2014-08-30T15:31:30Z</time>
      </trkpt>
      <trkpt lat="46.001033" lon="6.951000">
        <ele>2164.0</ele>
        <time>2014-08-30T15:31:31Z</time>
      </trkpt>
      <trkpt lat="46.001000" lon="6.950950">
        <ele>2162.0</ele>
        <time>2014-08-30T15:31:32Z</time>
      </trkpt>
      <trkpt lat="46.001000" lon="6.950867">
        <ele>2159.0</ele>
        <time>2014-08-30T15:31:33Z</time>
      </trkpt>
      <trkpt lat="46.001033" lon="6.950750">
        <ele>2155.0</ele>
        <time>2014-08-30T15:31:34Z</time>
      </trkpt>
      <trkpt lat="46.001117" lon="6.950650">
        <ele>2151.0</ele>
        <time>2014-08-30T15:31:35Z</time>
      </trkpt>
      <trkpt lat="46.001250" lon="6.950583">
        <ele>2147.0</ele>
        <time>2014-08-30T15:31:36Z</time>
      </trkpt>
      <trkpt lat="46.001383" lon="6.950633">
        <ele>2144.0</ele>
        <time>2014-08-30T15:31:37Z</time>
      </trkpt>
      <trkpt lat="46.001517" lon="6.950750">
        <ele>2141.0</ele>
        <time>2014-08-30T15:31:38Z</time>
      </trkpt>
      <trkpt lat="46.001600" lon="6.950900">
        <ele>2139.0</ele>
        <time>2014-08-30T15:31:39Z</time>
      </trkpt>
      <trkpt lat="46.001700" lon="6.951000">
        <ele>2138.0</ele>
        <time>2014-08-30T15:31:40Z</time>
      </trkpt>
      <trkpt lat="46.001783" lon="6.951050">
        <ele>2135.0</ele>
        <time>2014-08-30T15:31:41Z</time>
      </trkpt>
      <trkpt lat="46.001917" lon="6.951017">
        <ele>2131.0</ele>
        <time>2014-08-30T15:31:42Z</time>
      </trkpt>
      <trkpt lat="46.002017" lon="6.950917">
        <ele>2124.0</ele>
        <time>2014-08-30T15:31:43Z</time>
      </trkpt>
      <trkpt lat="46.002067" lon="6.950783">
        <ele>2120.0</ele>
        <time>2014-08-30T15:31:44Z</time>
      </trkpt>
      <trkpt lat="46.002050" lon="6.950667">
        <ele>2118.0</ele>
        <time>2014-08-30T15:31:45Z</time>
      </trkpt>
      <trkpt lat="46.002000" lon="6.950617">
        <ele>2116.0</ele>
        <time>2014-08-30T15:31:46Z</time>
      </trkpt>
      <trkpt lat="46.001950" lon="6.950583">
        <ele>2115.0</ele>
        <time>2014-08-30T15:31:47Z</time>
      </trkpt>
      <trkpt lat="46.001950" lon="6.950517">
        <ele>2113.0</ele>
        <time>2014-08-30T15:31:48Z</time>
      </trkpt>
      <trkpt lat="46.001983" lon="6.950400">
        <ele>2109.0</ele>
        <time>2014-08-30T15:31:49Z</time>
      </trkpt>
      <trkpt lat="46.002083" lon="6.950300">
        <ele>2104.0</ele>
        <time>2014-08-30T15:31:50Z</time>
      </trkpt>
      <trkpt lat="46.002233" lon="6.950283">
        <ele>2100.0</ele>
        <time>2014-08-30T15:31:51Z</time>
      </trkpt>
      <trkpt lat="46.002383" lon="6.950383">
        <ele>2097.0</ele>
        <time>2014-08-30T15:31:52Z</time>
      </trkpt>
      <trkpt lat="46.002467" lon="6.950583">
        <ele>2092.0</ele>
        <time>2014-08-30T15:31:53Z</time>
      </trkpt>
      <trkpt lat="46.002450" lon="6.950767">
        <ele>2086.0</ele>
        <time>2014-08-30T15:31:54Z</time>
      </trkpt>
      <trkpt lat="46.002367" lon="6.950850">
        <ele>2081.0</ele>
        <time>2014-08-30T15:31:55Z</time>
      </trkpt>
      <trkpt lat="46.002283" lon="6.950767">
        <ele>2077.0</ele>
        <time>2014-08-30T15:31:56Z</time>
      </trkpt>
      <trkpt lat="46.002300" lon="6.950617">
        <ele>2072.0</ele>
        <time>2014-08-30T15:31:57Z</time>
      </trkpt>
      <trkpt lat="46.002417" lon="6.950500">
        <ele>2066.0</ele>
        <time>2014-08-30T15:31:58Z</time>
      </trkpt>
      <trkpt lat="46.002600" lon="6.950517">
        <ele>2060.0</ele>
        <time>2014-08-30T15:31:59Z</time>
      </trkpt>
      <trkpt lat="46.002733" lon="6.950700">
        <ele>2055.0</ele>
        <time>2014-08-30T15:32:00Z</time>
      </trkpt>
      <trkpt lat="46.002800" lon="6.950933">
        <ele>2051.0</ele>
        <time>2014-08-30T15:32:01Z</time>
      </trkpt>
      <trkpt lat="46.002750" lon="6.951100">
        <ele>2053.0</ele>
        <time>2014-08-30T15:32:02Z</time>
      </trkpt>
      <trkpt lat="46.002717" lon="6.951183">
        <ele>2056.0</ele>
        <time>2014-08-30T15:32:03Z</time>
      </trkpt>
      <trkpt lat="46.002700" lon="6.951267">
        <ele>2057.0</ele>
        <time>2014-08-30T15:32:04Z</time>
      </trkpt>
      <trkpt lat="46.002700" lon="6.951333">
        <ele>2055.0</ele>
        <time>2014-08-30T15:32:05Z</time>
      </trkpt>
      <trkpt lat="46.002683" lon="6.951433">
        <ele>2053.0</ele>
        <time>2014-08-30T15:32:06Z</time>
      </trkpt>
      <trkpt lat="46.002667" lon="6.951533">
        <ele>2049.0</ele>
        <time>2014-08-30T15:32:07Z</time>
      </trkpt>
      <trkpt lat="46.002617" lon="6.951633">
        <ele>2046.0</ele>
        <time>2014-08-30T15:32:08Z</time>
      </trkpt>
      <trkpt lat="46.002550" lon="6.951700">
        <ele>2044.0</ele>
        <time>2014-08-30T15:32:09Z</time>
      </trkpt>
      <trkpt lat="46.002483" lon="6.951700">
        <ele>2042.0</ele>
        <time>2014-08-30T15:32:10Z</time>
      </trkpt>
      <trkpt lat="46.002450" lon="6.951650">
        <ele>2040.0</ele>
        <time>2014-08-30T15:32:11Z</time>
      </trkpt>
      <trkpt lat="46.002450" lon="6.951550">
        <ele>2038.0</ele>
        <time>2014-08-30T15:32:12Z</time>
      </trkpt>
      <trkpt lat="46.002483" lon="6.951450">
        <ele>2035.0</ele>
        <time>2014-08-30T15:32:13Z</time>
      </trkpt>
      <trkpt lat="46.002517" lon="6.951350">
        <ele>2033.0</ele>
        <time>2014-08-30T15:32:14Z</time>
      </trkpt>
      <trkpt lat="46.002533" lon="6.951283">
        <ele>2031.0</ele>
        <time>2014-08-30T15:32:15Z</time>
      </trkpt>
      <trkpt lat="46.002483" lon="6.951233">
        <ele>2027.0</ele>
        <time>2014-08-30T15:32:16Z</time>
      </trkpt>
      <trkpt lat="46.002417" lon="6.951300">
        <ele>2021.0</ele>
        <time>2014-08-30T15:32:17Z</time>
      </trkpt>
      <trkpt lat="46.002333" lon="6.951417">
        <ele>2018.0</ele>
        <time>2014-08-30T15:32:18Z</time>
      </trkpt>
      <trkpt lat="46.002283" lon="6.951500">
        <ele>2020.0</ele>
        <time>2014-08-30T15:32:19Z</time>
      </trkpt>
      <trkpt lat="46.002250" lon="6.951500">
        <ele>2019.0</ele>
        <time>2014-08-30T15:32:20Z</time>
      </trkpt>
      <trkpt lat="46.002233" lon="6.951433">
        <ele>2015.0</ele>
        <time>2014-08-30T15:32:21Z</time>
      </trkpt>
      <trkpt lat="46.002250" lon="6.951317">
        <ele>2011.0</ele>
        <time>2014-08-30T15:32:22Z</time>
      </trkpt>
      <trkpt lat="46.002283" lon="6.951217">
        <ele>2010.0</ele>
        <time>2014-08-30T15:32:23Z</time>
      </trkpt>
      <trkpt lat="46.002350" lon="6.951133">
        <ele>2009.0</ele>
        <time>2014-08-30T15:32:24Z</time>
      </trkpt>
      <trkpt lat="46.002433" lon="6.951083">
        <ele>2007.0</ele>
        <time>2014-08-30T15:32:25Z</time>
      </trkpt>
      <trkpt lat="46.002533" lon="6.951033">
        <ele>2004.0</ele>
        <time>2014-08-30T15:32:26Z</time>
      </trkpt>
      <trkpt lat="46.002633" lon="6.951000">
        <ele>2001.0</ele>
        <time>2014-08-30T15:32:27Z</time>
      </trkpt>
      <trkpt lat="46.002750" lon="6.950967">
        <ele>1999.0</ele>
        <time>2014-08-30T15:32:28Z</time>
      </trkpt>
      <trkpt lat="46.002883" lon="6.950983">
        <ele>1996.0</ele>
        <time>2014-08-30T15:32:29Z</time>
      </trkpt>
      <trkpt lat="46.003017" lon="6.951100">
        <ele>1992.0</ele>
        <time>2014-08-30T15:32:30Z</time>
      </trkpt>
      <trkpt lat="46.003100" lon="6.951283">
        <ele>1988.0</ele>
        <time>2014-08-30T15:32:31Z</time>
      </trkpt>
      <trkpt lat="46.003133" lon="6.951483">
        <ele>1984.0</ele>
        <time>2014-08-30T15:32:32Z</time>
      </trkpt>
      <trkpt lat="46.003083" lon="6.951617">
        <ele>1982.0</ele>
        <time>2014-08-30T15:32:33Z</time>
      </trkpt>
      <trkpt lat="46.003017" lon="6.951667">
        <ele>1978.0</ele>
        <time>2014-08-30T15:32:34Z</time>
      </trkpt>
      <trkpt lat="46.002967" lon="6.951583">
        <ele>1974.0</ele>
        <time>2014-08-30T15:32:35Z</time>
      </trkpt>
      <trkpt lat="46.002983" lon="6.951450">
        <ele>1970.0</ele>
        <time>2014-08-30T15:32:36Z</time>
      </trkpt>
      <trkpt lat="46.003100" lon="6.951350">
        <ele>1966.0</ele>
        <time>2014-08-30T15:32:37Z</time>
      </trkpt>
      <trkpt lat="46.003267" lon="6.951383">
        <ele>1961.0</ele>
        <time>2014-08-30T15:32:38Z</time>
      </trkpt>
      <trkpt lat="46.003400" lon="6.951567">
        <ele>1956.0</ele>
        <time>2014-08-30T15:32:39Z</time>
      </trkpt>
      <trkpt lat="46.003433" lon="6.951783">
        <ele>1951.0</ele>
        <time>2014-08-30T15:32:40Z</time>
      </trkpt>
      <trkpt lat="46.003367" lon="6.951950">
        <ele>1946.0</ele>
        <time>2014-08-30T15:32:41Z</time>
      </trkpt>
      <trkpt lat="46.003267" lon="6.951933">
        <ele>1942.0</ele>
        <time>2014-08-30T15:32:42Z</time>
      </trkpt>
      <trkpt lat="46.003250" lon="6.951783">
        <ele>1938.0</ele>
        <time>2014-08-30T15:32:43Z</time>
      </trkpt>
      <trkpt lat="46.003350" lon="6.951650">
        <ele>1934.0</ele>
        <time>2014-08-30T15:32:44Z</time>
      </trkpt>
      <trkpt lat="46.003517" lon="6.951633">
        <ele>1929.0</ele>
        <time>2014-08-30T15:32:45Z</time>
      </trkpt>
      <trkpt lat="46.003667" lon="6.951783">
        <ele>1924.0</ele>
        <time>2014-08-30T15:32:46Z</time>
      </trkpt>
      <trkpt lat="46.003717" lon="6.952017">
        <ele>1919.0</ele>
        <time>2014-08-30T15:32:47Z</time>
      </trkpt>
      <trkpt lat="46.003650" lon="6.952183">
        <ele>1912.0</ele>
        <time>2014-08-30T15:32:48Z</time>
      </trkpt>
      <trkpt lat="46.003550" lon="6.952133">
        <ele>1905.0</ele>
        <time>2014-08-30T15:32:49Z</time>
      </trkpt>
      <trkpt lat="46.003550" lon="6.951950">
        <ele>1899.0</ele>
        <time>2014-08-30T15:32:50Z</time>
      </trkpt>
      <trkpt lat="46.003683" lon="6.951800">
        <ele>1898.0</ele>
        <time>2014-08-30T15:32:51Z</time>
      </trkpt>
      <trkpt lat="46.003817" lon="6.951783">
        <ele>1902.0</ele>
        <time>2014-08-30T15:32:52Z</time>
      </trkpt>
      <trkpt lat="46.003917" lon="6.951783">
        <ele>1906.0</ele>
        <time>2014-08-30T15:32:53Z</time>
      </trkpt>
      <trkpt lat="46.003967" lon="6.951767">
        <ele>1906.0</ele>
        <time>2014-08-30T15:32:54Z</time>
      </trkpt>
      <trkpt lat="46.004017" lon="6.951733">
        <ele>1904.0</ele>
        <time>2014-08-30T15:32:55Z</time>
      </trkpt>
      <trkpt lat="46.004100" lon="6.951667">
        <ele>1900.0</ele>
        <time>2014-08-30T15:32:56Z</time>
      </trkpt>
      <trkpt lat="46.004183" lon="6.951583">
        <ele>1898.0</ele>
        <time>2014-08-30T15:32:57Z</time>
      </trkpt>
      <trkpt lat="46.004250" lon="6.951500">
        <ele>1897.0</ele>
        <time>2014-08-30T15:32:58Z</time>
      </trkpt>
      <trkpt lat="46.004250" lon="6.951433">
        <ele>1896.0</ele>
        <time>2014-08-30T15:32:59Z</time>
      </trkpt>
      <trkpt lat="46.004217" lon="6.951400">
        <ele>1892.0</ele>
        <time>2014-08-30T15:33:00Z</time>
      </trkpt>
      <trkpt lat="46.004150" lon="6.951467">
        <ele>1888.0</ele>
        <time>2014-08-30T15:33:01Z</time>
      </trkpt>
      <trkpt lat="46.004117" lon="6.951600">
        <ele>1885.0</ele>
        <time>2014-08-30T15:33:02Z</time>
      </trkpt>
      <trkpt lat="46.004150" lon="6.951767">
        <ele>1883.0</ele>
        <time>2014-08-30T15:33:03Z</time>
      </trkpt>
      <trkpt lat="46.004217" lon="6.951933">
        <ele>1880.0</ele>
        <time>2014-08-30T15:33:04Z</time>
      </trkpt>
      <trkpt lat="46.004333" lon="6.952067">
        <ele>1878.0</ele>
        <time>2014-08-30T15:33:05Z</time>
      </trkpt>
      <trkpt lat="46.004467" lon="6.952133">
        <ele>1876.0</ele>
        <time>2014-08-30T15:33:06Z</time>
      </trkpt>
      <trkpt lat="46.004583" lon="6.952167">
        <ele>1874.0</ele>
        <time>2014-08-30T15:33:07Z</time>
      </trkpt>
      <trkpt lat="46.004717" lon="6.952183">
        <ele>1872.0</ele>
        <time>2014-08-30T15:33:08Z</time>
      </trkpt>
      <trkpt lat="46.004850" lon="6.952183">
        <ele>1870.0</ele>
        <time>2014-08-30T15:33:09Z</time>
      </trkpt>
      <trkpt lat="46.004983" lon="6.952233">
        <ele>1869.0</ele>
        <time>2014-08-30T15:33:10Z</time>
      </trkpt>
      <trkpt lat="46.005100" lon="6.952333">
        <ele>1869.0</ele>
        <time>2014-08-30T15:33:11Z</time>
      </trkpt>
      <trkpt lat="46.005217" lon="6.952433">
        <ele>1869.0</ele>
        <time>2014-08-30T15:33:12Z</time>
      </trkpt>
      <trkpt lat="46.005317" lon="6.952483">
        <ele>1868.0</ele>
        <time>2014-08-30T15:33:13Z</time>
      </trkpt>
      <trkpt lat="46.005433" lon="6.952433">
        <ele>1864.0</ele>
        <time>2014-08-30T15:33:14Z</time>
      </trkpt>
      <trkpt lat="46.005533" lon="6.952317">
        <ele>1861.0</ele>
        <time>2014-08-30T15:33:15Z</time>
      </trkpt>
      <trkpt lat="46.005633" lon="6.952217">
        <ele>1862.0</ele>
        <time>2014-08-30T15:33:16Z</time>
      </trkpt>
      <trkpt lat="46.005750" lon="6.952200">
        <ele>1863.0</ele>
        <time>2014-08-30T15:33:17Z</time>
      </trkpt>
      <trkpt lat="46.005883" lon="6.952267">
        <ele>1861.0</ele>
        <time>2014-08-30T15:33:18Z</time>
      </trkpt>
      <trkpt lat="46.006017" lon="6.952333">
        <ele>1861.0</ele>
        <time>2014-08-30T15:33:19Z</time>
      </trkpt>
      <trkpt lat="46.006133" lon="6.952350">
        <ele>1860.0</ele>
        <time>2014-08-30T15:33:20Z</time>
      </trkpt>
      <trkpt lat="46.006233" lon="6.952250">
        <ele>1859.0</ele>
        <time>2014-08-30T15:33:21Z</time>
      </trkpt>
      <trkpt lat="46.006300" lon="6.952117">
        <ele>1857.0</ele>
        <time>2014-08-30T15:33:22Z</time>
      </trkpt>
      <trkpt lat="46.006383" lon="6.952033">
        <ele>1859.0</ele>
        <time>2014-08-30T15:33:23Z</time>
      </trkpt>
      <trkpt lat="46.006533" lon="6.952033">
        <ele>1858.0</ele>
        <time>2014-08-30T15:33:24Z</time>
      </trkpt>
      <trkpt lat="46.006667" lon="6.952150">
        <ele>1854.0</ele>
        <time>2014-08-30T15:33:25Z</time>
      </trkpt>
      <trkpt lat="46.006733" lon="6.952367">
        <ele>1850.0</ele>
        <time>2014-08-30T15:33:26Z</time>
      </trkpt>
      <trkpt lat="46.006733" lon="6.952550">
        <ele>1848.0</ele>
        <time>2014-08-30T15:33:27Z</time>
      </trkpt>
      <trkpt lat="46.006650" lon="6.952650">
        <ele>1846.0</ele>
        <time>2014-08-30T15:33:28Z</time>
      </trkpt>
      <trkpt lat="46.006600" lon="6.952617">
        <ele>1845.0</ele>
        <time>2014-08-30T15:33:29Z</time>
      </trkpt>
      <trkpt lat="46.006600" lon="6.952517">
        <ele>1843.0</ele>
        <time>2014-08-30T15:33:30Z</time>
      </trkpt>
      <trkpt lat="46.006617" lon="6.952450">
        <ele>1846.0</ele>
        <time>2014-08-30T15:33:31Z</time>
      </trkpt>
      <trkpt lat="46.006617" lon="6.952450">
        <ele>1847.0</ele>
        <time>2014-08-30T15:33:32Z</time>
      </trkpt>
      <trkpt lat="46.006583" lon="6.952483">
        <ele>1844.0</ele>
        <time>2014-08-30T15:33:33Z</time>
      </trkpt>
      <trkpt lat="46.006517" lon="6.952567">
        <ele>1840.0</ele>
        <time>2014-08-30T15:33:34Z</time>
      </trkpt>
      <trkpt lat="46.006467" lon="6.952650">
        <ele>1838.0</ele>
        <time>2014-08-30T15:33:35Z</time>
      </trkpt>
      <trkpt lat="46.006433" lon="6.952683">
        <ele>1837.0</ele>
        <time>2014-08-30T15:33:36Z</time>
      </trkpt>
      <trkpt lat="46.006417" lon="6.952617">
        <ele>1834.0</ele>
        <time>2014-08-30T15:33:37Z</time>
      </trkpt>
      <trkpt lat="46.006433" lon="6.952500">
        <ele>1831.0</ele>
        <time>2014-08-30T15:33:38Z</time>
      </trkpt>
      <trkpt lat="46.006450" lon="6.952383">
        <ele>1833.0</ele>
        <time>2014-08-30T15:33:39Z</time>
      </trkpt>
      <trkpt lat="46.006433" lon="6.952333">
        <ele>1833.0</ele>
        <time>2014-08-30T15:33:40Z</time>
      </trkpt>
      <trkpt lat="46.006383" lon="6.952383">
        <ele>1827.0</ele>
        <time>2014-08-30T15:33:41Z</time>
      </trkpt>
      <trkpt lat="46.006333" lon="6.952550">
        <ele>1820.0</ele>
        <time>2014-08-30T15:33:42Z</time>
      </trkpt>
      <trkpt lat="46.006300" lon="6.952767">
        <ele>1820.0</ele>
        <time>2014-08-30T15:33:43Z</time>
      </trkpt>
      <trkpt lat="46.006267" lon="6.952867">
        <ele>1821.0</ele>
        <time>2014-08-30T15:33:44Z</time>
      </trkpt>
      <trkpt lat="46.006200" lon="6.952867">
        <ele>1820.0</ele>
        <time>2014-08-30T15:33:45Z</time>
      </trkpt>
      <trkpt lat="46.006183" lon="6.952767">
        <ele>1817.0</ele>
        <time>2014-08-30T15:33:46Z</time>
      </trkpt>
      <trkpt lat="46.006217" lon="6.952617">
        <ele>1816.0</ele>
        <time>2014-08-30T15:33:47Z</time>
      </trkpt>
      <trkpt lat="46.006217" lon="6.952533">
        <ele>1821.0</ele>
        <time>2014-08-30T15:33:48Z</time>
      </trkpt>
      <trkpt lat="46.006183" lon="6.952500">
        <ele>1821.0</ele>
        <time>2014-08-30T15:33:49Z</time>
      </trkpt>
      <trkpt lat="46.006133" lon="6.952567">
        <ele>1815.0</ele>
        <time>2014-08-30T15:33:50Z</time>
      </trkpt>
      <trkpt lat="46.006083" lon="6.952733">
        <ele>1810.0</ele>
        <time>2014-08-30T15:33:51Z</time>
      </trkpt>
      <trkpt lat="46.006050" lon="6.952917">
        <ele>1810.0</ele>
        <time>2014-08-30T15:33:52Z</time>
      </trkpt>
      <trkpt lat="46.006000" lon="6.953017">
        <ele>1810.0</ele>
        <time>2014-08-30T15:33:53Z</time>
      </trkpt>
      <trkpt lat="46.005950" lon="6.953017">
        <ele>1808.0</ele>
        <time>2014-08-30T15:33:54Z</time>
      </trkpt>
      <trkpt lat="46.005950" lon="6.952917">
        <ele>1806.0</ele>
        <time>2014-08-30T15:33:55Z</time>
      </trkpt>
      <trkpt lat="46.006067" lon="6.952783">
        <ele>1802.0</ele>
        <time>2014-08-30T15:33:56Z</time>
      </trkpt>
      <trkpt lat="46.006250" lon="6.952767">
        <ele>1800.0</ele>
        <time>2014-08-30T15:33:57Z</time>
      </trkpt>
      <trkpt lat="46.006383" lon="6.952900">
        <ele>1801.0</ele>
        <time>2014-08-30T15:33:58Z</time>
      </trkpt>
      <trkpt lat="46.006450" lon="6.953100">
        <ele>1802.0</ele>
        <time>2014-08-30T15:33:59Z</time>
      </trkpt>
      <trkpt lat="46.006467" lon="6.953283">
        <ele>1803.0</ele>
        <time>2014-08-30T15:34:00Z</time>
      </trkpt>
      <trkpt lat="46.006450" lon="6.953417">
        <ele>1803.0</ele>
        <time>2014-08-30T15:34:01Z</time>
      </trkpt>
      <trkpt lat="46.006433" lon="6.953550">
        <ele>1802.0</ele>
        <time>2014-08-30T15:34:02Z</time>
      </trkpt>
      <trkpt lat="46.006417" lon="6.953667">
        <ele>1801.0</ele>
        <time>2014-08-30T15:34:03Z</time>
      </trkpt>
      <trkpt lat="46.006400" lon="6.953817">
        <ele>1800.0</ele>
        <time>2014-08-30T15:34:04Z</time>
      </trkpt>
      <trkpt lat="46.006383" lon="6.953967">
        <ele>1799.0</ele>
        <time>2014-08-30T15:34:05Z</time>
      </trkpt>
      <trkpt lat="46.006350" lon="6.954100">
        <ele>1798.0</ele>
        <time>2014-08-30T15:34:06Z</time>
      </trkpt>
      <trkpt lat="46.006300" lon="6.954183">
        <ele>1799.0</ele>
        <time>2014-08-30T15:34:07Z</time>
      </trkpt>
      <trkpt lat="46.006250" lon="6.954200">
        <ele>1798.0</ele>
        <time>2014-08-30T15:34:08Z</time>
      </trkpt>
      <trkpt lat="46.006217" lon="6.954167">
        <ele>1796.0</ele>
        <time>2014-08-30T15:34:09Z</time>
      </trkpt>
      <trkpt lat="46.006217" lon="6.954100">
        <ele>1795.0</ele>
        <time>2014-08-30T15:34:10Z</time>
      </trkpt>
      <trkpt lat="46.006233" lon="6.954017">
        <ele>1795.0</ele>
        <time>2014-08-30T15:34:11Z</time>
      </trkpt>
      <trkpt lat="46.006267" lon="6.953950">
        <ele>1794.0</ele>
        <time>2014-08-30T15:34:12Z</time>
      </trkpt>
      <trkpt lat="46.006317" lon="6.953883">
        <ele>1793.0</ele>
        <time>2014-08-30T15:34:13Z</time>
      </trkpt>
      <trkpt lat="46.006333" lon="6.953800">
        <ele>1791.0</ele>
        <time>2014-08-30T15:34:14Z</time>
      </trkpt>
      <trkpt lat="46.006333" lon="6.953700">
        <ele>1791.0</ele>
        <time>2014-08-30T15:34:15Z</time>
      </trkpt>
      <trkpt lat="46.006317" lon="6.953650">
        <ele>1791.0</ele>
        <time>2014-08-30T15:34:16Z</time>
      </trkpt>
      <trkpt lat="46.006300" lon="6.953633">
        <ele>1792.0</ele>
        <time>2014-08-30T15:34:17Z</time>
      </trkpt>
      <trkpt lat="46.006250" lon="6.953650">
        <ele>1791.0</ele>
        <time>2014-08-30T15:34:18Z</time>
      </trkpt>
      <trkpt lat="46.006200" lon="6.953667">
        <ele>1790.0</ele>
        <time>2014-08-30T15:34:19Z</time>
      </trkpt>
      <trkpt lat="46.006150" lon="6.953667">
        <ele>1789.0</ele>
        <time>2014-08-30T15:34:20Z</time>
      </trkpt>
      <trkpt lat="46.006100" lon="6.953650">
        <ele>1788.0</ele>
        <time>2014-08-30T15:34:21Z</time>
      </trkpt>
      <trkpt lat="46.006067" lon="6.953600">
        <ele>1787.0</ele>
        <time>2014-08-30T15:34:22Z</time>
      </trkpt>
      <trkpt lat="46.006033" lon="6.953567">
        <ele>1787.0</ele>
        <time>2014-08-30T15:34:23Z</time>
      </trkpt>
      <trkpt lat="46.005983" lon="6.953550">
        <ele>1787.0</ele>
        <time>2014-08-30T15:34:24Z</time>
      </trkpt>
      <trkpt lat="46.005950" lon="6.953533">
        <ele>1786.0</ele>
        <time>2014-08-30T15:34:25Z</time>
      </trkpt>
      <trkpt lat="46.005900" lon="6.953533">
        <ele>1786.0</ele>
        <time>2014-08-30T15:34:26Z</time>
      </trkpt>
      <trkpt lat="46.005883" lon="6.953500">
        <ele>1784.0</ele>
        <time>2014-08-30T15:34:27Z</time>
      </trkpt>
      <trkpt lat="46.005833" lon="6.953450">
        <ele>1783.0</ele>
        <time>2014-08-30T15:34:28Z</time>
      </trkpt>
      <trkpt lat="46.005800" lon="6.953400">
        <ele>1782.0</ele>
        <time>2014-08-30T15:34:29Z</time>
      </trkpt>
      <trkpt lat="46.005767" lon="6.953367">
        <ele>1781.0</ele>
        <time>2014-08-30T15:34:30Z</time>
      </trkpt>
      <trkpt lat="46.005733" lon="6.953333">
        <ele>1780.0</ele>
        <time>2014-08-30T15:34:31Z</time>
      </trkpt>
      <trkpt lat="46.005717" lon="6.953283">
        <ele>1779.0</ele>
        <time>2014-08-30T15:34:32Z</time>
      </trkpt>
      <trkpt lat="46.005700" lon="6.953250">
        <ele>1777.0</ele>
        <time>2014-08-30T15:34:33Z</time>
      </trkpt>
      <trkpt lat="46.005683" lon="6.953200">
        <ele>1775.0</ele>
        <time>2014-08-30T15:34:34Z</time>
      </trkpt>
      <trkpt lat="46.005650" lon="6.953133">
        <ele>1773.0</ele>
        <time>2014-08-30T15:34:35Z</time>
      </trkpt>
      <trkpt lat="46.005633" lon="6.953083">
        <ele>1772.0</ele>
        <time>2014-08-30T15:34:36Z</time>
      </trkpt>
      <trkpt lat="46.005600" lon="6.953050">
        <ele>1771.0</ele>
        <time>2014-08-30T15:34:37Z</time>
      </trkpt>
      <trkpt lat="46.005583" lon="6.953000">
        <ele>1770.0</ele>
        <time>2014-08-30T15:34:38Z</time>
      </trkpt>
      <trkpt lat="46.005567" lon="6.952967">
        <ele>1768.0</ele>
        <time>2014-08-30T15:34:39Z</time>
      </trkpt>
      <trkpt lat="46.005550" lon="6.952917">
        <ele>1767.0</ele>
        <time>2014-08-30T15:34:40Z</time>
      </trkpt>
      <trkpt lat="46.005517" lon="6.952883">
        <ele>1765.0</ele>
        <time>2014-08-30T15:34:41Z</time>
      </trkpt>
      <trkpt lat="46.005500" lon="6.952850">
        <ele>1764.0</ele>
        <time>2014-08-30T15:34:42Z</time>
      </trkpt>
      <trkpt lat="46.005483" lon="6.952800">
        <ele>1763.0</ele>
        <time>2014-08-30T15:34:43Z</time>
      </trkpt>
      <trkpt lat="46.005467" lon="6.952750">
        <ele>1762.0</ele>
        <time>2014-08-30T15:34:44Z</time>
      </trkpt>
      <trkpt lat="46.005467" lon="6.952683">
        <ele>1762.0</ele>
        <time>2014-08-30T15:34:45Z</time>
      </trkpt>
      <trkpt lat="46.005467" lon="6.952633">
        <ele>1761.0</ele>
        <time>2014-08-30T15:34:46Z</time>
      </trkpt>
      <trkpt lat="46.005450" lon="6.952583">
        <ele>1761.0</ele>
        <time>2014-08-30T15:34:47Z</time>
      </trkpt>
      <trkpt lat="46.005417" lon="6.952550">
        <ele>1761.0</ele>
        <time>2014-08-30T15:34:48Z</time>
      </trkpt>
      <trkpt lat="46.005400" lon="6.952517">
        <ele>1761.0</ele>
        <time>2014-08-30T15:34:49Z</time>
      </trkpt>
      <trkpt lat="46.005383" lon="6.952483">
        <ele>1760.0</ele>
        <time>2014-08-30T15:34:50Z</time>
      </trkpt>
      <trkpt lat="46.005383" lon="6.952450">
        <ele>1760.0</ele>
        <time>2014-08-30T15:34:51Z</time>
      </trkpt>
      <trkpt lat="46.005350" lon="6.952417">
        <ele>1760.0</ele>
        <time>2014-08-30T15:34:52Z</time>
      </trkpt>
      <trkpt lat="46.005317" lon="6.952383">
        <ele>1761.0</ele>
        <time>2014-08-30T15:34:53Z</time>
      </trkpt>
      <trkpt lat="46.005300" lon="6.952367">
        <ele>1762.0</ele>
        <time>2014-08-30T15:34:54Z</time>
      </trkpt>
      <trkpt lat="46.005283" lon="6.952350">
        <ele>1764.0</ele>
        <time>2014-08-30T15:34:55Z</time>
      </trkpt>
      <trkpt lat="46.005250" lon="6.952333">
        <ele>1765.0</ele>
        <time>2014-08-30T15:34:56Z</time>
      </trkpt>
      <trkpt lat="46.005233" lon="6.952300">
        <ele>1765.0</ele>
        <time>2014-08-30T15:34:57Z</time>
      </trkpt>
      <trkpt lat="46.005200" lon="6.952267">
        <ele>1766.0</ele>
        <time>2014-08-30T15:34:58Z</time>
      </trkpt>
      <trkpt lat="46.005183" lon="6.952200">
        <ele>1766.0</ele>
        <time>2014-08-30T15:34:59Z</time>
      </trkpt>
      <trkpt lat="46.005183" lon="6.952100">
        <ele>1769.0</ele>
        <time>2014-08-30T15:35:00Z</time>
      </trkpt>
      <trkpt lat="46.005200" lon="6.952050">
        <ele>1772.0</ele>
        <time>2014-08-30T15:35:01Z</time>
      </trkpt>
      <trkpt lat="46.005167" lon="6.952033">
        <ele>1773.0</ele>
        <time>2014-08-30T15:35:02Z</time>
      </trkpt>
      <trkpt lat="46.005117" lon="6.952033">
        <ele>1772.0</ele>
        <time>2014-08-30T15:35:03Z</time>
      </trkpt>
      <trkpt lat="46.005067" lon="6.952017">
        <ele>1772.0</ele>
        <time>2014-08-30T15:35:04Z</time>
      </trkpt>
      <trkpt lat="46.005033" lon="6.951983">
        <ele>1772.0</ele>
        <time>2014-08-30T15:35:05Z</time>
      </trkpt>
      <trkpt lat="46.005033" lon="6.951883">
        <ele>1772.0</ele>
        <time>2014-08-30T15:35:06Z</time>
      </trkpt>
      <trkpt lat="46.005067" lon="6.951800">
        <ele>1773.0</ele>
        <time>2014-08-30T15:35:07Z</time>
      </trkpt>
      <trkpt lat="46.005067" lon="6.951750">
        <ele>1774.0</ele>
        <time>2014-08-30T15:35:08Z</time>
      </trkpt>
      <trkpt lat="46.005033" lon="6.951733">
        <ele>1772.0</ele>
        <time>2014-08-30T15:35:09Z</time>
      </trkpt>
      <trkpt lat="46.004983" lon="6.951733">
        <ele>1769.0</ele>
        <time>2014-08-30T15:35:10Z</time>
      </trkpt>
      <trkpt lat="46.004933" lon="6.951733">
        <ele>1768.0</ele>
        <time>2014-08-30T15:35:11Z</time>
      </trkpt>
      <trkpt lat="46.004900" lon="6.951667">
        <ele>1768.0</ele>
        <time>2014-08-30T15:35:12Z</time>
      </trkpt>
      <trkpt lat="46.004933" lon="6.951567">
        <ele>1764.0</ele>
        <time>2014-08-30T15:35:13Z</time>
      </trkpt>
      <trkpt lat="46.004983" lon="6.951450">
        <ele>1763.0</ele>
        <time>2014-08-30T15:35:14Z</time>
      </trkpt>
      <trkpt lat="46.005017" lon="6.951350">
        <ele>1765.0</ele>
        <time>2014-08-30T15:35:15Z</time>
      </trkpt>
      <trkpt lat="46.005000" lon="6.951283">
        <ele>1764.0</ele>
        <time>2014-08-30T15:35:16Z</time>
      </trkpt>
      <trkpt lat="46.004950" lon="6.951283">
        <ele>1760.0</ele>
        <time>2014-08-30T15:35:17Z</time>
      </trkpt>
      <trkpt lat="46.004883" lon="6.951283">
        <ele>1758.0</ele>
        <time>2014-08-30T15:35:18Z</time>
      </trkpt>
      <trkpt lat="46.004850" lon="6.951217">
        <ele>1758.0</ele>
        <time>2014-08-30T15:35:19Z</time>
      </trkpt>
      <trkpt lat="46.004867" lon="6.951100">
        <ele>1755.0</ele>
        <time>2014-08-30T15:35:20Z</time>
      </trkpt>
      <trkpt lat="46.004933" lon="6.950983">
        <ele>1754.0</ele>
        <time>2014-08-30T15:35:21Z</time>
      </trkpt>
      <trkpt lat="46.004967" lon="6.950883">
        <ele>1754.0</ele>
        <time>2014-08-30T15:35:22Z</time>
      </trkpt>
      <trkpt lat="46.004933" lon="6.950833">
        <ele>1751.0</ele>
        <time>2014-08-30T15:35:23Z</time>
      </trkpt>
      <trkpt lat="46.004867" lon="6.950833">
        <ele>1744.0</ele>
        <time>2014-08-30T15:35:24Z</time>
      </trkpt>
      <trkpt lat="46.004800" lon="6.950833">
        <ele>1744.0</ele>
        <time>2014-08-30T15:35:25Z</time>
      </trkpt>
      <trkpt lat="46.004783" lon="6.950767">
        <ele>1743.0</ele>
        <time>2014-08-30T15:35:26Z</time>
      </trkpt>
      <trkpt lat="46.004783" lon="6.950633">
        <ele>1739.0</ele>
        <time>2014-08-30T15:35:27Z</time>
      </trkpt>
      <trkpt lat="46.004867" lon="6.950500">
        <ele>1736.0</ele>
        <time>2014-08-30T15:35:28Z</time>
      </trkpt>
      <trkpt lat="46.004883" lon="6.950400">
        <ele>1737.0</ele>
        <time>2014-08-30T15:35:29Z</time>
      </trkpt>
      <trkpt lat="46.004833" lon="6.950350">
        <ele>1732.0</ele>
        <time>2014-08-30T15:35:30Z</time>
      </trkpt>
      <trkpt lat="46.004733" lon="6.950433">
        <ele>1727.0</ele>
        <time>2014-08-30T15:35:31Z</time>
      </trkpt>
      <trkpt lat="46.004650" lon="6.950550">
        <ele>1727.0</ele>
        <time>2014-08-30T15:35:32Z</time>
      </trkpt>
      <trkpt lat="46.004600" lon="6.950600">
        <ele>1734.0</ele>
        <time>2014-08-30T15:35:33Z</time>
      </trkpt>
      <trkpt lat="46.004567" lon="6.950583">
        <ele>1734.0</ele>
        <time>2014-08-30T15:35:34Z</time>
      </trkpt>
      <trkpt lat="46.004583" lon="6.950517">
        <ele>1731.0</ele>
        <time>2014-08-30T15:35:35Z</time>
      </trkpt>
      <trkpt lat="46.004583" lon="6.950483">
        <ele>1729.0</ele>
        <time>2014-08-30T15:35:36Z</time>
      </trkpt>
      <trkpt lat="46.004550" lon="6.950483">
        <ele>1726.0</ele>
        <time>2014-08-30T15:35:37Z</time>
      </trkpt>
      <trkpt lat="46.004483" lon="6.950533">
        <ele>1722.0</ele>
        <time>2014-08-30T15:35:38Z</time>
      </trkpt>
      <trkpt lat="46.004433" lon="6.950600">
        <ele>1720.0</ele>
        <time>2014-08-30T15:35:39Z</time>
      </trkpt>
      <trkpt lat="46.004400" lon="6.950633">
        <ele>1720.0</ele>
        <time>2014-08-30T15:35:40Z</time>
      </trkpt>
      <trkpt lat="46.004367" lon="6.950633">
        <ele>1719.0</ele>
        <time>2014-08-30T15:35:41Z</time>
      </trkpt>
      <trkpt lat="46.004350" lon="6.950633">
        <ele>1718.0</ele>
        <time>2014-08-30T15:35:42Z</time>
      </trkpt>
      <trkpt lat="46.004317" lon="6.950633">
        <ele>1716.0</ele>
        <time>2014-08-30T15:35:43Z</time>
      </trkpt>
      <trkpt lat="46.004283" lon="6.950650">
        <ele>1714.0</ele>
        <time>2014-08-30T15:35:44Z</time>
      </trkpt>
      <trkpt lat="46.004250" lon="6.950633">
        <ele>1713.0</ele>
        <time>2014-08-30T15:35:45Z</time>
      </trkpt>
      <trkpt lat="46.004217" lon="6.950617">
        <ele>1711.0</ele>
        <time>2014-08-30T15:35:46Z</time>
      </trkpt>
      <trkpt lat="46.004183" lon="6.950583">
        <ele>1710.0</ele>
        <time>2014-08-30T15:35:47Z</time>
      </trkpt>
      <trkpt lat="46.004150" lon="6.950567">
        <ele>1709.0</ele>
        <time>2014-08-30T15:35:48Z</time>
      </trkpt>
      <trkpt lat="46.004117" lon="6.950583">
        <ele>1708.0</ele>
        <time>2014-08-30T15:35:49Z</time>
      </trkpt>
      <trkpt lat="46.004067" lon="6.950600">
        <ele>1708.0</ele>
        <time>2014-08-30T15:35:50Z</time>
      </trkpt>
      <trkpt lat="46.004033" lon="6.950617">
        <ele>1707.0</ele>
        <time>2014-08-30T15:35:51Z</time>
      </trkpt>
      <trkpt lat="46.004000" lon="6.950633">
        <ele>1706.0</ele>
        <time>2014-08-30T15:35:52Z</time>
      </trkpt>
      <trkpt lat="46.003950" lon="6.950633">
        <ele>1705.0</ele>
        <time>2014-08-30T15:35:53Z</time>
      </trkpt>
      <trkpt lat="46.003917" lon="6.950633">
        <ele>1704.0</ele>
        <time>2014-08-30T15:35:54Z</time>
      </trkpt>
      <trkpt lat="46.003867" lon="6.950650">
        <ele>1704.0</ele>
        <time>2014-08-30T15:35:55Z</time>
      </trkpt>
      <trkpt lat="46.003833" lon="6.950650">
        <ele>1704.0</ele>
        <time>2014-08-30T15:35:56Z</time>
      </trkpt>
      <trkpt lat="46.003800" lon="6.950633">
        <ele>1703.0</ele>
        <time>2014-08-30T15:35:57Z</time>
      </trkpt>
      <trkpt lat="46.003767" lon="6.950617">
        <ele>1703.0</ele>
        <time>2014-08-30T15:35:58Z</time>
      </trkpt>
      <trkpt lat="46.003750" lon="6.950583">
        <ele>1702.0</ele>
        <time>2014-08-30T15:35:59Z</time>
      </trkpt>
      <trkpt lat="46.003717" lon="6.950550">
        <ele>1701.0</ele>
        <time>2014-08-30T15:36:00Z</time>
      </trkpt>
      <trkpt lat="46.003700" lon="6.950517">
        <ele>1701.0</ele>
        <time>2014-08-30T15:36:01Z</time>
      </trkpt>
      <trkpt lat="46.003667" lon="6.950467">
        <ele>1700.0</ele>
        <time>2014-08-30T15:36:02Z</time>
      </trkpt>
      <trkpt lat="46.003650" lon="6.950433">
        <ele>1699.0</ele>
        <time>2014-08-30T15:36:03Z</time>
      </trkpt>
      <trkpt lat="46.003633" lon="6.950383">
        <ele>1698.0</ele>
        <time>2014-08-30T15:36:04Z</time>
      </trkpt>
      <trkpt lat="46.003600" lon="6.950350">
        <ele>1697.0</ele>
        <time>2014-08-30T15:36:05Z</time>
      </trkpt>
      <trkpt lat="46.003567" lon="6.950317">
        <ele>1696.0</ele>
        <time>2014-08-30T15:36:06Z</time>
      </trkpt>
      <trkpt lat="46.003533" lon="6.950283">
        <ele>1695.0</ele>
        <time>2014-08-30T15:36:07Z</time>
      </trkpt>
      <trkpt lat="46.003500" lon="6.950250">
        <ele>1694.0</ele>
        <time>2014-08-30T15:36:08Z</time>
      </trkpt>
      <trkpt lat="46.003467" lon="6.950217">
        <ele>1692.0</ele>
        <time>2014-08-30T15:36:09Z</time>
      </trkpt>
      <trkpt lat="46.003433" lon="6.950183">
        <ele>1691.0</ele>
        <time>2014-08-30T15:36:10Z</time>
      </trkpt>
      <trkpt lat="46.003400" lon="6.950167">
        <ele>1690.0</ele>
        <time>2014-08-30T15:36:11Z</time>
      </trkpt>
      <trkpt lat="46.003367" lon="6.950167">
        <ele>1688.0</ele>
        <time>2014-08-30T15:36:12Z</time>
      </trkpt>
      <trkpt lat="46.003317" lon="6.950150">
        <ele>1687.0</ele>
        <time>2014-08-30T15:36:13Z</time>
      </trkpt>
      <trkpt lat="46.003283" lon="6.950133">
        <ele>1685.0</ele>
        <time>2014-08-30T15:36:14Z</time>
      </trkpt>
      <trkpt lat="46.003233" lon="6.950117">
        <ele>1684.0</ele>
        <time>2014-08-30T15:36:15Z</time>
      </trkpt>
      <trkpt lat="46.003183" lon="6.950100">
        <ele>1683.0</ele>
        <time>2014-08-30T15:36:16Z</time>
      </trkpt>
      <trkpt lat="46.003150" lon="6.950083">
        <ele>1682.0</ele>
        <time>2014-08-30T15:36:17Z</time>
      </trkpt>
      <trkpt lat="46.003117" lon="6.950050">
        <ele>1681.0</ele>
        <time>2014-08-30T15:36:18Z</time>
      </trkpt>
      <trkpt lat="46.003083" lon="6.950017">
        <ele>1679.0</ele>
        <time>2014-08-30T15:36:19Z</time>
      </trkpt>
      <trkpt lat="46.003050" lon="6.949967">
        <ele>1678.0</ele>
        <time>2014-08-30T15:36:20Z</time>
      </trkpt>
      <trkpt lat="46.003017" lon="6.949933">
        <ele>1676.0</ele>
        <time>2014-08-30T15:36:21Z</time>
      </trkpt>
      <trkpt lat="46.002983" lon="6.949900">
        <ele>1674.0</ele>
        <time>2014-08-30T15:36:22Z</time>
      </trkpt>
      <trkpt lat="46.002950" lon="6.949850">
        <ele>1672.0</ele>
        <time>2014-08-30T15:36:23Z</time>
      </trkpt>
      <trkpt lat="46.002917" lon="6.949800">
        <ele>1670.0</ele>
        <time>2014-08-30T15:36:24Z</time>
      </trkpt>
      <trkpt lat="46.002900" lon="6.949733">
        <ele>1668.0</ele>
        <time>2014-08-30T15:36:25Z</time>
      </trkpt>
      <trkpt lat="46.002883" lon="6.949683">
        <ele>1665.0</ele>
        <time>2014-08-30T15:36:26Z</time>
      </trkpt>
      <trkpt lat="46.002867" lon="6.949633">
        <ele>1662.0</ele>
        <time>2014-08-30T15:36:27Z</time>
      </trkpt>
      <trkpt lat="46.002850" lon="6.949567">
        <ele>1660.0</ele>
        <time>2014-08-30T15:36:28Z</time>
      </trkpt>
      <trkpt lat="46.002817" lon="6.949533">
        <ele>1658.0</ele>
        <time>2014-08-30T15:36:29Z</time>
      </trkpt>
      <trkpt lat="46.002800" lon="6.949483">
        <ele>1656.0</ele>
        <time>2014-08-30T15:36:30Z</time>
      </trkpt>
      <trkpt lat="46.002783" lon="6.949417">
        <ele>1655.0</ele>
        <time>2014-08-30T15:36:31Z</time>
      </trkpt>
      <trkpt lat="46.002817" lon="6.949367">
        <ele>1652.0</ele>
        <time>2014-08-30T15:36:32Z</time>
      </trkpt>
      <trkpt lat="46.002867" lon="6.949300">
        <ele>1649.0</ele>
        <time>2014-08-30T15:36:33Z</time>
      </trkpt>
      <trkpt lat="46.002933" lon="6.949217">
        <ele>1647.0</ele>
        <time>2014-08-30T15:36:34Z</time>
      </trkpt>
      <trkpt lat="46.003050" lon="6.949183">
        <ele>1645.0</ele>
        <time>2014-08-30T15:36:35Z</time>
      </trkpt>
      <trkpt lat="46.003183" lon="6.949217">
        <ele>1643.0</ele>
        <time>2014-08-30T15:36:36Z</time>
      </trkpt>
      <trkpt lat="46.003300" lon="6.949300">
        <ele>1640.0</ele>
        <time>2014-08-30T15:36:37Z</time>
      </trkpt>
      <trkpt lat="46.003383" lon="6.949450">
        <ele>1637.0</ele>
        <time>2014-08-30T15:36:38Z</time>
      </trkpt>
      <trkpt lat="46.003433" lon="6.949633">
        <ele>1633.0</ele>
        <time>2014-08-30T15:36:39Z</time>
      </trkpt>
      <trkpt lat="46.003417" lon="6.949817">
        <ele>1629.0</ele>
        <time>2014-08-30T15:36:40Z</time>
      </trkpt>
      <trkpt lat="46.003350" lon="6.949933">
        <ele>1625.0</ele>
        <time>2014-08-30T15:36:41Z</time>
      </trkpt>
      <trkpt lat="46.003267" lon="6.949917">
        <ele>1621.0</ele>
        <time>2014-08-30T15:36:42Z</time>
      </trkpt>
      <trkpt lat="46.003233" lon="6.949817">
        <ele>1617.0</ele>
        <time>2014-08-30T15:36:43Z</time>
      </trkpt>
      <trkpt lat="46.003283" lon="6.949683">
        <ele>1612.0</ele>
        <time>2014-08-30T15:36:44Z</time>
      </trkpt>
      <trkpt lat="46.003400" lon="6.949617">
        <ele>1610.0</ele>
        <time>2014-08-30T15:36:45Z</time>
      </trkpt>
      <trkpt lat="46.003517" lon="6.949617">
        <ele>1608.0</ele>
        <time>2014-08-30T15:36:46Z</time>
      </trkpt>
      <trkpt lat="46.003633" lon="6.949683">
        <ele>1606.0</ele>
        <time>2014-08-30T15:36:47Z</time>
      </trkpt>
      <trkpt lat="46.003733" lon="6.949783">
        <ele>1604.0</ele>
        <time>2014-08-30T15:36:48Z</time>
      </trkpt>
      <trkpt lat="46.003817" lon="6.949900">
        <ele>1602.0</ele>
        <time>2014-08-30T15:36:49Z</time>
      </trkpt>
      <trkpt lat="46.003883" lon="6.950033">
        <ele>1600.0</ele>
        <time>2014-08-30T15:36:50Z</time>
      </trkpt>
      <trkpt lat="46.003950" lon="6.950167">
        <ele>1598.0</ele>
        <time>2014-08-30T15:36:51Z</time>
      </trkpt>
      <trkpt lat="46.003983" lon="6.950300">
        <ele>1595.0</ele>
        <time>2014-08-30T15:36:52Z</time>
      </trkpt>
      <trkpt lat="46.004000" lon="6.950450">
        <ele>1592.0</ele>
        <time>2014-08-30T15:36:53Z</time>
      </trkpt>
      <trkpt lat="46.004000" lon="6.950583">
        <ele>1589.0</ele>
        <time>2014-08-30T15:36:54Z</time>
      </trkpt>
      <trkpt lat="46.003967" lon="6.950717">
        <ele>1587.0</ele>
        <time>2014-08-30T15:36:55Z</time>
      </trkpt>
      <trkpt lat="46.003917" lon="6.950817">
        <ele>1585.0</ele>
        <time>2014-08-30T15:36:56Z</time>
      </trkpt>
      <trkpt lat="46.003850" lon="6.950883">
        <ele>1583.0</ele>
        <time>2014-08-30T15:36:57Z</time>
      </trkpt>
      <trkpt lat="46.003800" lon="6.950950">
        <ele>1581.0</ele>
        <time>2014-08-30T15:36:58Z</time>
      </trkpt>
      <trkpt lat="46.003750" lon="6.950983">
        <ele>1580.0</ele>
        <time>2014-08-30T15:36:59Z</time>
      </trkpt>
      <trkpt lat="46.003683" lon="6.951017">
        <ele>1578.0</ele>
        <time>2014-08-30T15:37:00Z</time>
      </trkpt>
      <trkpt lat="46.003617" lon="6.951033">
        <ele>1576.0</ele>
        <time>2014-08-30T15:37:01Z</time>
      </trkpt>
      <trkpt lat="46.003567" lon="6.951033">
        <ele>1574.0</ele>
        <time>2014-08-30T15:37:02Z</time>
      </trkpt>
      <trkpt lat="46.003500" lon="6.951033">
        <ele>1573.0</ele>
        <time>2014-08-30T15:37:03Z</time>
      </trkpt>
      <trkpt lat="46.003450" lon="6.951000">
        <ele>1572.0</ele>
        <time>2014-08-30T15:37:04Z</time>
      </trkpt>
      <trkpt lat="46.003417" lon="6.950983">
        <ele>1571.0</ele>
        <time>2014-08-30T15:37:05Z</time>
      </trkpt>
      <trkpt lat="46.003367" lon="6.950967">
        <ele>1569.0</ele>
        <time>2014-08-30T15:37:06Z</time>
      </trkpt>
      <trkpt lat="46.003317" lon="6.950933">
        <ele>1567.0</ele>
        <time>2014-08-30T15:37:07Z</time>
      </trkpt>
      <trkpt lat="46.003267" lon="6.950900">
        <ele>1564.0</ele>
        <time>2014-08-30T15:37:08Z</time>
      </trkpt>
      <trkpt lat="46.003233" lon="6.950850">
        <ele>1562.0</ele>
        <time>2014-08-30T15:37:09Z</time>
      </trkpt>
      <trkpt lat="46.003200" lon="6.950800">
        <ele>1561.0</ele>
        <time>2014-08-30T15:37:10Z</time>
      </trkpt>
      <trkpt lat="46.003167" lon="6.950750">
        <ele>1559.0</ele>
        <time>2014-08-30T15:37:11Z</time>
      </trkpt>
      <trkpt lat="46.003133" lon="6.950717">
        <ele>1557.0</ele>
        <time>2014-08-30T15:37:12Z</time>
      </trkpt>
      <trkpt lat="46.003100" lon="6.950667">
        <ele>1555.0</ele>
        <time>2014-08-30T15:37:13Z</time>
      </trkpt>
      <trkpt lat="46.003083" lon="6.950600">
        <ele>1553.0</ele>
        <time>2014-08-30T15:37:14Z</time>
      </trkpt>
      <trkpt lat="46.003033" lon="6.950567">
        <ele>1552.0</ele>
        <time>2014-08-30T15:37:15Z</time>
      </trkpt>
      <trkpt lat="46.002967" lon="6.950550">
        <ele>1550.0</ele>
        <time>2014-08-30T15:37:16Z</time>
      </trkpt>
      <trkpt lat="46.002917" lon="6.950550">
        <ele>1548.0</ele>
        <time>2014-08-30T15:37:17Z</time>
      </trkpt>
      <trkpt lat="46.002850" lon="6.950583">
        <ele>1546.0</ele>
        <time>2014-08-30T15:37:18Z</time>
      </trkpt>
      <trkpt lat="46.002817" lon="6.950617">
        <ele>1544.0</ele>
        <time>2014-08-30T15:37:19Z</time>
      </trkpt>
      <trkpt lat="46.002767" lon="6.950667">
        <ele>1542.0</ele>
        <time>2014-08-30T15:37:20Z</time>
      </trkpt>
      <trkpt lat="46.002717" lon="6.950667">
        <ele>1539.0</ele>
        <time>2014-08-30T15:37:21Z</time>
      </trkpt>
      <trkpt lat="46.002650" lon="6.950633">
        <ele>1534.0</ele>
        <time>2014-08-30T15:37:22Z</time>
      </trkpt>
      <trkpt lat="46.002600" lon="6.950550">
        <ele>1530.0</ele>
        <time>2014-08-30T15:37:23Z</time>
      </trkpt>
      <trkpt lat="46.002567" lon="6.950450">
        <ele>1529.0</ele>
        <time>2014-08-30T15:37:24Z</time>
      </trkpt>
      <trkpt lat="46.002533" lon="6.950367">
        <ele>1528.0</ele>
        <time>2014-08-30T15:37:25Z</time>
      </trkpt>
      <trkpt lat="46.002483" lon="6.950333">
        <ele>1527.0</ele>
        <time>2014-08-30T15:37:26Z</time>
      </trkpt>
      <trkpt lat="46.002450" lon="6.950283">
        <ele>1524.0</ele>
        <time>2014-08-30T15:37:27Z</time>
      </trkpt>
      <trkpt lat="46.002400" lon="6.950217">
        <ele>1520.0</ele>
        <time>2014-08-30T15:37:28Z</time>
      </trkpt>
      <trkpt lat="46.002333" lon="6.950100">
        <ele>1516.0</ele>
        <time>2014-08-30T15:37:29Z</time>
      </trkpt>
      <trkpt lat="46.002267" lon="6.949983">
        <ele>1511.0</ele>
        <time>2014-08-30T15:37:30Z</time>
      </trkpt>
      <trkpt lat="46.002200" lon="6.949833">
        <ele>1508.0</ele>
        <time>2014-08-30T15:37:31Z</time>
      </trkpt>
      <trkpt lat="46.002133" lon="6.949717">
        <ele>1508.0</ele>
        <time>2014-08-30T15:37:32Z</time>
      </trkpt>
      <trkpt lat="46.002083" lon="6.949600">
        <ele>1507.0</ele>
        <time>2014-08-30T15:37:33Z</time>
      </trkpt>
      <trkpt lat="46.002033" lon="6.949483">
        <ele>1506.0</ele>
        <time>2014-08-30T15:37:34Z</time>
      </trkpt>
      <trkpt lat="46.002000" lon="6.949350">
        <ele>1504.0</ele>
        <time>2014-08-30T15:37:35Z</time>
      </trkpt>
      <trkpt lat="46.001950" lon="6.949217">
        <ele>1502.0</ele>
        <time>2014-08-30T15:37:36Z</time>
      </trkpt>
      <trkpt lat="46.001933" lon="6.949100">
        <ele>1501.0</ele>
        <time>2014-08-30T15:37:37Z</time>
      </trkpt>
      <trkpt lat="46.001900" lon="6.948983">
        <ele>1500.0</ele>
        <time>2014-08-30T15:37:38Z</time>
      </trkpt>
      <trkpt lat="46.001900" lon="6.948867">
        <ele>1499.0</ele>
        <time>2014-08-30T15:37:39Z</time>
      </trkpt>
      <trkpt lat="46.001883" lon="6.948750">
        <ele>1498.0</ele>
        <time>2014-08-30T15:37:40Z</time>
      </trkpt>
      <trkpt lat="46.001867" lon="6.948650">
        <ele>1497.0</ele>
        <time>2014-08-30T15:37:41Z</time>
      </trkpt>
      <trkpt lat="46.001833" lon="6.948550">
        <ele>1495.0</ele>
        <time>2014-08-30T15:37:42Z</time>
      </trkpt>
      <trkpt lat="46.001817" lon="6.948450">
        <ele>1494.0</ele>
        <time>2014-08-30T15:37:43Z</time>
      </trkpt>
      <trkpt lat="46.001800" lon="6.948367">
        <ele>1493.0</ele>
        <time>2014-08-30T15:37:44Z</time>
      </trkpt>
      <trkpt lat="46.001850" lon="6.948267">
        <ele>1491.0</ele>
        <time>2014-08-30T15:37:45Z</time>
      </trkpt>
      <trkpt lat="46.001883" lon="6.948217">
        <ele>1490.0</ele>
        <time>2014-08-30T15:37:46Z</time>
      </trkpt>
      <trkpt lat="46.001900" lon="6.948200">
        <ele>1489.0</ele>
        <time>2014-08-30T15:37:47Z</time>
      </trkpt>
      <trkpt lat="46.001900" lon="6.948200">
        <ele>1489.0</ele>
        <time>2014-08-30T15:37:48Z</time>
      </trkpt>
      <trkpt lat="46.001900" lon="6.948200">
        <ele>1489.0</ele>
        <time>2014-08-30T15:37:49Z</time>
      </trkpt>
      <trkpt lat="46.001900" lon="6.948200">
        <ele>1489.0</ele>
        <time>2014-08-30T15:37:50Z</time>
      </trkpt>
      <trkpt lat="46.001917" lon="6.948200">
        <ele>1488.0</ele>
        <time>2014-08-30T15:37:51Z</time>
      </trkpt>
      <trkpt lat="46.001917" lon="6.948200">
        <ele>1489.0</ele>
        <time>2014-08-30T15:37:52Z</time>
      </trkpt>
      <trkpt lat="46.001917" lon="6.948200">
        <ele>1489.0</ele>
        <time>2014-08-30T15:37:53Z</time>
      </trkpt>
      <trkpt lat="46.001917" lon="6.948200">
        <ele>1489.0</ele>
        <time>2014-08-30T15:37:54Z</time>
      </trkpt>
      <trkpt lat="46.001933" lon="6.948200">
        <ele>1490.0</ele>
        <time>2014-08-30T15:37:55Z</time>
      </trkpt>
      <trkpt lat="46.001933" lon="6.948200">
        <ele>1490.0</ele>
        <time>2014-08-30T15:37:56Z</time>
      </trkpt>
      <trkpt lat="46.001933" lon="6.948200">
        <ele>1490.0</ele>
        <time>2014-08-30T15:37:57Z</time>
      </trkpt>
      <trkpt lat="46.001933" lon="6.948200">
        <ele>1490.0</ele>
        <time>2014-08-30T15:37:58Z</time>
      </trkpt>
      <trkpt lat="46.001933" lon="6.948200">
        <ele>1490.0</ele>
        <time>2014-08-30T15:37:59Z</time>
      </trkpt>
      <trkpt lat="46.001933" lon="6.948200">
        <ele>1490.0</ele>
        <time>2014-08-30T15:38:00Z</time>
      </trkpt>
      <trkpt lat="46.001933" lon="6.948200">
        <ele>1490.0</ele>
        <time>2014-08-30T15:38:01Z</time>
      </trkpt>
      <trkpt lat="46.001933" lon="6.948200">
        <ele>1490.0</ele>
        <time>2014-08-30T15:38:02Z</time>
      </trkpt>
      <trkpt lat="46.001933" lon="6.948200">
        <ele>1490.0</ele>
        <time>2014-08-30T15:38:03Z</time>
      </trkpt>
      <trkpt lat="46.001933" lon="6.948200">
        <ele>1490.0</ele>
        <time>2014-08-30T15:38:04Z</time>
      </trkpt>
      <trkpt lat="46.001933" lon="6.948200">
        <ele>1490.0</ele>
        <time>2014-08-30T15:38:05Z</time>
      </trkpt>
      <trkpt lat="46.001933" lon="6.948200">
        <ele>1490.0</ele>
        <time>2014-08-30T15:38:06Z</time>
      </trkpt>
      <trkpt lat="46.001933" lon="6.948200">
        <ele>1490.0</ele>
        <time>2014-08-30T15:38:07Z</time>
      </trkpt>
      <trkpt lat="46.001933" lon="6.948200">
        <ele>1490.0</ele>
        <time>2014-08-30T15:38:08Z</time>
      </trkpt>
      <trkpt lat="46.001933" lon="6.948200">
        <ele>1490.0</ele>
        <time>2014-08-30T15:38:09Z</time>
      </trkpt>
      <trkpt lat="46.001933" lon="6.948200">
        <ele>1490.0</ele>
        <time>2014-08-30T15:38:10Z</time>
      </trkpt>
      <trkpt lat="46.001950" lon="6.948200">
        <ele>1490.0</ele>
        <time>2014-08-30T15:38:11Z</time>
      </trkpt>
      <trkpt lat="46.001950" lon="6.948183">
        <ele>1490.0</ele>
        <time>2014-08-30T15:38:12Z</time>
      </trkpt>
      <trkpt lat="46.001950" lon="6.948200">
        <ele>1491.0</ele>
        <time>2014-08-30T15:38:13Z</time>
      </trkpt>
      <trkpt lat="46.001950" lon="6.948200">
        <ele>1490.0</ele>
        <time>2014-08-30T15:38:14Z</time>
      </trkpt>
      <trkpt lat="46.001933" lon="6.948200">
        <ele>1490.0</ele>
        <time>2014-08-30T15:38:15Z</time>
      </trkpt>
      <trkpt lat="46.001933" lon="6.948200">
        <ele>1490.0</ele>
        <time>2014-08-30T15:38:16Z</time>
      </trkpt>
      <trkpt lat="46.001933" lon="6.948200">
        <ele>1490.0</ele>
        <time>2014-08-30T15:38:17Z</time>
      </trkpt>
      <trkpt lat="46.001933" lon="6.948200">
        <ele>1489.0</ele>
        <time>2014-08-30T15:38:18Z</time>
      </trkpt>
      <trkpt lat="46.001933" lon="6.948200">
        <ele>1489.0</ele>
        <time>2014-08-30T15:38:19Z</time>
      </trkpt>
      <trkpt lat="46.001933" lon="6.948200">
        <ele>1489.0</ele>
        <time>2014-08-30T15:38:20Z</time>
      </trkpt>
      <trkpt lat="46.001933" lon="6.948200">
        <ele>1489.0</ele>
        <time>2014-08-30T15:38:21Z</time>
      </trkpt>
      <trkpt lat="46.001933" lon="6.948200">
        <ele>1489.0</ele>
        <time>2014-08-30T15:38:22Z</time>
      </trkpt>
      <trkpt lat="46.001933" lon="6.948200">
        <ele>1489.0</ele>
        <time>2014-08-30T15:38:23Z</time>
      </trkpt>
      <trkpt lat="46.001933" lon="6.948200">
        <ele>1489.0</ele>
        <time>2014-08-30T15:38:24Z</time>
      </trkpt>
      <trkpt lat="46.001933" lon="6.948183">
        <ele>1489.0</ele>
        <time>2014-08-30T15:38:25Z</time>
      </trkpt>
      <trkpt lat="46.001933" lon="6.948183">
        <ele>1490.0</ele>
        <time>2014-08-30T15:38:26Z</time>
      </trkpt>
      <trkpt lat="46.001933" lon="6.948183">
        <ele>1490.0</ele>
        <time>2014-08-30T15:38:27Z</time>
      </trkpt>
      <trkpt lat="46.001933" lon="6.948183">
        <ele>1490.0</ele>
        <time>2014-08-30T15:38:28Z</time>
      </trkpt>
      <trkpt lat="46.001933" lon="6.948183">
        <ele>1490.0</ele>
        <time>2014-08-30T15:38:29Z</time>
      </trkpt>
      <trkpt lat="46.001933" lon="6.948183">
        <ele>1490.0</ele>
        <time>2014-08-30T15:38:30Z</time>
      </trkpt>
      <trkpt lat="46.001933" lon="6.948183">
        <ele>1490.0</ele>
        <time>2014-08-30T15:38:31Z</time>
      </trkpt>
      <trkpt lat="46.001933" lon="6.948183">
        <ele>1490.0</ele>
        <time>2014-08-30T15:38:32Z</time>
      </trkpt>
      <trkpt lat="46.001933" lon="6.948183">
        <ele>1490.0</ele>
        <time>2014-08-30T15:38:33Z</time>
      </trkpt>
      <trkpt lat="46.001933" lon="6.948183">
        <ele>1490.0</ele>
        <time>2014-08-30T15:38:34Z</time>
      </trkpt>
      <trkpt lat="46.001933" lon="6.948183">
        <ele>1490.0</ele>
        <time>2014-08-30T15:38:35Z</time>
      </trkpt>
      <trkpt lat="46.001950" lon="6.948183">
        <ele>1490.0</ele>
        <time>2014-08-30T15:38:36Z</time>
      </trkpt>
      <trkpt lat="46.001950" lon="6.948183">
        <ele>1490.0</ele>
        <time>2014-08-30T15:38:37Z</time>
      </trkpt>
      <trkpt lat="46.001950" lon="6.948183">
        <ele>1490.0</ele>
        <time>2014-08-30T15:38:38Z</time>
      </trkpt>
      <trkpt lat="46.001950" lon="6.948183">
        <ele>1490.0</ele>
        <time>2014-08-30T15:38:39Z</time>
      </trkpt>
      <trkpt lat="46.001933" lon="6.948183">
        <ele>1490.0</ele>
        <time>2014-08-30T15:38:40Z</time>
      </trkpt>
      <trkpt lat="46.001933" lon="6.948183">
        <ele>1490.0</ele>
        <time>2014-08-30T15:38:41Z</time>
      </trkpt>
      <trkpt lat="46.001933" lon="6.948183">
        <ele>1490.0</ele>
        <time>2014-08-30T15:38:42Z</time>
      </trkpt>
      <trkpt lat="46.001950" lon="6.948183">
        <ele>1491.0</ele>
        <time>2014-08-30T15:38:43Z</time>
      </trkpt>
      <trkpt lat="46.001950" lon="6.948183">
        <ele>1491.0</ele>
        <time>2014-08-30T15:38:44Z</time>
      </trkpt>
      <trkpt lat="46.001967" lon="6.948167">
        <ele>1491.0</ele>
        <time>2014-08-30T15:38:45Z</time>
      </trkpt>
      <trkpt lat="46.001967" lon="6.948167">
        <ele>1491.0</ele>
        <time>2014-08-30T15:38:46Z</time>
      </trkpt>
      <trkpt lat="46.001967" lon="6.948167">
        <ele>1491.0</ele>
        <time>2014-08-30T15:38:47Z</time>
      </trkpt>
      <trkpt lat="46.001967" lon="6.948183">
        <ele>1491.0</ele>
        <time>2014-08-30T15:38:48Z</time>
      </trkpt>
      <trkpt lat="46.001950" lon="6.948183">
        <ele>1491.0</ele>
        <time>2014-08-30T15:38:49Z</time>
      </trkpt>
      <trkpt lat="46.001950" lon="6.948200">
        <ele>1491.0</ele>
        <time>2014-08-30T15:38:50Z</time>
      </trkpt>
      <trkpt lat="46.001950" lon="6.948200">
        <ele>1491.0</ele>
        <time>2014-08-30T15:38:51Z</time>
      </trkpt>
      <trkpt lat="46.001967" lon="6.948217">
        <ele>1491.0</ele>
        <time>2014-08-30T15:38:52Z</time>
      </trkpt>
      <trkpt lat="46.001967" lon="6.948233">
        <ele>1491.0</ele>
        <time>2014-08-30T15:38:53Z</time>
      </trkpt>
      <trkpt lat="46.001967" lon="6.948233">
        <ele>1491.0</ele>
        <time>2014-08-30T15:38:54Z</time>
      </trkpt>
      <trkpt lat="46.001967" lon="6.948250">
        <ele>1491.0</ele>
        <time>2014-08-30T15:38:55Z</time>
      </trkpt>
      <trkpt lat="46.001967" lon="6.948250">
        <ele>1491.0</ele>
        <time>2014-08-30T15:38:56Z</time>
      </trkpt>
      <trkpt lat="46.001967" lon="6.948267">
        <ele>1491.0</ele>
        <time>2014-08-30T15:38:57Z</time>
      </trkpt>
      <trkpt lat="46.001983" lon="6.948267">
        <ele>1491.0</ele>
        <time>2014-08-30T15:38:58Z</time>
      </trkpt>
      <trkpt lat="46.001967" lon="6.948267">
        <ele>1491.0</ele>
        <time>2014-08-30T15:38:59Z</time>
      </trkpt>
      <trkpt lat="46.001967" lon="6.948250">
        <ele>1491.0</ele>
        <time>2014-08-30T15:39:00Z</time>
      </trkpt>
      <trkpt lat="46.001967" lon="6.948233">
        <ele>1491.0</ele>
        <time>2014-08-30T15:39:01Z</time>
      </trkpt>
      <trkpt lat="46.001967" lon="6.948217">
        <ele>1491.0</ele>
        <time>2014-08-30T15:39:02Z</time>
      </trkpt>
      <trkpt lat="46.001967" lon="6.948200">
        <ele>1491.0</ele>
        <time>2014-08-30T15:39:03Z</time>
      </trkpt>
      <trkpt lat="46.001967" lon="6.948200">
        <ele>1491.0</ele>
        <time>2014-08-30T15:39:04Z</time>
      </trkpt>
      <trkpt lat="46.001967" lon="6.948183">
        <ele>1491.0</ele>
        <time>2014-08-30T15:39:05Z</time>
      </trkpt>
      <trkpt lat="46.001967" lon="6.948200">
        <ele>1491.0</ele>
        <time>2014-08-30T15:39:06Z</time>
      </trkpt>
      <trkpt lat="46.001967" lon="6.948217">
        <ele>1491.0</ele>
        <time>2014-08-30T15:39:07Z</time>
      </trkpt>
      <trkpt lat="46.001967" lon="6.948217">
        <ele>1491.0</ele>
        <time>2014-08-30T15:39:08Z</time>
      </trkpt>
      <trkpt lat="46.001967" lon="6.948233">
        <ele>1491.0</ele>
        <time>2014-08-30T15:39:09Z</time>
      </trkpt>
      <trkpt lat="46.001967" lon="6.948250">
        <ele>1491.0</ele>
        <time>2014-08-30T15:39:10Z</time>
      </trkpt>
      <trkpt lat="46.001967" lon="6.948250">
        <ele>1491.0</ele>
        <time>2014-08-30T15:39:11Z</time>
      </trkpt>
      <trkpt lat="46.001983" lon="6.948250">
        <ele>1491.0</ele>
        <time>2014-08-30T15:39:12Z</time>
      </trkpt>
      <trkpt lat="46.001983" lon="6.948250">
        <ele>1491.0</ele>
        <time>2014-08-30T15:39:13Z</time>
      </trkpt>
      <trkpt lat="46.001983" lon="6.948250">
        <ele>1491.0</ele>
        <time>2014-08-30T15:39:14Z</time>
      </trkpt>
      <trkpt lat="46.002000" lon="6.948250">
        <ele>1491.0</ele>
        <time>2014-08-30T15:39:15Z</time>
      </trkpt>
      <trkpt lat="46.002000" lon="6.948267">
        <ele>1491.0</ele>
        <time>2014-08-30T15:39:16Z</time>
      </trkpt>
      <trkpt lat="46.002000" lon="6.948267">
        <ele>1491.0</ele>
        <time>2014-08-30T15:39:17Z</time>
      </trkpt>
      <trkpt lat="46.001983" lon="6.948267">
        <ele>1491.0</ele>
        <time>2014-08-30T15:39:18Z</time>
      </trkpt>
      <trkpt lat="46.001983" lon="6.948267">
        <ele>1492.0</ele>
        <time>2014-08-30T15:39:19Z</time>
      </trkpt>
      <trkpt lat="46.001983" lon="6.948250">
        <ele>1491.0</ele>
        <time>2014-08-30T15:39:20Z</time>
      </trkpt>
      <trkpt lat="46.001983" lon="6.948267">
        <ele>1491.0</ele>
        <time>2014-08-30T15:39:21Z</time>
      </trkpt>
      <trkpt lat="46.001983" lon="6.948283">
        <ele>1491.0</ele>
        <time>2014-08-30T15:39:22Z</time>
      </trkpt>
      <trkpt lat="46.001983" lon="6.948283">
        <ele>1491.0</ele>
        <time>2014-08-30T15:39:23Z</time>
      </trkpt>
      <trkpt lat="46.001967" lon="6.948283">
        <ele>1491.0</ele>
        <time>2014-08-30T15:39:24Z</time>
      </trkpt>
      <trkpt lat="46.001967" lon="6.948267">
        <ele>1491.0</ele>
        <time>2014-08-30T15:39:25Z</time>
      </trkpt>
      <trkpt lat="46.001967" lon="6.948250">
        <ele>1491.0</ele>
        <time>2014-08-30T15:39:26Z</time>
      </trkpt>
      <trkpt lat="46.001967" lon="6.948233">
        <ele>1491.0</ele>
        <time>2014-08-30T15:39:27Z</time>
      </trkpt>
      <trkpt lat="46.001967" lon="6.948217">
        <ele>1491.0</ele>
        <time>2014-08-30T15:39:28Z</time>
      </trkpt>
      <trkpt lat="46.001967" lon="6.948217">
        <ele>1491.0</ele>
        <time>2014-08-30T15:39:29Z</time>
      </trkpt>
      <trkpt lat="46.001967" lon="6.948217">
        <ele>1490.0</ele>
        <time>2014-08-30T15:39:30Z</time>
      </trkpt>
      <trkpt lat="46.001983" lon="6.948217">
        <ele>1490.0</ele>
        <time>2014-08-30T15:39:31Z</time>
      </trkpt>
      <trkpt lat="46.001983" lon="6.948200">
        <ele>1490.0</ele>
        <time>2014-08-30T15:39:32Z</time>
      </trkpt>
      <trkpt lat="46.002000" lon="6.948200">
        <ele>1490.0</ele>
        <time>2014-08-30T15:39:33Z</time>
      </trkpt>
      <trkpt lat="46.002000" lon="6.948200">
        <ele>1490.0</ele>
        <time>2014-08-30T15:39:34Z</time>
      </trkpt>
      <trkpt lat="46.002000" lon="6.948200">
        <ele>1490.0</ele>
        <time>2014-08-30T15:39:35Z</time>
      </trkpt>
      <trkpt lat="46.002017" lon="6.948217">
        <ele>1490.0</ele>
        <time>2014-08-30T15:39:36Z</time>
      </trkpt>
      <trkpt lat="46.002017" lon="6.948217">
        <ele>1490.0</ele>
        <time>2014-08-30T15:39:37Z</time>
      </trkpt>
      <trkpt lat="46.002000" lon="6.948217">
        <ele>1490.0</ele>
        <time>2014-08-30T15:39:38Z</time>
      </trkpt>
      <trkpt lat="46.002000" lon="6.948200">
        <ele>1490.0</ele>
        <time>2014-08-30T15:39:39Z</time>
      </trkpt>
      <trkpt lat="46.001983" lon="6.948217">
        <ele>1490.0</ele>
        <time>2014-08-30T15:39:40Z</time>
      </trkpt>
      <trkpt lat="46.001967" lon="6.948217">
        <ele>1490.0</ele>
        <time>2014-08-30T15:39:41Z</time>
      </trkpt>
      <trkpt lat="46.001967" lon="6.948233">
        <ele>1490.0</ele>
        <time>2014-08-30T15:39:42Z</time>
      </trkpt>
      <trkpt lat="46.001967" lon="6.948233">
        <ele>1490.0</ele>
        <time>2014-08-30T15:39:43Z</time>
      </trkpt>
      <trkpt lat="46.001950" lon="6.948217">
        <ele>1490.0</ele>
        <time>2014-08-30T15:39:44Z</time>
      </trkpt>
      <trkpt lat="46.001950" lon="6.948217">
        <ele>1490.0</ele>
        <time>2014-08-30T15:39:45Z</time>
      </trkpt>
      <trkpt lat="46.001950" lon="6.948217">
        <ele>1490.0</ele>
        <time>2014-08-30T15:39:46Z</time>
      </trkpt>
      <trkpt lat="46.001950" lon="6.948217">
        <ele>1490.0</ele>
        <time>2014-08-30T15:39:47Z</time>
      </trkpt>
      <trkpt lat="46.001950" lon="6.948217">
        <ele>1490.0</ele>
        <time>2014-08-30T15:39:48Z</time>
      </trkpt>
      <trkpt lat="46.001950" lon="6.948217">
        <ele>1490.0</ele>
        <time>2014-08-30T15:39:49Z</time>
      </trkpt>
      <trkpt lat="46.001950" lon="6.948217">
        <ele>1490.0</ele>
        <time>2014-08-30T15:39:50Z</time>
      </trkpt>
      <trkpt lat="46.001950" lon="6.948217">
        <ele>1491.0</ele>
        <time>2014-08-30T15:39:51Z</time>
      </trkpt>
      <trkpt lat="46.001950" lon="6.948217">
        <ele>1491.0</ele>
        <time>2014-08-30T15:39:52Z</time>
      </trkpt>
      <trkpt lat="46.001950" lon="6.948217">
        <ele>1491.0</ele>
        <time>2014-08-30T15:39:53Z</time>
      </trkpt>
      <trkpt lat="46.001950" lon="6.948217">
        <ele>1491.0</ele>
        <time>2014-08-30T15:39:54Z</time>
      </trkpt>
      <trkpt lat="46.001950" lon="6.948217">
        <ele>1491.0</ele>
        <time>2014-08-30T15:39:55Z</time>
      </trkpt>
      <trkpt lat="46.001950" lon="6.948217">
        <ele>1491.0</ele>
        <time>2014-08-30T15:39:56Z</time>
      </trkpt>
      <trkpt lat="46.001950" lon="6.948217">
        <ele>1491.0</ele>
        <time>2014-08-30T15:39:57Z</time>
      </trkpt>
      <trkpt lat="46.001967" lon="6.948217">
        <ele>1492.0</ele>
        <time>2014-08-30T15:39:58Z</time>
      </trkpt>
      <trkpt lat="46.001967" lon="6.948217">
        <ele>1492.0</ele>
        <time>2014-08-30T15:39:59Z</time>
      </trkpt>
      <trkpt lat="46.001967" lon="6.948217">
        <ele>1491.0</ele>
        <time>2014-08-30T15:40:00Z</time>
      </trkpt>
      <trkpt lat="46.001967" lon="6.948217">
        <ele>1491.0</ele>
        <time>2014-08-30T15:40:01Z</time>
      </trkpt>
      <trkpt lat="46.001967" lon="6.948217">
        <ele>1491.0</ele>
        <time>2014-08-30T15:40:02Z</time>
      </trkpt>
      <trkpt lat="46.001967" lon="6.948217">
        <ele>1490.0</ele>
        <time>2014-08-30T15:40:03Z</time>
      </trkpt>
      <trkpt lat="46.001967" lon="6.948217">
        <ele>1490.0</ele>
        <time>2014-08-30T15:40:04Z</time>
      </trkpt>
      <trkpt lat="46.001967" lon="6.948217">
        <ele>1490.0</ele>
        <time>2014-08-30T15:40:05Z</time>
      </trkpt>
      <trkpt lat="46.001967" lon="6.948217">
        <ele>1490.0</ele>
        <time>2014-08-30T15:40:06Z</time>
      </trkpt>
      <trkpt lat="46.001967" lon="6.948217">
        <ele>1490.0</ele>
        <time>2014-08-30T15:40:07Z</time>
      </trkpt>
      <trkpt lat="46.001967" lon="6.948217">
        <ele>1490.0</ele>
        <time>2014-08-30T15:40:08Z</time>
      </trkpt>
      <trkpt lat="46.001967" lon="6.948217">
        <ele>1490.0</ele>
        <time>2014-08-30T15:40:09Z</time>
      </trkpt>
      <trkpt lat="46.001967" lon="6.948217">
        <ele>1490.0</ele>
        <time>2014-08-30T15:40:10Z</time>
      </trkpt>
      <trkpt lat="46.001967" lon="6.948217">
        <ele>1490.0</ele>
        <time>2014-08-30T15:40:11Z</time>
      </trkpt>
      <trkpt lat="46.001967" lon="6.948217">
        <ele>1490.0</ele>
        <time>2014-08-30T15:40:12Z</time>
      </trkpt>
      <trkpt lat="46.001983" lon="6.948217">
        <ele>1491.0</ele>
        <time>2014-08-30T15:40:13Z</time>
      </trkpt>
      <trkpt lat="46.001983" lon="6.948217">
        <ele>1491.0</ele>
        <time>2014-08-30T15:40:14Z</time>
      </trkpt>
      <trkpt lat="46.001983" lon="6.948217">
        <ele>1491.0</ele>
        <time>2014-08-30T15:40:15Z</time>
      </trkpt>
      <trkpt lat="46.001983" lon="6.948217">
        <ele>1491.0</ele>
        <time>2014-08-30T15:40:16Z</time>
      </trkpt>
      <trkpt lat="46.001983" lon="6.948217">
        <ele>1490.0</ele>
        <time>2014-08-30T15:40:17Z</time>
      </trkpt>
      <trkpt lat="46.001983" lon="6.948217">
        <ele>1490.0</ele>
        <time>2014-08-30T15:40:18Z</time>
      </trkpt>
      <trkpt lat="46.001983" lon="6.948217">
        <ele>1490.0</ele>
        <time>2014-08-30T15:40:19Z</time>
      </trkpt>
      <trkpt lat="46.001983" lon="6.948217">
        <ele>1490.0</ele>
        <time>2014-08-30T15:40:20Z</time>
      </trkpt>
      <trkpt lat="46.001983" lon="6.948217">
        <ele>1490.0</ele>
        <time>2014-08-30T15:40:21Z</time>
      </trkpt>
      <trkpt lat="46.001983" lon="6.948217">
        <ele>1490.0</ele>
        <time>2014-08-30T15:40:22Z</time>
      </trkpt>
      <trkpt lat="46.001983" lon="6.948217">
        <ele>1490.0</ele>
        <time>2014-08-30T15:40:23Z</time>
      </trkpt>
      <trkpt lat="46.001967" lon="6.948217">
        <ele>1490.0</ele>
        <time>2014-08-30T15:40:24Z</time>
      </trkpt>
      <trkpt lat="46.001967" lon="6.948217">
        <ele>1490.0</ele>
        <time>2014-08-30T15:40:25Z</time>
      </trkpt>
      <trkpt lat="46.001967" lon="6.948217">
        <ele>1490.0</ele>
        <time>2014-08-30T15:40:26Z</time>
      </trkpt>
      <trkpt lat="46.001967" lon="6.948217">
        <ele>1490.0</ele>
        <time>2014-08-30T15:40:27Z</time>
      </trkpt>
      <trkpt lat="46.001967" lon="6.948217">
        <ele>1490.0</ele>
        <time>2014-08-30T15:40:28Z</time>
      </trkpt>
      <trkpt lat="46.001967" lon="6.948217">
        <ele>1490.0</ele>
        <time>2014-08-30T15:40:29Z</time>
      </trkpt>
      <trkpt lat="46.001967" lon="6.948217">
        <ele>1490.0</ele>
        <time>2014-08-30T15:40:30Z</time>
      </trkpt>
      <trkpt lat="46.001967" lon="6.948233">
        <ele>1490.0</ele>
        <time>2014-08-30T15:40:31Z</time>
      </trkpt>
      <trkpt lat="46.001967" lon="6.948233">
        <ele>1489.0</ele>
        <time>2014-08-30T15:40:32Z</time>
      </trkpt>
      <trkpt lat="46.001967" lon="6.948233">
        <ele>1489.0</ele>
        <time>2014-08-30T15:40:33Z</time>
      </trkpt>
      <trkpt lat="46.001950" lon="6.948233">
        <ele>1489.0</ele>
        <time>2014-08-30T15:40:34Z</time>
      </trkpt>
    </trkseg>
  </trk></gpx>